<?xml version='1.0' encoding='UTF-8'?><gpx version="1.1" creator="JPX - https://github.com/jenetics/jpx" xmlns="http://www.topografix.com/GPX/1/1"><trk><trkseg><trkpt lat="45.5953603" lon="12.3125625"><ele>3.9999999999999996</ele><time>2026-04-18T15:32:56.486Z</time></trkpt><trkpt lat="45.5954267" lon="12.3125469"><ele>4.0</ele><time>2026-04-18T15:33:04.487Z</time></trkpt><trkpt lat="45.5955004" lon="12.3125325"><ele>4.0</ele><time>2026-04-18T15:33:08.488Z</time></trkpt><trkpt lat="45.5954351" lon="12.3125614"><ele>4.0</ele><time>2026-04-18T15:33:53.499Z</time></trkpt><trkpt lat="45.5954764" lon="12.3124153"><ele>3.9999999999999996</ele><time>2026-04-18T15:38:18.505Z</time></trkpt><trkpt lat="45.595515" lon="12.3123403"><ele>4.0</ele><time>2026-04-18T15:38:20.491Z</time></trkpt><trkpt lat="45.5955695" lon="12.3122456"><ele>3.9999999999999996</ele><time>2026-04-18T15:38:23.509Z</time></trkpt><trkpt lat="45.5956166" lon="12.3121702"><ele>4.0</ele><time>2026-04-18T15:38:26.502Z</time></trkpt><trkpt lat="45.5956806" lon="12.3121346"><ele>4.0</ele><time>2026-04-18T15:38:31.489Z</time></trkpt><trkpt lat="45.5957936" lon="12.3121882"><ele>4.0</ele><time>2026-04-18T15:38:32.49Z</time></trkpt><trkpt lat="45.5958455" lon="12.3122539"><ele>3.9999999999999996</ele><time>2026-04-18T15:38:34.495Z</time></trkpt><trkpt lat="45.5958969" lon="12.312314"><ele>4.0</ele><time>2026-04-18T15:38:36.511Z</time></trkpt><trkpt lat="45.5959528" lon="12.312365"><ele>3.9999999999999996</ele><time>2026-04-18T15:38:38.509Z</time></trkpt><trkpt lat="45.5960127" lon="12.3124518"><ele>4.0</ele><time>2026-04-18T15:38:41.517Z</time></trkpt><trkpt lat="45.5960933" lon="12.3125597"><ele>4.0</ele><time>2026-04-18T15:38:45.515Z</time></trkpt><trkpt lat="45.5961473" lon="12.3126213"><ele>4.0</ele><time>2026-04-18T15:38:47.561Z</time></trkpt><trkpt lat="45.596204" lon="12.3126875"><ele>3.9999999999999996</ele><time>2026-04-18T15:38:49.608Z</time></trkpt><trkpt lat="45.5962663" lon="12.3127547"><ele>4.0</ele><time>2026-04-18T15:38:51.574Z</time></trkpt><trkpt lat="45.5963269" lon="12.3128277"><ele>3.833333333333333</ele><time>2026-04-18T15:38:53.509Z</time></trkpt><trkpt lat="45.5963893" lon="12.3128984"><ele>3.6666666666666665</ele><time>2026-04-18T15:38:55.547Z</time></trkpt><trkpt lat="45.5964504" lon="12.3129677"><ele>3.5</ele><time>2026-04-18T15:38:57.507Z</time></trkpt><trkpt lat="45.5965103" lon="12.3130436"><ele>3.333333333333333</ele><time>2026-04-18T15:38:59.534Z</time></trkpt><trkpt lat="45.5965741" lon="12.3131134"><ele>3.1666666666666665</ele><time>2026-04-18T15:39:01.515Z</time></trkpt><trkpt lat="45.5966352" lon="12.3131761"><ele>3.0</ele><time>2026-04-18T15:39:03.591Z</time></trkpt><trkpt lat="45.596698" lon="12.3132364"><ele>3.0</ele><time>2026-04-18T15:39:05.533Z</time></trkpt><trkpt lat="45.5967636" lon="12.3132887"><ele>3.0</ele><time>2026-04-18T15:39:07.527Z</time></trkpt><trkpt lat="45.5968164" lon="12.3133531"><ele>3.0</ele><time>2026-04-18T15:39:09.514Z</time></trkpt><trkpt lat="45.5968794" lon="12.3134104"><ele>3.0</ele><time>2026-04-18T15:39:11.521Z</time></trkpt><trkpt lat="45.5969502" lon="12.3134713"><ele>3.0</ele><time>2026-04-18T15:39:13.506Z</time></trkpt><trkpt lat="45.5970222" lon="12.3135368"><ele>3.0</ele><time>2026-04-18T15:39:15.535Z</time></trkpt><trkpt lat="45.5970916" lon="12.313606"><ele>3.0</ele><time>2026-04-18T15:39:17.545Z</time></trkpt><trkpt lat="45.5971605" lon="12.3136816"><ele>3.0</ele><time>2026-04-18T15:39:19.57Z</time></trkpt><trkpt lat="45.5972218" lon="12.3137477"><ele>3.0</ele><time>2026-04-18T15:39:21.516Z</time></trkpt><trkpt lat="45.597299" lon="12.3138061"><ele>3.0</ele><time>2026-04-18T15:39:23.535Z</time></trkpt><trkpt lat="45.5973563" lon="12.3138724"><ele>3.0</ele><time>2026-04-18T15:39:25.517Z</time></trkpt><trkpt lat="45.5973959" lon="12.3139492"><ele>3.0</ele><time>2026-04-18T15:39:27.532Z</time></trkpt><trkpt lat="45.5974126" lon="12.3140421"><ele>3.0</ele><time>2026-04-18T15:39:29.527Z</time></trkpt><trkpt lat="45.5974369" lon="12.3141767"><ele>3.0</ele><time>2026-04-18T15:39:31.519Z</time></trkpt><trkpt lat="45.5974574" lon="12.3142963"><ele>3.0</ele><time>2026-04-18T15:39:33.52Z</time></trkpt><trkpt lat="45.5974822" lon="12.3144059"><ele>3.0</ele><time>2026-04-18T15:39:35.523Z</time></trkpt><trkpt lat="45.597515" lon="12.3144917"><ele>3.0</ele><time>2026-04-18T15:39:37.523Z</time></trkpt><trkpt lat="45.5975442" lon="12.3145976"><ele>3.0</ele><time>2026-04-18T15:39:39.517Z</time></trkpt><trkpt lat="45.5975646" lon="12.3147109"><ele>2.8333333333333335</ele><time>2026-04-18T15:39:41.511Z</time></trkpt><trkpt lat="45.5975796" lon="12.3148277"><ele>2.6666666666666665</ele><time>2026-04-18T15:39:43.509Z</time></trkpt><trkpt lat="45.5975905" lon="12.3149529"><ele>2.5</ele><time>2026-04-18T15:39:45.514Z</time></trkpt><trkpt lat="45.5976022" lon="12.3150788"><ele>2.333333333333333</ele><time>2026-04-18T15:39:47.515Z</time></trkpt><trkpt lat="45.597629" lon="12.3151899"><ele>2.1666666666666665</ele><time>2026-04-18T15:39:49.51Z</time></trkpt><trkpt lat="45.5976571" lon="12.3153001"><ele>2.0</ele><time>2026-04-18T15:39:51.519Z</time></trkpt><trkpt lat="45.5976736" lon="12.3154144"><ele>1.9999999999999998</ele><time>2026-04-18T15:39:53.534Z</time></trkpt><trkpt lat="45.5977001" lon="12.3155267"><ele>2.0</ele><time>2026-04-18T15:39:55.512Z</time></trkpt><trkpt lat="45.5977303" lon="12.3156349"><ele>2.0</ele><time>2026-04-18T15:39:57.516Z</time></trkpt><trkpt lat="45.5977693" lon="12.3157419"><ele>2.0</ele><time>2026-04-18T15:39:59.534Z</time></trkpt><trkpt lat="45.5978143" lon="12.3158462"><ele>1.9999999999999998</ele><time>2026-04-18T15:40:01.523Z</time></trkpt><trkpt lat="45.5978669" lon="12.3159376"><ele>2.0</ele><time>2026-04-18T15:40:03.512Z</time></trkpt><trkpt lat="45.5979217" lon="12.3160282"><ele>1.9999999999999998</ele><time>2026-04-18T15:40:05.526Z</time></trkpt><trkpt lat="45.597979" lon="12.316114"><ele>2.0</ele><time>2026-04-18T15:40:07.529Z</time></trkpt><trkpt lat="45.5980326" lon="12.316201"><ele>2.0</ele><time>2026-04-18T15:40:09.531Z</time></trkpt><trkpt lat="45.5980965" lon="12.3162912"><ele>2.0</ele><time>2026-04-18T15:40:11.525Z</time></trkpt><trkpt lat="45.5981577" lon="12.3163666"><ele>1.9999999999999998</ele><time>2026-04-18T15:40:13.513Z</time></trkpt><trkpt lat="45.5982294" lon="12.3164412"><ele>2.0</ele><time>2026-04-18T15:40:15.526Z</time></trkpt><trkpt lat="45.5982906" lon="12.316516"><ele>2.5</ele><time>2026-04-18T15:40:17.526Z</time></trkpt><trkpt lat="45.5983554" lon="12.3165923"><ele>3.0</ele><time>2026-04-18T15:40:19.526Z</time></trkpt><trkpt lat="45.5984153" lon="12.3166736"><ele>3.5</ele><time>2026-04-18T15:40:21.521Z</time></trkpt><trkpt lat="45.5984708" lon="12.316747"><ele>4.0</ele><time>2026-04-18T15:40:23.523Z</time></trkpt><trkpt lat="45.5985351" lon="12.3168257"><ele>4.5</ele><time>2026-04-18T15:40:25.525Z</time></trkpt><trkpt lat="45.5986062" lon="12.3169112"><ele>5.0</ele><time>2026-04-18T15:40:27.536Z</time></trkpt><trkpt lat="45.5986709" lon="12.3169878"><ele>5.0</ele><time>2026-04-18T15:40:29.528Z</time></trkpt><trkpt lat="45.5987373" lon="12.3170688"><ele>5.0</ele><time>2026-04-18T15:40:31.514Z</time></trkpt><trkpt lat="45.5988091" lon="12.3171414"><ele>5.0</ele><time>2026-04-18T15:40:33.522Z</time></trkpt><trkpt lat="45.5988879" lon="12.3172169"><ele>5.0</ele><time>2026-04-18T15:40:35.52Z</time></trkpt><trkpt lat="45.5989604" lon="12.3172879"><ele>5.0</ele><time>2026-04-18T15:40:37.522Z</time></trkpt><trkpt lat="45.5990243" lon="12.317352"><ele>5.0</ele><time>2026-04-18T15:40:39.524Z</time></trkpt><trkpt lat="45.5991028" lon="12.3174272"><ele>5.0</ele><time>2026-04-18T15:40:41.541Z</time></trkpt><trkpt lat="45.5991597" lon="12.3175117"><ele>5.0</ele><time>2026-04-18T15:40:43.527Z</time></trkpt><trkpt lat="45.5992185" lon="12.3175809"><ele>5.0</ele><time>2026-04-18T15:40:45.531Z</time></trkpt><trkpt lat="45.5992929" lon="12.3176417"><ele>5.0</ele><time>2026-04-18T15:40:48.517Z</time></trkpt><trkpt lat="45.599295" lon="12.3177394"><ele>5.0</ele><time>2026-04-18T15:40:51.532Z</time></trkpt><trkpt lat="45.5992819" lon="12.3178749"><ele>5.0</ele><time>2026-04-18T15:40:53.515Z</time></trkpt><trkpt lat="45.5992513" lon="12.3179864"><ele>4.6</ele><time>2026-04-18T15:40:55.513Z</time></trkpt><trkpt lat="45.5992302" lon="12.3181025"><ele>4.2</ele><time>2026-04-18T15:40:57.519Z</time></trkpt><trkpt lat="45.5992046" lon="12.3182346"><ele>3.8</ele><time>2026-04-18T15:40:59.518Z</time></trkpt><trkpt lat="45.5991804" lon="12.3183746"><ele>3.4</ele><time>2026-04-18T15:41:01.519Z</time></trkpt><trkpt lat="45.5991559" lon="12.3185022"><ele>3.0</ele><time>2026-04-18T15:41:03.533Z</time></trkpt><trkpt lat="45.5991273" lon="12.3186238"><ele>3.0</ele><time>2026-04-18T15:41:05.529Z</time></trkpt><trkpt lat="45.5991067" lon="12.3187413"><ele>3.0</ele><time>2026-04-18T15:41:07.515Z</time></trkpt><trkpt lat="45.5990841" lon="12.3188801"><ele>3.0</ele><time>2026-04-18T15:41:09.518Z</time></trkpt><trkpt lat="45.5990506" lon="12.3190209"><ele>3.0</ele><time>2026-04-18T15:41:11.53Z</time></trkpt><trkpt lat="45.5990287" lon="12.3191271"><ele>3.0</ele><time>2026-04-18T15:41:13.539Z</time></trkpt><trkpt lat="45.5990112" lon="12.3192493"><ele>3.1666666666666665</ele><time>2026-04-18T15:41:15.511Z</time></trkpt><trkpt lat="45.5989997" lon="12.31937"><ele>3.333333333333333</ele><time>2026-04-18T15:41:17.526Z</time></trkpt><trkpt lat="45.598976" lon="12.3194969"><ele>3.5</ele><time>2026-04-18T15:41:19.515Z</time></trkpt><trkpt lat="45.5989495" lon="12.3196229"><ele>3.6666666666666665</ele><time>2026-04-18T15:41:21.524Z</time></trkpt><trkpt lat="45.5989254" lon="12.3197378"><ele>3.833333333333333</ele><time>2026-04-18T15:41:23.513Z</time></trkpt><trkpt lat="45.5988967" lon="12.3198534"><ele>4.0</ele><time>2026-04-18T15:41:25.509Z</time></trkpt><trkpt lat="45.5988815" lon="12.3199736"><ele>4.0</ele><time>2026-04-18T15:41:27.507Z</time></trkpt><trkpt lat="45.5988644" lon="12.3201095"><ele>4.0</ele><time>2026-04-18T15:41:29.517Z</time></trkpt><trkpt lat="45.5988348" lon="12.320226"><ele>4.0</ele><time>2026-04-18T15:41:31.523Z</time></trkpt><trkpt lat="45.5988009" lon="12.3203464"><ele>4.0</ele><time>2026-04-18T15:41:33.526Z</time></trkpt><trkpt lat="45.5987722" lon="12.3204606"><ele>4.0</ele><time>2026-04-18T15:41:35.532Z</time></trkpt><trkpt lat="45.5987354" lon="12.3205803"><ele>3.9999999999999996</ele><time>2026-04-18T15:41:37.527Z</time></trkpt><trkpt lat="45.5986979" lon="12.3207036"><ele>4.0</ele><time>2026-04-18T15:41:39.537Z</time></trkpt><trkpt lat="45.598673" lon="12.3208265"><ele>4.0</ele><time>2026-04-18T15:41:41.51Z</time></trkpt><trkpt lat="45.5986517" lon="12.3209515"><ele>4.0</ele><time>2026-04-18T15:41:43.52Z</time></trkpt><trkpt lat="45.5986217" lon="12.3210678"><ele>3.9999999999999996</ele><time>2026-04-18T15:41:45.517Z</time></trkpt><trkpt lat="45.5985887" lon="12.3211719"><ele>4.0</ele><time>2026-04-18T15:41:47.512Z</time></trkpt><trkpt lat="45.5985551" lon="12.3212947"><ele>4.0</ele><time>2026-04-18T15:41:49.509Z</time></trkpt><trkpt lat="45.5985231" lon="12.3214164"><ele>4.0</ele><time>2026-04-18T15:41:51.512Z</time></trkpt><trkpt lat="45.5984883" lon="12.3215518"><ele>4.0</ele><time>2026-04-18T15:41:53.522Z</time></trkpt><trkpt lat="45.5984637" lon="12.3216819"><ele>4.0</ele><time>2026-04-18T15:41:55.514Z</time></trkpt><trkpt lat="45.598434" lon="12.3218177"><ele>4.0</ele><time>2026-04-18T15:41:57.515Z</time></trkpt><trkpt lat="45.5984131" lon="12.321917"><ele>3.9999999999999996</ele><time>2026-04-18T15:41:59.528Z</time></trkpt><trkpt lat="45.598389" lon="12.3220224"><ele>4.0</ele><time>2026-04-18T15:42:01.511Z</time></trkpt><trkpt lat="45.5983641" lon="12.3221264"><ele>4.0</ele><time>2026-04-18T15:42:03.519Z</time></trkpt><trkpt lat="45.5983347" lon="12.3222408"><ele>4.0</ele><time>2026-04-18T15:42:05.519Z</time></trkpt><trkpt lat="45.5983017" lon="12.3223727"><ele>3.9999999999999996</ele><time>2026-04-18T15:42:07.527Z</time></trkpt><trkpt lat="45.598272" lon="12.3225035"><ele>4.0</ele><time>2026-04-18T15:42:09.522Z</time></trkpt><trkpt lat="45.5982444" lon="12.3226018"><ele>4.166666666666666</ele><time>2026-04-18T15:42:11.521Z</time></trkpt><trkpt lat="45.5982164" lon="12.3227261"><ele>4.333333333333333</ele><time>2026-04-18T15:42:13.527Z</time></trkpt><trkpt lat="45.5981753" lon="12.32285"><ele>4.5</ele><time>2026-04-18T15:42:15.517Z</time></trkpt><trkpt lat="45.5981273" lon="12.322949"><ele>4.666666666666667</ele><time>2026-04-18T15:42:17.519Z</time></trkpt><trkpt lat="45.5980601" lon="12.3230019"><ele>4.833333333333334</ele><time>2026-04-18T15:42:19.536Z</time></trkpt><trkpt lat="45.5979887" lon="12.323053"><ele>5.0</ele><time>2026-04-18T15:42:21.531Z</time></trkpt><trkpt lat="45.5979339" lon="12.3231363"><ele>5.0</ele><time>2026-04-18T15:42:23.523Z</time></trkpt><trkpt lat="45.5979136" lon="12.3232614"><ele>5.0</ele><time>2026-04-18T15:42:25.506Z</time></trkpt><trkpt lat="45.5979312" lon="12.3233978"><ele>5.0</ele><time>2026-04-18T15:42:27.528Z</time></trkpt><trkpt lat="45.5979661" lon="12.3235391"><ele>5.0</ele><time>2026-04-18T15:42:29.533Z</time></trkpt><trkpt lat="45.5979708" lon="12.3236704"><ele>5.0</ele><time>2026-04-18T15:42:31.511Z</time></trkpt><trkpt lat="45.5979412" lon="12.3238205"><ele>5.2</ele><time>2026-04-18T15:42:33.513Z</time></trkpt><trkpt lat="45.5979145" lon="12.3239533"><ele>5.4</ele><time>2026-04-18T15:42:35.507Z</time></trkpt><trkpt lat="45.5978887" lon="12.3240896"><ele>5.6</ele><time>2026-04-18T15:42:37.508Z</time></trkpt><trkpt lat="45.597864" lon="12.3242316"><ele>5.8</ele><time>2026-04-18T15:42:39.537Z</time></trkpt><trkpt lat="45.5978347" lon="12.3243595"><ele>6.0</ele><time>2026-04-18T15:42:41.527Z</time></trkpt><trkpt lat="45.5978068" lon="12.3244942"><ele>6.0</ele><time>2026-04-18T15:42:43.517Z</time></trkpt><trkpt lat="45.5977785" lon="12.3246069"><ele>6.0</ele><time>2026-04-18T15:42:45.528Z</time></trkpt><trkpt lat="45.5977474" lon="12.3247191"><ele>6.0</ele><time>2026-04-18T15:42:47.522Z</time></trkpt><trkpt lat="45.5977247" lon="12.3248345"><ele>6.0</ele><time>2026-04-18T15:42:49.511Z</time></trkpt><trkpt lat="45.5976992" lon="12.3249429"><ele>6.0</ele><time>2026-04-18T15:42:51.511Z</time></trkpt><trkpt lat="45.5976778" lon="12.3250629"><ele>6.0</ele><time>2026-04-18T15:42:53.516Z</time></trkpt><trkpt lat="45.5976516" lon="12.3252041"><ele>6.0</ele><time>2026-04-18T15:42:55.514Z</time></trkpt><trkpt lat="45.5976218" lon="12.325327"><ele>6.0</ele><time>2026-04-18T15:42:57.509Z</time></trkpt><trkpt lat="45.597593" lon="12.3254244"><ele>6.0</ele><time>2026-04-18T15:42:59.518Z</time></trkpt><trkpt lat="45.5975569" lon="12.3255299"><ele>6.0</ele><time>2026-04-18T15:43:02.523Z</time></trkpt><trkpt lat="45.5974873" lon="12.3255854"><ele>6.0</ele><time>2026-04-18T15:43:05.525Z</time></trkpt><trkpt lat="45.5974049" lon="12.3255717"><ele>6.0</ele><time>2026-04-18T15:43:07.519Z</time></trkpt><trkpt lat="45.5973231" lon="12.325556"><ele>6.0</ele><time>2026-04-18T15:43:09.509Z</time></trkpt><trkpt lat="45.597237" lon="12.3255518"><ele>6.0</ele><time>2026-04-18T15:43:11.506Z</time></trkpt><trkpt lat="45.5971471" lon="12.3255487"><ele>6.0</ele><time>2026-04-18T15:43:13.502Z</time></trkpt><trkpt lat="45.5970561" lon="12.3255495"><ele>6.0</ele><time>2026-04-18T15:43:15.519Z</time></trkpt><trkpt lat="45.5969606" lon="12.3255461"><ele>6.0</ele><time>2026-04-18T15:43:17.513Z</time></trkpt><trkpt lat="45.5968688" lon="12.325538"><ele>6.0</ele><time>2026-04-18T15:43:19.516Z</time></trkpt><trkpt lat="45.5967755" lon="12.3255356"><ele>6.0</ele><time>2026-04-18T15:43:21.516Z</time></trkpt><trkpt lat="45.5966769" lon="12.3255336"><ele>6.0</ele><time>2026-04-18T15:43:23.517Z</time></trkpt><trkpt lat="45.5965974" lon="12.3255287"><ele>6.0</ele><time>2026-04-18T15:43:25.522Z</time></trkpt><trkpt lat="45.5965025" lon="12.3255249"><ele>6.0</ele><time>2026-04-18T15:43:27.513Z</time></trkpt><trkpt lat="45.5964103" lon="12.3255135"><ele>6.0</ele><time>2026-04-18T15:43:29.524Z</time></trkpt><trkpt lat="45.5963212" lon="12.3254983"><ele>6.0</ele><time>2026-04-18T15:43:31.507Z</time></trkpt><trkpt lat="45.5962224" lon="12.3254978"><ele>6.0</ele><time>2026-04-18T15:43:33.521Z</time></trkpt><trkpt lat="45.596129" lon="12.3255065"><ele>6.0</ele><time>2026-04-18T15:43:35.515Z</time></trkpt><trkpt lat="45.5960329" lon="12.32553"><ele>6.0</ele><time>2026-04-18T15:43:37.51Z</time></trkpt><trkpt lat="45.5959418" lon="12.3255506"><ele>6.0</ele><time>2026-04-18T15:43:39.509Z</time></trkpt><trkpt lat="45.5958519" lon="12.3255834"><ele>6.0</ele><time>2026-04-18T15:43:41.52Z</time></trkpt><trkpt lat="45.5957613" lon="12.3256203"><ele>6.0</ele><time>2026-04-18T15:43:43.524Z</time></trkpt><trkpt lat="45.5956625" lon="12.3256641"><ele>6.0</ele><time>2026-04-18T15:43:45.519Z</time></trkpt><trkpt lat="45.5955826" lon="12.3257107"><ele>6.0</ele><time>2026-04-18T15:43:47.506Z</time></trkpt><trkpt lat="45.595503" lon="12.3257557"><ele>6.0</ele><time>2026-04-18T15:43:49.525Z</time></trkpt><trkpt lat="45.595416" lon="12.3258141"><ele>6.0</ele><time>2026-04-18T15:43:51.512Z</time></trkpt><trkpt lat="45.5953427" lon="12.3258759"><ele>6.0</ele><time>2026-04-18T15:43:53.516Z</time></trkpt><trkpt lat="45.5952626" lon="12.3259478"><ele>6.0</ele><time>2026-04-18T15:43:55.509Z</time></trkpt><trkpt lat="45.5951859" lon="12.3260131"><ele>6.0</ele><time>2026-04-18T15:43:57.523Z</time></trkpt><trkpt lat="45.5951116" lon="12.3260828"><ele>5.666666666666667</ele><time>2026-04-18T15:43:59.508Z</time></trkpt><trkpt lat="45.5950436" lon="12.3261409"><ele>5.333333333333333</ele><time>2026-04-18T15:44:01.518Z</time></trkpt><trkpt lat="45.594981" lon="12.3261973"><ele>5.0</ele><time>2026-04-18T15:44:03.513Z</time></trkpt><trkpt lat="45.5949143" lon="12.3262606"><ele>4.666666666666666</ele><time>2026-04-18T15:44:05.515Z</time></trkpt><trkpt lat="45.5948414" lon="12.3263168"><ele>4.333333333333333</ele><time>2026-04-18T15:44:07.518Z</time></trkpt><trkpt lat="45.5947742" lon="12.3263858"><ele>4.0</ele><time>2026-04-18T15:44:10.519Z</time></trkpt><trkpt lat="45.5947018" lon="12.3264548"><ele>3.9999999999999996</ele><time>2026-04-18T15:44:13.514Z</time></trkpt><trkpt lat="45.5946345" lon="12.3265155"><ele>4.0</ele><time>2026-04-18T15:44:16.51Z</time></trkpt><trkpt lat="45.5945815" lon="12.3265654"><ele>4.0</ele><time>2026-04-18T15:44:18.499Z</time></trkpt><trkpt lat="45.594526" lon="12.3266238"><ele>4.0</ele><time>2026-04-18T15:44:20.514Z</time></trkpt><trkpt lat="45.594467" lon="12.3267076"><ele>3.9999999999999996</ele><time>2026-04-18T15:44:22.517Z</time></trkpt><trkpt lat="45.5944071" lon="12.3267976"><ele>4.0</ele><time>2026-04-18T15:44:24.509Z</time></trkpt><trkpt lat="45.5943509" lon="12.3268583"><ele>4.166666666666666</ele><time>2026-04-18T15:44:26.52Z</time></trkpt><trkpt lat="45.594307" lon="12.3269587"><ele>4.333333333333333</ele><time>2026-04-18T15:44:29.524Z</time></trkpt><trkpt lat="45.5943209" lon="12.3270975"><ele>4.5</ele><time>2026-04-18T15:44:32.503Z</time></trkpt><trkpt lat="45.5943562" lon="12.3272186"><ele>4.666666666666667</ele><time>2026-04-18T15:44:34.523Z</time></trkpt><trkpt lat="45.5943835" lon="12.3273443"><ele>4.833333333333334</ele><time>2026-04-18T15:44:36.521Z</time></trkpt><trkpt lat="45.594395" lon="12.3274565"><ele>5.0</ele><time>2026-04-18T15:44:38.513Z</time></trkpt><trkpt lat="45.5943647" lon="12.3275606"><ele>5.0</ele><time>2026-04-18T15:44:40.516Z</time></trkpt><trkpt lat="45.5943109" lon="12.3276491"><ele>5.0</ele><time>2026-04-18T15:44:42.514Z</time></trkpt><trkpt lat="45.5942643" lon="12.3277414"><ele>5.0</ele><time>2026-04-18T15:44:44.51Z</time></trkpt><trkpt lat="45.5942243" lon="12.3278484"><ele>5.0</ele><time>2026-04-18T15:44:46.507Z</time></trkpt><trkpt lat="45.5941826" lon="12.3279752"><ele>5.0</ele><time>2026-04-18T15:44:48.51Z</time></trkpt><trkpt lat="45.5941415" lon="12.3281107"><ele>5.0</ele><time>2026-04-18T15:44:50.527Z</time></trkpt><trkpt lat="45.5941013" lon="12.3282357"><ele>4.833333333333334</ele><time>2026-04-18T15:44:52.517Z</time></trkpt><trkpt lat="45.5940624" lon="12.3283648"><ele>4.666666666666667</ele><time>2026-04-18T15:44:54.53Z</time></trkpt><trkpt lat="45.5940228" lon="12.3284852"><ele>4.5</ele><time>2026-04-18T15:44:56.526Z</time></trkpt><trkpt lat="45.5940109" lon="12.3286039"><ele>4.333333333333333</ele><time>2026-04-18T15:44:59.538Z</time></trkpt><trkpt lat="45.5940752" lon="12.3286617"><ele>4.166666666666666</ele><time>2026-04-18T15:45:02.518Z</time></trkpt><trkpt lat="45.5941441" lon="12.3287062"><ele>4.0</ele><time>2026-04-18T15:45:06.514Z</time></trkpt><trkpt lat="45.5942335" lon="12.3287563"><ele>3.9999999999999996</ele><time>2026-04-18T15:45:09.506Z</time></trkpt><trkpt lat="45.5943042" lon="12.3288003"><ele>4.0</ele><time>2026-04-18T15:45:11.511Z</time></trkpt><trkpt lat="45.594379" lon="12.3288438"><ele>4.0</ele><time>2026-04-18T15:45:13.519Z</time></trkpt><trkpt lat="45.5944687" lon="12.3288811"><ele>4.0</ele><time>2026-04-18T15:45:15.509Z</time></trkpt><trkpt lat="45.5945468" lon="12.3289175"><ele>3.9999999999999996</ele><time>2026-04-18T15:45:17.511Z</time></trkpt><trkpt lat="45.5946261" lon="12.328967"><ele>4.0</ele><time>2026-04-18T15:45:19.527Z</time></trkpt><trkpt lat="45.5947011" lon="12.3289996"><ele>4.166666666666666</ele><time>2026-04-18T15:45:21.528Z</time></trkpt><trkpt lat="45.594767" lon="12.3290336"><ele>4.333333333333333</ele><time>2026-04-18T15:45:23.522Z</time></trkpt><trkpt lat="45.5948326" lon="12.3290693"><ele>4.5</ele><time>2026-04-18T15:45:25.531Z</time></trkpt><trkpt lat="45.5949057" lon="12.3291029"><ele>4.666666666666667</ele><time>2026-04-18T15:45:27.514Z</time></trkpt><trkpt lat="45.5949894" lon="12.3291497"><ele>4.833333333333334</ele><time>2026-04-18T15:45:29.529Z</time></trkpt><trkpt lat="45.5950592" lon="12.3291796"><ele>5.0</ele><time>2026-04-18T15:45:31.503Z</time></trkpt><trkpt lat="45.5951363" lon="12.3292171"><ele>5.0</ele><time>2026-04-18T15:45:33.517Z</time></trkpt><trkpt lat="45.5952084" lon="12.3292286"><ele>5.0</ele><time>2026-04-18T15:45:35.504Z</time></trkpt><trkpt lat="45.5952043" lon="12.329356"><ele>5.0</ele><time>2026-04-18T15:45:39.524Z</time></trkpt><trkpt lat="45.5951951" lon="12.3294684"><ele>5.0</ele><time>2026-04-18T15:45:41.517Z</time></trkpt><trkpt lat="45.5951951" lon="12.3295718"><ele>5.0</ele><time>2026-04-18T15:45:43.522Z</time></trkpt><trkpt lat="45.5951935" lon="12.3296858"><ele>5.0</ele><time>2026-04-18T15:45:45.52Z</time></trkpt><trkpt lat="45.5951838" lon="12.3298345"><ele>4.8</ele><time>2026-04-18T15:45:47.56Z</time></trkpt><trkpt lat="45.5951697" lon="12.3299931"><ele>4.6</ele><time>2026-04-18T15:45:49.5Z</time></trkpt><trkpt lat="45.5951709" lon="12.3301114"><ele>4.4</ele><time>2026-04-18T15:45:51.514Z</time></trkpt><trkpt lat="45.5951774" lon="12.3302408"><ele>4.2</ele><time>2026-04-18T15:45:53.509Z</time></trkpt><trkpt lat="45.5951895" lon="12.330367"><ele>4.0</ele><time>2026-04-18T15:45:55.526Z</time></trkpt><trkpt lat="45.5951954" lon="12.3304845"><ele>3.6666666666666665</ele><time>2026-04-18T15:45:57.505Z</time></trkpt><trkpt lat="45.5952006" lon="12.3305991"><ele>3.333333333333333</ele><time>2026-04-18T15:45:59.506Z</time></trkpt><trkpt lat="45.5952104" lon="12.3307301"><ele>3.0</ele><time>2026-04-18T15:46:01.523Z</time></trkpt><trkpt lat="45.5951931" lon="12.3308443"><ele>2.6666666666666665</ele><time>2026-04-18T15:46:03.504Z</time></trkpt><trkpt lat="45.5951277" lon="12.3308882"><ele>2.333333333333333</ele><time>2026-04-18T15:46:05.514Z</time></trkpt><trkpt lat="45.5950456" lon="12.3308906"><ele>2.0</ele><time>2026-04-18T15:46:07.499Z</time></trkpt><trkpt lat="45.5949676" lon="12.3309004"><ele>2.0</ele><time>2026-04-18T15:46:09.511Z</time></trkpt><trkpt lat="45.5948753" lon="12.3309032"><ele>2.0</ele><time>2026-04-18T15:46:11.509Z</time></trkpt><trkpt lat="45.5947872" lon="12.330896"><ele>2.0</ele><time>2026-04-18T15:46:13.52Z</time></trkpt><trkpt lat="45.5947084" lon="12.3309579"><ele>2.0</ele><time>2026-04-18T15:46:16.501Z</time></trkpt><trkpt lat="45.5947157" lon="12.3310979"><ele>2.0</ele><time>2026-04-18T15:46:18.513Z</time></trkpt><trkpt lat="45.5947228" lon="12.3312434"><ele>2.0</ele><time>2026-04-18T15:46:20.51Z</time></trkpt><trkpt lat="45.5947211" lon="12.3313763"><ele>2.0</ele><time>2026-04-18T15:46:22.506Z</time></trkpt><trkpt lat="45.5947155" lon="12.3315064"><ele>2.0</ele><time>2026-04-18T15:46:24.521Z</time></trkpt><trkpt lat="45.5946925" lon="12.3316256"><ele>2.0</ele><time>2026-04-18T15:46:26.527Z</time></trkpt><trkpt lat="45.5946323" lon="12.3317551"><ele>2.0</ele><time>2026-04-18T15:46:28.523Z</time></trkpt><trkpt lat="45.5945702" lon="12.3318444"><ele>2.0</ele><time>2026-04-18T15:46:30.503Z</time></trkpt><trkpt lat="45.5945063" lon="12.3319431"><ele>2.0</ele><time>2026-04-18T15:46:32.506Z</time></trkpt><trkpt lat="45.5944321" lon="12.3320296"><ele>2.0</ele><time>2026-04-18T15:46:34.506Z</time></trkpt><trkpt lat="45.5943641" lon="12.3321184"><ele>2.0</ele><time>2026-04-18T15:46:36.512Z</time></trkpt><trkpt lat="45.5942956" lon="12.3322095"><ele>2.0</ele><time>2026-04-18T15:46:38.524Z</time></trkpt><trkpt lat="45.5942309" lon="12.3323062"><ele>2.0</ele><time>2026-04-18T15:46:40.502Z</time></trkpt><trkpt lat="45.5941556" lon="12.3324105"><ele>2.0</ele><time>2026-04-18T15:46:42.515Z</time></trkpt><trkpt lat="45.5940957" lon="12.3325061"><ele>2.0</ele><time>2026-04-18T15:46:44.505Z</time></trkpt><trkpt lat="45.5940289" lon="12.3326021"><ele>2.0</ele><time>2026-04-18T15:46:46.509Z</time></trkpt><trkpt lat="45.5939583" lon="12.3327132"><ele>2.0</ele><time>2026-04-18T15:46:48.497Z</time></trkpt><trkpt lat="45.593898" lon="12.3328034"><ele>1.9999999999999998</ele><time>2026-04-18T15:46:50.498Z</time></trkpt><trkpt lat="45.5938437" lon="12.3329004"><ele>2.0</ele><time>2026-04-18T15:46:52.514Z</time></trkpt><trkpt lat="45.5937812" lon="12.3329854"><ele>2.0</ele><time>2026-04-18T15:46:54.512Z</time></trkpt><trkpt lat="45.5937241" lon="12.3330633"><ele>2.0</ele><time>2026-04-18T15:46:56.515Z</time></trkpt><trkpt lat="45.5936643" lon="12.3331301"><ele>1.9999999999999998</ele><time>2026-04-18T15:46:58.509Z</time></trkpt><trkpt lat="45.5935993" lon="12.3331977"><ele>2.0</ele><time>2026-04-18T15:47:00.504Z</time></trkpt><trkpt lat="45.593531" lon="12.3332744"><ele>2.333333333333333</ele><time>2026-04-18T15:47:02.519Z</time></trkpt><trkpt lat="45.5934471" lon="12.3333421"><ele>2.6666666666666665</ele><time>2026-04-18T15:47:04.508Z</time></trkpt><trkpt lat="45.593371" lon="12.3333841"><ele>3.0</ele><time>2026-04-18T15:47:06.508Z</time></trkpt><trkpt lat="45.5932957" lon="12.3334306"><ele>3.333333333333333</ele><time>2026-04-18T15:47:08.501Z</time></trkpt><trkpt lat="45.5932326" lon="12.3334774"><ele>3.6666666666666665</ele><time>2026-04-18T15:47:10.51Z</time></trkpt><trkpt lat="45.5931471" lon="12.3335332"><ele>4.0</ele><time>2026-04-18T15:47:12.5Z</time></trkpt><trkpt lat="45.5930513" lon="12.3336061"><ele>4.0</ele><time>2026-04-18T15:47:14.498Z</time></trkpt><trkpt lat="45.5929732" lon="12.3336851"><ele>4.0</ele><time>2026-04-18T15:47:16.499Z</time></trkpt><trkpt lat="45.5929056" lon="12.333778"><ele>4.0</ele><time>2026-04-18T15:47:18.537Z</time></trkpt><trkpt lat="45.5928357" lon="12.333871"><ele>4.0</ele><time>2026-04-18T15:47:20.519Z</time></trkpt><trkpt lat="45.5927724" lon="12.3339787"><ele>4.0</ele><time>2026-04-18T15:47:22.503Z</time></trkpt><trkpt lat="45.5927089" lon="12.3340749"><ele>3.8000000000000003</ele><time>2026-04-18T15:47:24.509Z</time></trkpt><trkpt lat="45.5926429" lon="12.3341694"><ele>3.6000000000000005</ele><time>2026-04-18T15:47:26.517Z</time></trkpt><trkpt lat="45.5925756" lon="12.3342642"><ele>3.4</ele><time>2026-04-18T15:47:28.508Z</time></trkpt><trkpt lat="45.5925005" lon="12.3343811"><ele>3.2</ele><time>2026-04-18T15:47:30.499Z</time></trkpt><trkpt lat="45.5924341" lon="12.334477"><ele>3.0</ele><time>2026-04-18T15:47:32.508Z</time></trkpt><trkpt lat="45.5923706" lon="12.3345625"><ele>3.0</ele><time>2026-04-18T15:47:34.502Z</time></trkpt><trkpt lat="45.5923019" lon="12.3346538"><ele>3.0</ele><time>2026-04-18T15:47:36.515Z</time></trkpt><trkpt lat="45.5922308" lon="12.3347436"><ele>3.0</ele><time>2026-04-18T15:47:38.504Z</time></trkpt><trkpt lat="45.5921646" lon="12.3348281"><ele>3.0</ele><time>2026-04-18T15:47:40.503Z</time></trkpt><trkpt lat="45.5921154" lon="12.3349281"><ele>3.0</ele><time>2026-04-18T15:47:42.513Z</time></trkpt><trkpt lat="45.5920723" lon="12.3350087"><ele>3.0</ele><time>2026-04-18T15:47:44.507Z</time></trkpt><trkpt lat="45.592015" lon="12.3350858"><ele>3.0</ele><time>2026-04-18T15:47:46.517Z</time></trkpt><trkpt lat="45.5919757" lon="12.3351671"><ele>3.0</ele><time>2026-04-18T15:47:48.502Z</time></trkpt><trkpt lat="45.5919511" lon="12.3352936"><ele>3.0</ele><time>2026-04-18T15:47:50.512Z</time></trkpt><trkpt lat="45.5919131" lon="12.335432"><ele>3.0</ele><time>2026-04-18T15:47:52.515Z</time></trkpt><trkpt lat="45.591872" lon="12.335565"><ele>3.0</ele><time>2026-04-18T15:47:54.506Z</time></trkpt><trkpt lat="45.591825" lon="12.3356899"><ele>3.1666666666666665</ele><time>2026-04-18T15:47:56.512Z</time></trkpt><trkpt lat="45.5917822" lon="12.3358012"><ele>3.333333333333333</ele><time>2026-04-18T15:47:58.5Z</time></trkpt><trkpt lat="45.5917367" lon="12.3359027"><ele>3.5</ele><time>2026-04-18T15:48:00.507Z</time></trkpt><trkpt lat="45.5916758" lon="12.3359989"><ele>3.6666666666666665</ele><time>2026-04-18T15:48:02.507Z</time></trkpt><trkpt lat="45.5916161" lon="12.3360821"><ele>3.833333333333333</ele><time>2026-04-18T15:48:04.51Z</time></trkpt><trkpt lat="45.5915531" lon="12.3361968"><ele>4.0</ele><time>2026-04-18T15:48:06.512Z</time></trkpt><trkpt lat="45.5915055" lon="12.336305"><ele>3.6</ele><time>2026-04-18T15:48:08.516Z</time></trkpt><trkpt lat="45.5914441" lon="12.3364003"><ele>3.2</ele><time>2026-04-18T15:48:10.513Z</time></trkpt><trkpt lat="45.5913691" lon="12.3364761"><ele>2.8000000000000003</ele><time>2026-04-18T15:48:12.505Z</time></trkpt><trkpt lat="45.5912939" lon="12.3365627"><ele>2.4000000000000004</ele><time>2026-04-18T15:48:14.505Z</time></trkpt><trkpt lat="45.5912214" lon="12.3366428"><ele>2.0</ele><time>2026-04-18T15:48:16.512Z</time></trkpt><trkpt lat="45.5911366" lon="12.3367007"><ele>2.0</ele><time>2026-04-18T15:48:18.517Z</time></trkpt><trkpt lat="45.5910592" lon="12.3367649"><ele>2.0</ele><time>2026-04-18T15:48:20.512Z</time></trkpt><trkpt lat="45.5909822" lon="12.336844"><ele>2.0</ele><time>2026-04-18T15:48:22.5Z</time></trkpt><trkpt lat="45.5909136" lon="12.3369231"><ele>2.0</ele><time>2026-04-18T15:48:24.515Z</time></trkpt><trkpt lat="45.5908466" lon="12.3370031"><ele>2.0</ele><time>2026-04-18T15:48:26.514Z</time></trkpt><trkpt lat="45.5907739" lon="12.3370909"><ele>1.9999999999999998</ele><time>2026-04-18T15:48:28.517Z</time></trkpt><trkpt lat="45.590706" lon="12.3371767"><ele>2.0</ele><time>2026-04-18T15:48:30.52Z</time></trkpt><trkpt lat="45.5906352" lon="12.3372675"><ele>2.0</ele><time>2026-04-18T15:48:32.511Z</time></trkpt><trkpt lat="45.5905735" lon="12.3373459"><ele>2.0</ele><time>2026-04-18T15:48:34.503Z</time></trkpt><trkpt lat="45.5905061" lon="12.3374182"><ele>1.9999999999999998</ele><time>2026-04-18T15:48:36.502Z</time></trkpt><trkpt lat="45.5904404" lon="12.337493"><ele>2.0</ele><time>2026-04-18T15:48:38.515Z</time></trkpt><trkpt lat="45.5903782" lon="12.3375816"><ele>2.1666666666666665</ele><time>2026-04-18T15:48:41.541Z</time></trkpt><trkpt lat="45.5903613" lon="12.3376819"><ele>2.333333333333333</ele><time>2026-04-18T15:48:44.503Z</time></trkpt><trkpt lat="45.5903302" lon="12.3377812"><ele>2.5</ele><time>2026-04-18T15:48:48.532Z</time></trkpt><trkpt lat="45.5902613" lon="12.3378407"><ele>2.6666666666666665</ele><time>2026-04-18T15:48:51.528Z</time></trkpt><trkpt lat="45.5902036" lon="12.3378984"><ele>2.8333333333333335</ele><time>2026-04-18T15:48:53.537Z</time></trkpt><trkpt lat="45.5901399" lon="12.3379602"><ele>3.0</ele><time>2026-04-18T15:48:55.533Z</time></trkpt><trkpt lat="45.5900683" lon="12.3380295"><ele>2.6666666666666665</ele><time>2026-04-18T15:48:57.504Z</time></trkpt><trkpt lat="45.5900042" lon="12.3381029"><ele>2.3333333333333335</ele><time>2026-04-18T15:48:59.505Z</time></trkpt><trkpt lat="45.58994" lon="12.3381895"><ele>2.0</ele><time>2026-04-18T15:49:01.529Z</time></trkpt><trkpt lat="45.5898755" lon="12.3382625"><ele>1.6666666666666665</ele><time>2026-04-18T15:49:03.513Z</time></trkpt><trkpt lat="45.5898064" lon="12.3383536"><ele>1.3333333333333333</ele><time>2026-04-18T15:49:05.518Z</time></trkpt><trkpt lat="45.5897303" lon="12.3384432"><ele>1.0</ele><time>2026-04-18T15:49:07.525Z</time></trkpt><trkpt lat="45.5896607" lon="12.3385286"><ele>0.9999999999999999</ele><time>2026-04-18T15:49:09.508Z</time></trkpt><trkpt lat="45.5895884" lon="12.3385948"><ele>1.0</ele><time>2026-04-18T15:49:11.517Z</time></trkpt><trkpt lat="45.5895217" lon="12.3386279"><ele>1.0</ele><time>2026-04-18T15:49:13.517Z</time></trkpt><trkpt lat="45.5894528" lon="12.3386558"><ele>1.0</ele><time>2026-04-18T15:49:15.51Z</time></trkpt><trkpt lat="45.5893964" lon="12.3387093"><ele>0.9999999999999999</ele><time>2026-04-18T15:49:17.508Z</time></trkpt><trkpt lat="45.5893356" lon="12.3388012"><ele>1.0</ele><time>2026-04-18T15:49:19.529Z</time></trkpt><trkpt lat="45.5892701" lon="12.3388947"><ele>1.5</ele><time>2026-04-18T15:49:21.51Z</time></trkpt><trkpt lat="45.5892104" lon="12.3389624"><ele>2.0</ele><time>2026-04-18T15:49:23.511Z</time></trkpt><trkpt lat="45.5891626" lon="12.339054"><ele>2.5</ele><time>2026-04-18T15:49:25.519Z</time></trkpt><trkpt lat="45.5891212" lon="12.3391436"><ele>3.0</ele><time>2026-04-18T15:49:27.539Z</time></trkpt><trkpt lat="45.5890776" lon="12.339232"><ele>3.4999999999999996</ele><time>2026-04-18T15:49:29.529Z</time></trkpt><trkpt lat="45.5890337" lon="12.3393145"><ele>4.0</ele><time>2026-04-18T15:49:31.511Z</time></trkpt><trkpt lat="45.5889849" lon="12.339393"><ele>3.9999999999999996</ele><time>2026-04-18T15:49:33.508Z</time></trkpt><trkpt lat="45.588933" lon="12.3394809"><ele>4.0</ele><time>2026-04-18T15:49:35.518Z</time></trkpt><trkpt lat="45.5888715" lon="12.3395564"><ele>4.0</ele><time>2026-04-18T15:49:37.522Z</time></trkpt><trkpt lat="45.5888038" lon="12.3396416"><ele>4.0</ele><time>2026-04-18T15:49:39.518Z</time></trkpt><trkpt lat="45.5887399" lon="12.3397256"><ele>3.9999999999999996</ele><time>2026-04-18T15:49:41.516Z</time></trkpt><trkpt lat="45.5886616" lon="12.3397865"><ele>4.0</ele><time>2026-04-18T15:49:43.518Z</time></trkpt><trkpt lat="45.5885966" lon="12.3398603"><ele>4.2</ele><time>2026-04-18T15:49:45.503Z</time></trkpt><trkpt lat="45.5885323" lon="12.3399456"><ele>4.4</ele><time>2026-04-18T15:49:47.52Z</time></trkpt><trkpt lat="45.5884284" lon="12.3400277"><ele>4.6</ele><time>2026-04-18T15:49:49.514Z</time></trkpt><trkpt lat="45.5883474" lon="12.3401274"><ele>4.8</ele><time>2026-04-18T15:49:51.514Z</time></trkpt><trkpt lat="45.5882793" lon="12.3402227"><ele>5.0</ele><time>2026-04-18T15:49:53.513Z</time></trkpt><trkpt lat="45.5882145" lon="12.3403285"><ele>5.0</ele><time>2026-04-18T15:49:56.509Z</time></trkpt><trkpt lat="45.5881302" lon="12.3403823"><ele>5.0</ele><time>2026-04-18T15:49:58.533Z</time></trkpt><trkpt lat="45.5880406" lon="12.3404301"><ele>5.0</ele><time>2026-04-18T15:50:00.518Z</time></trkpt><trkpt lat="45.5879697" lon="12.3405121"><ele>5.0</ele><time>2026-04-18T15:50:02.511Z</time></trkpt><trkpt lat="45.5879092" lon="12.3406134"><ele>5.0</ele><time>2026-04-18T15:50:04.563Z</time></trkpt><trkpt lat="45.5878406" lon="12.3407066"><ele>4.5</ele><time>2026-04-18T15:50:06.508Z</time></trkpt><trkpt lat="45.5877871" lon="12.3407843"><ele>4.0</ele><time>2026-04-18T15:50:08.514Z</time></trkpt><trkpt lat="45.587718" lon="12.3408637"><ele>3.5</ele><time>2026-04-18T15:50:10.516Z</time></trkpt><trkpt lat="45.58765" lon="12.3409476"><ele>3.0</ele><time>2026-04-18T15:50:12.505Z</time></trkpt><trkpt lat="45.5875711" lon="12.3410011"><ele>2.5</ele><time>2026-04-18T15:50:14.526Z</time></trkpt><trkpt lat="45.5874865" lon="12.3410653"><ele>2.0</ele><time>2026-04-18T15:50:16.524Z</time></trkpt><trkpt lat="45.5873925" lon="12.3411439"><ele>2.0</ele><time>2026-04-18T15:50:18.517Z</time></trkpt><trkpt lat="45.5873173" lon="12.3412288"><ele>2.0</ele><time>2026-04-18T15:50:20.508Z</time></trkpt><trkpt lat="45.5872481" lon="12.3413487"><ele>2.0</ele><time>2026-04-18T15:50:22.501Z</time></trkpt><trkpt lat="45.5871874" lon="12.341463"><ele>2.0</ele><time>2026-04-18T15:50:24.52Z</time></trkpt><trkpt lat="45.5871464" lon="12.3415685"><ele>2.0</ele><time>2026-04-18T15:50:26.518Z</time></trkpt><trkpt lat="45.5871095" lon="12.3416992"><ele>1.8</ele><time>2026-04-18T15:50:28.52Z</time></trkpt><trkpt lat="45.5870904" lon="12.3417859"><ele>1.6</ele><time>2026-04-18T15:50:29.5Z</time></trkpt><trkpt lat="45.5870598" lon="12.3419224"><ele>1.4000000000000001</ele><time>2026-04-18T15:50:31.5Z</time></trkpt><trkpt lat="45.5870347" lon="12.3420563"><ele>1.2000000000000002</ele><time>2026-04-18T15:50:33.516Z</time></trkpt><trkpt lat="45.5870099" lon="12.3421965"><ele>1.0</ele><time>2026-04-18T15:50:35.528Z</time></trkpt><trkpt lat="45.5869949" lon="12.3423286"><ele>1.0</ele><time>2026-04-18T15:50:37.521Z</time></trkpt><trkpt lat="45.586978" lon="12.3424832"><ele>1.0</ele><time>2026-04-18T15:50:39.525Z</time></trkpt><trkpt lat="45.5869678" lon="12.3426322"><ele>1.0</ele><time>2026-04-18T15:50:41.52Z</time></trkpt><trkpt lat="45.5869531" lon="12.342777"><ele>1.0</ele><time>2026-04-18T15:50:43.509Z</time></trkpt><trkpt lat="45.5869396" lon="12.3429225"><ele>1.0</ele><time>2026-04-18T15:50:45.521Z</time></trkpt><trkpt lat="45.5869282" lon="12.343065"><ele>1.2000000000000002</ele><time>2026-04-18T15:50:47.521Z</time></trkpt><trkpt lat="45.586918" lon="12.3432088"><ele>1.4000000000000001</ele><time>2026-04-18T15:50:49.524Z</time></trkpt><trkpt lat="45.5869091" lon="12.3433449"><ele>1.6</ele><time>2026-04-18T15:50:51.521Z</time></trkpt><trkpt lat="45.5869004" lon="12.3434773"><ele>1.8</ele><time>2026-04-18T15:50:53.539Z</time></trkpt><trkpt lat="45.5868931" lon="12.3436101"><ele>2.0</ele><time>2026-04-18T15:50:55.507Z</time></trkpt><trkpt lat="45.5869022" lon="12.3437479"><ele>2.2</ele><time>2026-04-18T15:50:57.529Z</time></trkpt><trkpt lat="45.5869099" lon="12.3438806"><ele>2.4000000000000004</ele><time>2026-04-18T15:50:59.523Z</time></trkpt><trkpt lat="45.5869002" lon="12.3440231"><ele>2.5999999999999996</ele><time>2026-04-18T15:51:01.537Z</time></trkpt><trkpt lat="45.586881" lon="12.3441514"><ele>2.8</ele><time>2026-04-18T15:51:03.519Z</time></trkpt><trkpt lat="45.5868572" lon="12.3442868"><ele>3.0</ele><time>2026-04-18T15:51:05.517Z</time></trkpt><trkpt lat="45.5868326" lon="12.3444203"><ele>3.0</ele><time>2026-04-18T15:51:07.518Z</time></trkpt><trkpt lat="45.586797" lon="12.3445566"><ele>3.0</ele><time>2026-04-18T15:51:09.522Z</time></trkpt><trkpt lat="45.5867589" lon="12.3446966"><ele>3.0</ele><time>2026-04-18T15:51:11.528Z</time></trkpt><trkpt lat="45.5867197" lon="12.3448314"><ele>3.0</ele><time>2026-04-18T15:51:13.523Z</time></trkpt><trkpt lat="45.5866876" lon="12.3449427"><ele>3.0</ele><time>2026-04-18T15:51:15.518Z</time></trkpt><trkpt lat="45.5866494" lon="12.3450674"><ele>3.2</ele><time>2026-04-18T15:51:17.513Z</time></trkpt><trkpt lat="45.5866116" lon="12.3451971"><ele>3.4</ele><time>2026-04-18T15:51:19.52Z</time></trkpt><trkpt lat="45.5865699" lon="12.345332"><ele>3.6000000000000005</ele><time>2026-04-18T15:51:21.529Z</time></trkpt><trkpt lat="45.5865258" lon="12.3454676"><ele>3.8000000000000003</ele><time>2026-04-18T15:51:23.526Z</time></trkpt><trkpt lat="45.5864787" lon="12.3456101"><ele>4.0</ele><time>2026-04-18T15:51:25.52Z</time></trkpt><trkpt lat="45.5864397" lon="12.3457345"><ele>3.9999999999999996</ele><time>2026-04-18T15:51:27.518Z</time></trkpt><trkpt lat="45.5864031" lon="12.3458254"><ele>4.0</ele><time>2026-04-18T15:51:29.512Z</time></trkpt><trkpt lat="45.586364" lon="12.3459359"><ele>4.0</ele><time>2026-04-18T15:51:31.517Z</time></trkpt><trkpt lat="45.5863322" lon="12.346049"><ele>4.0</ele><time>2026-04-18T15:51:33.523Z</time></trkpt><trkpt lat="45.5862972" lon="12.3461561"><ele>3.9999999999999996</ele><time>2026-04-18T15:51:35.507Z</time></trkpt><trkpt lat="45.5862614" lon="12.3462707"><ele>4.0</ele><time>2026-04-18T15:51:37.533Z</time></trkpt><trkpt lat="45.5862241" lon="12.3463821"><ele>4.0</ele><time>2026-04-18T15:51:39.521Z</time></trkpt><trkpt lat="45.5861894" lon="12.3464918"><ele>4.0</ele><time>2026-04-18T15:51:41.514Z</time></trkpt><trkpt lat="45.5861541" lon="12.346611"><ele>4.0</ele><time>2026-04-18T15:51:43.515Z</time></trkpt><trkpt lat="45.5861084" lon="12.346745"><ele>4.0</ele><time>2026-04-18T15:51:45.527Z</time></trkpt><trkpt lat="45.5860681" lon="12.3468842"><ele>4.0</ele><time>2026-04-18T15:51:47.511Z</time></trkpt><trkpt lat="45.5860358" lon="12.3470092"><ele>3.833333333333333</ele><time>2026-04-18T15:51:49.518Z</time></trkpt><trkpt lat="45.5860052" lon="12.3471162"><ele>3.6666666666666665</ele><time>2026-04-18T15:51:51.525Z</time></trkpt><trkpt lat="45.5859705" lon="12.3472227"><ele>3.5</ele><time>2026-04-18T15:51:53.528Z</time></trkpt><trkpt lat="45.585945" lon="12.3473422"><ele>3.333333333333333</ele><time>2026-04-18T15:51:55.517Z</time></trkpt><trkpt lat="45.5859171" lon="12.347458"><ele>3.1666666666666665</ele><time>2026-04-18T15:51:57.528Z</time></trkpt><trkpt lat="45.5858787" lon="12.3475803"><ele>3.0</ele><time>2026-04-18T15:51:59.524Z</time></trkpt><trkpt lat="45.5858479" lon="12.3476823"><ele>2.9999999999999996</ele><time>2026-04-18T15:52:01.522Z</time></trkpt><trkpt lat="45.5858151" lon="12.3477638"><ele>3.0</ele><time>2026-04-18T15:52:03.516Z</time></trkpt><trkpt lat="45.5857779" lon="12.3478539"><ele>3.0</ele><time>2026-04-18T15:52:05.526Z</time></trkpt><trkpt lat="45.5857466" lon="12.3479325"><ele>3.0</ele><time>2026-04-18T15:52:07.517Z</time></trkpt><trkpt lat="45.5857183" lon="12.3480271"><ele>3.0</ele><time>2026-04-18T15:52:09.509Z</time></trkpt><trkpt lat="45.5856836" lon="12.3481462"><ele>2.9999999999999996</ele><time>2026-04-18T15:52:12.502Z</time></trkpt><trkpt lat="45.5856521" lon="12.3482423"><ele>3.0</ele><time>2026-04-18T15:52:14.521Z</time></trkpt><trkpt lat="45.5856212" lon="12.3483321"><ele>3.0</ele><time>2026-04-18T15:52:16.519Z</time></trkpt><trkpt lat="45.58559" lon="12.3484214"><ele>3.0</ele><time>2026-04-18T15:52:18.51Z</time></trkpt><trkpt lat="45.5855623" lon="12.3485195"><ele>3.0</ele><time>2026-04-18T15:52:20.514Z</time></trkpt><trkpt lat="45.585537" lon="12.3486177"><ele>3.0</ele><time>2026-04-18T15:52:22.507Z</time></trkpt><trkpt lat="45.5855105" lon="12.3487144"><ele>3.0</ele><time>2026-04-18T15:52:24.521Z</time></trkpt><trkpt lat="45.5854684" lon="12.3488538"><ele>3.0</ele><time>2026-04-18T15:52:26.512Z</time></trkpt><trkpt lat="45.5854225" lon="12.3489949"><ele>3.0</ele><time>2026-04-18T15:52:28.529Z</time></trkpt><trkpt lat="45.5853709" lon="12.3491371"><ele>3.0</ele><time>2026-04-18T15:52:30.505Z</time></trkpt><trkpt lat="45.5853263" lon="12.3492718"><ele>3.0</ele><time>2026-04-18T15:52:32.503Z</time></trkpt><trkpt lat="45.585283" lon="12.3494087"><ele>3.0</ele><time>2026-04-18T15:52:34.524Z</time></trkpt><trkpt lat="45.5852407" lon="12.3495351"><ele>3.0</ele><time>2026-04-18T15:52:36.505Z</time></trkpt><trkpt lat="45.5852089" lon="12.3496404"><ele>2.8</ele><time>2026-04-18T15:52:38.508Z</time></trkpt><trkpt lat="45.5851683" lon="12.349768"><ele>2.5999999999999996</ele><time>2026-04-18T15:52:40.507Z</time></trkpt><trkpt lat="45.5851293" lon="12.349883"><ele>2.4000000000000004</ele><time>2026-04-18T15:52:42.508Z</time></trkpt><trkpt lat="45.5850912" lon="12.3500106"><ele>2.2</ele><time>2026-04-18T15:52:44.514Z</time></trkpt><trkpt lat="45.5850505" lon="12.3501512"><ele>2.0</ele><time>2026-04-18T15:52:46.506Z</time></trkpt><trkpt lat="45.5850206" lon="12.3502988"><ele>2.0</ele><time>2026-04-18T15:52:48.506Z</time></trkpt><trkpt lat="45.5849822" lon="12.3504199"><ele>2.0</ele><time>2026-04-18T15:52:50.513Z</time></trkpt><trkpt lat="45.584949" lon="12.3505474"><ele>2.0</ele><time>2026-04-18T15:52:52.52Z</time></trkpt><trkpt lat="45.5849015" lon="12.3506646"><ele>2.0</ele><time>2026-04-18T15:52:54.51Z</time></trkpt><trkpt lat="45.5848544" lon="12.3507892"><ele>2.0</ele><time>2026-04-18T15:52:56.51Z</time></trkpt><trkpt lat="45.5848215" lon="12.3509057"><ele>2.333333333333333</ele><time>2026-04-18T15:52:58.509Z</time></trkpt><trkpt lat="45.5847911" lon="12.3510144"><ele>2.6666666666666665</ele><time>2026-04-18T15:53:00.514Z</time></trkpt><trkpt lat="45.5847528" lon="12.3511268"><ele>3.0</ele><time>2026-04-18T15:53:02.507Z</time></trkpt><trkpt lat="45.5847157" lon="12.3512315"><ele>3.333333333333333</ele><time>2026-04-18T15:53:04.503Z</time></trkpt><trkpt lat="45.5846799" lon="12.3513503"><ele>3.6666666666666665</ele><time>2026-04-18T15:53:06.516Z</time></trkpt><trkpt lat="45.5846426" lon="12.3514679"><ele>4.0</ele><time>2026-04-18T15:53:08.516Z</time></trkpt><trkpt lat="45.5846069" lon="12.3515918"><ele>4.4</ele><time>2026-04-18T15:53:10.502Z</time></trkpt><trkpt lat="45.5845717" lon="12.3517173"><ele>4.800000000000001</ele><time>2026-04-18T15:53:12.505Z</time></trkpt><trkpt lat="45.5845334" lon="12.3518559"><ele>5.199999999999999</ele><time>2026-04-18T15:53:14.505Z</time></trkpt><trkpt lat="45.5844921" lon="12.3519767"><ele>5.6</ele><time>2026-04-18T15:53:16.518Z</time></trkpt><trkpt lat="45.5844453" lon="12.3520973"><ele>6.0</ele><time>2026-04-18T15:53:18.506Z</time></trkpt><trkpt lat="45.5844047" lon="12.3522246"><ele>5.0</ele><time>2026-04-18T15:53:20.503Z</time></trkpt><trkpt lat="45.5843709" lon="12.3523436"><ele>3.9999999999999996</ele><time>2026-04-18T15:53:22.506Z</time></trkpt><trkpt lat="45.5843234" lon="12.3524932"><ele>3.0</ele><time>2026-04-18T15:53:24.523Z</time></trkpt><trkpt lat="45.584287" lon="12.3526318"><ele>2.0</ele><time>2026-04-18T15:53:26.513Z</time></trkpt><trkpt lat="45.5842559" lon="12.3527393"><ele>1.0</ele><time>2026-04-18T15:53:28.504Z</time></trkpt><trkpt lat="45.5842234" lon="12.3528641"><ele>1.0</ele><time>2026-04-18T15:53:30.511Z</time></trkpt><trkpt lat="45.584188" lon="12.352973"><ele>1.0</ele><time>2026-04-18T15:53:32.521Z</time></trkpt><trkpt lat="45.5841561" lon="12.3531031"><ele>1.0</ele><time>2026-04-18T15:53:34.514Z</time></trkpt><trkpt lat="45.5841187" lon="12.3532543"><ele>1.0</ele><time>2026-04-18T15:53:36.512Z</time></trkpt><trkpt lat="45.5840824" lon="12.3533962"><ele>1.0</ele><time>2026-04-18T15:53:38.516Z</time></trkpt><trkpt lat="45.5840461" lon="12.3535463"><ele>1.0</ele><time>2026-04-18T15:53:40.502Z</time></trkpt><trkpt lat="45.5840151" lon="12.3536789"><ele>1.0</ele><time>2026-04-18T15:53:42.513Z</time></trkpt><trkpt lat="45.5839794" lon="12.3538415"><ele>1.0</ele><time>2026-04-18T15:53:44.509Z</time></trkpt><trkpt lat="45.5839459" lon="12.3539788"><ele>1.0</ele><time>2026-04-18T15:53:46.535Z</time></trkpt><trkpt lat="45.5839166" lon="12.3541174"><ele>1.0</ele><time>2026-04-18T15:53:48.52Z</time></trkpt><trkpt lat="45.5838853" lon="12.354257"><ele>1.0</ele><time>2026-04-18T15:53:50.515Z</time></trkpt><trkpt lat="45.5838582" lon="12.3543973"><ele>1.0</ele><time>2026-04-18T15:53:52.519Z</time></trkpt><trkpt lat="45.5838379" lon="12.3545456"><ele>1.0</ele><time>2026-04-18T15:53:54.51Z</time></trkpt><trkpt lat="45.5838147" lon="12.3546794"><ele>1.0</ele><time>2026-04-18T15:53:56.51Z</time></trkpt><trkpt lat="45.5837918" lon="12.3548027"><ele>1.0</ele><time>2026-04-18T15:53:58.502Z</time></trkpt><trkpt lat="45.5837672" lon="12.3549531"><ele>1.0</ele><time>2026-04-18T15:54:00.51Z</time></trkpt><trkpt lat="45.5837464" lon="12.3550995"><ele>1.0</ele><time>2026-04-18T15:54:02.519Z</time></trkpt><trkpt lat="45.5837159" lon="12.3552426"><ele>1.0</ele><time>2026-04-18T15:54:04.509Z</time></trkpt><trkpt lat="45.583696" lon="12.3553844"><ele>1.0</ele><time>2026-04-18T15:54:06.518Z</time></trkpt><trkpt lat="45.5836758" lon="12.355526"><ele>1.0</ele><time>2026-04-18T15:54:08.525Z</time></trkpt><trkpt lat="45.5836574" lon="12.3556518"><ele>1.4</ele><time>2026-04-18T15:54:10.503Z</time></trkpt><trkpt lat="45.5836246" lon="12.3557929"><ele>1.8</ele><time>2026-04-18T15:54:12.504Z</time></trkpt><trkpt lat="45.5836011" lon="12.355946"><ele>2.1999999999999997</ele><time>2026-04-18T15:54:14.516Z</time></trkpt><trkpt lat="45.5835761" lon="12.3560679"><ele>2.6</ele><time>2026-04-18T15:54:16.496Z</time></trkpt><trkpt lat="45.5835572" lon="12.3562076"><ele>3.0</ele><time>2026-04-18T15:54:18.512Z</time></trkpt><trkpt lat="45.5835288" lon="12.3563311"><ele>3.2</ele><time>2026-04-18T15:54:20.504Z</time></trkpt><trkpt lat="45.5835066" lon="12.3564602"><ele>3.4</ele><time>2026-04-18T15:54:22.519Z</time></trkpt><trkpt lat="45.5834821" lon="12.3566037"><ele>3.6000000000000005</ele><time>2026-04-18T15:54:24.517Z</time></trkpt><trkpt lat="45.583456" lon="12.3567501"><ele>3.8000000000000003</ele><time>2026-04-18T15:54:26.497Z</time></trkpt><trkpt lat="45.5834239" lon="12.3568978"><ele>4.0</ele><time>2026-04-18T15:54:28.499Z</time></trkpt><trkpt lat="45.5834026" lon="12.3570159"><ele>4.0</ele><time>2026-04-18T15:54:30.516Z</time></trkpt><trkpt lat="45.5833847" lon="12.35716"><ele>4.0</ele><time>2026-04-18T15:54:32.504Z</time></trkpt><trkpt lat="45.5833633" lon="12.357287"><ele>4.0</ele><time>2026-04-18T15:54:34.523Z</time></trkpt><trkpt lat="45.5833384" lon="12.3574357"><ele>4.0</ele><time>2026-04-18T15:54:36.503Z</time></trkpt><trkpt lat="45.5833188" lon="12.3575631"><ele>4.0</ele><time>2026-04-18T15:54:38.515Z</time></trkpt><trkpt lat="45.5832932" lon="12.3577042"><ele>4.166666666666666</ele><time>2026-04-18T15:54:40.501Z</time></trkpt><trkpt lat="45.5832753" lon="12.3577907"><ele>4.333333333333333</ele><time>2026-04-18T15:54:41.52Z</time></trkpt><trkpt lat="45.5832479" lon="12.3579351"><ele>4.5</ele><time>2026-04-18T15:54:43.52Z</time></trkpt><trkpt lat="45.5832233" lon="12.358074"><ele>4.666666666666667</ele><time>2026-04-18T15:54:45.52Z</time></trkpt><trkpt lat="45.5832055" lon="12.3581766"><ele>4.833333333333334</ele><time>2026-04-18T15:54:47.519Z</time></trkpt><trkpt lat="45.5831836" lon="12.3583065"><ele>5.0</ele><time>2026-04-18T15:54:49.506Z</time></trkpt><trkpt lat="45.5831645" lon="12.3584432"><ele>5.0</ele><time>2026-04-18T15:54:51.521Z</time></trkpt><trkpt lat="45.5831355" lon="12.3585885"><ele>5.0</ele><time>2026-04-18T15:54:53.511Z</time></trkpt><trkpt lat="45.5831129" lon="12.3587176"><ele>5.0</ele><time>2026-04-18T15:54:55.506Z</time></trkpt><trkpt lat="45.583088" lon="12.3588581"><ele>5.0</ele><time>2026-04-18T15:54:57.504Z</time></trkpt><trkpt lat="45.5830724" lon="12.3589756"><ele>5.0</ele><time>2026-04-18T15:54:59.528Z</time></trkpt><trkpt lat="45.5830464" lon="12.3591291"><ele>4.75</ele><time>2026-04-18T15:55:01.521Z</time></trkpt><trkpt lat="45.5830222" lon="12.3592651"><ele>4.5</ele><time>2026-04-18T15:55:03.511Z</time></trkpt><trkpt lat="45.5830208" lon="12.3594245"><ele>4.25</ele><time>2026-04-18T15:55:05.52Z</time></trkpt><trkpt lat="45.5829753" lon="12.3596759"><ele>4.0</ele><time>2026-04-18T15:55:09.508Z</time></trkpt><trkpt lat="45.5829722" lon="12.3598805"><ele>4.0</ele><time>2026-04-18T15:55:12.507Z</time></trkpt><trkpt lat="45.5829485" lon="12.359985"><ele>4.0</ele><time>2026-04-18T15:55:14.523Z</time></trkpt><trkpt lat="45.5828688" lon="12.3601154"><ele>4.0</ele><time>2026-04-18T15:55:16.514Z</time></trkpt><trkpt lat="45.5828512" lon="12.360236"><ele>4.0</ele><time>2026-04-18T15:55:17.528Z</time></trkpt><trkpt lat="45.5828236" lon="12.3604079"><ele>4.0</ele><time>2026-04-18T15:55:19.52Z</time></trkpt><trkpt lat="45.5827938" lon="12.3605448"><ele>3.6</ele><time>2026-04-18T15:55:21.498Z</time></trkpt><trkpt lat="45.5827739" lon="12.3606815"><ele>3.2</ele><time>2026-04-18T15:55:23.514Z</time></trkpt><trkpt lat="45.5827483" lon="12.3608244"><ele>2.8000000000000003</ele><time>2026-04-18T15:55:25.503Z</time></trkpt><trkpt lat="45.5827148" lon="12.3609764"><ele>2.4000000000000004</ele><time>2026-04-18T15:55:27.499Z</time></trkpt><trkpt lat="45.5826847" lon="12.3611219"><ele>2.0</ele><time>2026-04-18T15:55:29.516Z</time></trkpt><trkpt lat="45.5826699" lon="12.3612536"><ele>1.8</ele><time>2026-04-18T15:55:31.512Z</time></trkpt><trkpt lat="45.5826483" lon="12.3613997"><ele>1.6</ele><time>2026-04-18T15:55:33.503Z</time></trkpt><trkpt lat="45.5826226" lon="12.3615296"><ele>1.4000000000000001</ele><time>2026-04-18T15:55:35.51Z</time></trkpt><trkpt lat="45.5826024" lon="12.3616621"><ele>1.2000000000000002</ele><time>2026-04-18T15:55:37.511Z</time></trkpt><trkpt lat="45.5825851" lon="12.3617805"><ele>1.0</ele><time>2026-04-18T15:55:39.526Z</time></trkpt><trkpt lat="45.582567" lon="12.3618942"><ele>0.9999999999999999</ele><time>2026-04-18T15:55:41.533Z</time></trkpt><trkpt lat="45.5825771" lon="12.3619986"><ele>1.0</ele><time>2026-04-18T15:55:45.51Z</time></trkpt><trkpt lat="45.5826357" lon="12.3620416"><ele>1.0</ele><time>2026-04-18T15:55:49.521Z</time></trkpt><trkpt lat="45.5826578" lon="12.3621459"><ele>1.0</ele><time>2026-04-18T15:55:54.509Z</time></trkpt><trkpt lat="45.5826095" lon="12.3622324"><ele>0.9999999999999999</ele><time>2026-04-18T15:55:56.501Z</time></trkpt><trkpt lat="45.5825649" lon="12.3623348"><ele>1.0</ele><time>2026-04-18T15:55:58.516Z</time></trkpt><trkpt lat="45.5825213" lon="12.3624485"><ele>0.8333333333333333</ele><time>2026-04-18T15:56:00.527Z</time></trkpt><trkpt lat="45.5824797" lon="12.3625613"><ele>0.6666666666666666</ele><time>2026-04-18T15:56:02.504Z</time></trkpt><trkpt lat="45.5824408" lon="12.362672"><ele>0.5</ele><time>2026-04-18T15:56:04.532Z</time></trkpt><trkpt lat="45.5824091" lon="12.3627837"><ele>0.3333333333333333</ele><time>2026-04-18T15:56:06.508Z</time></trkpt><trkpt lat="45.5823809" lon="12.362891"><ele>0.16666666666666666</ele><time>2026-04-18T15:56:08.511Z</time></trkpt><trkpt lat="45.5823587" lon="12.3630248"><ele>0.0</ele><time>2026-04-18T15:56:10.518Z</time></trkpt><trkpt lat="45.582343" lon="12.3631408"><ele>0.0</ele><time>2026-04-18T15:56:12.501Z</time></trkpt><trkpt lat="45.5823281" lon="12.3632456"><ele>0.0</ele><time>2026-04-18T15:56:14.53Z</time></trkpt><trkpt lat="45.5823458" lon="12.3633504"><ele>0.0</ele><time>2026-04-18T15:56:16.51Z</time></trkpt><trkpt lat="45.5823299" lon="12.3634573"><ele>0.0</ele><time>2026-04-18T15:56:18.515Z</time></trkpt><trkpt lat="45.5822949" lon="12.3635572"><ele>0.0</ele><time>2026-04-18T15:56:20.525Z</time></trkpt><trkpt lat="45.5822678" lon="12.3636548"><ele>0.0</ele><time>2026-04-18T15:56:22.549Z</time></trkpt><trkpt lat="45.5822358" lon="12.3637676"><ele>0.16666666666666666</ele><time>2026-04-18T15:56:24.527Z</time></trkpt><trkpt lat="45.5822113" lon="12.3638676"><ele>0.3333333333333333</ele><time>2026-04-18T15:56:26.522Z</time></trkpt><trkpt lat="45.5821872" lon="12.363978"><ele>0.5</ele><time>2026-04-18T15:56:28.515Z</time></trkpt><trkpt lat="45.5821589" lon="12.3641077"><ele>0.6666666666666666</ele><time>2026-04-18T15:56:30.506Z</time></trkpt><trkpt lat="45.5821275" lon="12.3642408"><ele>0.8333333333333333</ele><time>2026-04-18T15:56:32.503Z</time></trkpt><trkpt lat="45.5820956" lon="12.3643691"><ele>1.0</ele><time>2026-04-18T15:56:34.515Z</time></trkpt><trkpt lat="45.5820623" lon="12.3644924"><ele>0.9999999999999999</ele><time>2026-04-18T15:56:36.504Z</time></trkpt><trkpt lat="45.5820289" lon="12.364611"><ele>1.0</ele><time>2026-04-18T15:56:38.531Z</time></trkpt><trkpt lat="45.5820039" lon="12.3647103"><ele>1.0</ele><time>2026-04-18T15:56:40.51Z</time></trkpt><trkpt lat="45.581979" lon="12.3648036"><ele>1.0</ele><time>2026-04-18T15:56:43.525Z</time></trkpt><trkpt lat="45.5819567" lon="12.3649261"><ele>0.9999999999999999</ele><time>2026-04-18T15:56:46.522Z</time></trkpt><trkpt lat="45.5819219" lon="12.3650698"><ele>1.0</ele><time>2026-04-18T15:56:49.522Z</time></trkpt><trkpt lat="45.5818928" lon="12.3651722"><ele>0.9999999999999999</ele><time>2026-04-18T15:56:52.516Z</time></trkpt><trkpt lat="45.5818678" lon="12.3653033"><ele>1.0</ele><time>2026-04-18T15:56:55.524Z</time></trkpt><trkpt lat="45.5818466" lon="12.3654307"><ele>1.0</ele><time>2026-04-18T15:56:58.516Z</time></trkpt><trkpt lat="45.5818167" lon="12.3655394"><ele>1.0</ele><time>2026-04-18T15:57:00.534Z</time></trkpt><trkpt lat="45.5817978" lon="12.3656354"><ele>0.9999999999999999</ele><time>2026-04-18T15:57:02.523Z</time></trkpt><trkpt lat="45.5817778" lon="12.3657279"><ele>1.0</ele><time>2026-04-18T15:57:04.511Z</time></trkpt><trkpt lat="45.5817543" lon="12.3658185"><ele>1.3333333333333333</ele><time>2026-04-18T15:57:06.511Z</time></trkpt><trkpt lat="45.5817266" lon="12.3659321"><ele>1.6666666666666665</ele><time>2026-04-18T15:57:08.51Z</time></trkpt><trkpt lat="45.5816898" lon="12.3660479"><ele>2.0</ele><time>2026-04-18T15:57:11.524Z</time></trkpt><trkpt lat="45.58166" lon="12.3661573"><ele>2.3333333333333335</ele><time>2026-04-18T15:57:14.519Z</time></trkpt><trkpt lat="45.5816273" lon="12.3662806"><ele>2.6666666666666665</ele><time>2026-04-18T15:57:17.514Z</time></trkpt><trkpt lat="45.5816064" lon="12.3663777"><ele>3.0</ele><time>2026-04-18T15:57:19.514Z</time></trkpt><trkpt lat="45.5815777" lon="12.3664987"><ele>2.9999999999999996</ele><time>2026-04-18T15:57:22.512Z</time></trkpt><trkpt lat="45.5815654" lon="12.3666011"><ele>3.0</ele><time>2026-04-18T15:57:31.516Z</time></trkpt><trkpt lat="45.5815938" lon="12.3666958"><ele>3.0</ele><time>2026-04-18T15:57:35.506Z</time></trkpt><trkpt lat="45.5815816" lon="12.3668027"><ele>3.0</ele><time>2026-04-18T15:57:38.507Z</time></trkpt><trkpt lat="45.5815479" lon="12.3668962"><ele>3.0</ele><time>2026-04-18T15:57:40.505Z</time></trkpt><trkpt lat="45.5815349" lon="12.3669874"><ele>2.9999999999999996</ele><time>2026-04-18T15:57:42.514Z</time></trkpt><trkpt lat="45.5815262" lon="12.3671056"><ele>3.0</ele><time>2026-04-18T15:57:44.509Z</time></trkpt><trkpt lat="45.5814905" lon="12.3672138"><ele>3.0</ele><time>2026-04-18T15:57:46.523Z</time></trkpt><trkpt lat="45.5814406" lon="12.3672947"><ele>3.0</ele><time>2026-04-18T15:57:48.526Z</time></trkpt><trkpt lat="45.5814032" lon="12.3674129"><ele>3.0</ele><time>2026-04-18T15:57:51.52Z</time></trkpt><trkpt lat="45.5813741" lon="12.3675297"><ele>3.0</ele><time>2026-04-18T15:57:53.525Z</time></trkpt><trkpt lat="45.5813466" lon="12.367647"><ele>3.0</ele><time>2026-04-18T15:57:55.515Z</time></trkpt><trkpt lat="45.5813261" lon="12.3677597"><ele>3.0</ele><time>2026-04-18T15:57:58.506Z</time></trkpt><trkpt lat="45.5812994" lon="12.3678548"><ele>3.0</ele><time>2026-04-18T15:58:00.525Z</time></trkpt><trkpt lat="45.5812792" lon="12.3679493"><ele>3.0</ele><time>2026-04-18T15:58:02.511Z</time></trkpt><trkpt lat="45.5812554" lon="12.3680552"><ele>3.0</ele><time>2026-04-18T15:58:05.537Z</time></trkpt><trkpt lat="45.5812296" lon="12.3681568"><ele>3.0</ele><time>2026-04-18T15:58:07.529Z</time></trkpt><trkpt lat="45.5812068" lon="12.3682658"><ele>3.0</ele><time>2026-04-18T15:58:09.514Z</time></trkpt><trkpt lat="45.5811862" lon="12.3683598"><ele>3.0</ele><time>2026-04-18T15:58:11.524Z</time></trkpt><trkpt lat="45.5811455" lon="12.368474"><ele>2.8</ele><time>2026-04-18T15:58:14.509Z</time></trkpt><trkpt lat="45.581123" lon="12.368577"><ele>2.5999999999999996</ele><time>2026-04-18T15:58:17.519Z</time></trkpt><trkpt lat="45.5810957" lon="12.3686659"><ele>2.4000000000000004</ele><time>2026-04-18T15:58:21.53Z</time></trkpt><trkpt lat="45.5810196" lon="12.3687531"><ele>2.2</ele><time>2026-04-18T15:58:25.515Z</time></trkpt><trkpt lat="45.5809784" lon="12.3689016"><ele>2.0</ele><time>2026-04-18T15:58:27.506Z</time></trkpt><trkpt lat="45.5809407" lon="12.3690365"><ele>2.0</ele><time>2026-04-18T15:58:29.509Z</time></trkpt><trkpt lat="45.5809059" lon="12.3691775"><ele>2.0</ele><time>2026-04-18T15:58:31.509Z</time></trkpt><trkpt lat="45.5808752" lon="12.3693275"><ele>2.0</ele><time>2026-04-18T15:58:33.517Z</time></trkpt><trkpt lat="45.5808444" lon="12.3694745"><ele>2.0</ele><time>2026-04-18T15:58:35.516Z</time></trkpt><trkpt lat="45.5808185" lon="12.3696137"><ele>2.0</ele><time>2026-04-18T15:58:37.508Z</time></trkpt><trkpt lat="45.5807814" lon="12.3697616"><ele>2.4000000000000004</ele><time>2026-04-18T15:58:39.522Z</time></trkpt><trkpt lat="45.5807435" lon="12.3699113"><ele>2.8000000000000003</ele><time>2026-04-18T15:58:41.518Z</time></trkpt><trkpt lat="45.5807095" lon="12.3700539"><ele>3.2</ele><time>2026-04-18T15:58:43.531Z</time></trkpt><trkpt lat="45.5806757" lon="12.3701784"><ele>3.6</ele><time>2026-04-18T15:58:45.506Z</time></trkpt><trkpt lat="45.5806422" lon="12.370314"><ele>4.0</ele><time>2026-04-18T15:58:47.54Z</time></trkpt><trkpt lat="45.5806145" lon="12.3704169"><ele>4.0</ele><time>2026-04-18T15:58:49.515Z</time></trkpt><trkpt lat="45.5805451" lon="12.3704626"><ele>4.0</ele><time>2026-04-18T15:58:51.534Z</time></trkpt><trkpt lat="45.58045" lon="12.3704024"><ele>4.0</ele><time>2026-04-18T15:58:53.525Z</time></trkpt><trkpt lat="45.5803714" lon="12.3703441"><ele>4.0</ele><time>2026-04-18T15:58:55.511Z</time></trkpt><trkpt lat="45.5802935" lon="12.3702822"><ele>4.0</ele><time>2026-04-18T15:58:57.512Z</time></trkpt><trkpt lat="45.5802023" lon="12.3702008"><ele>3.8000000000000003</ele><time>2026-04-18T15:58:59.528Z</time></trkpt><trkpt lat="45.5801206" lon="12.3701378"><ele>3.6000000000000005</ele><time>2026-04-18T15:59:01.502Z</time></trkpt><trkpt lat="45.5800233" lon="12.3700689"><ele>3.4</ele><time>2026-04-18T15:59:03.515Z</time></trkpt><trkpt lat="45.5799309" lon="12.3699982"><ele>3.2</ele><time>2026-04-18T15:59:05.514Z</time></trkpt><trkpt lat="45.579834" lon="12.3699229"><ele>3.0</ele><time>2026-04-18T15:59:07.508Z</time></trkpt><trkpt lat="45.5797391" lon="12.369846"><ele>3.0</ele><time>2026-04-18T15:59:09.505Z</time></trkpt><trkpt lat="45.5796468" lon="12.3697717"><ele>3.0</ele><time>2026-04-18T15:59:11.522Z</time></trkpt><trkpt lat="45.5795588" lon="12.3697081"><ele>3.0</ele><time>2026-04-18T15:59:13.509Z</time></trkpt><trkpt lat="45.579469" lon="12.3696395"><ele>3.0</ele><time>2026-04-18T15:59:15.505Z</time></trkpt><trkpt lat="45.5793933" lon="12.369582"><ele>3.0</ele><time>2026-04-18T15:59:17.525Z</time></trkpt><trkpt lat="45.579302" lon="12.3695078"><ele>3.2</ele><time>2026-04-18T15:59:19.507Z</time></trkpt><trkpt lat="45.5792232" lon="12.3694572"><ele>3.4</ele><time>2026-04-18T15:59:21.532Z</time></trkpt><trkpt lat="45.5791337" lon="12.3693877"><ele>3.6000000000000005</ele><time>2026-04-18T15:59:23.516Z</time></trkpt><trkpt lat="45.5790409" lon="12.3693227"><ele>3.8000000000000003</ele><time>2026-04-18T15:59:25.51Z</time></trkpt><trkpt lat="45.5789539" lon="12.3692709"><ele>4.0</ele><time>2026-04-18T15:59:27.52Z</time></trkpt><trkpt lat="45.5788747" lon="12.369219"><ele>4.0</ele><time>2026-04-18T15:59:29.517Z</time></trkpt><trkpt lat="45.5787904" lon="12.369157"><ele>4.0</ele><time>2026-04-18T15:59:31.515Z</time></trkpt><trkpt lat="45.5786995" lon="12.369096"><ele>4.0</ele><time>2026-04-18T15:59:33.503Z</time></trkpt><trkpt lat="45.5786191" lon="12.3690356"><ele>4.0</ele><time>2026-04-18T15:59:35.525Z</time></trkpt><trkpt lat="45.578523" lon="12.368965"><ele>4.0</ele><time>2026-04-18T15:59:37.519Z</time></trkpt><trkpt lat="45.5784315" lon="12.3689056"><ele>4.0</ele><time>2026-04-18T15:59:39.519Z</time></trkpt><trkpt lat="45.5783607" lon="12.3688446"><ele>4.0</ele><time>2026-04-18T15:59:41.516Z</time></trkpt><trkpt lat="45.5782919" lon="12.3687837"><ele>4.0</ele><time>2026-04-18T15:59:43.52Z</time></trkpt><trkpt lat="45.5781941" lon="12.3687104"><ele>4.0</ele><time>2026-04-18T15:59:45.529Z</time></trkpt><trkpt lat="45.5780983" lon="12.3686341"><ele>4.0</ele><time>2026-04-18T15:59:47.51Z</time></trkpt><trkpt lat="45.5780101" lon="12.3685596"><ele>4.0</ele><time>2026-04-18T15:59:49.507Z</time></trkpt><trkpt lat="45.5779246" lon="12.3684977"><ele>4.0</ele><time>2026-04-18T15:59:51.512Z</time></trkpt><trkpt lat="45.5778396" lon="12.3684378"><ele>4.0</ele><time>2026-04-18T15:59:53.523Z</time></trkpt><trkpt lat="45.5777592" lon="12.368376"><ele>4.0</ele><time>2026-04-18T15:59:55.505Z</time></trkpt><trkpt lat="45.5776795" lon="12.3683125"><ele>4.0</ele><time>2026-04-18T15:59:57.515Z</time></trkpt><trkpt lat="45.5775999" lon="12.3682543"><ele>4.0</ele><time>2026-04-18T15:59:59.525Z</time></trkpt><trkpt lat="45.5775267" lon="12.3682052"><ele>3.9999999999999996</ele><time>2026-04-18T16:00:01.519Z</time></trkpt><trkpt lat="45.5774573" lon="12.3681514"><ele>4.0</ele><time>2026-04-18T16:00:03.516Z</time></trkpt><trkpt lat="45.5773988" lon="12.3681071"><ele>4.0</ele><time>2026-04-18T16:00:05.518Z</time></trkpt><trkpt lat="45.5773402" lon="12.3680629"><ele>3.9999999999999996</ele><time>2026-04-18T16:00:07.502Z</time></trkpt><trkpt lat="45.5772674" lon="12.3680168"><ele>4.0</ele><time>2026-04-18T16:00:10.509Z</time></trkpt><trkpt lat="45.5772183" lon="12.3680937"><ele>4.0</ele><time>2026-04-18T16:00:14.52Z</time></trkpt><trkpt lat="45.5772183" lon="12.3682048"><ele>3.9999999999999996</ele><time>2026-04-18T16:00:17.58Z</time></trkpt><trkpt lat="45.5771948" lon="12.3682884"><ele>4.0</ele><time>2026-04-18T16:00:19.499Z</time></trkpt><trkpt lat="45.5771727" lon="12.3684202"><ele>4.0</ele><time>2026-04-18T16:00:21.514Z</time></trkpt><trkpt lat="45.5771425" lon="12.3685508"><ele>4.0</ele><time>2026-04-18T16:00:23.504Z</time></trkpt><trkpt lat="45.5771253" lon="12.3686481"><ele>3.9999999999999996</ele><time>2026-04-18T16:00:25.523Z</time></trkpt><trkpt lat="45.5770962" lon="12.3687844"><ele>4.0</ele><time>2026-04-18T16:00:27.508Z</time></trkpt><trkpt lat="45.5770683" lon="12.3688994"><ele>4.0</ele><time>2026-04-18T16:00:29.505Z</time></trkpt><trkpt lat="45.5770541" lon="12.3689987"><ele>4.0</ele><time>2026-04-18T16:00:31.513Z</time></trkpt><trkpt lat="45.5770639" lon="12.3691336"><ele>4.0</ele><time>2026-04-18T16:00:33.52Z</time></trkpt><trkpt lat="45.5771351" lon="12.3692558"><ele>4.0</ele><time>2026-04-18T16:00:35.518Z</time></trkpt><trkpt lat="45.5771727" lon="12.3693805"><ele>4.0</ele><time>2026-04-18T16:00:38.53Z</time></trkpt><trkpt lat="45.577151" lon="12.3695023"><ele>3.9999999999999996</ele><time>2026-04-18T16:00:41.501Z</time></trkpt><trkpt lat="45.5770618" lon="12.3694783"><ele>4.0</ele><time>2026-04-18T16:00:46.503Z</time></trkpt><trkpt lat="45.5770077" lon="12.3693908"><ele>4.0</ele><time>2026-04-18T16:00:48.529Z</time></trkpt><trkpt lat="45.5769547" lon="12.3693079"><ele>4.0</ele><time>2026-04-18T16:00:50.539Z</time></trkpt><trkpt lat="45.576901" lon="12.369251"><ele>3.9999999999999996</ele><time>2026-04-18T16:00:52.514Z</time></trkpt><trkpt lat="45.576848" lon="12.3691632"><ele>4.0</ele><time>2026-04-18T16:00:54.504Z</time></trkpt><trkpt lat="45.5767841" lon="12.3690692"><ele>3.8000000000000003</ele><time>2026-04-18T16:00:56.502Z</time></trkpt><trkpt lat="45.5767286" lon="12.3689691"><ele>3.6000000000000005</ele><time>2026-04-18T16:00:58.499Z</time></trkpt><trkpt lat="45.5766725" lon="12.3688551"><ele>3.4</ele><time>2026-04-18T16:01:00.511Z</time></trkpt><trkpt lat="45.5766218" lon="12.3687596"><ele>3.2</ele><time>2026-04-18T16:01:02.532Z</time></trkpt><trkpt lat="45.5765533" lon="12.3686555"><ele>3.0</ele><time>2026-04-18T16:01:04.509Z</time></trkpt><trkpt lat="45.5764973" lon="12.3685554"><ele>3.0</ele><time>2026-04-18T16:01:06.517Z</time></trkpt><trkpt lat="45.5764317" lon="12.3684296"><ele>3.0</ele><time>2026-04-18T16:01:08.509Z</time></trkpt><trkpt lat="45.5763675" lon="12.3683202"><ele>3.0</ele><time>2026-04-18T16:01:10.505Z</time></trkpt><trkpt lat="45.5763102" lon="12.3682108"><ele>3.0</ele><time>2026-04-18T16:01:12.513Z</time></trkpt><trkpt lat="45.5762519" lon="12.3681071"><ele>3.0</ele><time>2026-04-18T16:01:14.523Z</time></trkpt><trkpt lat="45.5761899" lon="12.3679868"><ele>2.8</ele><time>2026-04-18T16:01:16.527Z</time></trkpt><trkpt lat="45.5761326" lon="12.3678872"><ele>2.5999999999999996</ele><time>2026-04-18T16:01:18.506Z</time></trkpt><trkpt lat="45.5760709" lon="12.3677776"><ele>2.4000000000000004</ele><time>2026-04-18T16:01:20.524Z</time></trkpt><trkpt lat="45.5760086" lon="12.3676675"><ele>2.2</ele><time>2026-04-18T16:01:22.506Z</time></trkpt><trkpt lat="45.5759379" lon="12.3675524"><ele>2.0</ele><time>2026-04-18T16:01:24.522Z</time></trkpt><trkpt lat="45.5758793" lon="12.3674505"><ele>2.0</ele><time>2026-04-18T16:01:26.513Z</time></trkpt><trkpt lat="45.5758172" lon="12.3673449"><ele>2.0</ele><time>2026-04-18T16:01:28.518Z</time></trkpt><trkpt lat="45.5757537" lon="12.3672353"><ele>2.0</ele><time>2026-04-18T16:01:30.5Z</time></trkpt><trkpt lat="45.5756907" lon="12.3671331"><ele>2.0</ele><time>2026-04-18T16:01:32.513Z</time></trkpt><trkpt lat="45.5756213" lon="12.3670203"><ele>2.0</ele><time>2026-04-18T16:01:34.514Z</time></trkpt><trkpt lat="45.5755572" lon="12.366907"><ele>2.0</ele><time>2026-04-18T16:01:36.517Z</time></trkpt><trkpt lat="45.5754909" lon="12.3668022"><ele>2.0</ele><time>2026-04-18T16:01:38.519Z</time></trkpt><trkpt lat="45.5754204" lon="12.3666998"><ele>2.0</ele><time>2026-04-18T16:01:40.507Z</time></trkpt><trkpt lat="45.5753414" lon="12.3666169"><ele>2.0</ele><time>2026-04-18T16:01:42.522Z</time></trkpt><trkpt lat="45.5752505" lon="12.3665337"><ele>2.0</ele><time>2026-04-18T16:01:44.515Z</time></trkpt><trkpt lat="45.5751652" lon="12.366463"><ele>2.1666666666666665</ele><time>2026-04-18T16:01:46.52Z</time></trkpt><trkpt lat="45.5750784" lon="12.366402"><ele>2.333333333333333</ele><time>2026-04-18T16:01:48.518Z</time></trkpt><trkpt lat="45.5750143" lon="12.3663536"><ele>2.5</ele><time>2026-04-18T16:01:50.507Z</time></trkpt><trkpt lat="45.5749426" lon="12.3663018"><ele>2.6666666666666665</ele><time>2026-04-18T16:01:52.512Z</time></trkpt><trkpt lat="45.5748746" lon="12.3662556"><ele>2.8333333333333335</ele><time>2026-04-18T16:01:54.519Z</time></trkpt><trkpt lat="45.5748033" lon="12.3661995"><ele>3.0</ele><time>2026-04-18T16:01:56.523Z</time></trkpt><trkpt lat="45.5747206" lon="12.3661353"><ele>3.0</ele><time>2026-04-18T16:01:59.522Z</time></trkpt><trkpt lat="45.57465" lon="12.3661074"><ele>3.0</ele><time>2026-04-18T16:02:01.522Z</time></trkpt><trkpt lat="45.574571" lon="12.3660685"><ele>3.0</ele><time>2026-04-18T16:02:03.518Z</time></trkpt><trkpt lat="45.5745153" lon="12.3660131"><ele>3.0</ele><time>2026-04-18T16:02:05.505Z</time></trkpt><trkpt lat="45.5744297" lon="12.3659697"><ele>3.0</ele><time>2026-04-18T16:02:08.511Z</time></trkpt><trkpt lat="45.5743567" lon="12.3659123"><ele>3.0</ele><time>2026-04-18T16:02:10.537Z</time></trkpt><trkpt lat="45.5742699" lon="12.365831"><ele>3.0</ele><time>2026-04-18T16:02:12.516Z</time></trkpt><trkpt lat="45.5741918" lon="12.3657527"><ele>3.0</ele><time>2026-04-18T16:02:14.505Z</time></trkpt><trkpt lat="45.5741193" lon="12.3656823"><ele>3.0</ele><time>2026-04-18T16:02:16.506Z</time></trkpt><trkpt lat="45.5740628" lon="12.3656319"><ele>3.0</ele><time>2026-04-18T16:02:17.517Z</time></trkpt><trkpt lat="45.5739736" lon="12.3655529"><ele>3.0</ele><time>2026-04-18T16:02:19.535Z</time></trkpt><trkpt lat="45.5739127" lon="12.3654892"><ele>3.0</ele><time>2026-04-18T16:02:20.505Z</time></trkpt><trkpt lat="45.573852" lon="12.3654475"><ele>3.0</ele><time>2026-04-18T16:02:22.535Z</time></trkpt><trkpt lat="45.5737718" lon="12.3654025"><ele>3.0</ele><time>2026-04-18T16:02:24.505Z</time></trkpt><trkpt lat="45.573679" lon="12.3653588"><ele>3.0</ele><time>2026-04-18T16:02:26.508Z</time></trkpt><trkpt lat="45.5735728" lon="12.3653363"><ele>3.0</ele><time>2026-04-18T16:02:28.518Z</time></trkpt><trkpt lat="45.5734832" lon="12.3653063"><ele>3.0</ele><time>2026-04-18T16:02:30.536Z</time></trkpt><trkpt lat="45.5734049" lon="12.3652829"><ele>3.2</ele><time>2026-04-18T16:02:32.519Z</time></trkpt><trkpt lat="45.5733448" lon="12.3652241"><ele>3.4</ele><time>2026-04-18T16:02:34.518Z</time></trkpt><trkpt lat="45.5732723" lon="12.3651498"><ele>3.6000000000000005</ele><time>2026-04-18T16:02:36.513Z</time></trkpt><trkpt lat="45.5731836" lon="12.3650835"><ele>3.8000000000000003</ele><time>2026-04-18T16:02:38.504Z</time></trkpt><trkpt lat="45.5730819" lon="12.3650123"><ele>4.0</ele><time>2026-04-18T16:02:40.526Z</time></trkpt><trkpt lat="45.5729956" lon="12.3649372"><ele>4.0</ele><time>2026-04-18T16:02:42.51Z</time></trkpt><trkpt lat="45.5729157" lon="12.3648798"><ele>4.0</ele><time>2026-04-18T16:02:43.508Z</time></trkpt><trkpt lat="45.5728222" lon="12.3648052"><ele>4.0</ele><time>2026-04-18T16:02:45.533Z</time></trkpt><trkpt lat="45.5727443" lon="12.3647394"><ele>4.0</ele><time>2026-04-18T16:02:47.512Z</time></trkpt><trkpt lat="45.5726646" lon="12.3646781"><ele>4.0</ele><time>2026-04-18T16:02:49.521Z</time></trkpt><trkpt lat="45.5725847" lon="12.3646227"><ele>3.8000000000000003</ele><time>2026-04-18T16:02:51.516Z</time></trkpt><trkpt lat="45.572483" lon="12.3645545"><ele>3.6000000000000005</ele><time>2026-04-18T16:02:53.506Z</time></trkpt><trkpt lat="45.5723839" lon="12.3644924"><ele>3.4</ele><time>2026-04-18T16:02:55.517Z</time></trkpt><trkpt lat="45.5722829" lon="12.3644196"><ele>3.2</ele><time>2026-04-18T16:02:57.518Z</time></trkpt><trkpt lat="45.5721866" lon="12.3643472"><ele>3.0</ele><time>2026-04-18T16:02:59.528Z</time></trkpt><trkpt lat="45.5720917" lon="12.3642751"><ele>3.2</ele><time>2026-04-18T16:03:01.516Z</time></trkpt><trkpt lat="45.5720073" lon="12.364207"><ele>3.4</ele><time>2026-04-18T16:03:03.513Z</time></trkpt><trkpt lat="45.571919" lon="12.3641485"><ele>3.6000000000000005</ele><time>2026-04-18T16:03:05.512Z</time></trkpt><trkpt lat="45.5718324" lon="12.3640911"><ele>3.8000000000000003</ele><time>2026-04-18T16:03:07.521Z</time></trkpt><trkpt lat="45.5717454" lon="12.3640364"><ele>4.0</ele><time>2026-04-18T16:03:09.521Z</time></trkpt><trkpt lat="45.5716519" lon="12.3639618"><ele>4.0</ele><time>2026-04-18T16:03:11.519Z</time></trkpt><trkpt lat="45.5715546" lon="12.3639004"><ele>4.0</ele><time>2026-04-18T16:03:13.521Z</time></trkpt><trkpt lat="45.5714675" lon="12.3638178"><ele>4.0</ele><time>2026-04-18T16:03:15.519Z</time></trkpt><trkpt lat="45.5713718" lon="12.3637335"><ele>4.0</ele><time>2026-04-18T16:03:17.521Z</time></trkpt><trkpt lat="45.5712821" lon="12.3636728"><ele>4.0</ele><time>2026-04-18T16:03:19.519Z</time></trkpt><trkpt lat="45.5711939" lon="12.363619"><ele>3.6</ele><time>2026-04-18T16:03:21.518Z</time></trkpt><trkpt lat="45.571112" lon="12.3635661"><ele>3.2</ele><time>2026-04-18T16:03:23.532Z</time></trkpt><trkpt lat="45.5710187" lon="12.3635104"><ele>2.8000000000000003</ele><time>2026-04-18T16:03:25.527Z</time></trkpt><trkpt lat="45.5709455" lon="12.3634581"><ele>2.4000000000000004</ele><time>2026-04-18T16:03:27.53Z</time></trkpt><trkpt lat="45.5708446" lon="12.3633732"><ele>2.0</ele><time>2026-04-18T16:03:29.517Z</time></trkpt><trkpt lat="45.5707744" lon="12.3633193"><ele>2.0</ele><time>2026-04-18T16:03:31.52Z</time></trkpt><trkpt lat="45.5706728" lon="12.3632437"><ele>2.0</ele><time>2026-04-18T16:03:33.506Z</time></trkpt><trkpt lat="45.5705793" lon="12.3631755"><ele>2.0</ele><time>2026-04-18T16:03:35.503Z</time></trkpt><trkpt lat="45.5704958" lon="12.3631084"><ele>2.0</ele><time>2026-04-18T16:03:37.529Z</time></trkpt><trkpt lat="45.5704119" lon="12.3630428"><ele>2.0</ele><time>2026-04-18T16:03:39.525Z</time></trkpt><trkpt lat="45.5703235" lon="12.3629756"><ele>2.0</ele><time>2026-04-18T16:03:41.53Z</time></trkpt><trkpt lat="45.5702336" lon="12.3629053"><ele>2.0</ele><time>2026-04-18T16:03:43.52Z</time></trkpt><trkpt lat="45.5701376" lon="12.3628381"><ele>2.0</ele><time>2026-04-18T16:03:45.519Z</time></trkpt><trkpt lat="45.5700499" lon="12.3627706"><ele>2.0</ele><time>2026-04-18T16:03:47.528Z</time></trkpt><trkpt lat="45.5699631" lon="12.3626996"><ele>2.0</ele><time>2026-04-18T16:03:49.551Z</time></trkpt><trkpt lat="45.5698591" lon="12.3626313"><ele>2.0</ele><time>2026-04-18T16:03:51.515Z</time></trkpt><trkpt lat="45.5697433" lon="12.3625321"><ele>2.0</ele><time>2026-04-18T16:03:53.514Z</time></trkpt><trkpt lat="45.5696462" lon="12.3624627"><ele>2.0</ele><time>2026-04-18T16:03:55.515Z</time></trkpt><trkpt lat="45.5695508" lon="12.3623884"><ele>2.0</ele><time>2026-04-18T16:03:57.54Z</time></trkpt><trkpt lat="45.569478" lon="12.3623131"><ele>2.0</ele><time>2026-04-18T16:03:59.512Z</time></trkpt><trkpt lat="45.5694279" lon="12.3622076"><ele>1.4000000000000001</ele><time>2026-04-18T16:04:01.512Z</time></trkpt><trkpt lat="45.5694041" lon="12.3620862"><ele>0.8000000000000002</ele><time>2026-04-18T16:04:03.523Z</time></trkpt><trkpt lat="45.5693819" lon="12.3619392"><ele>0.19999999999999996</ele><time>2026-04-18T16:04:05.507Z</time></trkpt><trkpt lat="45.5693431" lon="12.3618053"><ele>-0.4</ele><time>2026-04-18T16:04:07.513Z</time></trkpt><trkpt lat="45.5693067" lon="12.3617014"><ele>-1.0</ele><time>2026-04-18T16:04:09.515Z</time></trkpt><trkpt lat="45.569311" lon="12.3615721"><ele>-0.9999999999999999</ele><time>2026-04-18T16:04:11.52Z</time></trkpt><trkpt lat="45.5693235" lon="12.3614723"><ele>-1.0</ele><time>2026-04-18T16:04:13.516Z</time></trkpt><trkpt lat="45.5693404" lon="12.3613838"><ele>-1.0</ele><time>2026-04-18T16:04:16.501Z</time></trkpt><trkpt lat="45.5692676" lon="12.3613813"><ele>-1.0</ele><time>2026-04-18T16:04:19.519Z</time></trkpt><trkpt lat="45.5692078" lon="12.3614689"><ele>-0.9999999999999999</ele><time>2026-04-18T16:04:21.529Z</time></trkpt><trkpt lat="45.5691178" lon="12.3615087"><ele>-1.0</ele><time>2026-04-18T16:04:23.517Z</time></trkpt><trkpt lat="45.5690223" lon="12.3615359"><ele>-1.0</ele><time>2026-04-18T16:04:25.52Z</time></trkpt><trkpt lat="45.568931" lon="12.3615745"><ele>-1.0</ele><time>2026-04-18T16:04:27.528Z</time></trkpt><trkpt lat="45.5688372" lon="12.3616133"><ele>-1.0</ele><time>2026-04-18T16:04:29.54Z</time></trkpt><trkpt lat="45.5687444" lon="12.3616466"><ele>-1.0</ele><time>2026-04-18T16:04:31.527Z</time></trkpt><trkpt lat="45.5686464" lon="12.3616219"><ele>-1.0</ele><time>2026-04-18T16:04:33.52Z</time></trkpt><trkpt lat="45.5685563" lon="12.3615477"><ele>-0.8</ele><time>2026-04-18T16:04:35.508Z</time></trkpt><trkpt lat="45.5684687" lon="12.3614935"><ele>-0.6000000000000001</ele><time>2026-04-18T16:04:37.522Z</time></trkpt><trkpt lat="45.5683766" lon="12.3614571"><ele>-0.4</ele><time>2026-04-18T16:04:39.521Z</time></trkpt><trkpt lat="45.5682831" lon="12.3614248"><ele>-0.2</ele><time>2026-04-18T16:04:41.514Z</time></trkpt><trkpt lat="45.5681935" lon="12.3613575"><ele>0.0</ele><time>2026-04-18T16:04:43.532Z</time></trkpt><trkpt lat="45.5681086" lon="12.3612973"><ele>0.0</ele><time>2026-04-18T16:04:45.513Z</time></trkpt><trkpt lat="45.5680306" lon="12.361241"><ele>0.0</ele><time>2026-04-18T16:04:47.53Z</time></trkpt><trkpt lat="45.5679451" lon="12.3611739"><ele>0.0</ele><time>2026-04-18T16:04:49.517Z</time></trkpt><trkpt lat="45.5678564" lon="12.3611143"><ele>0.0</ele><time>2026-04-18T16:04:51.517Z</time></trkpt><trkpt lat="45.5677706" lon="12.361054"><ele>0.0</ele><time>2026-04-18T16:04:53.531Z</time></trkpt><trkpt lat="45.5676795" lon="12.3609888"><ele>0.4</ele><time>2026-04-18T16:04:55.506Z</time></trkpt><trkpt lat="45.5675951" lon="12.3609283"><ele>0.8</ele><time>2026-04-18T16:04:57.521Z</time></trkpt><trkpt lat="45.5674964" lon="12.3608531"><ele>1.2000000000000002</ele><time>2026-04-18T16:04:59.51Z</time></trkpt><trkpt lat="45.5674036" lon="12.3607866"><ele>1.6</ele><time>2026-04-18T16:05:01.53Z</time></trkpt><trkpt lat="45.5673182" lon="12.3607302"><ele>2.0</ele><time>2026-04-18T16:05:03.516Z</time></trkpt><trkpt lat="45.5672435" lon="12.3606909"><ele>2.0</ele><time>2026-04-18T16:05:05.516Z</time></trkpt><trkpt lat="45.5671659" lon="12.3606412"><ele>2.0</ele><time>2026-04-18T16:05:07.546Z</time></trkpt><trkpt lat="45.5670816" lon="12.3605746"><ele>2.0</ele><time>2026-04-18T16:05:09.521Z</time></trkpt><trkpt lat="45.5669894" lon="12.3605053"><ele>2.0</ele><time>2026-04-18T16:05:11.518Z</time></trkpt><trkpt lat="45.5669034" lon="12.3604422"><ele>2.0</ele><time>2026-04-18T16:05:13.521Z</time></trkpt><trkpt lat="45.5668149" lon="12.3603848"><ele>2.2</ele><time>2026-04-18T16:05:15.528Z</time></trkpt><trkpt lat="45.5667162" lon="12.3603143"><ele>2.4000000000000004</ele><time>2026-04-18T16:05:17.517Z</time></trkpt><trkpt lat="45.5666299" lon="12.3602638"><ele>2.5999999999999996</ele><time>2026-04-18T16:05:19.512Z</time></trkpt><trkpt lat="45.5665399" lon="12.3602227"><ele>2.8</ele><time>2026-04-18T16:05:21.521Z</time></trkpt><trkpt lat="45.5664555" lon="12.3601853"><ele>3.0</ele><time>2026-04-18T16:05:23.519Z</time></trkpt><trkpt lat="45.5663713" lon="12.3601442"><ele>3.0</ele><time>2026-04-18T16:05:25.522Z</time></trkpt><trkpt lat="45.5662795" lon="12.3601042"><ele>3.0</ele><time>2026-04-18T16:05:27.541Z</time></trkpt><trkpt lat="45.5662034" lon="12.360076"><ele>3.0</ele><time>2026-04-18T16:05:29.525Z</time></trkpt><trkpt lat="45.566126" lon="12.3600412"><ele>3.0</ele><time>2026-04-18T16:05:31.531Z</time></trkpt><trkpt lat="45.5660434" lon="12.3600043"><ele>3.0</ele><time>2026-04-18T16:05:33.537Z</time></trkpt><trkpt lat="45.5659539" lon="12.359944"><ele>3.0</ele><time>2026-04-18T16:05:35.517Z</time></trkpt><trkpt lat="45.5658703" lon="12.3598822"><ele>2.8333333333333335</ele><time>2026-04-18T16:05:37.523Z</time></trkpt><trkpt lat="45.5658245" lon="12.3598026"><ele>2.6666666666666665</ele><time>2026-04-18T16:05:39.517Z</time></trkpt><trkpt lat="45.5658333" lon="12.3596893"><ele>2.5</ele><time>2026-04-18T16:05:41.518Z</time></trkpt><trkpt lat="45.5658629" lon="12.3595657"><ele>2.333333333333333</ele><time>2026-04-18T16:05:43.516Z</time></trkpt><trkpt lat="45.5658822" lon="12.3594775"><ele>2.1666666666666665</ele><time>2026-04-18T16:05:44.509Z</time></trkpt><trkpt lat="45.5659237" lon="12.3593468"><ele>2.0</ele><time>2026-04-18T16:05:46.515Z</time></trkpt><trkpt lat="45.5659522" lon="12.3592054"><ele>1.6</ele><time>2026-04-18T16:05:48.521Z</time></trkpt><trkpt lat="45.5659732" lon="12.3590633"><ele>1.2000000000000002</ele><time>2026-04-18T16:05:50.521Z</time></trkpt><trkpt lat="45.5659988" lon="12.3589117"><ele>0.8</ele><time>2026-04-18T16:05:52.51Z</time></trkpt><trkpt lat="45.5660302" lon="12.3587687"><ele>0.4</ele><time>2026-04-18T16:05:54.521Z</time></trkpt><trkpt lat="45.5660619" lon="12.3586253"><ele>0.0</ele><time>2026-04-18T16:05:56.508Z</time></trkpt><trkpt lat="45.5660921" lon="12.3584801"><ele>-0.2</ele><time>2026-04-18T16:05:58.508Z</time></trkpt><trkpt lat="45.5661255" lon="12.358346"><ele>-0.4</ele><time>2026-04-18T16:06:00.519Z</time></trkpt><trkpt lat="45.5661585" lon="12.3582053"><ele>-0.6000000000000001</ele><time>2026-04-18T16:06:02.504Z</time></trkpt><trkpt lat="45.5661908" lon="12.358069"><ele>-0.8</ele><time>2026-04-18T16:06:04.525Z</time></trkpt><trkpt lat="45.5662246" lon="12.3579381"><ele>-1.0</ele><time>2026-04-18T16:06:06.521Z</time></trkpt><trkpt lat="45.5662576" lon="12.3577968"><ele>-0.4</ele><time>2026-04-18T16:06:08.506Z</time></trkpt><trkpt lat="45.5662827" lon="12.3576527"><ele>0.19999999999999996</ele><time>2026-04-18T16:06:10.502Z</time></trkpt><trkpt lat="45.5663152" lon="12.3575258"><ele>0.8000000000000002</ele><time>2026-04-18T16:06:12.517Z</time></trkpt><trkpt lat="45.5663397" lon="12.3573767"><ele>1.4000000000000001</ele><time>2026-04-18T16:06:14.506Z</time></trkpt><trkpt lat="45.5663711" lon="12.357247"><ele>2.0</ele><time>2026-04-18T16:06:16.517Z</time></trkpt><trkpt lat="45.566401" lon="12.3570945"><ele>2.0</ele><time>2026-04-18T16:06:18.508Z</time></trkpt><trkpt lat="45.5664343" lon="12.3569447"><ele>2.0</ele><time>2026-04-18T16:06:20.509Z</time></trkpt><trkpt lat="45.566474" lon="12.3568093"><ele>2.0</ele><time>2026-04-18T16:06:22.514Z</time></trkpt><trkpt lat="45.5665104" lon="12.356678"><ele>2.0</ele><time>2026-04-18T16:06:24.511Z</time></trkpt><trkpt lat="45.5665413" lon="12.3565582"><ele>2.0</ele><time>2026-04-18T16:06:26.504Z</time></trkpt><trkpt lat="45.566576" lon="12.356416"><ele>2.2</ele><time>2026-04-18T16:06:28.509Z</time></trkpt><trkpt lat="45.5666132" lon="12.3562824"><ele>2.4000000000000004</ele><time>2026-04-18T16:06:30.522Z</time></trkpt><trkpt lat="45.566649" lon="12.3561514"><ele>2.5999999999999996</ele><time>2026-04-18T16:06:32.513Z</time></trkpt><trkpt lat="45.5666832" lon="12.3560101"><ele>2.8</ele><time>2026-04-18T16:06:34.518Z</time></trkpt><trkpt lat="45.5667187" lon="12.3558622"><ele>3.0</ele><time>2026-04-18T16:06:36.511Z</time></trkpt><trkpt lat="45.5667517" lon="12.3557146"><ele>3.0</ele><time>2026-04-18T16:06:38.518Z</time></trkpt><trkpt lat="45.566777" lon="12.3555937"><ele>3.0</ele><time>2026-04-18T16:06:40.514Z</time></trkpt><trkpt lat="45.5668095" lon="12.3554478"><ele>3.0</ele><time>2026-04-18T16:06:42.509Z</time></trkpt><trkpt lat="45.5668368" lon="12.3553131"><ele>3.0</ele><time>2026-04-18T16:06:44.514Z</time></trkpt><trkpt lat="45.5668561" lon="12.3551822"><ele>3.0</ele><time>2026-04-18T16:06:46.514Z</time></trkpt><trkpt lat="45.5668445" lon="12.3550814"><ele>3.0</ele><time>2026-04-18T16:06:48.516Z</time></trkpt><trkpt lat="45.5667928" lon="12.3549647"><ele>3.0</ele><time>2026-04-18T16:06:50.518Z</time></trkpt><trkpt lat="45.5666991" lon="12.3548621"><ele>3.0</ele><time>2026-04-18T16:06:52.508Z</time></trkpt><trkpt lat="45.5666021" lon="12.3548095"><ele>3.0</ele><time>2026-04-18T16:06:54.514Z</time></trkpt><trkpt lat="45.5665209" lon="12.3547853"><ele>3.0</ele><time>2026-04-18T16:06:56.518Z</time></trkpt><trkpt lat="45.5664228" lon="12.3547361"><ele>2.8</ele><time>2026-04-18T16:06:58.505Z</time></trkpt><trkpt lat="45.5663104" lon="12.354704"><ele>2.5999999999999996</ele><time>2026-04-18T16:07:00.505Z</time></trkpt><trkpt lat="45.5662046" lon="12.3546688"><ele>2.4000000000000004</ele><time>2026-04-18T16:07:02.515Z</time></trkpt><trkpt lat="45.5661428" lon="12.3546443"><ele>2.2</ele><time>2026-04-18T16:07:03.512Z</time></trkpt><trkpt lat="45.5660387" lon="12.354612"><ele>2.0</ele><time>2026-04-18T16:07:05.511Z</time></trkpt><trkpt lat="45.5659304" lon="12.3545738"><ele>2.0</ele><time>2026-04-18T16:07:07.524Z</time></trkpt><trkpt lat="45.5658273" lon="12.3545398"><ele>2.0</ele><time>2026-04-18T16:07:09.524Z</time></trkpt><trkpt lat="45.5657284" lon="12.3544964"><ele>2.0</ele><time>2026-04-18T16:07:11.525Z</time></trkpt><trkpt lat="45.5656356" lon="12.3544663"><ele>2.0</ele><time>2026-04-18T16:07:13.509Z</time></trkpt><trkpt lat="45.5655338" lon="12.35443"><ele>2.0</ele><time>2026-04-18T16:07:15.521Z</time></trkpt><trkpt lat="45.5654316" lon="12.3543946"><ele>2.0</ele><time>2026-04-18T16:07:17.519Z</time></trkpt><trkpt lat="45.5653342" lon="12.3543501"><ele>2.0</ele><time>2026-04-18T16:07:19.509Z</time></trkpt><trkpt lat="45.5652258" lon="12.3542972"><ele>2.0</ele><time>2026-04-18T16:07:21.527Z</time></trkpt><trkpt lat="45.565123" lon="12.3542583"><ele>2.0</ele><time>2026-04-18T16:07:23.509Z</time></trkpt><trkpt lat="45.5650318" lon="12.35422"><ele>2.0</ele><time>2026-04-18T16:07:25.524Z</time></trkpt><trkpt lat="45.5649336" lon="12.3541857"><ele>2.0</ele><time>2026-04-18T16:07:27.501Z</time></trkpt><trkpt lat="45.5648287" lon="12.3541451"><ele>2.0</ele><time>2026-04-18T16:07:29.519Z</time></trkpt><trkpt lat="45.5647357" lon="12.3541104"><ele>2.0</ele><time>2026-04-18T16:07:31.519Z</time></trkpt><trkpt lat="45.5646363" lon="12.3540638"><ele>2.0</ele><time>2026-04-18T16:07:33.505Z</time></trkpt><trkpt lat="45.564538" lon="12.3540157"><ele>2.0</ele><time>2026-04-18T16:07:35.516Z</time></trkpt><trkpt lat="45.5644138" lon="12.3539446"><ele>2.2</ele><time>2026-04-18T16:07:37.538Z</time></trkpt><trkpt lat="45.5643519" lon="12.3539096"><ele>2.4000000000000004</ele><time>2026-04-18T16:07:38.518Z</time></trkpt><trkpt lat="45.5642688" lon="12.3538478"><ele>2.5999999999999996</ele><time>2026-04-18T16:07:40.51Z</time></trkpt><trkpt lat="45.564189" lon="12.3537701"><ele>2.8</ele><time>2026-04-18T16:07:42.522Z</time></trkpt><trkpt lat="45.5640994" lon="12.3536725"><ele>3.0</ele><time>2026-04-18T16:07:44.521Z</time></trkpt><trkpt lat="45.5640136" lon="12.353579"><ele>3.0</ele><time>2026-04-18T16:07:46.509Z</time></trkpt><trkpt lat="45.5639278" lon="12.3534835"><ele>3.0</ele><time>2026-04-18T16:07:48.511Z</time></trkpt><trkpt lat="45.5638478" lon="12.3533901"><ele>3.0</ele><time>2026-04-18T16:07:50.511Z</time></trkpt><trkpt lat="45.5637708" lon="12.3532989"><ele>3.0</ele><time>2026-04-18T16:07:52.505Z</time></trkpt><trkpt lat="45.5636973" lon="12.3532082"><ele>3.0</ele><time>2026-04-18T16:07:54.512Z</time></trkpt><trkpt lat="45.5636237" lon="12.353121"><ele>2.6</ele><time>2026-04-18T16:07:56.502Z</time></trkpt><trkpt lat="45.5635509" lon="12.3530254"><ele>2.1999999999999997</ele><time>2026-04-18T16:07:58.523Z</time></trkpt><trkpt lat="45.5634901" lon="12.3529261"><ele>1.8</ele><time>2026-04-18T16:08:00.519Z</time></trkpt><trkpt lat="45.5634431" lon="12.3528584"><ele>1.4</ele><time>2026-04-18T16:08:01.526Z</time></trkpt><trkpt lat="45.5633657" lon="12.3527429"><ele>1.0</ele><time>2026-04-18T16:08:03.519Z</time></trkpt><trkpt lat="45.5632939" lon="12.3526357"><ele>1.0</ele><time>2026-04-18T16:08:05.519Z</time></trkpt><trkpt lat="45.563218" lon="12.3525067"><ele>1.0</ele><time>2026-04-18T16:08:07.515Z</time></trkpt><trkpt lat="45.5631607" lon="12.3524096"><ele>1.0</ele><time>2026-04-18T16:08:09.518Z</time></trkpt><trkpt lat="45.563113" lon="12.3523183"><ele>1.0</ele><time>2026-04-18T16:08:11.532Z</time></trkpt><trkpt lat="45.5630555" lon="12.3521963"><ele>1.0</ele><time>2026-04-18T16:08:13.525Z</time></trkpt><trkpt lat="45.5630101" lon="12.3520689"><ele>1.0</ele><time>2026-04-18T16:08:15.53Z</time></trkpt><trkpt lat="45.5629505" lon="12.3519287"><ele>1.0</ele><time>2026-04-18T16:08:17.524Z</time></trkpt><trkpt lat="45.5628831" lon="12.3517769"><ele>1.0</ele><time>2026-04-18T16:08:19.518Z</time></trkpt><trkpt lat="45.5628205" lon="12.3516457"><ele>1.0</ele><time>2026-04-18T16:08:21.531Z</time></trkpt><trkpt lat="45.5627671" lon="12.351525"><ele>1.0</ele><time>2026-04-18T16:08:23.519Z</time></trkpt><trkpt lat="45.562718" lon="12.3514018"><ele>1.0</ele><time>2026-04-18T16:08:25.515Z</time></trkpt><trkpt lat="45.5626592" lon="12.351272"><ele>1.0</ele><time>2026-04-18T16:08:27.521Z</time></trkpt><trkpt lat="45.562601" lon="12.3511386"><ele>1.0</ele><time>2026-04-18T16:08:29.536Z</time></trkpt><trkpt lat="45.5625422" lon="12.351008"><ele>1.0</ele><time>2026-04-18T16:08:31.52Z</time></trkpt><trkpt lat="45.5624864" lon="12.3508639"><ele>1.0</ele><time>2026-04-18T16:08:33.525Z</time></trkpt><trkpt lat="45.5624329" lon="12.3507303"><ele>1.0</ele><time>2026-04-18T16:08:35.509Z</time></trkpt><trkpt lat="45.5623783" lon="12.3505919"><ele>1.0</ele><time>2026-04-18T16:08:37.524Z</time></trkpt><trkpt lat="45.5623251" lon="12.350472"><ele>1.0</ele><time>2026-04-18T16:08:39.514Z</time></trkpt><trkpt lat="45.562269" lon="12.350348"><ele>1.0</ele><time>2026-04-18T16:08:41.5Z</time></trkpt><trkpt lat="45.5622239" lon="12.3502417"><ele>0.8</ele><time>2026-04-18T16:08:43.517Z</time></trkpt><trkpt lat="45.5621737" lon="12.3501157"><ele>0.6000000000000001</ele><time>2026-04-18T16:08:45.54Z</time></trkpt><trkpt lat="45.562125" lon="12.3499975"><ele>0.4</ele><time>2026-04-18T16:08:47.521Z</time></trkpt><trkpt lat="45.5620889" lon="12.3499234"><ele>0.2</ele><time>2026-04-18T16:08:48.528Z</time></trkpt><trkpt lat="45.5620208" lon="12.3498057"><ele>0.0</ele><time>2026-04-18T16:08:50.508Z</time></trkpt><trkpt lat="45.5619477" lon="12.3497225"><ele>0.4</ele><time>2026-04-18T16:08:52.51Z</time></trkpt><trkpt lat="45.5618571" lon="12.3496448"><ele>0.8</ele><time>2026-04-18T16:08:54.519Z</time></trkpt><trkpt lat="45.5617566" lon="12.3495923"><ele>1.2000000000000002</ele><time>2026-04-18T16:08:56.527Z</time></trkpt><trkpt lat="45.5616602" lon="12.349548"><ele>1.6</ele><time>2026-04-18T16:08:58.519Z</time></trkpt><trkpt lat="45.5615697" lon="12.3495044"><ele>2.0</ele><time>2026-04-18T16:09:00.525Z</time></trkpt><trkpt lat="45.5614582" lon="12.3494775"><ele>2.0</ele><time>2026-04-18T16:09:02.522Z</time></trkpt><trkpt lat="45.5613958" lon="12.349461"><ele>2.0</ele><time>2026-04-18T16:09:03.511Z</time></trkpt><trkpt lat="45.5613069" lon="12.3494371"><ele>2.0</ele><time>2026-04-18T16:09:05.504Z</time></trkpt><trkpt lat="45.5611955" lon="12.3494069"><ele>2.0</ele><time>2026-04-18T16:09:07.527Z</time></trkpt><trkpt lat="45.5610938" lon="12.3493776"><ele>2.0</ele><time>2026-04-18T16:09:09.507Z</time></trkpt><trkpt lat="45.5609932" lon="12.3493505"><ele>1.8</ele><time>2026-04-18T16:09:11.524Z</time></trkpt><trkpt lat="45.5608847" lon="12.3493126"><ele>1.6</ele><time>2026-04-18T16:09:13.541Z</time></trkpt><trkpt lat="45.5607958" lon="12.3492838"><ele>1.4000000000000001</ele><time>2026-04-18T16:09:15.509Z</time></trkpt><trkpt lat="45.5606929" lon="12.3492514"><ele>1.2000000000000002</ele><time>2026-04-18T16:09:17.517Z</time></trkpt><trkpt lat="45.5605951" lon="12.3492191"><ele>1.0</ele><time>2026-04-18T16:09:19.527Z</time></trkpt><trkpt lat="45.560495" lon="12.3491838"><ele>1.0</ele><time>2026-04-18T16:09:21.522Z</time></trkpt><trkpt lat="45.5603946" lon="12.3491495"><ele>1.0</ele><time>2026-04-18T16:09:23.512Z</time></trkpt><trkpt lat="45.5602994" lon="12.3491217"><ele>1.0</ele><time>2026-04-18T16:09:25.504Z</time></trkpt><trkpt lat="45.5601999" lon="12.3490938"><ele>1.0</ele><time>2026-04-18T16:09:27.512Z</time></trkpt><trkpt lat="45.5601081" lon="12.3490632"><ele>1.0</ele><time>2026-04-18T16:09:29.526Z</time></trkpt><trkpt lat="45.5600102" lon="12.3490318"><ele>1.2000000000000002</ele><time>2026-04-18T16:09:31.504Z</time></trkpt><trkpt lat="45.5599104" lon="12.3489985"><ele>1.4000000000000001</ele><time>2026-04-18T16:09:33.513Z</time></trkpt><trkpt lat="45.5598169" lon="12.3489651"><ele>1.6</ele><time>2026-04-18T16:09:35.531Z</time></trkpt><trkpt lat="45.5597151" lon="12.3489379"><ele>1.8</ele><time>2026-04-18T16:09:37.523Z</time></trkpt><trkpt lat="45.5596176" lon="12.3489104"><ele>2.0</ele><time>2026-04-18T16:09:39.508Z</time></trkpt><trkpt lat="45.5595168" lon="12.3488814"><ele>2.0</ele><time>2026-04-18T16:09:41.529Z</time></trkpt><trkpt lat="45.5594226" lon="12.3488519"><ele>2.0</ele><time>2026-04-18T16:09:43.505Z</time></trkpt><trkpt lat="45.559329" lon="12.348819"><ele>2.0</ele><time>2026-04-18T16:09:45.518Z</time></trkpt><trkpt lat="45.5592348" lon="12.3487941"><ele>2.0</ele><time>2026-04-18T16:09:47.521Z</time></trkpt><trkpt lat="45.5591426" lon="12.3487692"><ele>2.0</ele><time>2026-04-18T16:09:49.519Z</time></trkpt><trkpt lat="45.5590471" lon="12.3487442"><ele>2.0</ele><time>2026-04-18T16:09:51.526Z</time></trkpt><trkpt lat="45.5589469" lon="12.3487174"><ele>2.0</ele><time>2026-04-18T16:09:53.52Z</time></trkpt><trkpt lat="45.5588568" lon="12.3486879"><ele>2.0</ele><time>2026-04-18T16:09:55.503Z</time></trkpt><trkpt lat="45.5587782" lon="12.3486707"><ele>2.0</ele><time>2026-04-18T16:09:57.51Z</time></trkpt><trkpt lat="45.5586975" lon="12.3486504"><ele>2.0</ele><time>2026-04-18T16:09:59.514Z</time></trkpt><trkpt lat="45.5585873" lon="12.3486182"><ele>2.0</ele><time>2026-04-18T16:10:01.517Z</time></trkpt><trkpt lat="45.5584877" lon="12.3485866"><ele>2.0</ele><time>2026-04-18T16:10:03.515Z</time></trkpt><trkpt lat="45.5583826" lon="12.3485437"><ele>2.0</ele><time>2026-04-18T16:10:05.519Z</time></trkpt><trkpt lat="45.5582882" lon="12.348492"><ele>2.0</ele><time>2026-04-18T16:10:07.508Z</time></trkpt><trkpt lat="45.55821" lon="12.3484515"><ele>2.0</ele><time>2026-04-18T16:10:09.529Z</time></trkpt><trkpt lat="45.5581427" lon="12.3484261"><ele>2.0</ele><time>2026-04-18T16:10:11.525Z</time></trkpt><trkpt lat="45.5580747" lon="12.3484094"><ele>2.0</ele><time>2026-04-18T16:10:13.514Z</time></trkpt><trkpt lat="45.5579817" lon="12.3483651"><ele>2.0</ele><time>2026-04-18T16:10:16.507Z</time></trkpt><trkpt lat="45.5579116" lon="12.3483287"><ele>2.0</ele><time>2026-04-18T16:10:18.508Z</time></trkpt><trkpt lat="45.557806" lon="12.348288"><ele>2.0</ele><time>2026-04-18T16:10:20.536Z</time></trkpt><trkpt lat="45.5576967" lon="12.3482651"><ele>2.0</ele><time>2026-04-18T16:10:22.52Z</time></trkpt><trkpt lat="45.5575948" lon="12.3482338"><ele>2.0</ele><time>2026-04-18T16:10:24.512Z</time></trkpt><trkpt lat="45.5574911" lon="12.3482022"><ele>2.0</ele><time>2026-04-18T16:10:26.508Z</time></trkpt><trkpt lat="45.5573923" lon="12.3481675"><ele>2.0</ele><time>2026-04-18T16:10:28.51Z</time></trkpt><trkpt lat="45.5572982" lon="12.3481344"><ele>2.0</ele><time>2026-04-18T16:10:30.515Z</time></trkpt><trkpt lat="45.5571963" lon="12.3480992"><ele>2.0</ele><time>2026-04-18T16:10:32.532Z</time></trkpt><trkpt lat="45.5570972" lon="12.3480673"><ele>2.0</ele><time>2026-04-18T16:10:34.513Z</time></trkpt><trkpt lat="45.5570007" lon="12.3480376"><ele>2.0</ele><time>2026-04-18T16:10:36.519Z</time></trkpt><trkpt lat="45.5569067" lon="12.3480141"><ele>2.0</ele><time>2026-04-18T16:10:38.514Z</time></trkpt><trkpt lat="45.5568099" lon="12.3479861"><ele>2.0</ele><time>2026-04-18T16:10:40.517Z</time></trkpt><trkpt lat="45.5567124" lon="12.3479529"><ele>1.4000000000000001</ele><time>2026-04-18T16:10:42.521Z</time></trkpt><trkpt lat="45.5566246" lon="12.3479316"><ele>0.8000000000000002</ele><time>2026-04-18T16:10:44.525Z</time></trkpt><trkpt lat="45.5565285" lon="12.3479055"><ele>0.19999999999999996</ele><time>2026-04-18T16:10:46.515Z</time></trkpt><trkpt lat="45.5564287" lon="12.3478744"><ele>-0.4</ele><time>2026-04-18T16:10:48.512Z</time></trkpt><trkpt lat="45.5563296" lon="12.3478457"><ele>-1.0</ele><time>2026-04-18T16:10:50.513Z</time></trkpt><trkpt lat="45.5562328" lon="12.3478193"><ele>-0.4</ele><time>2026-04-18T16:10:52.509Z</time></trkpt><trkpt lat="45.5561338" lon="12.3477864"><ele>0.19999999999999996</ele><time>2026-04-18T16:10:54.526Z</time></trkpt><trkpt lat="45.5560271" lon="12.347752"><ele>0.8000000000000002</ele><time>2026-04-18T16:10:56.524Z</time></trkpt><trkpt lat="45.5559258" lon="12.3477162"><ele>1.4000000000000001</ele><time>2026-04-18T16:10:58.508Z</time></trkpt><trkpt lat="45.5558336" lon="12.3476643"><ele>2.0</ele><time>2026-04-18T16:11:00.531Z</time></trkpt><trkpt lat="45.5557431" lon="12.347622"><ele>2.0</ele><time>2026-04-18T16:11:02.511Z</time></trkpt><trkpt lat="45.5556436" lon="12.3475907"><ele>2.0</ele><time>2026-04-18T16:11:04.51Z</time></trkpt><trkpt lat="45.5555425" lon="12.3475876"><ele>2.0</ele><time>2026-04-18T16:11:06.524Z</time></trkpt><trkpt lat="45.5554417" lon="12.347578"><ele>2.0</ele><time>2026-04-18T16:11:08.537Z</time></trkpt><trkpt lat="45.5553393" lon="12.347549"><ele>2.0</ele><time>2026-04-18T16:11:10.518Z</time></trkpt><trkpt lat="45.5552338" lon="12.3475234"><ele>2.0</ele><time>2026-04-18T16:11:12.521Z</time></trkpt><trkpt lat="45.5551343" lon="12.3474961"><ele>2.0</ele><time>2026-04-18T16:11:14.519Z</time></trkpt><trkpt lat="45.5550315" lon="12.3474635"><ele>2.0</ele><time>2026-04-18T16:11:16.519Z</time></trkpt><trkpt lat="45.5549289" lon="12.3474337"><ele>2.0</ele><time>2026-04-18T16:11:18.513Z</time></trkpt><trkpt lat="45.5548341" lon="12.3474018"><ele>2.0</ele><time>2026-04-18T16:11:20.517Z</time></trkpt><trkpt lat="45.5547373" lon="12.3473666"><ele>2.0</ele><time>2026-04-18T16:11:22.527Z</time></trkpt><trkpt lat="45.5546344" lon="12.347338"><ele>2.0</ele><time>2026-04-18T16:11:24.519Z</time></trkpt><trkpt lat="45.5545338" lon="12.3473042"><ele>2.0</ele><time>2026-04-18T16:11:26.521Z</time></trkpt><trkpt lat="45.5544283" lon="12.3472687"><ele>2.0</ele><time>2026-04-18T16:11:28.524Z</time></trkpt><trkpt lat="45.5543382" lon="12.3472348"><ele>2.0</ele><time>2026-04-18T16:11:30.535Z</time></trkpt><trkpt lat="45.5542356" lon="12.3471998"><ele>1.6</ele><time>2026-04-18T16:11:32.519Z</time></trkpt><trkpt lat="45.5541337" lon="12.3471697"><ele>1.2000000000000002</ele><time>2026-04-18T16:11:34.504Z</time></trkpt><trkpt lat="45.5540343" lon="12.3471389"><ele>0.8</ele><time>2026-04-18T16:11:36.506Z</time></trkpt><trkpt lat="45.5539374" lon="12.3471078"><ele>0.4</ele><time>2026-04-18T16:11:38.521Z</time></trkpt><trkpt lat="45.5538351" lon="12.3470744"><ele>0.0</ele><time>2026-04-18T16:11:40.516Z</time></trkpt><trkpt lat="45.5537316" lon="12.3470364"><ele>0.0</ele><time>2026-04-18T16:11:42.529Z</time></trkpt><trkpt lat="45.5536277" lon="12.3469964"><ele>0.0</ele><time>2026-04-18T16:11:44.535Z</time></trkpt><trkpt lat="45.5535233" lon="12.3469596"><ele>0.0</ele><time>2026-04-18T16:11:46.529Z</time></trkpt><trkpt lat="45.5534104" lon="12.3469174"><ele>0.0</ele><time>2026-04-18T16:11:48.51Z</time></trkpt><trkpt lat="45.553307" lon="12.3468766"><ele>0.0</ele><time>2026-04-18T16:11:50.512Z</time></trkpt><trkpt lat="45.5532078" lon="12.3468438"><ele>0.0</ele><time>2026-04-18T16:11:52.532Z</time></trkpt><trkpt lat="45.5531101" lon="12.3468124"><ele>0.0</ele><time>2026-04-18T16:11:54.507Z</time></trkpt><trkpt lat="45.5530102" lon="12.3467686"><ele>0.0</ele><time>2026-04-18T16:11:56.5Z</time></trkpt><trkpt lat="45.5529028" lon="12.3467188"><ele>0.0</ele><time>2026-04-18T16:11:58.526Z</time></trkpt><trkpt lat="45.5528029" lon="12.3466658"><ele>0.0</ele><time>2026-04-18T16:12:00.51Z</time></trkpt><trkpt lat="45.5527003" lon="12.346617"><ele>0.4</ele><time>2026-04-18T16:12:02.518Z</time></trkpt><trkpt lat="45.5526037" lon="12.3465845"><ele>0.8</ele><time>2026-04-18T16:12:04.537Z</time></trkpt><trkpt lat="45.552488" lon="12.3465389"><ele>1.2000000000000002</ele><time>2026-04-18T16:12:06.507Z</time></trkpt><trkpt lat="45.5523805" lon="12.34649"><ele>1.6</ele><time>2026-04-18T16:12:08.535Z</time></trkpt><trkpt lat="45.5522845" lon="12.3464456"><ele>2.0</ele><time>2026-04-18T16:12:10.517Z</time></trkpt><trkpt lat="45.5521886" lon="12.3464005"><ele>2.0</ele><time>2026-04-18T16:12:12.505Z</time></trkpt><trkpt lat="45.5520874" lon="12.3463458"><ele>2.0</ele><time>2026-04-18T16:12:14.523Z</time></trkpt><trkpt lat="45.5519832" lon="12.3463032"><ele>2.0</ele><time>2026-04-18T16:12:16.509Z</time></trkpt><trkpt lat="45.5518872" lon="12.3462594"><ele>2.0</ele><time>2026-04-18T16:12:18.514Z</time></trkpt><trkpt lat="45.5517878" lon="12.3462171"><ele>2.0</ele><time>2026-04-18T16:12:20.523Z</time></trkpt><trkpt lat="45.5516901" lon="12.3461643"><ele>2.0</ele><time>2026-04-18T16:12:22.506Z</time></trkpt><trkpt lat="45.5515764" lon="12.3460959"><ele>2.0</ele><time>2026-04-18T16:12:24.521Z</time></trkpt><trkpt lat="45.5514739" lon="12.3460381"><ele>2.0</ele><time>2026-04-18T16:12:26.521Z</time></trkpt><trkpt lat="45.5513762" lon="12.3459938"><ele>2.0</ele><time>2026-04-18T16:12:28.534Z</time></trkpt><trkpt lat="45.5512816" lon="12.3459466"><ele>2.0</ele><time>2026-04-18T16:12:30.525Z</time></trkpt><trkpt lat="45.5511833" lon="12.3458962"><ele>2.2</ele><time>2026-04-18T16:12:32.527Z</time></trkpt><trkpt lat="45.5510875" lon="12.3458487"><ele>2.4000000000000004</ele><time>2026-04-18T16:12:34.516Z</time></trkpt><trkpt lat="45.5510003" lon="12.3458015"><ele>2.5999999999999996</ele><time>2026-04-18T16:12:36.512Z</time></trkpt><trkpt lat="45.5509116" lon="12.3457563"><ele>2.8</ele><time>2026-04-18T16:12:38.513Z</time></trkpt><trkpt lat="45.550803" lon="12.3457014"><ele>3.0</ele><time>2026-04-18T16:12:40.534Z</time></trkpt><trkpt lat="45.5507168" lon="12.3456565"><ele>3.0</ele><time>2026-04-18T16:12:42.52Z</time></trkpt><trkpt lat="45.5506113" lon="12.3455966"><ele>3.0</ele><time>2026-04-18T16:12:44.528Z</time></trkpt><trkpt lat="45.5505045" lon="12.3455481"><ele>3.0</ele><time>2026-04-18T16:12:46.519Z</time></trkpt><trkpt lat="45.5504" lon="12.3454965"><ele>3.0</ele><time>2026-04-18T16:12:48.518Z</time></trkpt><trkpt lat="45.550315" lon="12.3454498"><ele>3.0</ele><time>2026-04-18T16:12:50.508Z</time></trkpt><trkpt lat="45.5502382" lon="12.3454113"><ele>2.8333333333333335</ele><time>2026-04-18T16:12:52.507Z</time></trkpt><trkpt lat="45.5501529" lon="12.3453775"><ele>2.6666666666666665</ele><time>2026-04-18T16:12:54.547Z</time></trkpt><trkpt lat="45.5500726" lon="12.3453399"><ele>2.5</ele><time>2026-04-18T16:12:56.52Z</time></trkpt><trkpt lat="45.550002" lon="12.3452996"><ele>2.333333333333333</ele><time>2026-04-18T16:12:58.512Z</time></trkpt><trkpt lat="45.5499135" lon="12.3452458"><ele>2.1666666666666665</ele><time>2026-04-18T16:13:01.517Z</time></trkpt><trkpt lat="45.5498378" lon="12.345187"><ele>2.0</ele><time>2026-04-18T16:13:04.53Z</time></trkpt><trkpt lat="45.5497743" lon="12.3451579"><ele>1.9999999999999998</ele><time>2026-04-18T16:13:06.515Z</time></trkpt><trkpt lat="45.5497096" lon="12.3451269"><ele>2.0</ele><time>2026-04-18T16:13:08.53Z</time></trkpt><trkpt lat="45.5496227" lon="12.3450734"><ele>2.0</ele><time>2026-04-18T16:13:10.517Z</time></trkpt><trkpt lat="45.5495451" lon="12.3450305"><ele>2.0</ele><time>2026-04-18T16:13:12.514Z</time></trkpt><trkpt lat="45.5494549" lon="12.3449857"><ele>1.9999999999999998</ele><time>2026-04-18T16:13:14.519Z</time></trkpt><trkpt lat="45.5493694" lon="12.3449361"><ele>2.0</ele><time>2026-04-18T16:13:16.522Z</time></trkpt><trkpt lat="45.5492854" lon="12.3448809"><ele>1.9999999999999998</ele><time>2026-04-18T16:13:19.53Z</time></trkpt><trkpt lat="45.5492172" lon="12.3448426"><ele>2.0</ele><time>2026-04-18T16:13:21.528Z</time></trkpt><trkpt lat="45.5491377" lon="12.3447989"><ele>2.0</ele><time>2026-04-18T16:13:23.519Z</time></trkpt><trkpt lat="45.5490457" lon="12.3447413"><ele>2.0</ele><time>2026-04-18T16:13:25.513Z</time></trkpt><trkpt lat="45.5489603" lon="12.3446851"><ele>1.9999999999999998</ele><time>2026-04-18T16:13:27.536Z</time></trkpt><trkpt lat="45.5488804" lon="12.3446201"><ele>2.0</ele><time>2026-04-18T16:13:29.529Z</time></trkpt><trkpt lat="45.5488205" lon="12.3445522"><ele>1.9999999999999998</ele><time>2026-04-18T16:13:31.525Z</time></trkpt><trkpt lat="45.5487508" lon="12.3444585"><ele>2.0</ele><time>2026-04-18T16:13:33.518Z</time></trkpt><trkpt lat="45.548678" lon="12.3443533"><ele>2.0</ele><time>2026-04-18T16:13:35.516Z</time></trkpt><trkpt lat="45.5486221" lon="12.3442687"><ele>2.0</ele><time>2026-04-18T16:13:37.512Z</time></trkpt><trkpt lat="45.5485828" lon="12.3441901"><ele>1.9999999999999998</ele><time>2026-04-18T16:13:39.524Z</time></trkpt><trkpt lat="45.5485416" lon="12.3440978"><ele>2.0</ele><time>2026-04-18T16:13:41.517Z</time></trkpt><trkpt lat="45.5485076" lon="12.3439858"><ele>1.9999999999999998</ele><time>2026-04-18T16:13:43.498Z</time></trkpt><trkpt lat="45.5484742" lon="12.3438781"><ele>2.0</ele><time>2026-04-18T16:13:45.517Z</time></trkpt><trkpt lat="45.5484402" lon="12.3437581"><ele>2.0</ele><time>2026-04-18T16:13:47.524Z</time></trkpt><trkpt lat="45.5484151" lon="12.3436415"><ele>2.0</ele><time>2026-04-18T16:13:49.525Z</time></trkpt><trkpt lat="45.5484019" lon="12.3435329"><ele>1.9999999999999998</ele><time>2026-04-18T16:13:51.53Z</time></trkpt><trkpt lat="45.5483873" lon="12.3434344"><ele>2.0</ele><time>2026-04-18T16:13:53.527Z</time></trkpt><trkpt lat="45.54836" lon="12.3433351"><ele>1.9999999999999998</ele><time>2026-04-18T16:13:55.518Z</time></trkpt><trkpt lat="45.5483539" lon="12.3432179"><ele>2.0</ele><time>2026-04-18T16:13:57.531Z</time></trkpt><trkpt lat="45.5483586" lon="12.3431037"><ele>2.0</ele><time>2026-04-18T16:13:59.507Z</time></trkpt><trkpt lat="45.5483584" lon="12.3429803"><ele>2.0</ele><time>2026-04-18T16:14:01.522Z</time></trkpt><trkpt lat="45.5483213" lon="12.3428796"><ele>1.9999999999999998</ele><time>2026-04-18T16:14:03.529Z</time></trkpt><trkpt lat="45.5482387" lon="12.3428354"><ele>2.0</ele><time>2026-04-18T16:14:05.528Z</time></trkpt><trkpt lat="45.5481432" lon="12.3427938"><ele>2.0</ele><time>2026-04-18T16:14:07.529Z</time></trkpt><trkpt lat="45.5480384" lon="12.3427564"><ele>2.0</ele><time>2026-04-18T16:14:09.509Z</time></trkpt><trkpt lat="45.5479419" lon="12.3427134"><ele>2.0</ele><time>2026-04-18T16:14:11.505Z</time></trkpt><trkpt lat="45.5478507" lon="12.3426755"><ele>2.0</ele><time>2026-04-18T16:14:13.513Z</time></trkpt><trkpt lat="45.5477566" lon="12.3426299"><ele>2.0</ele><time>2026-04-18T16:14:15.517Z</time></trkpt><trkpt lat="45.5476615" lon="12.3425805"><ele>2.0</ele><time>2026-04-18T16:14:17.522Z</time></trkpt><trkpt lat="45.5475733" lon="12.342534"><ele>2.0</ele><time>2026-04-18T16:14:19.513Z</time></trkpt><trkpt lat="45.5474978" lon="12.3425039"><ele>2.0</ele><time>2026-04-18T16:14:21.517Z</time></trkpt><trkpt lat="45.5474067" lon="12.3424598"><ele>2.0</ele><time>2026-04-18T16:14:23.513Z</time></trkpt><trkpt lat="45.5473185" lon="12.3424238"><ele>2.0</ele><time>2026-04-18T16:14:25.528Z</time></trkpt><trkpt lat="45.5472201" lon="12.3423906"><ele>2.0</ele><time>2026-04-18T16:14:27.517Z</time></trkpt><trkpt lat="45.5471229" lon="12.3423543"><ele>2.0</ele><time>2026-04-18T16:14:29.517Z</time></trkpt><trkpt lat="45.547027" lon="12.3423123"><ele>2.0</ele><time>2026-04-18T16:14:31.517Z</time></trkpt><trkpt lat="45.5469468" lon="12.3422734"><ele>2.0</ele><time>2026-04-18T16:14:33.519Z</time></trkpt><trkpt lat="45.5468598" lon="12.3422358"><ele>2.0</ele><time>2026-04-18T16:14:35.525Z</time></trkpt><trkpt lat="45.5467768" lon="12.3422013"><ele>2.0</ele><time>2026-04-18T16:14:37.527Z</time></trkpt><trkpt lat="45.5466817" lon="12.3421637"><ele>2.0</ele><time>2026-04-18T16:14:39.525Z</time></trkpt><trkpt lat="45.54662" lon="12.3421396"><ele>2.0</ele><time>2026-04-18T16:14:40.511Z</time></trkpt><trkpt lat="45.5465311" lon="12.3421112"><ele>2.0</ele><time>2026-04-18T16:14:42.524Z</time></trkpt><trkpt lat="45.5464335" lon="12.3420787"><ele>2.0</ele><time>2026-04-18T16:14:44.527Z</time></trkpt><trkpt lat="45.546333" lon="12.3420495"><ele>2.0</ele><time>2026-04-18T16:14:46.512Z</time></trkpt><trkpt lat="45.5462381" lon="12.3420274"><ele>2.0</ele><time>2026-04-18T16:14:48.523Z</time></trkpt><trkpt lat="45.5461319" lon="12.3419997"><ele>2.0</ele><time>2026-04-18T16:14:50.509Z</time></trkpt><trkpt lat="45.5460236" lon="12.3419822"><ele>2.0</ele><time>2026-04-18T16:14:52.533Z</time></trkpt><trkpt lat="45.5459235" lon="12.3419698"><ele>2.0</ele><time>2026-04-18T16:14:54.522Z</time></trkpt><trkpt lat="45.5458259" lon="12.3419707"><ele>1.8</ele><time>2026-04-18T16:14:56.522Z</time></trkpt><trkpt lat="45.5457372" lon="12.3419805"><ele>1.6</ele><time>2026-04-18T16:14:58.512Z</time></trkpt><trkpt lat="45.5456405" lon="12.3419934"><ele>1.4000000000000001</ele><time>2026-04-18T16:15:00.515Z</time></trkpt><trkpt lat="45.5455436" lon="12.3420036"><ele>1.2000000000000002</ele><time>2026-04-18T16:15:02.52Z</time></trkpt><trkpt lat="45.545446" lon="12.3420197"><ele>1.0</ele><time>2026-04-18T16:15:04.512Z</time></trkpt><trkpt lat="45.5453467" lon="12.3420279"><ele>1.0</ele><time>2026-04-18T16:15:06.515Z</time></trkpt><trkpt lat="45.5452457" lon="12.3420432"><ele>1.0</ele><time>2026-04-18T16:15:08.524Z</time></trkpt><trkpt lat="45.5451352" lon="12.3420685"><ele>1.0</ele><time>2026-04-18T16:15:10.509Z</time></trkpt><trkpt lat="45.5450445" lon="12.3421055"><ele>1.0</ele><time>2026-04-18T16:15:12.524Z</time></trkpt><trkpt lat="45.5449603" lon="12.3421476"><ele>1.0</ele><time>2026-04-18T16:15:14.524Z</time></trkpt><trkpt lat="45.5448688" lon="12.3422175"><ele>0.9999999999999999</ele><time>2026-04-18T16:15:16.528Z</time></trkpt><trkpt lat="45.5447822" lon="12.3422988"><ele>1.0</ele><time>2026-04-18T16:15:18.519Z</time></trkpt><trkpt lat="45.544699" lon="12.3423695"><ele>1.0</ele><time>2026-04-18T16:15:20.52Z</time></trkpt><trkpt lat="45.5446315" lon="12.3424307"><ele>1.0</ele><time>2026-04-18T16:15:22.516Z</time></trkpt><trkpt lat="45.5445691" lon="12.3424951"><ele>0.9999999999999999</ele><time>2026-04-18T16:15:24.51Z</time></trkpt><trkpt lat="45.5444923" lon="12.3425607"><ele>1.0</ele><time>2026-04-18T16:15:26.532Z</time></trkpt><trkpt lat="45.5444138" lon="12.3426295"><ele>0.8</ele><time>2026-04-18T16:15:28.528Z</time></trkpt><trkpt lat="45.5443365" lon="12.3427005"><ele>0.6000000000000001</ele><time>2026-04-18T16:15:30.513Z</time></trkpt><trkpt lat="45.5442597" lon="12.3427707"><ele>0.4</ele><time>2026-04-18T16:15:32.509Z</time></trkpt><trkpt lat="45.5441837" lon="12.342843"><ele>0.2</ele><time>2026-04-18T16:15:34.52Z</time></trkpt><trkpt lat="45.5441029" lon="12.3429257"><ele>0.0</ele><time>2026-04-18T16:15:36.521Z</time></trkpt><trkpt lat="45.5440215" lon="12.3430088"><ele>-0.2</ele><time>2026-04-18T16:15:38.515Z</time></trkpt><trkpt lat="45.5439425" lon="12.3430863"><ele>-0.4</ele><time>2026-04-18T16:15:40.508Z</time></trkpt><trkpt lat="45.5438582" lon="12.3431704"><ele>-0.6000000000000001</ele><time>2026-04-18T16:15:42.51Z</time></trkpt><trkpt lat="45.5437846" lon="12.3432412"><ele>-0.8</ele><time>2026-04-18T16:15:44.528Z</time></trkpt><trkpt lat="45.5437067" lon="12.3433108"><ele>-1.0</ele><time>2026-04-18T16:15:46.515Z</time></trkpt><trkpt lat="45.5436232" lon="12.3433906"><ele>-1.0</ele><time>2026-04-18T16:15:48.519Z</time></trkpt><trkpt lat="45.5435459" lon="12.3434659"><ele>-1.0</ele><time>2026-04-18T16:15:50.522Z</time></trkpt><trkpt lat="45.5434628" lon="12.3435455"><ele>-1.0</ele><time>2026-04-18T16:15:52.519Z</time></trkpt><trkpt lat="45.5433836" lon="12.3436215"><ele>-1.0</ele><time>2026-04-18T16:15:54.527Z</time></trkpt><trkpt lat="45.5432945" lon="12.3437084"><ele>-1.0</ele><time>2026-04-18T16:15:56.525Z</time></trkpt><trkpt lat="45.5432224" lon="12.34378"><ele>-1.0</ele><time>2026-04-18T16:15:58.518Z</time></trkpt><trkpt lat="45.5431519" lon="12.343861"><ele>-1.0</ele><time>2026-04-18T16:16:00.513Z</time></trkpt><trkpt lat="45.5430799" lon="12.3439509"><ele>-1.0</ele><time>2026-04-18T16:16:02.515Z</time></trkpt><trkpt lat="45.5430099" lon="12.3440612"><ele>-1.0</ele><time>2026-04-18T16:16:04.514Z</time></trkpt><trkpt lat="45.5429473" lon="12.3441693"><ele>-1.0</ele><time>2026-04-18T16:16:06.509Z</time></trkpt><trkpt lat="45.5428852" lon="12.3442776"><ele>-0.8</ele><time>2026-04-18T16:16:08.523Z</time></trkpt><trkpt lat="45.5428223" lon="12.3443933"><ele>-0.6000000000000001</ele><time>2026-04-18T16:16:10.537Z</time></trkpt><trkpt lat="45.5427589" lon="12.3445077"><ele>-0.4</ele><time>2026-04-18T16:16:12.51Z</time></trkpt><trkpt lat="45.5427049" lon="12.3446173"><ele>-0.2</ele><time>2026-04-18T16:16:14.533Z</time></trkpt><trkpt lat="45.5426372" lon="12.3447443"><ele>0.0</ele><time>2026-04-18T16:16:16.524Z</time></trkpt><trkpt lat="45.5425815" lon="12.3448529"><ele>0.0</ele><time>2026-04-18T16:16:18.516Z</time></trkpt><trkpt lat="45.5425256" lon="12.3449563"><ele>0.0</ele><time>2026-04-18T16:16:20.526Z</time></trkpt><trkpt lat="45.5424598" lon="12.3450649"><ele>0.0</ele><time>2026-04-18T16:16:22.533Z</time></trkpt><trkpt lat="45.5424045" lon="12.3451842"><ele>0.0</ele><time>2026-04-18T16:16:24.52Z</time></trkpt><trkpt lat="45.542355" lon="12.3453139"><ele>0.0</ele><time>2026-04-18T16:16:26.524Z</time></trkpt><trkpt lat="45.5423173" lon="12.3454411"><ele>-0.2</ele><time>2026-04-18T16:16:28.532Z</time></trkpt><trkpt lat="45.5422922" lon="12.3455665"><ele>-0.4</ele><time>2026-04-18T16:16:30.527Z</time></trkpt><trkpt lat="45.5422647" lon="12.3456905"><ele>-0.6000000000000001</ele><time>2026-04-18T16:16:32.515Z</time></trkpt><trkpt lat="45.5422328" lon="12.3458148"><ele>-0.8</ele><time>2026-04-18T16:16:34.518Z</time></trkpt><trkpt lat="45.5421984" lon="12.3459446"><ele>-1.0</ele><time>2026-04-18T16:16:36.515Z</time></trkpt><trkpt lat="45.542176" lon="12.3460813"><ele>-1.0</ele><time>2026-04-18T16:16:38.526Z</time></trkpt><trkpt lat="45.5421465" lon="12.3462123"><ele>-1.0</ele><time>2026-04-18T16:16:40.537Z</time></trkpt><trkpt lat="45.542119" lon="12.346341"><ele>-1.0</ele><time>2026-04-18T16:16:42.514Z</time></trkpt><trkpt lat="45.5420917" lon="12.3464764"><ele>-1.0</ele><time>2026-04-18T16:16:44.506Z</time></trkpt><trkpt lat="45.5420594" lon="12.3466189"><ele>-1.0</ele><time>2026-04-18T16:16:46.529Z</time></trkpt><trkpt lat="45.5420273" lon="12.3467453"><ele>-1.0</ele><time>2026-04-18T16:16:48.538Z</time></trkpt><trkpt lat="45.5420051" lon="12.3468548"><ele>-1.0</ele><time>2026-04-18T16:16:50.523Z</time></trkpt><trkpt lat="45.5419808" lon="12.3469763"><ele>-1.0</ele><time>2026-04-18T16:16:52.535Z</time></trkpt><trkpt lat="45.5419452" lon="12.3471199"><ele>-1.0</ele><time>2026-04-18T16:16:54.526Z</time></trkpt><trkpt lat="45.5419202" lon="12.3472438"><ele>-1.0</ele><time>2026-04-18T16:16:56.519Z</time></trkpt><trkpt lat="45.5418957" lon="12.3473589"><ele>-0.8</ele><time>2026-04-18T16:16:58.535Z</time></trkpt><trkpt lat="45.5418664" lon="12.3475011"><ele>-0.6000000000000001</ele><time>2026-04-18T16:17:00.514Z</time></trkpt><trkpt lat="45.5418402" lon="12.3476459"><ele>-0.4</ele><time>2026-04-18T16:17:02.517Z</time></trkpt><trkpt lat="45.5418162" lon="12.3477883"><ele>-0.2</ele><time>2026-04-18T16:17:04.515Z</time></trkpt><trkpt lat="45.5417906" lon="12.3479287"><ele>0.0</ele><time>2026-04-18T16:17:06.513Z</time></trkpt><trkpt lat="45.5417662" lon="12.3480781"><ele>0.0</ele><time>2026-04-18T16:17:08.512Z</time></trkpt><trkpt lat="45.5417402" lon="12.3482221"><ele>0.0</ele><time>2026-04-18T16:17:10.527Z</time></trkpt><trkpt lat="45.5417138" lon="12.3483618"><ele>0.0</ele><time>2026-04-18T16:17:12.522Z</time></trkpt><trkpt lat="45.5416855" lon="12.3485013"><ele>0.0</ele><time>2026-04-18T16:17:14.515Z</time></trkpt><trkpt lat="45.5416547" lon="12.3486431"><ele>0.0</ele><time>2026-04-18T16:17:16.524Z</time></trkpt><trkpt lat="45.5416279" lon="12.3487895"><ele>0.2</ele><time>2026-04-18T16:17:18.51Z</time></trkpt><trkpt lat="45.5416048" lon="12.3489317"><ele>0.4</ele><time>2026-04-18T16:17:20.52Z</time></trkpt><trkpt lat="45.5415793" lon="12.3490677"><ele>0.6000000000000001</ele><time>2026-04-18T16:17:22.524Z</time></trkpt><trkpt lat="45.5415565" lon="12.3491952"><ele>0.8</ele><time>2026-04-18T16:17:24.52Z</time></trkpt><trkpt lat="45.5415127" lon="12.3493141"><ele>1.0</ele><time>2026-04-18T16:17:26.531Z</time></trkpt><trkpt lat="45.5414625" lon="12.349441"><ele>1.0</ele><time>2026-04-18T16:17:28.527Z</time></trkpt><trkpt lat="45.5414076" lon="12.3495566"><ele>1.0</ele><time>2026-04-18T16:17:30.522Z</time></trkpt><trkpt lat="45.5413386" lon="12.3496652"><ele>1.0</ele><time>2026-04-18T16:17:32.524Z</time></trkpt><trkpt lat="45.5412638" lon="12.3497837"><ele>1.0</ele><time>2026-04-18T16:17:34.52Z</time></trkpt><trkpt lat="45.5411966" lon="12.3498976"><ele>1.0</ele><time>2026-04-18T16:17:36.518Z</time></trkpt><trkpt lat="45.5411197" lon="12.3500137"><ele>0.8</ele><time>2026-04-18T16:17:38.514Z</time></trkpt><trkpt lat="45.5410563" lon="12.3501237"><ele>0.6000000000000001</ele><time>2026-04-18T16:17:40.516Z</time></trkpt><trkpt lat="45.5410024" lon="12.3502268"><ele>0.4</ele><time>2026-04-18T16:17:42.538Z</time></trkpt><trkpt lat="45.540952" lon="12.350319"><ele>0.2</ele><time>2026-04-18T16:17:44.531Z</time></trkpt><trkpt lat="45.5408941" lon="12.3504178"><ele>0.0</ele><time>2026-04-18T16:17:46.515Z</time></trkpt><trkpt lat="45.540831" lon="12.350532"><ele>0.0</ele><time>2026-04-18T16:17:48.524Z</time></trkpt><trkpt lat="45.5407711" lon="12.3506445"><ele>0.0</ele><time>2026-04-18T16:17:50.525Z</time></trkpt><trkpt lat="45.5406984" lon="12.3507473"><ele>0.0</ele><time>2026-04-18T16:17:52.531Z</time></trkpt><trkpt lat="45.5405979" lon="12.3508271"><ele>0.0</ele><time>2026-04-18T16:17:54.52Z</time></trkpt><trkpt lat="45.5405032" lon="12.3508537"><ele>0.0</ele><time>2026-04-18T16:17:56.524Z</time></trkpt><trkpt lat="45.540395" lon="12.3508572"><ele>-0.4</ele><time>2026-04-18T16:17:58.528Z</time></trkpt><trkpt lat="45.5402859" lon="12.3508318"><ele>-0.8</ele><time>2026-04-18T16:18:00.528Z</time></trkpt><trkpt lat="45.5401871" lon="12.3507783"><ele>-1.2000000000000002</ele><time>2026-04-18T16:18:02.529Z</time></trkpt><trkpt lat="45.5400977" lon="12.350729"><ele>-1.6</ele><time>2026-04-18T16:18:04.514Z</time></trkpt><trkpt lat="45.5400016" lon="12.3506748"><ele>-2.0</ele><time>2026-04-18T16:18:06.505Z</time></trkpt><trkpt lat="45.5399083" lon="12.3506232"><ele>-2.0</ele><time>2026-04-18T16:18:08.529Z</time></trkpt><trkpt lat="45.5398185" lon="12.3505713"><ele>-2.0</ele><time>2026-04-18T16:18:10.514Z</time></trkpt><trkpt lat="45.539731" lon="12.3505208"><ele>-2.0</ele><time>2026-04-18T16:18:12.52Z</time></trkpt><trkpt lat="45.5396394" lon="12.3504689"><ele>-2.0</ele><time>2026-04-18T16:18:14.513Z</time></trkpt><trkpt lat="45.5395406" lon="12.3504145"><ele>-2.0</ele><time>2026-04-18T16:18:16.515Z</time></trkpt><trkpt lat="45.5394414" lon="12.3503706"><ele>-2.0</ele><time>2026-04-18T16:18:18.515Z</time></trkpt><trkpt lat="45.5393468" lon="12.3503534"><ele>-2.0</ele><time>2026-04-18T16:18:20.529Z</time></trkpt><trkpt lat="45.5392502" lon="12.3503728"><ele>-2.0</ele><time>2026-04-18T16:18:22.519Z</time></trkpt><trkpt lat="45.5391571" lon="12.3504427"><ele>-2.0</ele><time>2026-04-18T16:18:24.52Z</time></trkpt><trkpt lat="45.5390833" lon="12.3505569"><ele>-2.0</ele><time>2026-04-18T16:18:26.525Z</time></trkpt><trkpt lat="45.5390281" lon="12.3506963"><ele>-2.2</ele><time>2026-04-18T16:18:28.512Z</time></trkpt><trkpt lat="45.5389796" lon="12.3508396"><ele>-2.4000000000000004</ele><time>2026-04-18T16:18:30.516Z</time></trkpt><trkpt lat="45.5389303" lon="12.350974"><ele>-2.5999999999999996</ele><time>2026-04-18T16:18:32.522Z</time></trkpt><trkpt lat="45.538891" lon="12.3511041"><ele>-2.8</ele><time>2026-04-18T16:18:34.517Z</time></trkpt><trkpt lat="45.538846" lon="12.3512295"><ele>-3.0</ele><time>2026-04-18T16:18:36.521Z</time></trkpt><trkpt lat="45.5388067" lon="12.3513508"><ele>-3.0</ele><time>2026-04-18T16:18:38.523Z</time></trkpt><trkpt lat="45.5387686" lon="12.3514862"><ele>-3.0</ele><time>2026-04-18T16:18:40.516Z</time></trkpt><trkpt lat="45.5387235" lon="12.3516119"><ele>-3.0</ele><time>2026-04-18T16:18:42.514Z</time></trkpt><trkpt lat="45.5386756" lon="12.3517475"><ele>-3.0</ele><time>2026-04-18T16:18:44.52Z</time></trkpt><trkpt lat="45.5386276" lon="12.3518846"><ele>-3.0</ele><time>2026-04-18T16:18:46.518Z</time></trkpt><trkpt lat="45.5385919" lon="12.3520086"><ele>-3.0</ele><time>2026-04-18T16:18:48.522Z</time></trkpt><trkpt lat="45.5385454" lon="12.3521434"><ele>-3.0</ele><time>2026-04-18T16:18:50.53Z</time></trkpt><trkpt lat="45.5385055" lon="12.3522675"><ele>-3.0</ele><time>2026-04-18T16:18:52.53Z</time></trkpt><trkpt lat="45.5384587" lon="12.3524023"><ele>-3.0</ele><time>2026-04-18T16:18:54.524Z</time></trkpt><trkpt lat="45.5384116" lon="12.3525341"><ele>-3.0</ele><time>2026-04-18T16:18:56.531Z</time></trkpt><trkpt lat="45.5383626" lon="12.3526536"><ele>-3.0</ele><time>2026-04-18T16:18:58.528Z</time></trkpt><trkpt lat="45.5383195" lon="12.3527771"><ele>-3.0</ele><time>2026-04-18T16:19:00.532Z</time></trkpt><trkpt lat="45.5382663" lon="12.3528927"><ele>-3.0</ele><time>2026-04-18T16:19:02.522Z</time></trkpt><trkpt lat="45.5382075" lon="12.3529923"><ele>-3.0</ele><time>2026-04-18T16:19:04.527Z</time></trkpt><trkpt lat="45.5381496" lon="12.3530711"><ele>-3.0</ele><time>2026-04-18T16:19:06.542Z</time></trkpt><trkpt lat="45.5380939" lon="12.3531411"><ele>-3.0</ele><time>2026-04-18T16:19:08.531Z</time></trkpt><trkpt lat="45.5380606" lon="12.353225"><ele>-2.6666666666666665</ele><time>2026-04-18T16:19:10.539Z</time></trkpt><trkpt lat="45.5380246" lon="12.3533222"><ele>-2.3333333333333335</ele><time>2026-04-18T16:19:12.535Z</time></trkpt><trkpt lat="45.5379762" lon="12.3534329"><ele>-2.0</ele><time>2026-04-18T16:19:14.509Z</time></trkpt><trkpt lat="45.5379403" lon="12.3535474"><ele>-1.6666666666666665</ele><time>2026-04-18T16:19:16.53Z</time></trkpt><trkpt lat="45.5379165" lon="12.3536611"><ele>-1.3333333333333333</ele><time>2026-04-18T16:19:18.504Z</time></trkpt><trkpt lat="45.5378828" lon="12.3538025"><ele>-1.0</ele><time>2026-04-18T16:19:20.516Z</time></trkpt><trkpt lat="45.537854" lon="12.3539493"><ele>-1.0</ele><time>2026-04-18T16:19:22.529Z</time></trkpt><trkpt lat="45.5378335" lon="12.3540898"><ele>-1.0</ele><time>2026-04-18T16:19:24.525Z</time></trkpt><trkpt lat="45.5378147" lon="12.3542313"><ele>-1.0</ele><time>2026-04-18T16:19:26.515Z</time></trkpt><trkpt lat="45.5377945" lon="12.3543724"><ele>-1.0</ele><time>2026-04-18T16:19:28.507Z</time></trkpt><trkpt lat="45.5377731" lon="12.3545062"><ele>-1.0</ele><time>2026-04-18T16:19:30.514Z</time></trkpt><trkpt lat="45.5377527" lon="12.3546452"><ele>-0.8</ele><time>2026-04-18T16:19:32.509Z</time></trkpt><trkpt lat="45.5377344" lon="12.3547692"><ele>-0.6000000000000001</ele><time>2026-04-18T16:19:34.537Z</time></trkpt><trkpt lat="45.5377065" lon="12.3549082"><ele>-0.4</ele><time>2026-04-18T16:19:36.526Z</time></trkpt><trkpt lat="45.5376784" lon="12.3550443"><ele>-0.2</ele><time>2026-04-18T16:19:38.512Z</time></trkpt><trkpt lat="45.5376564" lon="12.3551699"><ele>0.0</ele><time>2026-04-18T16:19:40.517Z</time></trkpt><trkpt lat="45.5376205" lon="12.3552828"><ele>0.0</ele><time>2026-04-18T16:19:42.539Z</time></trkpt><trkpt lat="45.5375759" lon="12.3554039"><ele>0.0</ele><time>2026-04-18T16:19:44.512Z</time></trkpt><trkpt lat="45.5375282" lon="12.3555333"><ele>0.0</ele><time>2026-04-18T16:19:46.517Z</time></trkpt><trkpt lat="45.5374974" lon="12.3556657"><ele>0.0</ele><time>2026-04-18T16:19:48.521Z</time></trkpt><trkpt lat="45.5374861" lon="12.3558141"><ele>0.0</ele><time>2026-04-18T16:19:50.52Z</time></trkpt><trkpt lat="45.5374789" lon="12.3559498"><ele>-0.2</ele><time>2026-04-18T16:19:52.52Z</time></trkpt><trkpt lat="45.5374747" lon="12.3560855"><ele>-0.4</ele><time>2026-04-18T16:19:54.516Z</time></trkpt><trkpt lat="45.537472" lon="12.3562238"><ele>-0.6000000000000001</ele><time>2026-04-18T16:19:56.512Z</time></trkpt><trkpt lat="45.5374641" lon="12.3563598"><ele>-0.8</ele><time>2026-04-18T16:19:58.522Z</time></trkpt><trkpt lat="45.5374568" lon="12.356494"><ele>-1.0</ele><time>2026-04-18T16:20:00.525Z</time></trkpt><trkpt lat="45.537449" lon="12.3566329"><ele>-1.2000000000000002</ele><time>2026-04-18T16:20:02.523Z</time></trkpt><trkpt lat="45.5374422" lon="12.3567678"><ele>-1.4000000000000001</ele><time>2026-04-18T16:20:04.516Z</time></trkpt><trkpt lat="45.5374376" lon="12.3568954"><ele>-1.6</ele><time>2026-04-18T16:20:06.53Z</time></trkpt><trkpt lat="45.5374397" lon="12.3570373"><ele>-1.8</ele><time>2026-04-18T16:20:08.52Z</time></trkpt><trkpt lat="45.5374373" lon="12.3571759"><ele>-2.0</ele><time>2026-04-18T16:20:10.516Z</time></trkpt><trkpt lat="45.5374374" lon="12.3573061"><ele>-1.9999999999999998</ele><time>2026-04-18T16:20:12.517Z</time></trkpt><trkpt lat="45.5374383" lon="12.3574355"><ele>-2.0</ele><time>2026-04-18T16:20:14.521Z</time></trkpt><trkpt lat="45.5374443" lon="12.3575521"><ele>-2.0</ele><time>2026-04-18T16:20:16.52Z</time></trkpt><trkpt lat="45.5374435" lon="12.3576652"><ele>-2.0</ele><time>2026-04-18T16:20:18.514Z</time></trkpt><trkpt lat="45.5374425" lon="12.3577706"><ele>-1.9999999999999998</ele><time>2026-04-18T16:20:20.517Z</time></trkpt><trkpt lat="45.5374367" lon="12.3578757"><ele>-2.0</ele><time>2026-04-18T16:20:22.517Z</time></trkpt><trkpt lat="45.5374355" lon="12.3579891"><ele>-1.857142857142857</ele><time>2026-04-18T16:20:24.512Z</time></trkpt><trkpt lat="45.5374349" lon="12.3580986"><ele>-1.714285714285714</ele><time>2026-04-18T16:20:26.521Z</time></trkpt><trkpt lat="45.537432" lon="12.3581941"><ele>-1.5714285714285714</ele><time>2026-04-18T16:20:28.526Z</time></trkpt><trkpt lat="45.5374287" lon="12.3582855"><ele>-1.4285714285714284</ele><time>2026-04-18T16:20:30.515Z</time></trkpt><trkpt lat="45.5374215" lon="12.3584052"><ele>-1.2857142857142856</ele><time>2026-04-18T16:20:33.522Z</time></trkpt><trkpt lat="45.5374216" lon="12.3584951"><ele>-1.1428571428571428</ele><time>2026-04-18T16:20:35.526Z</time></trkpt><trkpt lat="45.5374216" lon="12.3585987"><ele>-1.0</ele><time>2026-04-18T16:20:37.533Z</time></trkpt><trkpt lat="45.5374255" lon="12.3587086"><ele>-0.9999999999999999</ele><time>2026-04-18T16:20:39.519Z</time></trkpt><trkpt lat="45.5374213" lon="12.3588178"><ele>-1.0</ele><time>2026-04-18T16:20:41.526Z</time></trkpt><trkpt lat="45.5374228" lon="12.3589293"><ele>-1.0</ele><time>2026-04-18T16:20:43.517Z</time></trkpt><trkpt lat="45.5374243" lon="12.3590294"><ele>-1.0</ele><time>2026-04-18T16:20:45.517Z</time></trkpt><trkpt lat="45.5374204" lon="12.3591364"><ele>-0.9999999999999999</ele><time>2026-04-18T16:20:47.535Z</time></trkpt><trkpt lat="45.5374166" lon="12.3592466"><ele>-1.0</ele><time>2026-04-18T16:20:49.534Z</time></trkpt><trkpt lat="45.5374121" lon="12.359367"><ele>-1.1666666666666665</ele><time>2026-04-18T16:20:51.52Z</time></trkpt><trkpt lat="45.5374075" lon="12.3594967"><ele>-1.3333333333333333</ele><time>2026-04-18T16:20:53.521Z</time></trkpt><trkpt lat="45.5374053" lon="12.3596129"><ele>-1.5</ele><time>2026-04-18T16:20:55.518Z</time></trkpt><trkpt lat="45.5374003" lon="12.3597263"><ele>-1.6666666666666665</ele><time>2026-04-18T16:20:57.525Z</time></trkpt><trkpt lat="45.5373942" lon="12.3598429"><ele>-1.8333333333333333</ele><time>2026-04-18T16:20:59.518Z</time></trkpt><trkpt lat="45.5373943" lon="12.35996"><ele>-2.0</ele><time>2026-04-18T16:21:01.517Z</time></trkpt><trkpt lat="45.537393" lon="12.3600804"><ele>-2.1666666666666665</ele><time>2026-04-18T16:21:03.507Z</time></trkpt><trkpt lat="45.5373917" lon="12.3602013"><ele>-2.333333333333333</ele><time>2026-04-18T16:21:05.54Z</time></trkpt><trkpt lat="45.5373893" lon="12.3603261"><ele>-2.5</ele><time>2026-04-18T16:21:07.508Z</time></trkpt><trkpt lat="45.537387" lon="12.3604533"><ele>-2.6666666666666665</ele><time>2026-04-18T16:21:09.511Z</time></trkpt><trkpt lat="45.5373842" lon="12.360579"><ele>-2.8333333333333335</ele><time>2026-04-18T16:21:11.515Z</time></trkpt><trkpt lat="45.5373826" lon="12.3607053"><ele>-3.0</ele><time>2026-04-18T16:21:13.518Z</time></trkpt><trkpt lat="45.5373792" lon="12.3608299"><ele>-3.0</ele><time>2026-04-18T16:21:15.531Z</time></trkpt><trkpt lat="45.537375" lon="12.360954"><ele>-3.0</ele><time>2026-04-18T16:21:17.521Z</time></trkpt><trkpt lat="45.5373706" lon="12.3610757"><ele>-3.0</ele><time>2026-04-18T16:21:19.528Z</time></trkpt><trkpt lat="45.5373692" lon="12.3611993"><ele>-3.0</ele><time>2026-04-18T16:21:21.525Z</time></trkpt><trkpt lat="45.5373645" lon="12.3613237"><ele>-3.0</ele><time>2026-04-18T16:21:23.537Z</time></trkpt><trkpt lat="45.5373589" lon="12.3614461"><ele>-3.0</ele><time>2026-04-18T16:21:25.51Z</time></trkpt><trkpt lat="45.5373518" lon="12.3615742"><ele>-2.8</ele><time>2026-04-18T16:21:27.52Z</time></trkpt><trkpt lat="45.5373497" lon="12.3617007"><ele>-2.5999999999999996</ele><time>2026-04-18T16:21:29.522Z</time></trkpt><trkpt lat="45.5373475" lon="12.3618403"><ele>-2.4000000000000004</ele><time>2026-04-18T16:21:31.518Z</time></trkpt><trkpt lat="45.5373426" lon="12.3619792"><ele>-2.2</ele><time>2026-04-18T16:21:33.527Z</time></trkpt><trkpt lat="45.537339" lon="12.3621074"><ele>-2.0</ele><time>2026-04-18T16:21:35.523Z</time></trkpt><trkpt lat="45.5373249" lon="12.3622433"><ele>-2.0</ele><time>2026-04-18T16:21:37.52Z</time></trkpt><trkpt lat="45.5373197" lon="12.3623728"><ele>-2.0</ele><time>2026-04-18T16:21:39.52Z</time></trkpt><trkpt lat="45.5373191" lon="12.3624965"><ele>-2.0</ele><time>2026-04-18T16:21:41.529Z</time></trkpt><trkpt lat="45.5373223" lon="12.3626211"><ele>-2.0</ele><time>2026-04-18T16:21:43.525Z</time></trkpt><trkpt lat="45.5373197" lon="12.3627554"><ele>-2.0</ele><time>2026-04-18T16:21:45.52Z</time></trkpt><trkpt lat="45.537316" lon="12.36289"><ele>-2.0</ele><time>2026-04-18T16:21:47.536Z</time></trkpt><trkpt lat="45.5373146" lon="12.3630265"><ele>-2.0</ele><time>2026-04-18T16:21:49.519Z</time></trkpt><trkpt lat="45.5373109" lon="12.3631609"><ele>-2.0</ele><time>2026-04-18T16:21:51.523Z</time></trkpt><trkpt lat="45.5373099" lon="12.363286"><ele>-2.0</ele><time>2026-04-18T16:21:53.523Z</time></trkpt><trkpt lat="45.5373081" lon="12.3634086"><ele>-2.0</ele><time>2026-04-18T16:21:55.517Z</time></trkpt><trkpt lat="45.5373111" lon="12.3635373"><ele>-2.0</ele><time>2026-04-18T16:21:57.527Z</time></trkpt><trkpt lat="45.5373128" lon="12.3636695"><ele>-2.0</ele><time>2026-04-18T16:21:59.521Z</time></trkpt><trkpt lat="45.5373157" lon="12.3638072"><ele>-2.0</ele><time>2026-04-18T16:22:01.518Z</time></trkpt><trkpt lat="45.53732" lon="12.3639412"><ele>-2.0</ele><time>2026-04-18T16:22:03.528Z</time></trkpt><trkpt lat="45.5373205" lon="12.3640702"><ele>-2.0</ele><time>2026-04-18T16:22:05.519Z</time></trkpt><trkpt lat="45.5373191" lon="12.3642068"><ele>-1.9999999999999998</ele><time>2026-04-18T16:22:07.525Z</time></trkpt><trkpt lat="45.5373159" lon="12.3643342"><ele>-2.0</ele><time>2026-04-18T16:22:09.52Z</time></trkpt><trkpt lat="45.537314" lon="12.3644479"><ele>-2.0</ele><time>2026-04-18T16:22:11.525Z</time></trkpt><trkpt lat="45.5373082" lon="12.3645724"><ele>-2.0</ele><time>2026-04-18T16:22:13.515Z</time></trkpt><trkpt lat="45.5373037" lon="12.3646883"><ele>-1.9999999999999998</ele><time>2026-04-18T16:22:15.523Z</time></trkpt><trkpt lat="45.5372997" lon="12.3648229"><ele>-2.0</ele><time>2026-04-18T16:22:17.532Z</time></trkpt><trkpt lat="45.5372946" lon="12.3649457"><ele>-1.9999999999999998</ele><time>2026-04-18T16:22:19.546Z</time></trkpt><trkpt lat="45.5372947" lon="12.3650717"><ele>-2.0</ele><time>2026-04-18T16:22:21.511Z</time></trkpt><trkpt lat="45.5372978" lon="12.3651962"><ele>-2.0</ele><time>2026-04-18T16:22:23.516Z</time></trkpt><trkpt lat="45.537292" lon="12.365321"><ele>-2.0</ele><time>2026-04-18T16:22:25.522Z</time></trkpt><trkpt lat="45.5372888" lon="12.3654161"><ele>-1.9999999999999998</ele><time>2026-04-18T16:22:27.529Z</time></trkpt><trkpt lat="45.537284" lon="12.3655468"><ele>-2.0</ele><time>2026-04-18T16:22:30.507Z</time></trkpt><trkpt lat="45.5372801" lon="12.365666"><ele>-2.0</ele><time>2026-04-18T16:22:32.515Z</time></trkpt><trkpt lat="45.5372658" lon="12.3658057"><ele>-2.0</ele><time>2026-04-18T16:22:34.53Z</time></trkpt><trkpt lat="45.5372598" lon="12.3659238"><ele>-2.0</ele><time>2026-04-18T16:22:36.522Z</time></trkpt><trkpt lat="45.5372606" lon="12.3660537"><ele>-2.0</ele><time>2026-04-18T16:22:38.523Z</time></trkpt><trkpt lat="45.5372658" lon="12.3661903"><ele>-2.0</ele><time>2026-04-18T16:22:40.528Z</time></trkpt><trkpt lat="45.5372628" lon="12.3663362"><ele>-1.9999999999999998</ele><time>2026-04-18T16:22:42.522Z</time></trkpt><trkpt lat="45.5372634" lon="12.3664692"><ele>-2.0</ele><time>2026-04-18T16:22:44.541Z</time></trkpt><trkpt lat="45.5372613" lon="12.3665901"><ele>-2.0</ele><time>2026-04-18T16:22:46.514Z</time></trkpt><trkpt lat="45.5372539" lon="12.3667179"><ele>-2.0</ele><time>2026-04-18T16:22:48.516Z</time></trkpt><trkpt lat="45.5372524" lon="12.3668343"><ele>-1.9999999999999998</ele><time>2026-04-18T16:22:50.521Z</time></trkpt><trkpt lat="45.5372579" lon="12.366962"><ele>-2.0</ele><time>2026-04-18T16:22:52.519Z</time></trkpt><trkpt lat="45.5372618" lon="12.3670909"><ele>-2.2</ele><time>2026-04-18T16:22:54.524Z</time></trkpt><trkpt lat="45.537264" lon="12.3672218"><ele>-2.4000000000000004</ele><time>2026-04-18T16:22:56.523Z</time></trkpt><trkpt lat="45.5372751" lon="12.3673593"><ele>-2.5999999999999996</ele><time>2026-04-18T16:22:58.512Z</time></trkpt><trkpt lat="45.5372816" lon="12.3674931"><ele>-2.8</ele><time>2026-04-18T16:23:00.516Z</time></trkpt><trkpt lat="45.5372833" lon="12.3676312"><ele>-3.0</ele><time>2026-04-18T16:23:02.528Z</time></trkpt><trkpt lat="45.5372905" lon="12.3677649"><ele>-3.0</ele><time>2026-04-18T16:23:04.516Z</time></trkpt><trkpt lat="45.5373009" lon="12.3678882"><ele>-3.0</ele><time>2026-04-18T16:23:06.529Z</time></trkpt><trkpt lat="45.5373068" lon="12.3679919"><ele>-3.0</ele><time>2026-04-18T16:23:08.513Z</time></trkpt><trkpt lat="45.5373103" lon="12.3681179"><ele>-3.0</ele><time>2026-04-18T16:23:10.525Z</time></trkpt><trkpt lat="45.5373138" lon="12.3682403"><ele>-3.0</ele><time>2026-04-18T16:23:12.508Z</time></trkpt><trkpt lat="45.5373215" lon="12.368365"><ele>-3.0</ele><time>2026-04-18T16:23:14.527Z</time></trkpt><trkpt lat="45.5373297" lon="12.3684891"><ele>-2.8</ele><time>2026-04-18T16:23:16.529Z</time></trkpt><trkpt lat="45.5373267" lon="12.3686053"><ele>-2.5999999999999996</ele><time>2026-04-18T16:23:18.516Z</time></trkpt><trkpt lat="45.5373362" lon="12.3687412"><ele>-2.4000000000000004</ele><time>2026-04-18T16:23:20.531Z</time></trkpt><trkpt lat="45.5373476" lon="12.3688807"><ele>-2.2</ele><time>2026-04-18T16:23:22.53Z</time></trkpt><trkpt lat="45.5373578" lon="12.3690253"><ele>-2.0</ele><time>2026-04-18T16:23:24.518Z</time></trkpt><trkpt lat="45.5373646" lon="12.369172"><ele>-1.9999999999999998</ele><time>2026-04-18T16:23:26.532Z</time></trkpt><trkpt lat="45.5373732" lon="12.3693101"><ele>-2.0</ele><time>2026-04-18T16:23:28.543Z</time></trkpt><trkpt lat="45.5373779" lon="12.3694441"><ele>-2.0</ele><time>2026-04-18T16:23:30.529Z</time></trkpt><trkpt lat="45.5373861" lon="12.3695731"><ele>-2.0</ele><time>2026-04-18T16:23:32.509Z</time></trkpt><trkpt lat="45.5373877" lon="12.3696955"><ele>-1.9999999999999998</ele><time>2026-04-18T16:23:34.522Z</time></trkpt><trkpt lat="45.5373865" lon="12.3698124"><ele>-2.0</ele><time>2026-04-18T16:23:36.528Z</time></trkpt><trkpt lat="45.5373909" lon="12.3699415"><ele>-2.0</ele><time>2026-04-18T16:23:38.507Z</time></trkpt><trkpt lat="45.5373992" lon="12.3700773"><ele>-2.0</ele><time>2026-04-18T16:23:40.515Z</time></trkpt><trkpt lat="45.5374056" lon="12.3702106"><ele>-2.0</ele><time>2026-04-18T16:23:42.525Z</time></trkpt><trkpt lat="45.5374129" lon="12.3703528"><ele>-2.0</ele><time>2026-04-18T16:23:44.539Z</time></trkpt><trkpt lat="45.5374205" lon="12.3704939"><ele>-2.0</ele><time>2026-04-18T16:23:46.527Z</time></trkpt><trkpt lat="45.5374247" lon="12.3706357"><ele>-2.0</ele><time>2026-04-18T16:23:48.535Z</time></trkpt><trkpt lat="45.5374285" lon="12.3707767"><ele>-2.0</ele><time>2026-04-18T16:23:50.524Z</time></trkpt><trkpt lat="45.537433" lon="12.3709196"><ele>-2.0</ele><time>2026-04-18T16:23:52.502Z</time></trkpt><trkpt lat="45.5374378" lon="12.3710473"><ele>-2.0</ele><time>2026-04-18T16:23:54.507Z</time></trkpt><trkpt lat="45.5374491" lon="12.3711824"><ele>-2.0</ele><time>2026-04-18T16:23:56.506Z</time></trkpt><trkpt lat="45.5374616" lon="12.3713175"><ele>-2.0</ele><time>2026-04-18T16:23:58.515Z</time></trkpt><trkpt lat="45.537468" lon="12.3714551"><ele>-2.0</ele><time>2026-04-18T16:24:00.517Z</time></trkpt><trkpt lat="45.5374736" lon="12.3715914"><ele>-2.0</ele><time>2026-04-18T16:24:02.516Z</time></trkpt><trkpt lat="45.5374825" lon="12.3717188"><ele>-2.0</ele><time>2026-04-18T16:24:04.527Z</time></trkpt><trkpt lat="45.5374963" lon="12.371854"><ele>-2.0</ele><time>2026-04-18T16:24:06.519Z</time></trkpt><trkpt lat="45.5375005" lon="12.3719812"><ele>-2.0</ele><time>2026-04-18T16:24:08.519Z</time></trkpt><trkpt lat="45.5375109" lon="12.3721221"><ele>-2.0</ele><time>2026-04-18T16:24:10.512Z</time></trkpt><trkpt lat="45.5375186" lon="12.3722681"><ele>-2.0</ele><time>2026-04-18T16:24:12.51Z</time></trkpt><trkpt lat="45.5375137" lon="12.3724034"><ele>-2.0</ele><time>2026-04-18T16:24:14.526Z</time></trkpt><trkpt lat="45.5375156" lon="12.3725313"><ele>-2.0</ele><time>2026-04-18T16:24:16.527Z</time></trkpt><trkpt lat="45.5375174" lon="12.372666"><ele>-2.0</ele><time>2026-04-18T16:24:18.503Z</time></trkpt><trkpt lat="45.5375184" lon="12.3727953"><ele>-2.0</ele><time>2026-04-18T16:24:20.516Z</time></trkpt><trkpt lat="45.5375283" lon="12.3729443"><ele>-2.0</ele><time>2026-04-18T16:24:22.523Z</time></trkpt><trkpt lat="45.5375359" lon="12.3730775"><ele>-2.0</ele><time>2026-04-18T16:24:24.514Z</time></trkpt><trkpt lat="45.5375419" lon="12.3732018"><ele>-2.0</ele><time>2026-04-18T16:24:26.519Z</time></trkpt><trkpt lat="45.5375432" lon="12.3733386"><ele>-2.0</ele><time>2026-04-18T16:24:28.521Z</time></trkpt><trkpt lat="45.5375468" lon="12.3734733"><ele>-2.0</ele><time>2026-04-18T16:24:30.515Z</time></trkpt><trkpt lat="45.5375531" lon="12.3736067"><ele>-2.0</ele><time>2026-04-18T16:24:32.521Z</time></trkpt><trkpt lat="45.5375629" lon="12.3737444"><ele>-2.0</ele><time>2026-04-18T16:24:34.516Z</time></trkpt><trkpt lat="45.5375727" lon="12.3738775"><ele>-2.0</ele><time>2026-04-18T16:24:36.52Z</time></trkpt><trkpt lat="45.5375783" lon="12.3740109"><ele>-2.4000000000000004</ele><time>2026-04-18T16:24:38.517Z</time></trkpt><trkpt lat="45.5375851" lon="12.374145"><ele>-2.8000000000000003</ele><time>2026-04-18T16:24:40.513Z</time></trkpt><trkpt lat="45.5375925" lon="12.3742794"><ele>-3.2</ele><time>2026-04-18T16:24:42.525Z</time></trkpt><trkpt lat="45.5375999" lon="12.374415"><ele>-3.6</ele><time>2026-04-18T16:24:44.526Z</time></trkpt><trkpt lat="45.5376084" lon="12.3745506"><ele>-4.0</ele><time>2026-04-18T16:24:46.523Z</time></trkpt><trkpt lat="45.5376158" lon="12.374689"><ele>-4.0</ele><time>2026-04-18T16:24:48.519Z</time></trkpt><trkpt lat="45.5376244" lon="12.3748273"><ele>-4.0</ele><time>2026-04-18T16:24:50.521Z</time></trkpt><trkpt lat="45.5376351" lon="12.3749512"><ele>-4.0</ele><time>2026-04-18T16:24:52.517Z</time></trkpt><trkpt lat="45.5376421" lon="12.3750647"><ele>-4.0</ele><time>2026-04-18T16:24:54.532Z</time></trkpt><trkpt lat="45.5376462" lon="12.3751972"><ele>-4.0</ele><time>2026-04-18T16:24:56.507Z</time></trkpt><trkpt lat="45.5376528" lon="12.3753446"><ele>-4.0</ele><time>2026-04-18T16:24:58.524Z</time></trkpt><trkpt lat="45.5376617" lon="12.375466"><ele>-4.0</ele><time>2026-04-18T16:25:00.537Z</time></trkpt><trkpt lat="45.5376718" lon="12.3755914"><ele>-4.0</ele><time>2026-04-18T16:25:02.509Z</time></trkpt><trkpt lat="45.5376797" lon="12.3757304"><ele>-4.0</ele><time>2026-04-18T16:25:04.522Z</time></trkpt><trkpt lat="45.5376884" lon="12.3758713"><ele>-4.0</ele><time>2026-04-18T16:25:06.52Z</time></trkpt><trkpt lat="45.5376915" lon="12.3760232"><ele>-3.833333333333333</ele><time>2026-04-18T16:25:08.512Z</time></trkpt><trkpt lat="45.5377025" lon="12.3761566"><ele>-3.6666666666666665</ele><time>2026-04-18T16:25:10.526Z</time></trkpt><trkpt lat="45.537716" lon="12.3762697"><ele>-3.5</ele><time>2026-04-18T16:25:12.525Z</time></trkpt><trkpt lat="45.5377329" lon="12.3763613"><ele>-3.333333333333333</ele><time>2026-04-18T16:25:14.52Z</time></trkpt><trkpt lat="45.5377511" lon="12.3764633"><ele>-3.1666666666666665</ele><time>2026-04-18T16:25:16.51Z</time></trkpt><trkpt lat="45.5377641" lon="12.3765805"><ele>-3.0</ele><time>2026-04-18T16:25:19.521Z</time></trkpt><trkpt lat="45.5377867" lon="12.3766777"><ele>-2.8333333333333335</ele><time>2026-04-18T16:25:22.515Z</time></trkpt><trkpt lat="45.5378103" lon="12.3767744"><ele>-2.6666666666666665</ele><time>2026-04-18T16:25:26.52Z</time></trkpt><trkpt lat="45.5378763" lon="12.3768483"><ele>-2.5</ele><time>2026-04-18T16:25:30.548Z</time></trkpt><trkpt lat="45.5379195" lon="12.3769435"><ele>-2.333333333333333</ele><time>2026-04-18T16:25:32.51Z</time></trkpt><trkpt lat="45.5379491" lon="12.3770606"><ele>-2.1666666666666665</ele><time>2026-04-18T16:25:35.528Z</time></trkpt><trkpt lat="45.5379667" lon="12.3771771"><ele>-2.0</ele><time>2026-04-18T16:25:38.521Z</time></trkpt><trkpt lat="45.5379821" lon="12.3773115"><ele>-1.9999999999999998</ele><time>2026-04-18T16:25:41.536Z</time></trkpt><trkpt lat="45.5379957" lon="12.377415"><ele>-2.0</ele><time>2026-04-18T16:25:43.524Z</time></trkpt><trkpt lat="45.537993" lon="12.377538"><ele>-2.0</ele><time>2026-04-18T16:25:45.524Z</time></trkpt><trkpt lat="45.5379739" lon="12.3776363"><ele>-2.0</ele><time>2026-04-18T16:25:47.504Z</time></trkpt><trkpt lat="45.5379454" lon="12.3777336"><ele>-1.9999999999999998</ele><time>2026-04-18T16:25:49.525Z</time></trkpt><trkpt lat="45.5379239" lon="12.3778538"><ele>-2.0</ele><time>2026-04-18T16:25:51.515Z</time></trkpt><trkpt lat="45.5378923" lon="12.3779558"><ele>-1.6666666666666665</ele><time>2026-04-18T16:25:53.522Z</time></trkpt><trkpt lat="45.5378621" lon="12.3780614"><ele>-1.3333333333333333</ele><time>2026-04-18T16:25:55.531Z</time></trkpt><trkpt lat="45.5378295" lon="12.3781677"><ele>-1.0</ele><time>2026-04-18T16:25:57.515Z</time></trkpt><trkpt lat="45.5378022" lon="12.3782604"><ele>-0.6666666666666666</ele><time>2026-04-18T16:25:59.527Z</time></trkpt><trkpt lat="45.5377725" lon="12.3783929"><ele>-0.3333333333333333</ele><time>2026-04-18T16:26:02.511Z</time></trkpt><trkpt lat="45.5377679" lon="12.3785285"><ele>0.0</ele><time>2026-04-18T16:26:05.523Z</time></trkpt><trkpt lat="45.5377964" lon="12.3786182"><ele>0.0</ele><time>2026-04-18T16:26:08.523Z</time></trkpt><trkpt lat="45.5378727" lon="12.3786431"><ele>0.0</ele><time>2026-04-18T16:26:11.531Z</time></trkpt><trkpt lat="45.5379478" lon="12.3786383"><ele>0.0</ele><time>2026-04-18T16:26:13.515Z</time></trkpt><trkpt lat="45.5380296" lon="12.3786318"><ele>0.0</ele><time>2026-04-18T16:26:15.529Z</time></trkpt><trkpt lat="45.538108" lon="12.3786235"><ele>0.0</ele><time>2026-04-18T16:26:17.526Z</time></trkpt><trkpt lat="45.5381896" lon="12.3786159"><ele>0.0</ele><time>2026-04-18T16:26:19.532Z</time></trkpt><trkpt lat="45.538275" lon="12.3786013"><ele>0.0</ele><time>2026-04-18T16:26:21.533Z</time></trkpt><trkpt lat="45.5383448" lon="12.3785445"><ele>0.0</ele><time>2026-04-18T16:26:23.526Z</time></trkpt><trkpt lat="45.5383875" lon="12.3784383"><ele>0.0</ele><time>2026-04-18T16:26:25.528Z</time></trkpt><trkpt lat="45.5384008" lon="12.3783278"><ele>0.0</ele><time>2026-04-18T16:26:27.539Z</time></trkpt><trkpt lat="45.5383907" lon="12.3781935"><ele>0.0</ele><time>2026-04-18T16:26:29.52Z</time></trkpt><trkpt lat="45.5383713" lon="12.3780955"><ele>0.0</ele><time>2026-04-18T16:26:31.524Z</time></trkpt><trkpt lat="45.5383451" lon="12.3779918"><ele>0.0</ele><time>2026-04-18T16:26:34.522Z</time></trkpt><trkpt lat="45.5383752" lon="12.3779117"><ele>0.0</ele><time>2026-04-18T16:26:39.53Z</time></trkpt><trkpt lat="45.5384445" lon="12.3779578"><ele>0.0</ele><time>2026-04-18T16:26:42.523Z</time></trkpt><trkpt lat="45.5385318" lon="12.3779985"><ele>0.0</ele><time>2026-04-18T16:26:45.519Z</time></trkpt><trkpt lat="45.5386238" lon="12.3780361"><ele>0.0</ele><time>2026-04-18T16:26:48.518Z</time></trkpt><trkpt lat="45.5386871" lon="12.3780629"><ele>0.0</ele><time>2026-04-18T16:26:50.523Z</time></trkpt><trkpt lat="45.5387522" lon="12.3780917"><ele>-0.3333333333333333</ele><time>2026-04-18T16:26:52.524Z</time></trkpt><trkpt lat="45.5388128" lon="12.378124"><ele>-0.6666666666666666</ele><time>2026-04-18T16:26:54.507Z</time></trkpt><trkpt lat="45.5388747" lon="12.3781654"><ele>-1.0</ele><time>2026-04-18T16:26:57.502Z</time></trkpt><trkpt lat="45.5388181" lon="12.3782413"><ele>-1.3333333333333333</ele><time>2026-04-18T16:27:46.514Z</time></trkpt><trkpt lat="45.5388005" lon="12.3783899"><ele>-1.6666666666666665</ele><time>2026-04-18T16:27:48.526Z</time></trkpt><trkpt lat="45.5387876" lon="12.378534"><ele>-2.0</ele><time>2026-04-18T16:27:50.524Z</time></trkpt><trkpt lat="45.5387785" lon="12.3786486"><ele>-1.9999999999999998</ele><time>2026-04-18T16:27:52.518Z</time></trkpt><trkpt lat="45.5387595" lon="12.3787705"><ele>-2.0</ele><time>2026-04-18T16:27:54.517Z</time></trkpt><trkpt lat="45.538736" lon="12.3789077"><ele>-2.0</ele><time>2026-04-18T16:27:56.513Z</time></trkpt><trkpt lat="45.5387007" lon="12.3790216"><ele>-2.0</ele><time>2026-04-18T16:27:58.516Z</time></trkpt><trkpt lat="45.5386512" lon="12.3791314"><ele>-1.9999999999999998</ele><time>2026-04-18T16:28:00.526Z</time></trkpt><trkpt lat="45.5386115" lon="12.3792228"><ele>-2.0</ele><time>2026-04-18T16:28:02.518Z</time></trkpt><trkpt lat="45.5385718" lon="12.3793204"><ele>-1.8333333333333333</ele><time>2026-04-18T16:28:04.521Z</time></trkpt><trkpt lat="45.5385283" lon="12.379405"><ele>-1.6666666666666665</ele><time>2026-04-18T16:28:06.529Z</time></trkpt><trkpt lat="45.5384739" lon="12.3794782"><ele>-1.5</ele><time>2026-04-18T16:28:08.515Z</time></trkpt><trkpt lat="45.5384241" lon="12.3795535"><ele>-1.3333333333333333</ele><time>2026-04-18T16:28:10.52Z</time></trkpt><trkpt lat="45.5383664" lon="12.37962"><ele>-1.1666666666666665</ele><time>2026-04-18T16:28:12.517Z</time></trkpt><trkpt lat="45.538316" lon="12.3796945"><ele>-1.0</ele><time>2026-04-18T16:28:14.517Z</time></trkpt><trkpt lat="45.5383999" lon="12.3796685"><ele>-0.9999999999999999</ele><time>2026-04-18T16:28:20.52Z</time></trkpt><trkpt lat="45.5384668" lon="12.3797182"><ele>-1.0</ele><time>2026-04-18T16:28:23.517Z</time></trkpt><trkpt lat="45.5384557" lon="12.379823"><ele>-1.0</ele><time>2026-04-18T16:28:25.524Z</time></trkpt><trkpt lat="45.5384463" lon="12.3799163"><ele>-1.0</ele><time>2026-04-18T16:28:27.516Z</time></trkpt><trkpt lat="45.5384706" lon="12.3800236"><ele>-0.9999999999999999</ele><time>2026-04-18T16:28:29.53Z</time></trkpt><trkpt lat="45.5385135" lon="12.3801326"><ele>-1.0</ele><time>2026-04-18T16:28:31.529Z</time></trkpt><trkpt lat="45.5385671" lon="12.3802548"><ele>-1.0</ele><time>2026-04-18T16:28:33.525Z</time></trkpt><trkpt lat="45.5386152" lon="12.3803664"><ele>-1.0</ele><time>2026-04-18T16:28:35.516Z</time></trkpt><trkpt lat="45.5386734" lon="12.3804965"><ele>-1.0</ele><time>2026-04-18T16:28:37.532Z</time></trkpt><trkpt lat="45.5387158" lon="12.3806103"><ele>-1.0</ele><time>2026-04-18T16:28:39.518Z</time></trkpt><trkpt lat="45.5387552" lon="12.380714"><ele>-1.0</ele><time>2026-04-18T16:28:41.529Z</time></trkpt><trkpt lat="45.5387917" lon="12.3808253"><ele>-1.5</ele><time>2026-04-18T16:28:43.517Z</time></trkpt><trkpt lat="45.5388249" lon="12.3809405"><ele>-2.0</ele><time>2026-04-18T16:28:45.539Z</time></trkpt><trkpt lat="45.5388548" lon="12.3810572"><ele>-2.5</ele><time>2026-04-18T16:28:47.528Z</time></trkpt><trkpt lat="45.5388866" lon="12.3811706"><ele>-3.0</ele><time>2026-04-18T16:28:49.542Z</time></trkpt><trkpt lat="45.5389102" lon="12.381277"><ele>-3.4999999999999996</ele><time>2026-04-18T16:28:51.536Z</time></trkpt><trkpt lat="45.538937" lon="12.3813959"><ele>-4.0</ele><time>2026-04-18T16:28:53.523Z</time></trkpt><trkpt lat="45.5389582" lon="12.3815202"><ele>-3.9999999999999996</ele><time>2026-04-18T16:28:55.54Z</time></trkpt><trkpt lat="45.5389706" lon="12.3816365"><ele>-4.0</ele><time>2026-04-18T16:28:57.538Z</time></trkpt><trkpt lat="45.538989" lon="12.3817587"><ele>-4.0</ele><time>2026-04-18T16:28:59.543Z</time></trkpt><trkpt lat="45.5389897" lon="12.3818996"><ele>-4.0</ele><time>2026-04-18T16:29:01.523Z</time></trkpt><trkpt lat="45.5389907" lon="12.3820327"><ele>-3.9999999999999996</ele><time>2026-04-18T16:29:03.534Z</time></trkpt><trkpt lat="45.5389734" lon="12.3821452"><ele>-4.0</ele><time>2026-04-18T16:29:05.533Z</time></trkpt><trkpt lat="45.5389678" lon="12.3822771"><ele>-3.833333333333333</ele><time>2026-04-18T16:29:07.52Z</time></trkpt><trkpt lat="45.5389531" lon="12.3823992"><ele>-3.6666666666666665</ele><time>2026-04-18T16:29:09.53Z</time></trkpt><trkpt lat="45.5389397" lon="12.3825195"><ele>-3.5</ele><time>2026-04-18T16:29:11.529Z</time></trkpt><trkpt lat="45.5389279" lon="12.3826366"><ele>-3.333333333333333</ele><time>2026-04-18T16:29:13.543Z</time></trkpt><trkpt lat="45.5389115" lon="12.3827594"><ele>-3.1666666666666665</ele><time>2026-04-18T16:29:15.523Z</time></trkpt><trkpt lat="45.5389034" lon="12.3828738"><ele>-3.0</ele><time>2026-04-18T16:29:17.53Z</time></trkpt><trkpt lat="45.5389062" lon="12.3829699"><ele>-3.0</ele><time>2026-04-18T16:29:19.515Z</time></trkpt><trkpt lat="45.5389038" lon="12.3831022"><ele>-3.0</ele><time>2026-04-18T16:29:22.535Z</time></trkpt><trkpt lat="45.5388486" lon="12.3832165"><ele>-3.0</ele><time>2026-04-18T16:29:25.524Z</time></trkpt><trkpt lat="45.5388263" lon="12.3833081"><ele>-3.0</ele><time>2026-04-18T16:29:27.509Z</time></trkpt><trkpt lat="45.5388101" lon="12.3834172"><ele>-3.0</ele><time>2026-04-18T16:29:29.525Z</time></trkpt><trkpt lat="45.5387919" lon="12.3835342"><ele>-3.0</ele><time>2026-04-18T16:29:31.533Z</time></trkpt><trkpt lat="45.5387749" lon="12.3836402"><ele>-3.0</ele><time>2026-04-18T16:29:33.539Z</time></trkpt><trkpt lat="45.5387582" lon="12.3837534"><ele>-3.0</ele><time>2026-04-18T16:29:35.521Z</time></trkpt><trkpt lat="45.5387517" lon="12.3838631"><ele>-3.0</ele><time>2026-04-18T16:29:37.527Z</time></trkpt><trkpt lat="45.5387328" lon="12.3839806"><ele>-3.0</ele><time>2026-04-18T16:29:39.522Z</time></trkpt><trkpt lat="45.5387162" lon="12.384083"><ele>-3.0</ele><time>2026-04-18T16:29:41.537Z</time></trkpt><trkpt lat="45.5387037" lon="12.384183"><ele>-3.0</ele><time>2026-04-18T16:29:43.529Z</time></trkpt><trkpt lat="45.5386904" lon="12.3842866"><ele>-2.5</ele><time>2026-04-18T16:29:45.519Z</time></trkpt><trkpt lat="45.5386711" lon="12.3843907"><ele>-2.0</ele><time>2026-04-18T16:29:47.522Z</time></trkpt><trkpt lat="45.5386509" lon="12.3844905"><ele>-1.5</ele><time>2026-04-18T16:29:49.534Z</time></trkpt><trkpt lat="45.5386407" lon="12.3845982"><ele>-1.0</ele><time>2026-04-18T16:29:51.53Z</time></trkpt><trkpt lat="45.5386207" lon="12.3847061"><ele>-0.5</ele><time>2026-04-18T16:29:53.516Z</time></trkpt><trkpt lat="45.5385948" lon="12.3848188"><ele>0.0</ele><time>2026-04-18T16:29:55.528Z</time></trkpt><trkpt lat="45.5385736" lon="12.3849402"><ele>0.0</ele><time>2026-04-18T16:29:57.521Z</time></trkpt><trkpt lat="45.5385545" lon="12.3850619"><ele>0.0</ele><time>2026-04-18T16:29:59.525Z</time></trkpt><trkpt lat="45.5385342" lon="12.3851805"><ele>0.0</ele><time>2026-04-18T16:30:01.541Z</time></trkpt><trkpt lat="45.5385121" lon="12.385296"><ele>0.0</ele><time>2026-04-18T16:30:03.519Z</time></trkpt><trkpt lat="45.5384857" lon="12.3854121"><ele>0.0</ele><time>2026-04-18T16:30:05.525Z</time></trkpt><trkpt lat="45.5384489" lon="12.3855197"><ele>0.0</ele><time>2026-04-18T16:30:07.521Z</time></trkpt><trkpt lat="45.5384254" lon="12.3856344"><ele>-0.3333333333333333</ele><time>2026-04-18T16:30:09.526Z</time></trkpt><trkpt lat="45.5384324" lon="12.3857545"><ele>-0.6666666666666666</ele><time>2026-04-18T16:30:11.524Z</time></trkpt><trkpt lat="45.5385063" lon="12.3858374"><ele>-1.0</ele><time>2026-04-18T16:30:14.522Z</time></trkpt><trkpt lat="45.5386042" lon="12.3858372"><ele>-1.3333333333333333</ele><time>2026-04-18T16:30:17.542Z</time></trkpt><trkpt lat="45.5386805" lon="12.3858067"><ele>-1.6666666666666665</ele><time>2026-04-18T16:30:19.534Z</time></trkpt><trkpt lat="45.5387548" lon="12.3857827"><ele>-2.0</ele><time>2026-04-18T16:30:21.531Z</time></trkpt><trkpt lat="45.5388297" lon="12.3857593"><ele>-1.9999999999999998</ele><time>2026-04-18T16:30:23.519Z</time></trkpt><trkpt lat="45.538911" lon="12.3857312"><ele>-2.0</ele><time>2026-04-18T16:30:25.525Z</time></trkpt><trkpt lat="45.5389849" lon="12.38571"><ele>-2.0</ele><time>2026-04-18T16:30:27.516Z</time></trkpt><trkpt lat="45.5390631" lon="12.3856934"><ele>-2.0</ele><time>2026-04-18T16:30:29.522Z</time></trkpt><trkpt lat="45.5391482" lon="12.3856759"><ele>-1.9999999999999998</ele><time>2026-04-18T16:30:31.53Z</time></trkpt><trkpt lat="45.5392271" lon="12.3856602"><ele>-2.0</ele><time>2026-04-18T16:30:33.52Z</time></trkpt><trkpt lat="45.5393007" lon="12.3856402"><ele>-1.9999999999999998</ele><time>2026-04-18T16:30:35.519Z</time></trkpt><trkpt lat="45.5393826" lon="12.3856283"><ele>-2.0</ele><time>2026-04-18T16:30:37.533Z</time></trkpt><trkpt lat="45.5394661" lon="12.3856526"><ele>-2.0</ele><time>2026-04-18T16:30:39.537Z</time></trkpt><trkpt lat="45.5395495" lon="12.3857058"><ele>-2.0</ele><time>2026-04-18T16:30:41.524Z</time></trkpt><trkpt lat="45.5396252" lon="12.3857657"><ele>-1.9999999999999998</ele><time>2026-04-18T16:30:43.523Z</time></trkpt><trkpt lat="45.5396988" lon="12.3858418"><ele>-2.0</ele><time>2026-04-18T16:30:45.535Z</time></trkpt><trkpt lat="45.539773" lon="12.385923"><ele>-1.9999999999999998</ele><time>2026-04-18T16:30:47.528Z</time></trkpt><trkpt lat="45.5398378" lon="12.3860092"><ele>-2.0</ele><time>2026-04-18T16:30:49.526Z</time></trkpt><trkpt lat="45.5398988" lon="12.3861014"><ele>-2.0</ele><time>2026-04-18T16:30:51.544Z</time></trkpt><trkpt lat="45.5399585" lon="12.3861905"><ele>-2.0</ele><time>2026-04-18T16:30:53.526Z</time></trkpt><trkpt lat="45.5400143" lon="12.3862772"><ele>-1.9999999999999998</ele><time>2026-04-18T16:30:55.535Z</time></trkpt><trkpt lat="45.5400733" lon="12.3863693"><ele>-2.0</ele><time>2026-04-18T16:30:57.522Z</time></trkpt><trkpt lat="45.540131" lon="12.3864632"><ele>-1.9999999999999998</ele><time>2026-04-18T16:30:59.52Z</time></trkpt><trkpt lat="45.5401864" lon="12.3865577"><ele>-2.0</ele><time>2026-04-18T16:31:01.544Z</time></trkpt><trkpt lat="45.5402435" lon="12.3866498"><ele>-2.0</ele><time>2026-04-18T16:31:03.526Z</time></trkpt><trkpt lat="45.5402976" lon="12.3867464"><ele>-2.0</ele><time>2026-04-18T16:31:05.529Z</time></trkpt><trkpt lat="45.5403555" lon="12.3868369"><ele>-1.9999999999999998</ele><time>2026-04-18T16:31:07.514Z</time></trkpt><trkpt lat="45.5404131" lon="12.3869311"><ele>-2.0</ele><time>2026-04-18T16:31:09.531Z</time></trkpt><trkpt lat="45.5404725" lon="12.387023"><ele>-2.1666666666666665</ele><time>2026-04-18T16:31:11.522Z</time></trkpt><trkpt lat="45.5405341" lon="12.3871123"><ele>-2.333333333333333</ele><time>2026-04-18T16:31:13.524Z</time></trkpt><trkpt lat="45.5405971" lon="12.3872076"><ele>-2.5</ele><time>2026-04-18T16:31:15.524Z</time></trkpt><trkpt lat="45.5406567" lon="12.3873055"><ele>-2.6666666666666665</ele><time>2026-04-18T16:31:17.529Z</time></trkpt><trkpt lat="45.5407101" lon="12.3873951"><ele>-2.8333333333333335</ele><time>2026-04-18T16:31:19.53Z</time></trkpt><trkpt lat="45.5407592" lon="12.3874965"><ele>-3.0</ele><time>2026-04-18T16:31:21.53Z</time></trkpt><trkpt lat="45.5408043" lon="12.3876254"><ele>-3.0</ele><time>2026-04-18T16:31:23.518Z</time></trkpt><trkpt lat="45.5408416" lon="12.3877717"><ele>-3.0</ele><time>2026-04-18T16:31:25.523Z</time></trkpt><trkpt lat="45.5408662" lon="12.3879204"><ele>-3.0</ele><time>2026-04-18T16:31:27.531Z</time></trkpt><trkpt lat="45.5408941" lon="12.3880571"><ele>-3.0</ele><time>2026-04-18T16:31:29.517Z</time></trkpt><trkpt lat="45.5409097" lon="12.388156"><ele>-3.0</ele><time>2026-04-18T16:31:30.52Z</time></trkpt><trkpt lat="45.5409442" lon="12.3882714"><ele>-3.0</ele><time>2026-04-18T16:31:32.531Z</time></trkpt><trkpt lat="45.5409599" lon="12.3883651"><ele>-3.0</ele><time>2026-04-18T16:31:33.535Z</time></trkpt><trkpt lat="45.5410117" lon="12.3885142"><ele>-3.0</ele><time>2026-04-18T16:31:35.531Z</time></trkpt><trkpt lat="45.5410299" lon="12.3886355"><ele>-3.0</ele><time>2026-04-18T16:31:37.526Z</time></trkpt><trkpt lat="45.5410768" lon="12.3887776"><ele>-3.0</ele><time>2026-04-18T16:31:39.528Z</time></trkpt><trkpt lat="45.5410904" lon="12.3889066"><ele>-3.25</ele><time>2026-04-18T16:31:41.505Z</time></trkpt><trkpt lat="45.5411129" lon="12.3890625"><ele>-3.5</ele><time>2026-04-18T16:31:43.519Z</time></trkpt><trkpt lat="45.5411486" lon="12.3892279"><ele>-3.75</ele><time>2026-04-18T16:31:45.519Z</time></trkpt><trkpt lat="45.5411668" lon="12.3893972"><ele>-4.0</ele><time>2026-04-18T16:31:47.529Z</time></trkpt><trkpt lat="45.5411792" lon="12.3895642"><ele>-4.0</ele><time>2026-04-18T16:31:49.546Z</time></trkpt><trkpt lat="45.5411905" lon="12.3897125"><ele>-4.0</ele><time>2026-04-18T16:31:51.531Z</time></trkpt><trkpt lat="45.5412007" lon="12.3898656"><ele>-4.0</ele><time>2026-04-18T16:31:53.512Z</time></trkpt><trkpt lat="45.5412049" lon="12.3900153"><ele>-4.0</ele><time>2026-04-18T16:31:55.529Z</time></trkpt><trkpt lat="45.5412082" lon="12.3901671"><ele>-4.0</ele><time>2026-04-18T16:31:57.528Z</time></trkpt><trkpt lat="45.541212" lon="12.3903145"><ele>-4.0</ele><time>2026-04-18T16:31:59.52Z</time></trkpt><trkpt lat="45.54121" lon="12.3904737"><ele>-4.0</ele><time>2026-04-18T16:32:01.529Z</time></trkpt><trkpt lat="45.5412066" lon="12.3906255"><ele>-4.0</ele><time>2026-04-18T16:32:03.542Z</time></trkpt><trkpt lat="45.5412071" lon="12.3907759"><ele>-4.0</ele><time>2026-04-18T16:32:05.519Z</time></trkpt><trkpt lat="45.5412151" lon="12.3909108"><ele>-4.0</ele><time>2026-04-18T16:32:07.524Z</time></trkpt><trkpt lat="45.5412228" lon="12.3910497"><ele>-4.0</ele><time>2026-04-18T16:32:09.512Z</time></trkpt><trkpt lat="45.5412624" lon="12.3911509"><ele>-4.0</ele><time>2026-04-18T16:32:11.512Z</time></trkpt><trkpt lat="45.5413287" lon="12.3912354"><ele>-4.0</ele><time>2026-04-18T16:32:13.532Z</time></trkpt><trkpt lat="45.5414154" lon="12.3913172"><ele>-4.0</ele><time>2026-04-18T16:32:15.528Z</time></trkpt><trkpt lat="45.5415069" lon="12.391415"><ele>-4.0</ele><time>2026-04-18T16:32:17.532Z</time></trkpt><trkpt lat="45.5415765" lon="12.3914959"><ele>-3.6</ele><time>2026-04-18T16:32:19.523Z</time></trkpt><trkpt lat="45.5416556" lon="12.3915827"><ele>-3.2</ele><time>2026-04-18T16:32:21.53Z</time></trkpt><trkpt lat="45.5417367" lon="12.3916586"><ele>-2.8000000000000003</ele><time>2026-04-18T16:32:23.542Z</time></trkpt><trkpt lat="45.5418004" lon="12.3917222"><ele>-2.4000000000000004</ele><time>2026-04-18T16:32:25.517Z</time></trkpt><trkpt lat="45.5418874" lon="12.3917919"><ele>-2.0</ele><time>2026-04-18T16:32:27.514Z</time></trkpt><trkpt lat="45.541972" lon="12.3918629"><ele>-1.9999999999999998</ele><time>2026-04-18T16:32:29.526Z</time></trkpt><trkpt lat="45.5420461" lon="12.3919311"><ele>-2.0</ele><time>2026-04-18T16:32:31.519Z</time></trkpt><trkpt lat="45.5421021" lon="12.3919959"><ele>-2.0</ele><time>2026-04-18T16:32:33.524Z</time></trkpt><trkpt lat="45.5421233" lon="12.3920818"><ele>-2.0</ele><time>2026-04-18T16:32:35.527Z</time></trkpt><trkpt lat="45.5421427" lon="12.3922219"><ele>-1.9999999999999998</ele><time>2026-04-18T16:32:38.526Z</time></trkpt><trkpt lat="45.542168" lon="12.3923191"><ele>-2.0</ele><time>2026-04-18T16:32:40.545Z</time></trkpt><trkpt lat="45.542197" lon="12.3924207"><ele>-2.1666666666666665</ele><time>2026-04-18T16:32:42.524Z</time></trkpt><trkpt lat="45.5422402" lon="12.3925361"><ele>-2.333333333333333</ele><time>2026-04-18T16:32:44.534Z</time></trkpt><trkpt lat="45.542286" lon="12.3926503"><ele>-2.5</ele><time>2026-04-18T16:32:46.526Z</time></trkpt><trkpt lat="45.5423379" lon="12.3927596"><ele>-2.6666666666666665</ele><time>2026-04-18T16:32:48.517Z</time></trkpt><trkpt lat="45.5423816" lon="12.3928597"><ele>-2.8333333333333335</ele><time>2026-04-18T16:32:50.525Z</time></trkpt><trkpt lat="45.5424223" lon="12.3929623"><ele>-3.0</ele><time>2026-04-18T16:32:52.513Z</time></trkpt><trkpt lat="45.5424482" lon="12.3930612"><ele>-3.0</ele><time>2026-04-18T16:32:54.519Z</time></trkpt><trkpt lat="45.5424581" lon="12.3931608"><ele>-3.0</ele><time>2026-04-18T16:32:56.525Z</time></trkpt><trkpt lat="45.5424535" lon="12.3932833"><ele>-3.0</ele><time>2026-04-18T16:32:58.54Z</time></trkpt><trkpt lat="45.5424453" lon="12.3933864"><ele>-3.0</ele><time>2026-04-18T16:33:00.539Z</time></trkpt><trkpt lat="45.5424318" lon="12.3934753"><ele>-3.0</ele><time>2026-04-18T16:33:02.522Z</time></trkpt><trkpt lat="45.542407" lon="12.3935772"><ele>-3.0</ele><time>2026-04-18T16:33:05.513Z</time></trkpt><trkpt lat="45.5424074" lon="12.3937155"><ele>-3.0</ele><time>2026-04-18T16:34:12.513Z</time></trkpt><trkpt lat="45.54239" lon="12.3938207"><ele>-3.0</ele><time>2026-04-18T16:34:14.515Z</time></trkpt><trkpt lat="45.5423677" lon="12.3939385"><ele>-3.0</ele><time>2026-04-18T16:34:16.519Z</time></trkpt><trkpt lat="45.5423457" lon="12.3940599"><ele>-3.0</ele><time>2026-04-18T16:34:18.522Z</time></trkpt><trkpt lat="45.5423223" lon="12.3941781"><ele>-3.0</ele><time>2026-04-18T16:34:20.513Z</time></trkpt><trkpt lat="45.5422966" lon="12.3942875"><ele>-3.0</ele><time>2026-04-18T16:34:22.518Z</time></trkpt><trkpt lat="45.5422747" lon="12.394406"><ele>-3.0</ele><time>2026-04-18T16:34:24.536Z</time></trkpt><trkpt lat="45.5422546" lon="12.3945203"><ele>-3.0</ele><time>2026-04-18T16:34:26.525Z</time></trkpt><trkpt lat="45.542235" lon="12.3946336"><ele>-3.0</ele><time>2026-04-18T16:34:28.52Z</time></trkpt><trkpt lat="45.5422171" lon="12.3947483"><ele>-3.0</ele><time>2026-04-18T16:34:30.519Z</time></trkpt><trkpt lat="45.5421899" lon="12.3948635"><ele>-3.0</ele><time>2026-04-18T16:34:32.515Z</time></trkpt><trkpt lat="45.5421417" lon="12.3949588"><ele>-3.0</ele><time>2026-04-18T16:34:34.525Z</time></trkpt><trkpt lat="45.5420814" lon="12.3950363"><ele>-3.0</ele><time>2026-04-18T16:34:36.526Z</time></trkpt><trkpt lat="45.542016" lon="12.395092"><ele>-3.0</ele><time>2026-04-18T16:34:38.525Z</time></trkpt><trkpt lat="45.5419438" lon="12.3951458"><ele>-3.0</ele><time>2026-04-18T16:34:40.521Z</time></trkpt><trkpt lat="45.5418637" lon="12.3951984"><ele>-3.0</ele><time>2026-04-18T16:34:42.537Z</time></trkpt><trkpt lat="45.5417926" lon="12.3952405"><ele>-3.0</ele><time>2026-04-18T16:34:44.524Z</time></trkpt><trkpt lat="45.5417217" lon="12.3952584"><ele>-3.0</ele><time>2026-04-18T16:34:46.531Z</time></trkpt><trkpt lat="45.5416488" lon="12.3952752"><ele>-3.0</ele><time>2026-04-18T16:34:48.53Z</time></trkpt><trkpt lat="45.5415587" lon="12.395292"><ele>-3.0</ele><time>2026-04-18T16:34:50.52Z</time></trkpt><trkpt lat="45.5414575" lon="12.3953168"><ele>-3.0</ele><time>2026-04-18T16:34:52.52Z</time></trkpt><trkpt lat="45.5413732" lon="12.3953601"><ele>-3.0</ele><time>2026-04-18T16:34:54.537Z</time></trkpt><trkpt lat="45.5412939" lon="12.395411"><ele>-3.0</ele><time>2026-04-18T16:34:56.52Z</time></trkpt><trkpt lat="45.541217" lon="12.3954684"><ele>-2.8333333333333335</ele><time>2026-04-18T16:34:58.518Z</time></trkpt><trkpt lat="45.5411437" lon="12.3955279"><ele>-2.6666666666666665</ele><time>2026-04-18T16:35:00.526Z</time></trkpt><trkpt lat="45.5410803" lon="12.3955814"><ele>-2.5</ele><time>2026-04-18T16:35:02.518Z</time></trkpt><trkpt lat="45.5410327" lon="12.3956683"><ele>-2.333333333333333</ele><time>2026-04-18T16:35:05.526Z</time></trkpt><trkpt lat="45.5410353" lon="12.3958051"><ele>-2.1666666666666665</ele><time>2026-04-18T16:35:08.525Z</time></trkpt><trkpt lat="45.5410751" lon="12.3959352"><ele>-2.0</ele><time>2026-04-18T16:35:11.525Z</time></trkpt><trkpt lat="45.5411196" lon="12.3960317"><ele>-1.9999999999999998</ele><time>2026-04-18T16:35:13.526Z</time></trkpt><trkpt lat="45.541165" lon="12.3961359"><ele>-2.0</ele><time>2026-04-18T16:35:15.517Z</time></trkpt><trkpt lat="45.5412116" lon="12.3962456"><ele>-2.0</ele><time>2026-04-18T16:35:17.516Z</time></trkpt><trkpt lat="45.5412532" lon="12.3963462"><ele>-2.0</ele><time>2026-04-18T16:35:19.518Z</time></trkpt><trkpt lat="45.5413049" lon="12.3964537"><ele>-1.9999999999999998</ele><time>2026-04-18T16:35:21.524Z</time></trkpt><trkpt lat="45.5413498" lon="12.3965567"><ele>-2.0</ele><time>2026-04-18T16:35:23.526Z</time></trkpt><trkpt lat="45.5413936" lon="12.3966591"><ele>-1.8333333333333333</ele><time>2026-04-18T16:35:25.528Z</time></trkpt><trkpt lat="45.541436" lon="12.396763"><ele>-1.6666666666666665</ele><time>2026-04-18T16:35:27.52Z</time></trkpt><trkpt lat="45.5414811" lon="12.396865"><ele>-1.5</ele><time>2026-04-18T16:35:29.53Z</time></trkpt><trkpt lat="45.5415273" lon="12.3969616"><ele>-1.3333333333333333</ele><time>2026-04-18T16:35:31.522Z</time></trkpt><trkpt lat="45.5415903" lon="12.3970104"><ele>-1.1666666666666665</ele><time>2026-04-18T16:35:33.521Z</time></trkpt><trkpt lat="45.5416943" lon="12.3970181"><ele>-1.0</ele><time>2026-04-18T16:35:35.539Z</time></trkpt><trkpt lat="45.5417912" lon="12.3970153"><ele>-1.0</ele><time>2026-04-18T16:35:37.523Z</time></trkpt><trkpt lat="45.5418835" lon="12.3970133"><ele>-1.0</ele><time>2026-04-18T16:35:39.525Z</time></trkpt><trkpt lat="45.5419814" lon="12.3970152"><ele>-1.0</ele><time>2026-04-18T16:35:41.519Z</time></trkpt><trkpt lat="45.5420794" lon="12.3970177"><ele>-1.0</ele><time>2026-04-18T16:35:43.52Z</time></trkpt><trkpt lat="45.5421693" lon="12.3970165"><ele>-1.0</ele><time>2026-04-18T16:35:45.523Z</time></trkpt><trkpt lat="45.5422629" lon="12.3970098"><ele>-0.9999999999999999</ele><time>2026-04-18T16:35:47.522Z</time></trkpt><trkpt lat="45.5423381" lon="12.3969919"><ele>-1.0</ele><time>2026-04-18T16:35:49.515Z</time></trkpt><trkpt lat="45.5424107" lon="12.3969729"><ele>-1.0</ele><time>2026-04-18T16:35:52.524Z</time></trkpt><trkpt lat="45.5424484" lon="12.3970457"><ele>-1.0</ele><time>2026-04-18T16:35:55.521Z</time></trkpt><trkpt lat="45.542452" lon="12.3971714"><ele>-0.9999999999999999</ele><time>2026-04-18T16:35:58.522Z</time></trkpt><trkpt lat="45.5424106" lon="12.3972398"><ele>-1.0</ele><time>2026-04-18T16:36:01.535Z</time></trkpt><trkpt lat="45.5423271" lon="12.3972693"><ele>-0.8</ele><time>2026-04-18T16:36:03.516Z</time></trkpt><trkpt lat="45.5422373" lon="12.3972839"><ele>-0.6000000000000001</ele><time>2026-04-18T16:36:05.516Z</time></trkpt><trkpt lat="45.5421535" lon="12.3973062"><ele>-0.4</ele><time>2026-04-18T16:36:07.542Z</time></trkpt><trkpt lat="45.5420612" lon="12.3973255"><ele>-0.2</ele><time>2026-04-18T16:36:09.538Z</time></trkpt><trkpt lat="45.5419661" lon="12.3973614"><ele>0.0</ele><time>2026-04-18T16:36:11.523Z</time></trkpt><trkpt lat="45.5418807" lon="12.3974168"><ele>0.0</ele><time>2026-04-18T16:36:13.51Z</time></trkpt><trkpt lat="45.5418099" lon="12.397476"><ele>0.0</ele><time>2026-04-18T16:36:15.525Z</time></trkpt><trkpt lat="45.5417451" lon="12.3975393"><ele>0.0</ele><time>2026-04-18T16:36:17.524Z</time></trkpt><trkpt lat="45.5416853" lon="12.3976012"><ele>0.0</ele><time>2026-04-18T16:36:19.521Z</time></trkpt><trkpt lat="45.5416214" lon="12.3976706"><ele>0.0</ele><time>2026-04-18T16:36:22.532Z</time></trkpt><trkpt lat="45.5415614" lon="12.3977407"><ele>0.0</ele><time>2026-04-18T16:36:25.52Z</time></trkpt><trkpt lat="45.5415139" lon="12.3978032"><ele>0.0</ele><time>2026-04-18T16:36:29.537Z</time></trkpt><trkpt lat="45.5415746" lon="12.3978587"><ele>0.0</ele><time>2026-04-18T16:36:34.514Z</time></trkpt><trkpt lat="45.5416665" lon="12.3978169"><ele>0.0</ele><time>2026-04-18T16:36:37.523Z</time></trkpt><trkpt lat="45.5417608" lon="12.3978151"><ele>0.0</ele><time>2026-04-18T16:36:39.518Z</time></trkpt><trkpt lat="45.5418546" lon="12.3978178"><ele>0.0</ele><time>2026-04-18T16:36:41.518Z</time></trkpt><trkpt lat="45.5419431" lon="12.3978152"><ele>0.0</ele><time>2026-04-18T16:36:43.518Z</time></trkpt><trkpt lat="45.5420277" lon="12.3978151"><ele>0.0</ele><time>2026-04-18T16:36:45.516Z</time></trkpt><trkpt lat="45.5421144" lon="12.3978215"><ele>0.0</ele><time>2026-04-18T16:36:47.511Z</time></trkpt><trkpt lat="45.5421971" lon="12.3978329"><ele>0.0</ele><time>2026-04-18T16:36:49.53Z</time></trkpt><trkpt lat="45.5422756" lon="12.3978623"><ele>0.0</ele><time>2026-04-18T16:36:51.529Z</time></trkpt><trkpt lat="45.5423493" lon="12.3978886"><ele>0.0</ele><time>2026-04-18T16:36:53.524Z</time></trkpt><trkpt lat="45.5424205" lon="12.3979268"><ele>0.0</ele><time>2026-04-18T16:36:55.522Z</time></trkpt><trkpt lat="45.5425065" lon="12.3979654"><ele>0.0</ele><time>2026-04-18T16:36:57.526Z</time></trkpt><trkpt lat="45.5425918" lon="12.3979983"><ele>0.0</ele><time>2026-04-18T16:36:59.518Z</time></trkpt><trkpt lat="45.5426732" lon="12.3980354"><ele>0.0</ele><time>2026-04-18T16:37:01.547Z</time></trkpt><trkpt lat="45.5427563" lon="12.3980748"><ele>0.0</ele><time>2026-04-18T16:37:03.533Z</time></trkpt><trkpt lat="45.5428338" lon="12.398121"><ele>0.0</ele><time>2026-04-18T16:37:05.53Z</time></trkpt><trkpt lat="45.54292" lon="12.3981707"><ele>0.0</ele><time>2026-04-18T16:37:07.517Z</time></trkpt><trkpt lat="45.5429863" lon="12.3982048"><ele>0.16666666666666666</ele><time>2026-04-18T16:37:09.533Z</time></trkpt><trkpt lat="45.5430727" lon="12.3982494"><ele>0.3333333333333333</ele><time>2026-04-18T16:37:11.525Z</time></trkpt><trkpt lat="45.5431557" lon="12.3982926"><ele>0.5</ele><time>2026-04-18T16:37:13.533Z</time></trkpt><trkpt lat="45.5432385" lon="12.3983323"><ele>0.6666666666666666</ele><time>2026-04-18T16:37:15.524Z</time></trkpt><trkpt lat="45.5433343" lon="12.3983779"><ele>0.8333333333333333</ele><time>2026-04-18T16:37:17.521Z</time></trkpt><trkpt lat="45.5433984" lon="12.3984149"><ele>1.0</ele><time>2026-04-18T16:37:19.523Z</time></trkpt><trkpt lat="45.5434856" lon="12.398455"><ele>0.9999999999999999</ele><time>2026-04-18T16:37:21.529Z</time></trkpt><trkpt lat="45.543569" lon="12.3984912"><ele>1.0</ele><time>2026-04-18T16:37:23.533Z</time></trkpt><trkpt lat="45.5436518" lon="12.3985413"><ele>1.0</ele><time>2026-04-18T16:37:25.525Z</time></trkpt><trkpt lat="45.5437223" lon="12.3985758"><ele>1.0</ele><time>2026-04-18T16:37:27.523Z</time></trkpt><trkpt lat="45.5437925" lon="12.3986108"><ele>0.9999999999999999</ele><time>2026-04-18T16:37:29.527Z</time></trkpt><trkpt lat="45.5438811" lon="12.3986556"><ele>1.0</ele><time>2026-04-18T16:37:32.526Z</time></trkpt><trkpt lat="45.5439646" lon="12.3986984"><ele>1.1666666666666665</ele><time>2026-04-18T16:37:35.523Z</time></trkpt><trkpt lat="45.5440522" lon="12.3987354"><ele>1.3333333333333333</ele><time>2026-04-18T16:37:37.528Z</time></trkpt><trkpt lat="45.5441358" lon="12.3987739"><ele>1.5</ele><time>2026-04-18T16:37:39.514Z</time></trkpt><trkpt lat="45.5442093" lon="12.3988088"><ele>1.6666666666666665</ele><time>2026-04-18T16:37:41.529Z</time></trkpt><trkpt lat="45.5443035" lon="12.3988626"><ele>1.8333333333333333</ele><time>2026-04-18T16:37:43.53Z</time></trkpt><trkpt lat="45.5443719" lon="12.3989031"><ele>2.0</ele><time>2026-04-18T16:37:45.523Z</time></trkpt><trkpt lat="45.544435" lon="12.3989369"><ele>1.8</ele><time>2026-04-18T16:37:47.522Z</time></trkpt><trkpt lat="45.5445167" lon="12.3989833"><ele>1.6</ele><time>2026-04-18T16:37:49.525Z</time></trkpt><trkpt lat="45.5446193" lon="12.3990356"><ele>1.4000000000000001</ele><time>2026-04-18T16:37:51.519Z</time></trkpt><trkpt lat="45.5446955" lon="12.3990717"><ele>1.2000000000000002</ele><time>2026-04-18T16:37:53.525Z</time></trkpt><trkpt lat="45.5448003" lon="12.3991218"><ele>1.0</ele><time>2026-04-18T16:37:55.525Z</time></trkpt><trkpt lat="45.5448955" lon="12.3991672"><ele>1.0</ele><time>2026-04-18T16:37:57.528Z</time></trkpt><trkpt lat="45.5449915" lon="12.3992072"><ele>1.0</ele><time>2026-04-18T16:37:59.517Z</time></trkpt><trkpt lat="45.5450727" lon="12.3992532"><ele>1.0</ele><time>2026-04-18T16:38:01.517Z</time></trkpt><trkpt lat="45.5451632" lon="12.3992961"><ele>1.0</ele><time>2026-04-18T16:38:03.532Z</time></trkpt><trkpt lat="45.5452532" lon="12.3993389"><ele>1.0</ele><time>2026-04-18T16:38:05.529Z</time></trkpt><trkpt lat="45.5453452" lon="12.3993763"><ele>1.1666666666666665</ele><time>2026-04-18T16:38:07.52Z</time></trkpt><trkpt lat="45.5454299" lon="12.3994177"><ele>1.3333333333333333</ele><time>2026-04-18T16:38:09.522Z</time></trkpt><trkpt lat="45.5455169" lon="12.3994631"><ele>1.5</ele><time>2026-04-18T16:38:11.514Z</time></trkpt><trkpt lat="45.5456008" lon="12.3995043"><ele>1.6666666666666665</ele><time>2026-04-18T16:38:13.522Z</time></trkpt><trkpt lat="45.545676" lon="12.3995396"><ele>1.8333333333333333</ele><time>2026-04-18T16:38:15.522Z</time></trkpt><trkpt lat="45.5457511" lon="12.3995685"><ele>2.0</ele><time>2026-04-18T16:38:17.533Z</time></trkpt><trkpt lat="45.545831" lon="12.3996118"><ele>1.9999999999999998</ele><time>2026-04-18T16:38:19.524Z</time></trkpt><trkpt lat="45.5459097" lon="12.3996579"><ele>2.0</ele><time>2026-04-18T16:38:21.519Z</time></trkpt><trkpt lat="45.5459949" lon="12.3996999"><ele>2.0</ele><time>2026-04-18T16:38:23.526Z</time></trkpt><trkpt lat="45.5460737" lon="12.3997318"><ele>2.0</ele><time>2026-04-18T16:38:25.528Z</time></trkpt><trkpt lat="45.5461599" lon="12.399768"><ele>1.9999999999999998</ele><time>2026-04-18T16:38:27.521Z</time></trkpt><trkpt lat="45.5462339" lon="12.3998064"><ele>2.0</ele><time>2026-04-18T16:38:29.536Z</time></trkpt><trkpt lat="45.5463168" lon="12.3998489"><ele>1.9999999999999998</ele><time>2026-04-18T16:38:31.514Z</time></trkpt><trkpt lat="45.5463967" lon="12.3998936"><ele>2.0</ele><time>2026-04-18T16:38:33.521Z</time></trkpt><trkpt lat="45.5464793" lon="12.3999418"><ele>2.0</ele><time>2026-04-18T16:38:35.536Z</time></trkpt><trkpt lat="45.5465598" lon="12.3999887"><ele>2.0</ele><time>2026-04-18T16:38:37.528Z</time></trkpt><trkpt lat="45.5466416" lon="12.4000294"><ele>1.9999999999999998</ele><time>2026-04-18T16:38:39.523Z</time></trkpt><trkpt lat="45.5467277" lon="12.4000733"><ele>2.0</ele><time>2026-04-18T16:38:41.527Z</time></trkpt><trkpt lat="45.5468215" lon="12.4001176"><ele>1.9999999999999998</ele><time>2026-04-18T16:38:43.518Z</time></trkpt><trkpt lat="45.5469002" lon="12.4001552"><ele>2.0</ele><time>2026-04-18T16:38:45.512Z</time></trkpt><trkpt lat="45.5469867" lon="12.4001963"><ele>2.0</ele><time>2026-04-18T16:38:47.508Z</time></trkpt><trkpt lat="45.5470799" lon="12.4002464"><ele>2.0</ele><time>2026-04-18T16:38:49.522Z</time></trkpt><trkpt lat="45.5471614" lon="12.4002865"><ele>1.9999999999999998</ele><time>2026-04-18T16:38:51.536Z</time></trkpt><trkpt lat="45.5472377" lon="12.400328"><ele>2.0</ele><time>2026-04-18T16:38:53.514Z</time></trkpt><trkpt lat="45.5473209" lon="12.400375"><ele>1.857142857142857</ele><time>2026-04-18T16:38:55.517Z</time></trkpt><trkpt lat="45.5473708" lon="12.4004334"><ele>1.714285714285714</ele><time>2026-04-18T16:38:57.513Z</time></trkpt><trkpt lat="45.5474275" lon="12.4005064"><ele>1.5714285714285714</ele><time>2026-04-18T16:38:59.52Z</time></trkpt><trkpt lat="45.5474906" lon="12.4005435"><ele>1.4285714285714284</ele><time>2026-04-18T16:39:02.519Z</time></trkpt><trkpt lat="45.5475213" lon="12.4006399"><ele>1.2857142857142856</ele><time>2026-04-18T16:39:06.521Z</time></trkpt><trkpt lat="45.5474854" lon="12.4007426"><ele>1.1428571428571428</ele><time>2026-04-18T16:39:08.526Z</time></trkpt><trkpt lat="45.5474402" lon="12.4008389"><ele>1.0</ele><time>2026-04-18T16:39:10.536Z</time></trkpt><trkpt lat="45.5473933" lon="12.4009422"><ele>0.8333333333333333</ele><time>2026-04-18T16:39:12.526Z</time></trkpt><trkpt lat="45.5473397" lon="12.4010459"><ele>0.6666666666666666</ele><time>2026-04-18T16:39:14.53Z</time></trkpt><trkpt lat="45.5472678" lon="12.4011212"><ele>0.5</ele><time>2026-04-18T16:39:16.527Z</time></trkpt><trkpt lat="45.5471982" lon="12.4010881"><ele>0.3333333333333333</ele><time>2026-04-18T16:39:18.517Z</time></trkpt><trkpt lat="45.5471299" lon="12.401067"><ele>0.16666666666666666</ele><time>2026-04-18T16:39:20.517Z</time></trkpt><trkpt lat="45.5471533" lon="12.4011699"><ele>0.0</ele><time>2026-04-18T16:39:24.529Z</time></trkpt><trkpt lat="45.5472222" lon="12.4012436"><ele>0.0</ele><time>2026-04-18T16:39:27.518Z</time></trkpt><trkpt lat="45.5472901" lon="12.4013076"><ele>0.0</ele><time>2026-04-18T16:39:30.518Z</time></trkpt><trkpt lat="45.5473439" lon="12.4013573"><ele>0.0</ele><time>2026-04-18T16:39:32.521Z</time></trkpt><trkpt lat="45.5474225" lon="12.4014313"><ele>0.0</ele><time>2026-04-18T16:39:35.529Z</time></trkpt><trkpt lat="45.5475002" lon="12.4015143"><ele>0.0</ele><time>2026-04-18T16:39:38.526Z</time></trkpt><trkpt lat="45.547561" lon="12.4015746"><ele>0.0</ele><time>2026-04-18T16:39:40.522Z</time></trkpt><trkpt lat="45.5476234" lon="12.401629"><ele>-0.2</ele><time>2026-04-18T16:39:42.521Z</time></trkpt><trkpt lat="45.5477203" lon="12.4016031"><ele>-0.4</ele><time>2026-04-18T16:39:45.522Z</time></trkpt><trkpt lat="45.5477982" lon="12.4015481"><ele>-0.6000000000000001</ele><time>2026-04-18T16:39:47.522Z</time></trkpt><trkpt lat="45.5478966" lon="12.4015218"><ele>-0.8</ele><time>2026-04-18T16:39:49.526Z</time></trkpt><trkpt lat="45.548007" lon="12.4015337"><ele>-1.0</ele><time>2026-04-18T16:39:51.523Z</time></trkpt><trkpt lat="45.548117" lon="12.4015578"><ele>-1.2000000000000002</ele><time>2026-04-18T16:39:53.53Z</time></trkpt><trkpt lat="45.548223" lon="12.4015861"><ele>-1.4000000000000001</ele><time>2026-04-18T16:39:55.523Z</time></trkpt><trkpt lat="45.5483123" lon="12.4016124"><ele>-1.6</ele><time>2026-04-18T16:39:57.523Z</time></trkpt><trkpt lat="45.5483927" lon="12.4016292"><ele>-1.8</ele><time>2026-04-18T16:39:59.534Z</time></trkpt><trkpt lat="45.5484769" lon="12.4016507"><ele>-2.0</ele><time>2026-04-18T16:40:01.542Z</time></trkpt><trkpt lat="45.5485656" lon="12.4016731"><ele>-2.0</ele><time>2026-04-18T16:40:03.524Z</time></trkpt><trkpt lat="45.5486525" lon="12.4017028"><ele>-2.0</ele><time>2026-04-18T16:40:05.527Z</time></trkpt><trkpt lat="45.5487399" lon="12.4017374"><ele>-2.0</ele><time>2026-04-18T16:40:07.522Z</time></trkpt><trkpt lat="45.548825" lon="12.4017813"><ele>-2.0</ele><time>2026-04-18T16:40:09.529Z</time></trkpt><trkpt lat="45.5489111" lon="12.4018238"><ele>-2.0</ele><time>2026-04-18T16:40:11.528Z</time></trkpt><trkpt lat="45.5489985" lon="12.401869"><ele>-1.8</ele><time>2026-04-18T16:40:13.531Z</time></trkpt><trkpt lat="45.5490861" lon="12.4019223"><ele>-1.6</ele><time>2026-04-18T16:40:15.521Z</time></trkpt><trkpt lat="45.5491752" lon="12.4019728"><ele>-1.4000000000000001</ele><time>2026-04-18T16:40:17.522Z</time></trkpt><trkpt lat="45.5492689" lon="12.4020211"><ele>-1.2000000000000002</ele><time>2026-04-18T16:40:19.514Z</time></trkpt><trkpt lat="45.5493432" lon="12.4020683"><ele>-1.0</ele><time>2026-04-18T16:40:21.534Z</time></trkpt><trkpt lat="45.5494278" lon="12.4021196"><ele>-1.0</ele><time>2026-04-18T16:40:23.531Z</time></trkpt><trkpt lat="45.5495141" lon="12.4021723"><ele>-1.0</ele><time>2026-04-18T16:40:25.551Z</time></trkpt><trkpt lat="45.549593" lon="12.4022246"><ele>-1.0</ele><time>2026-04-18T16:40:27.543Z</time></trkpt><trkpt lat="45.5496891" lon="12.4022881"><ele>-1.0</ele><time>2026-04-18T16:40:29.532Z</time></trkpt><trkpt lat="45.5497695" lon="12.4023505"><ele>-1.0</ele><time>2026-04-18T16:40:31.519Z</time></trkpt><trkpt lat="45.5498588" lon="12.4024094"><ele>-1.0</ele><time>2026-04-18T16:40:33.532Z</time></trkpt><trkpt lat="45.5499441" lon="12.4024649"><ele>-1.0</ele><time>2026-04-18T16:40:35.53Z</time></trkpt><trkpt lat="45.5500319" lon="12.4025221"><ele>-1.0</ele><time>2026-04-18T16:40:37.534Z</time></trkpt><trkpt lat="45.5501181" lon="12.4025846"><ele>-1.0</ele><time>2026-04-18T16:40:39.527Z</time></trkpt><trkpt lat="45.5501901" lon="12.4026396"><ele>-1.0</ele><time>2026-04-18T16:40:41.522Z</time></trkpt><trkpt lat="45.5502726" lon="12.4026905"><ele>-1.0</ele><time>2026-04-18T16:40:43.521Z</time></trkpt><trkpt lat="45.5503674" lon="12.4027411"><ele>-1.0</ele><time>2026-04-18T16:40:45.515Z</time></trkpt><trkpt lat="45.5504575" lon="12.402787"><ele>-1.0</ele><time>2026-04-18T16:40:47.513Z</time></trkpt><trkpt lat="45.5505453" lon="12.4028297"><ele>-1.0</ele><time>2026-04-18T16:40:49.52Z</time></trkpt><trkpt lat="45.5506307" lon="12.4028701"><ele>-1.0</ele><time>2026-04-18T16:40:51.546Z</time></trkpt><trkpt lat="45.5507197" lon="12.4029073"><ele>-1.0</ele><time>2026-04-18T16:40:53.521Z</time></trkpt><trkpt lat="45.5508098" lon="12.4029501"><ele>-1.0</ele><time>2026-04-18T16:40:55.529Z</time></trkpt><trkpt lat="45.5508988" lon="12.4029927"><ele>-1.0</ele><time>2026-04-18T16:40:57.526Z</time></trkpt><trkpt lat="45.5509856" lon="12.4030427"><ele>-1.0</ele><time>2026-04-18T16:40:59.525Z</time></trkpt><trkpt lat="45.5510728" lon="12.4030944"><ele>-1.0</ele><time>2026-04-18T16:41:01.525Z</time></trkpt><trkpt lat="45.5511613" lon="12.4031472"><ele>-1.0</ele><time>2026-04-18T16:41:03.523Z</time></trkpt><trkpt lat="45.5512474" lon="12.4031913"><ele>-1.0</ele><time>2026-04-18T16:41:05.544Z</time></trkpt><trkpt lat="45.5513309" lon="12.4032489"><ele>-1.0</ele><time>2026-04-18T16:41:07.526Z</time></trkpt><trkpt lat="45.5514215" lon="12.4032946"><ele>-1.0</ele><time>2026-04-18T16:41:09.524Z</time></trkpt><trkpt lat="45.5515101" lon="12.403342"><ele>-1.0</ele><time>2026-04-18T16:41:11.518Z</time></trkpt><trkpt lat="45.5515902" lon="12.4033929"><ele>-1.0</ele><time>2026-04-18T16:41:13.521Z</time></trkpt><trkpt lat="45.5516836" lon="12.4034403"><ele>-1.0</ele><time>2026-04-18T16:41:15.519Z</time></trkpt><trkpt lat="45.5517691" lon="12.4034881"><ele>-1.0</ele><time>2026-04-18T16:41:17.528Z</time></trkpt><trkpt lat="45.5518575" lon="12.4035348"><ele>-1.0</ele><time>2026-04-18T16:41:19.521Z</time></trkpt><trkpt lat="45.5519475" lon="12.4035794"><ele>-1.0</ele><time>2026-04-18T16:41:21.53Z</time></trkpt><trkpt lat="45.5520389" lon="12.4036244"><ele>-1.0</ele><time>2026-04-18T16:41:23.536Z</time></trkpt><trkpt lat="45.5521212" lon="12.403669"><ele>-1.0</ele><time>2026-04-18T16:41:25.533Z</time></trkpt><trkpt lat="45.5522183" lon="12.4037116"><ele>-1.0</ele><time>2026-04-18T16:41:27.533Z</time></trkpt><trkpt lat="45.5522986" lon="12.4037553"><ele>-1.0</ele><time>2026-04-18T16:41:29.523Z</time></trkpt><trkpt lat="45.5523986" lon="12.4038117"><ele>-1.0</ele><time>2026-04-18T16:41:31.528Z</time></trkpt><trkpt lat="45.5524913" lon="12.4038668"><ele>-1.0</ele><time>2026-04-18T16:41:33.516Z</time></trkpt><trkpt lat="45.5525793" lon="12.4039176"><ele>-1.0</ele><time>2026-04-18T16:41:35.516Z</time></trkpt><trkpt lat="45.5526697" lon="12.4039678"><ele>-1.0</ele><time>2026-04-18T16:41:37.527Z</time></trkpt><trkpt lat="45.5527635" lon="12.4040168"><ele>-1.0</ele><time>2026-04-18T16:41:39.527Z</time></trkpt><trkpt lat="45.5528556" lon="12.40407"><ele>-1.0</ele><time>2026-04-18T16:41:41.527Z</time></trkpt><trkpt lat="45.5529464" lon="12.4041264"><ele>-1.0</ele><time>2026-04-18T16:41:43.534Z</time></trkpt><trkpt lat="45.5530364" lon="12.4041845"><ele>-1.0</ele><time>2026-04-18T16:41:45.526Z</time></trkpt><trkpt lat="45.5531148" lon="12.404241"><ele>-1.0</ele><time>2026-04-18T16:41:47.523Z</time></trkpt><trkpt lat="45.5532084" lon="12.4043008"><ele>-1.0</ele><time>2026-04-18T16:41:49.531Z</time></trkpt><trkpt lat="45.5532903" lon="12.4043574"><ele>-1.0</ele><time>2026-04-18T16:41:51.529Z</time></trkpt><trkpt lat="45.553377" lon="12.4044133"><ele>-1.0</ele><time>2026-04-18T16:41:53.515Z</time></trkpt><trkpt lat="45.5534777" lon="12.4044656"><ele>-1.0</ele><time>2026-04-18T16:41:55.526Z</time></trkpt><trkpt lat="45.5535682" lon="12.4045052"><ele>-1.0</ele><time>2026-04-18T16:41:57.531Z</time></trkpt><trkpt lat="45.5536595" lon="12.4045532"><ele>-1.0</ele><time>2026-04-18T16:41:59.528Z</time></trkpt><trkpt lat="45.5537551" lon="12.4046"><ele>-1.0</ele><time>2026-04-18T16:42:01.539Z</time></trkpt><trkpt lat="45.5538431" lon="12.4046511"><ele>-1.2000000000000002</ele><time>2026-04-18T16:42:03.508Z</time></trkpt><trkpt lat="45.5539314" lon="12.4047023"><ele>-1.4000000000000001</ele><time>2026-04-18T16:42:05.527Z</time></trkpt><trkpt lat="45.5540166" lon="12.4047564"><ele>-1.6</ele><time>2026-04-18T16:42:07.532Z</time></trkpt><trkpt lat="45.5541042" lon="12.4048103"><ele>-1.8</ele><time>2026-04-18T16:42:09.526Z</time></trkpt><trkpt lat="45.5541966" lon="12.4048666"><ele>-2.0</ele><time>2026-04-18T16:42:11.552Z</time></trkpt><trkpt lat="45.5542835" lon="12.4049263"><ele>-2.0</ele><time>2026-04-18T16:42:13.531Z</time></trkpt><trkpt lat="45.5543738" lon="12.4049855"><ele>-2.0</ele><time>2026-04-18T16:42:15.522Z</time></trkpt><trkpt lat="45.5544591" lon="12.4050407"><ele>-2.0</ele><time>2026-04-18T16:42:17.534Z</time></trkpt><trkpt lat="45.5545487" lon="12.4051064"><ele>-2.0</ele><time>2026-04-18T16:42:19.527Z</time></trkpt><trkpt lat="45.5546397" lon="12.405174"><ele>-2.0</ele><time>2026-04-18T16:42:21.525Z</time></trkpt><trkpt lat="45.5547338" lon="12.4052486"><ele>-1.8</ele><time>2026-04-18T16:42:23.549Z</time></trkpt><trkpt lat="45.5548304" lon="12.4053229"><ele>-1.6</ele><time>2026-04-18T16:42:25.523Z</time></trkpt><trkpt lat="45.554932" lon="12.4053937"><ele>-1.4000000000000001</ele><time>2026-04-18T16:42:27.528Z</time></trkpt><trkpt lat="45.5550325" lon="12.4054532"><ele>-1.2000000000000002</ele><time>2026-04-18T16:42:29.528Z</time></trkpt><trkpt lat="45.555131" lon="12.4055087"><ele>-1.0</ele><time>2026-04-18T16:42:31.524Z</time></trkpt><trkpt lat="45.5552347" lon="12.4055706"><ele>-0.8</ele><time>2026-04-18T16:42:33.543Z</time></trkpt><trkpt lat="45.5553371" lon="12.405629"><ele>-0.6000000000000001</ele><time>2026-04-18T16:42:35.535Z</time></trkpt><trkpt lat="45.5554455" lon="12.4056814"><ele>-0.4</ele><time>2026-04-18T16:42:37.532Z</time></trkpt><trkpt lat="45.5555531" lon="12.405722"><ele>-0.2</ele><time>2026-04-18T16:42:39.523Z</time></trkpt><trkpt lat="45.5556596" lon="12.4057613"><ele>0.0</ele><time>2026-04-18T16:42:41.52Z</time></trkpt><trkpt lat="45.5557595" lon="12.4057847"><ele>0.0</ele><time>2026-04-18T16:42:43.522Z</time></trkpt><trkpt lat="45.5558569" lon="12.4058098"><ele>0.0</ele><time>2026-04-18T16:42:45.529Z</time></trkpt><trkpt lat="45.5559636" lon="12.4058385"><ele>0.0</ele><time>2026-04-18T16:42:47.521Z</time></trkpt><trkpt lat="45.5560808" lon="12.4058737"><ele>0.0</ele><time>2026-04-18T16:42:49.534Z</time></trkpt><trkpt lat="45.5561902" lon="12.4059149"><ele>0.0</ele><time>2026-04-18T16:42:51.53Z</time></trkpt><trkpt lat="45.5562868" lon="12.4059615"><ele>-0.2</ele><time>2026-04-18T16:42:53.539Z</time></trkpt><trkpt lat="45.5563793" lon="12.4060091"><ele>-0.4</ele><time>2026-04-18T16:42:55.528Z</time></trkpt><trkpt lat="45.5564636" lon="12.4060703"><ele>-0.6000000000000001</ele><time>2026-04-18T16:42:57.524Z</time></trkpt><trkpt lat="45.5565574" lon="12.4061392"><ele>-0.8</ele><time>2026-04-18T16:42:59.533Z</time></trkpt><trkpt lat="45.5566495" lon="12.4062095"><ele>-1.0</ele><time>2026-04-18T16:43:01.515Z</time></trkpt><trkpt lat="45.5567395" lon="12.4062874"><ele>-1.2000000000000002</ele><time>2026-04-18T16:43:03.527Z</time></trkpt><trkpt lat="45.5568285" lon="12.4063618"><ele>-1.4000000000000001</ele><time>2026-04-18T16:43:05.535Z</time></trkpt><trkpt lat="45.5569225" lon="12.4064382"><ele>-1.6</ele><time>2026-04-18T16:43:07.517Z</time></trkpt><trkpt lat="45.5570124" lon="12.4065087"><ele>-1.8</ele><time>2026-04-18T16:43:09.525Z</time></trkpt><trkpt lat="45.5571028" lon="12.4065707"><ele>-2.0</ele><time>2026-04-18T16:43:11.523Z</time></trkpt><trkpt lat="45.5572035" lon="12.4066287"><ele>-2.0</ele><time>2026-04-18T16:43:13.517Z</time></trkpt><trkpt lat="45.5573043" lon="12.4066838"><ele>-2.0</ele><time>2026-04-18T16:43:15.523Z</time></trkpt><trkpt lat="45.5574091" lon="12.4067453"><ele>-2.0</ele><time>2026-04-18T16:43:17.529Z</time></trkpt><trkpt lat="45.5575029" lon="12.4068027"><ele>-2.0</ele><time>2026-04-18T16:43:19.53Z</time></trkpt><trkpt lat="45.5576005" lon="12.4068632"><ele>-2.0</ele><time>2026-04-18T16:43:21.528Z</time></trkpt><trkpt lat="45.5576853" lon="12.4069155"><ele>-2.0</ele><time>2026-04-18T16:43:23.521Z</time></trkpt><trkpt lat="45.5577953" lon="12.4069583"><ele>-2.0</ele><time>2026-04-18T16:43:25.549Z</time></trkpt><trkpt lat="45.5578995" lon="12.406996"><ele>-2.0</ele><time>2026-04-18T16:43:27.531Z</time></trkpt><trkpt lat="45.5579942" lon="12.4070351"><ele>-2.0</ele><time>2026-04-18T16:43:29.523Z</time></trkpt><trkpt lat="45.5580972" lon="12.4070758"><ele>-2.0</ele><time>2026-04-18T16:43:31.528Z</time></trkpt><trkpt lat="45.5581982" lon="12.4071117"><ele>-2.0</ele><time>2026-04-18T16:43:33.524Z</time></trkpt><trkpt lat="45.5582989" lon="12.4071566"><ele>-2.0</ele><time>2026-04-18T16:43:35.529Z</time></trkpt><trkpt lat="45.5583966" lon="12.4072026"><ele>-2.0</ele><time>2026-04-18T16:43:37.534Z</time></trkpt><trkpt lat="45.5584966" lon="12.4072522"><ele>-2.0</ele><time>2026-04-18T16:43:39.528Z</time></trkpt><trkpt lat="45.5585942" lon="12.407308"><ele>-2.0</ele><time>2026-04-18T16:43:41.523Z</time></trkpt><trkpt lat="45.5586932" lon="12.4073711"><ele>-1.8</ele><time>2026-04-18T16:43:43.524Z</time></trkpt><trkpt lat="45.558787" lon="12.4074302"><ele>-1.6</ele><time>2026-04-18T16:43:45.526Z</time></trkpt><trkpt lat="45.5588803" lon="12.4074896"><ele>-1.4000000000000001</ele><time>2026-04-18T16:43:47.517Z</time></trkpt><trkpt lat="45.5589684" lon="12.407544"><ele>-1.2000000000000002</ele><time>2026-04-18T16:43:49.516Z</time></trkpt><trkpt lat="45.5590433" lon="12.4075914"><ele>-1.0</ele><time>2026-04-18T16:43:51.529Z</time></trkpt><trkpt lat="45.559128" lon="12.407643"><ele>-1.0</ele><time>2026-04-18T16:43:53.529Z</time></trkpt><trkpt lat="45.5591996" lon="12.4076868"><ele>-1.0</ele><time>2026-04-18T16:43:55.519Z</time></trkpt><trkpt lat="45.5592894" lon="12.407734"><ele>-1.0</ele><time>2026-04-18T16:43:57.53Z</time></trkpt><trkpt lat="45.5593844" lon="12.4077793"><ele>-1.0</ele><time>2026-04-18T16:43:59.521Z</time></trkpt><trkpt lat="45.5594711" lon="12.4078219"><ele>-1.0</ele><time>2026-04-18T16:44:01.529Z</time></trkpt><trkpt lat="45.5595624" lon="12.4078671"><ele>-1.0</ele><time>2026-04-18T16:44:03.541Z</time></trkpt><trkpt lat="45.559656" lon="12.4079085"><ele>-1.0</ele><time>2026-04-18T16:44:05.516Z</time></trkpt><trkpt lat="45.5597522" lon="12.4079548"><ele>-1.0</ele><time>2026-04-18T16:44:07.518Z</time></trkpt><trkpt lat="45.559844" lon="12.4080073"><ele>-1.0</ele><time>2026-04-18T16:44:09.527Z</time></trkpt><trkpt lat="45.5599413" lon="12.4080655"><ele>-1.0</ele><time>2026-04-18T16:44:11.527Z</time></trkpt><trkpt lat="45.560029" lon="12.4081242"><ele>-0.8</ele><time>2026-04-18T16:44:13.524Z</time></trkpt><trkpt lat="45.5601129" lon="12.4081831"><ele>-0.6000000000000001</ele><time>2026-04-18T16:44:15.515Z</time></trkpt><trkpt lat="45.5601905" lon="12.4082441"><ele>-0.4</ele><time>2026-04-18T16:44:17.525Z</time></trkpt><trkpt lat="45.5602738" lon="12.4083064"><ele>-0.2</ele><time>2026-04-18T16:44:19.536Z</time></trkpt><trkpt lat="45.5603633" lon="12.4083685"><ele>0.0</ele><time>2026-04-18T16:44:21.531Z</time></trkpt><trkpt lat="45.5604554" lon="12.4084329"><ele>-0.4</ele><time>2026-04-18T16:44:23.522Z</time></trkpt><trkpt lat="45.5605483" lon="12.4085012"><ele>-0.8</ele><time>2026-04-18T16:44:25.523Z</time></trkpt><trkpt lat="45.560641" lon="12.4085696"><ele>-1.2000000000000002</ele><time>2026-04-18T16:44:27.52Z</time></trkpt><trkpt lat="45.5607395" lon="12.4086335"><ele>-1.6</ele><time>2026-04-18T16:44:29.509Z</time></trkpt><trkpt lat="45.5608333" lon="12.4086922"><ele>-2.0</ele><time>2026-04-18T16:44:31.512Z</time></trkpt><trkpt lat="45.5609247" lon="12.4087484"><ele>-2.0</ele><time>2026-04-18T16:44:33.504Z</time></trkpt><trkpt lat="45.5610199" lon="12.4087915"><ele>-2.0</ele><time>2026-04-18T16:44:35.527Z</time></trkpt><trkpt lat="45.5611118" lon="12.408835"><ele>-2.0</ele><time>2026-04-18T16:44:37.522Z</time></trkpt><trkpt lat="45.5611995" lon="12.4088849"><ele>-2.0</ele><time>2026-04-18T16:44:39.527Z</time></trkpt><trkpt lat="45.5612968" lon="12.4089409"><ele>-2.0</ele><time>2026-04-18T16:44:41.521Z</time></trkpt><trkpt lat="45.5613906" lon="12.4090054"><ele>-1.6</ele><time>2026-04-18T16:44:43.537Z</time></trkpt><trkpt lat="45.5614675" lon="12.4090768"><ele>-1.2000000000000002</ele><time>2026-04-18T16:44:45.526Z</time></trkpt><trkpt lat="45.5615349" lon="12.4091618"><ele>-0.8</ele><time>2026-04-18T16:44:47.52Z</time></trkpt><trkpt lat="45.5615976" lon="12.409259"><ele>-0.4</ele><time>2026-04-18T16:44:49.524Z</time></trkpt><trkpt lat="45.5616549" lon="12.4093665"><ele>0.0</ele><time>2026-04-18T16:44:51.527Z</time></trkpt><trkpt lat="45.5617225" lon="12.409483"><ele>0.0</ele><time>2026-04-18T16:44:53.521Z</time></trkpt><trkpt lat="45.5617851" lon="12.4096019"><ele>0.0</ele><time>2026-04-18T16:44:55.529Z</time></trkpt><trkpt lat="45.5618438" lon="12.4097095"><ele>0.0</ele><time>2026-04-18T16:44:57.521Z</time></trkpt><trkpt lat="45.5619081" lon="12.4098122"><ele>0.0</ele><time>2026-04-18T16:44:59.528Z</time></trkpt><trkpt lat="45.5619733" lon="12.4099085"><ele>0.0</ele><time>2026-04-18T16:45:01.52Z</time></trkpt><trkpt lat="45.5620434" lon="12.4099855"><ele>0.16666666666666666</ele><time>2026-04-18T16:45:03.529Z</time></trkpt><trkpt lat="45.5621133" lon="12.4100444"><ele>0.3333333333333333</ele><time>2026-04-18T16:45:05.535Z</time></trkpt><trkpt lat="45.562178" lon="12.4100926"><ele>0.5</ele><time>2026-04-18T16:45:07.525Z</time></trkpt><trkpt lat="45.562242" lon="12.4101219"><ele>0.6666666666666666</ele><time>2026-04-18T16:45:09.526Z</time></trkpt><trkpt lat="45.5623382" lon="12.4101485"><ele>0.8333333333333333</ele><time>2026-04-18T16:45:11.529Z</time></trkpt><trkpt lat="45.562457" lon="12.4101922"><ele>1.0</ele><time>2026-04-18T16:45:13.519Z</time></trkpt><trkpt lat="45.5625578" lon="12.4102267"><ele>0.9999999999999999</ele><time>2026-04-18T16:45:15.519Z</time></trkpt><trkpt lat="45.5626559" lon="12.4102386"><ele>1.0</ele><time>2026-04-18T16:45:17.518Z</time></trkpt><trkpt lat="45.5627563" lon="12.4102374"><ele>1.0</ele><time>2026-04-18T16:45:19.529Z</time></trkpt><trkpt lat="45.5628382" lon="12.4102393"><ele>1.0</ele><time>2026-04-18T16:45:21.542Z</time></trkpt><trkpt lat="45.5629188" lon="12.4102732"><ele>0.9999999999999999</ele><time>2026-04-18T16:45:23.527Z</time></trkpt><trkpt lat="45.56298" lon="12.4103434"><ele>1.0</ele><time>2026-04-18T16:45:25.525Z</time></trkpt><trkpt lat="45.5630099" lon="12.4104244"><ele>1.1666666666666665</ele><time>2026-04-18T16:45:27.522Z</time></trkpt><trkpt lat="45.5630653" lon="12.4105037"><ele>1.3333333333333333</ele><time>2026-04-18T16:45:29.508Z</time></trkpt><trkpt lat="45.5631184" lon="12.4105748"><ele>1.5</ele><time>2026-04-18T16:45:31.516Z</time></trkpt><trkpt lat="45.5631894" lon="12.4106773"><ele>1.6666666666666665</ele><time>2026-04-18T16:45:34.514Z</time></trkpt><trkpt lat="45.5632555" lon="12.4107641"><ele>1.8333333333333333</ele><time>2026-04-18T16:45:36.527Z</time></trkpt><trkpt lat="45.5633178" lon="12.410845"><ele>2.0</ele><time>2026-04-18T16:45:38.525Z</time></trkpt><trkpt lat="45.5633653" lon="12.410911"><ele>2.0</ele><time>2026-04-18T16:45:40.534Z</time></trkpt><trkpt lat="45.5634183" lon="12.4109668"><ele>1.9999999999999998</ele><time>2026-04-18T16:45:42.526Z</time></trkpt><trkpt lat="45.5634721" lon="12.4110312"><ele>2.0</ele><time>2026-04-18T16:45:44.519Z</time></trkpt><trkpt lat="45.5635344" lon="12.411118"><ele>2.0</ele><time>2026-04-18T16:45:47.533Z</time></trkpt><trkpt lat="45.5636044" lon="12.4111894"><ele>1.9999999999999998</ele><time>2026-04-18T16:45:51.521Z</time></trkpt><trkpt lat="45.563662" lon="12.4112339"><ele>2.0</ele><time>2026-04-18T16:45:54.52Z</time></trkpt><trkpt lat="45.5637237" lon="12.4112907"><ele>2.0</ele><time>2026-04-18T16:45:57.525Z</time></trkpt><trkpt lat="45.5637966" lon="12.4112972"><ele>1.9999999999999998</ele><time>2026-04-18T16:46:00.514Z</time></trkpt><trkpt lat="45.5638148" lon="12.4112068"><ele>2.0</ele><time>2026-04-18T16:46:04.511Z</time></trkpt><trkpt lat="45.563843" lon="12.4111225"><ele>2.0</ele><time>2026-04-18T16:46:08.526Z</time></trkpt><trkpt lat="45.5637883" lon="12.4110419"><ele>2.0</ele><time>2026-04-18T16:46:10.525Z</time></trkpt><trkpt lat="45.5637279" lon="12.4109352"><ele>1.9999999999999998</ele><time>2026-04-18T16:46:12.52Z</time></trkpt><trkpt lat="45.5636871" lon="12.4108233"><ele>2.0</ele><time>2026-04-18T16:46:14.519Z</time></trkpt><trkpt lat="45.5636619" lon="12.4107339"><ele>2.0</ele><time>2026-04-18T16:46:16.525Z</time></trkpt><trkpt lat="45.5636321" lon="12.41061"><ele>2.0</ele><time>2026-04-18T16:46:18.522Z</time></trkpt><trkpt lat="45.5635969" lon="12.4104696"><ele>2.0</ele><time>2026-04-18T16:46:20.52Z</time></trkpt><trkpt lat="45.5635549" lon="12.4103237"><ele>2.0</ele><time>2026-04-18T16:46:22.521Z</time></trkpt><trkpt lat="45.5635162" lon="12.4101812"><ele>2.0</ele><time>2026-04-18T16:46:24.527Z</time></trkpt><trkpt lat="45.5634872" lon="12.4100571"><ele>1.9999999999999998</ele><time>2026-04-18T16:46:26.526Z</time></trkpt><trkpt lat="45.563448" lon="12.4099179"><ele>2.0</ele><time>2026-04-18T16:46:28.521Z</time></trkpt><trkpt lat="45.5634386" lon="12.4098265"><ele>2.0</ele><time>2026-04-18T16:46:30.518Z</time></trkpt><trkpt lat="45.5634224" lon="12.4097239"><ele>2.0</ele><time>2026-04-18T16:46:32.514Z</time></trkpt><trkpt lat="45.5633869" lon="12.4096167"><ele>1.9999999999999998</ele><time>2026-04-18T16:46:34.522Z</time></trkpt><trkpt lat="45.5633649" lon="12.4094816"><ele>2.0</ele><time>2026-04-18T16:46:36.517Z</time></trkpt><trkpt lat="45.5633667" lon="12.4093346"><ele>1.8</ele><time>2026-04-18T16:46:38.514Z</time></trkpt><trkpt lat="45.5633793" lon="12.4091926"><ele>1.6</ele><time>2026-04-18T16:46:40.518Z</time></trkpt><trkpt lat="45.5633943" lon="12.409082"><ele>1.4000000000000001</ele><time>2026-04-18T16:46:42.518Z</time></trkpt><trkpt lat="45.5634176" lon="12.4089286"><ele>1.2000000000000002</ele><time>2026-04-18T16:46:44.519Z</time></trkpt><trkpt lat="45.5634442" lon="12.4087844"><ele>1.0</ele><time>2026-04-18T16:46:46.518Z</time></trkpt><trkpt lat="45.5634725" lon="12.4086303"><ele>0.75</ele><time>2026-04-18T16:46:48.515Z</time></trkpt><trkpt lat="45.5635097" lon="12.4084884"><ele>0.5</ele><time>2026-04-18T16:46:50.527Z</time></trkpt><trkpt lat="45.563548" lon="12.408324"><ele>0.25</ele><time>2026-04-18T16:46:52.532Z</time></trkpt><trkpt lat="45.5635885" lon="12.4081786"><ele>0.0</ele><time>2026-04-18T16:46:54.531Z</time></trkpt><trkpt lat="45.5636291" lon="12.4080092"><ele>-0.25</ele><time>2026-04-18T16:46:56.536Z</time></trkpt><trkpt lat="45.5636649" lon="12.4078652"><ele>-0.5</ele><time>2026-04-18T16:46:58.518Z</time></trkpt><trkpt lat="45.5636995" lon="12.4077139"><ele>-0.75</ele><time>2026-04-18T16:47:00.523Z</time></trkpt><trkpt lat="45.5637362" lon="12.4075467"><ele>-1.0</ele><time>2026-04-18T16:47:02.517Z</time></trkpt><trkpt lat="45.5637637" lon="12.4073961"><ele>-1.0</ele><time>2026-04-18T16:47:04.514Z</time></trkpt><trkpt lat="45.5637857" lon="12.4072409"><ele>-1.0</ele><time>2026-04-18T16:47:06.515Z</time></trkpt><trkpt lat="45.563803" lon="12.4070995"><ele>-1.0</ele><time>2026-04-18T16:47:08.516Z</time></trkpt><trkpt lat="45.5638251" lon="12.4069468"><ele>-1.0</ele><time>2026-04-18T16:47:10.516Z</time></trkpt><trkpt lat="45.5638491" lon="12.4067854"><ele>-1.0</ele><time>2026-04-18T16:47:12.514Z</time></trkpt><trkpt lat="45.5638683" lon="12.4066318"><ele>-0.8</ele><time>2026-04-18T16:47:14.515Z</time></trkpt><trkpt lat="45.5638944" lon="12.4064731"><ele>-0.6000000000000001</ele><time>2026-04-18T16:47:16.512Z</time></trkpt><trkpt lat="45.563918" lon="12.4063163"><ele>-0.4</ele><time>2026-04-18T16:47:18.53Z</time></trkpt><trkpt lat="45.5639396" lon="12.4061615"><ele>-0.2</ele><time>2026-04-18T16:47:20.514Z</time></trkpt><trkpt lat="45.5639692" lon="12.4060082"><ele>0.0</ele><time>2026-04-18T16:47:22.511Z</time></trkpt><trkpt lat="45.5639843" lon="12.4058843"><ele>0.3333333333333333</ele><time>2026-04-18T16:47:24.517Z</time></trkpt><trkpt lat="45.5640116" lon="12.4057555"><ele>0.6666666666666666</ele><time>2026-04-18T16:47:26.512Z</time></trkpt><trkpt lat="45.5640409" lon="12.4056383"><ele>1.0</ele><time>2026-04-18T16:47:28.519Z</time></trkpt><trkpt lat="45.5640693" lon="12.4055569"><ele>1.3333333333333333</ele><time>2026-04-18T16:47:30.518Z</time></trkpt><trkpt lat="45.5641018" lon="12.4054733"><ele>1.6666666666666665</ele><time>2026-04-18T16:47:33.518Z</time></trkpt><trkpt lat="45.5641386" lon="12.405385"><ele>2.0</ele><time>2026-04-18T16:47:36.518Z</time></trkpt><trkpt lat="45.5641937" lon="12.4052948"><ele>2.1666666666666665</ele><time>2026-04-18T16:47:39.52Z</time></trkpt><trkpt lat="45.5642422" lon="12.4052262"><ele>2.333333333333333</ele><time>2026-04-18T16:47:41.518Z</time></trkpt><trkpt lat="45.5643146" lon="12.4051254"><ele>2.5</ele><time>2026-04-18T16:47:44.521Z</time></trkpt><trkpt lat="45.5643716" lon="12.4050423"><ele>2.6666666666666665</ele><time>2026-04-18T16:47:46.521Z</time></trkpt><trkpt lat="45.5644276" lon="12.4049725"><ele>2.8333333333333335</ele><time>2026-04-18T16:47:48.523Z</time></trkpt><trkpt lat="45.5644876" lon="12.4048926"><ele>3.0</ele><time>2026-04-18T16:47:50.527Z</time></trkpt><trkpt lat="45.564544" lon="12.4048261"><ele>2.6666666666666665</ele><time>2026-04-18T16:47:52.524Z</time></trkpt><trkpt lat="45.5646193" lon="12.4047579"><ele>2.3333333333333335</ele><time>2026-04-18T16:47:54.517Z</time></trkpt><trkpt lat="45.5646814" lon="12.4046876"><ele>2.0</ele><time>2026-04-18T16:47:56.528Z</time></trkpt><trkpt lat="45.5647324" lon="12.4046256"><ele>1.6666666666666665</ele><time>2026-04-18T16:47:58.526Z</time></trkpt><trkpt lat="45.5647856" lon="12.4045524"><ele>1.3333333333333333</ele><time>2026-04-18T16:48:00.531Z</time></trkpt><trkpt lat="45.5648395" lon="12.4044705"><ele>1.0</ele><time>2026-04-18T16:48:02.511Z</time></trkpt><trkpt lat="45.5649134" lon="12.4043766"><ele>1.0</ele><time>2026-04-18T16:48:04.514Z</time></trkpt><trkpt lat="45.5649863" lon="12.4042807"><ele>1.0</ele><time>2026-04-18T16:48:06.516Z</time></trkpt><trkpt lat="45.5650655" lon="12.4041715"><ele>1.0</ele><time>2026-04-18T16:48:08.52Z</time></trkpt><trkpt lat="45.5651379" lon="12.4040777"><ele>1.0</ele><time>2026-04-18T16:48:10.525Z</time></trkpt><trkpt lat="45.5652123" lon="12.4039893"><ele>1.0</ele><time>2026-04-18T16:48:12.517Z</time></trkpt><trkpt lat="45.5652959" lon="12.4038934"><ele>1.0</ele><time>2026-04-18T16:48:14.515Z</time></trkpt><trkpt lat="45.5653581" lon="12.403817"><ele>1.0</ele><time>2026-04-18T16:48:16.52Z</time></trkpt><trkpt lat="45.5654325" lon="12.403717"><ele>1.0</ele><time>2026-04-18T16:48:18.521Z</time></trkpt><trkpt lat="45.5655123" lon="12.4036212"><ele>1.0</ele><time>2026-04-18T16:48:20.525Z</time></trkpt><trkpt lat="45.5655775" lon="12.4035409"><ele>1.0</ele><time>2026-04-18T16:48:22.519Z</time></trkpt><trkpt lat="45.5656489" lon="12.4034556"><ele>0.8</ele><time>2026-04-18T16:48:24.525Z</time></trkpt><trkpt lat="45.5657261" lon="12.4033589"><ele>0.6000000000000001</ele><time>2026-04-18T16:48:26.522Z</time></trkpt><trkpt lat="45.5658082" lon="12.4032483"><ele>0.4</ele><time>2026-04-18T16:48:28.52Z</time></trkpt><trkpt lat="45.565881" lon="12.4031502"><ele>0.2</ele><time>2026-04-18T16:48:30.526Z</time></trkpt><trkpt lat="45.56594" lon="12.4030625"><ele>0.0</ele><time>2026-04-18T16:48:32.533Z</time></trkpt><trkpt lat="45.5660083" lon="12.4029673"><ele>0.0</ele><time>2026-04-18T16:48:34.508Z</time></trkpt><trkpt lat="45.5660648" lon="12.4028871"><ele>0.0</ele><time>2026-04-18T16:48:36.531Z</time></trkpt><trkpt lat="45.5661417" lon="12.4027984"><ele>0.0</ele><time>2026-04-18T16:48:38.53Z</time></trkpt><trkpt lat="45.5662287" lon="12.4027001"><ele>0.0</ele><time>2026-04-18T16:48:40.522Z</time></trkpt><trkpt lat="45.5663065" lon="12.4026087"><ele>0.0</ele><time>2026-04-18T16:48:42.543Z</time></trkpt><trkpt lat="45.5663632" lon="12.4025133"><ele>-0.2</ele><time>2026-04-18T16:48:44.538Z</time></trkpt><trkpt lat="45.5664181" lon="12.4024138"><ele>-0.4</ele><time>2026-04-18T16:48:46.53Z</time></trkpt><trkpt lat="45.5664779" lon="12.402304"><ele>-0.6000000000000001</ele><time>2026-04-18T16:48:48.526Z</time></trkpt><trkpt lat="45.5665442" lon="12.4021849"><ele>-0.8</ele><time>2026-04-18T16:48:50.535Z</time></trkpt><trkpt lat="45.5666096" lon="12.4020756"><ele>-1.0</ele><time>2026-04-18T16:48:52.529Z</time></trkpt><trkpt lat="45.5666729" lon="12.4019593"><ele>-1.0</ele><time>2026-04-18T16:48:54.521Z</time></trkpt><trkpt lat="45.5667235" lon="12.40186"><ele>-1.0</ele><time>2026-04-18T16:48:56.514Z</time></trkpt><trkpt lat="45.5667767" lon="12.4017366"><ele>-1.0</ele><time>2026-04-18T16:48:58.518Z</time></trkpt><trkpt lat="45.5668219" lon="12.4016194"><ele>-1.0</ele><time>2026-04-18T16:49:00.534Z</time></trkpt><trkpt lat="45.5668651" lon="12.401497"><ele>-1.0</ele><time>2026-04-18T16:49:02.536Z</time></trkpt><trkpt lat="45.5669021" lon="12.4013951"><ele>-0.6666666666666666</ele><time>2026-04-18T16:49:04.529Z</time></trkpt><trkpt lat="45.5669421" lon="12.4012808"><ele>-0.3333333333333333</ele><time>2026-04-18T16:49:06.518Z</time></trkpt><trkpt lat="45.5669748" lon="12.4011765"><ele>0.0</ele><time>2026-04-18T16:49:08.52Z</time></trkpt><trkpt lat="45.5670051" lon="12.4010761"><ele>0.3333333333333333</ele><time>2026-04-18T16:49:10.512Z</time></trkpt><trkpt lat="45.5670356" lon="12.4009713"><ele>0.6666666666666666</ele><time>2026-04-18T16:49:12.522Z</time></trkpt><trkpt lat="45.5670653" lon="12.4008691"><ele>1.0</ele><time>2026-04-18T16:49:14.516Z</time></trkpt><trkpt lat="45.5671061" lon="12.4007381"><ele>1.0</ele><time>2026-04-18T16:49:16.521Z</time></trkpt><trkpt lat="45.5671469" lon="12.4006038"><ele>1.0</ele><time>2026-04-18T16:49:18.521Z</time></trkpt><trkpt lat="45.5671854" lon="12.4004794"><ele>1.0</ele><time>2026-04-18T16:49:20.52Z</time></trkpt><trkpt lat="45.5672263" lon="12.400352"><ele>1.0</ele><time>2026-04-18T16:49:22.521Z</time></trkpt><trkpt lat="45.5672838" lon="12.4002357"><ele>1.0</ele><time>2026-04-18T16:49:24.518Z</time></trkpt><trkpt lat="45.5673405" lon="12.400122"><ele>1.4</ele><time>2026-04-18T16:49:26.532Z</time></trkpt><trkpt lat="45.5674049" lon="12.399979"><ele>1.8</ele><time>2026-04-18T16:49:28.518Z</time></trkpt><trkpt lat="45.5674685" lon="12.399857"><ele>2.1999999999999997</ele><time>2026-04-18T16:49:30.519Z</time></trkpt><trkpt lat="45.5675249" lon="12.3997526"><ele>2.6</ele><time>2026-04-18T16:49:32.526Z</time></trkpt><trkpt lat="45.5675859" lon="12.3996674"><ele>3.0</ele><time>2026-04-18T16:49:34.521Z</time></trkpt><trkpt lat="45.5676573" lon="12.3995809"><ele>3.0</ele><time>2026-04-18T16:49:36.503Z</time></trkpt><trkpt lat="45.567721" lon="12.399482"><ele>3.0</ele><time>2026-04-18T16:49:38.524Z</time></trkpt><trkpt lat="45.5677976" lon="12.3993633"><ele>3.0</ele><time>2026-04-18T16:49:40.52Z</time></trkpt><trkpt lat="45.5678671" lon="12.3992603"><ele>3.0</ele><time>2026-04-18T16:49:42.526Z</time></trkpt><trkpt lat="45.5679286" lon="12.3991758"><ele>3.0</ele><time>2026-04-18T16:49:44.518Z</time></trkpt><trkpt lat="45.5679984" lon="12.3990982"><ele>3.0</ele><time>2026-04-18T16:49:46.528Z</time></trkpt><trkpt lat="45.5680759" lon="12.3990142"><ele>3.0</ele><time>2026-04-18T16:49:48.52Z</time></trkpt><trkpt lat="45.5681512" lon="12.3989381"><ele>3.0</ele><time>2026-04-18T16:49:50.528Z</time></trkpt><trkpt lat="45.5682268" lon="12.3988646"><ele>3.0</ele><time>2026-04-18T16:49:52.529Z</time></trkpt><trkpt lat="45.5683161" lon="12.3987757"><ele>3.0</ele><time>2026-04-18T16:49:54.511Z</time></trkpt><trkpt lat="45.5683688" lon="12.3987207"><ele>3.0</ele><time>2026-04-18T16:49:55.547Z</time></trkpt><trkpt lat="45.5684478" lon="12.3986353"><ele>3.0</ele><time>2026-04-18T16:49:57.529Z</time></trkpt><trkpt lat="45.5685158" lon="12.39855"><ele>3.0</ele><time>2026-04-18T16:49:59.532Z</time></trkpt><trkpt lat="45.5685942" lon="12.3984704"><ele>3.0</ele><time>2026-04-18T16:50:01.54Z</time></trkpt><trkpt lat="45.5686703" lon="12.3983863"><ele>3.0</ele><time>2026-04-18T16:50:03.524Z</time></trkpt><trkpt lat="45.5687534" lon="12.3982878"><ele>3.0</ele><time>2026-04-18T16:50:05.53Z</time></trkpt><trkpt lat="45.5688324" lon="12.3981834"><ele>3.0</ele><time>2026-04-18T16:50:07.521Z</time></trkpt><trkpt lat="45.5688935" lon="12.3981046"><ele>3.0</ele><time>2026-04-18T16:50:09.52Z</time></trkpt><trkpt lat="45.5689612" lon="12.3979936"><ele>3.0</ele><time>2026-04-18T16:50:11.531Z</time></trkpt><trkpt lat="45.5690308" lon="12.3978972"><ele>3.0</ele><time>2026-04-18T16:50:13.518Z</time></trkpt><trkpt lat="45.5691083" lon="12.3977855"><ele>2.8333333333333335</ele><time>2026-04-18T16:50:15.52Z</time></trkpt><trkpt lat="45.5691458" lon="12.3977117"><ele>2.6666666666666665</ele><time>2026-04-18T16:50:16.523Z</time></trkpt><trkpt lat="45.5692211" lon="12.3975931"><ele>2.5</ele><time>2026-04-18T16:50:18.528Z</time></trkpt><trkpt lat="45.5692625" lon="12.3975236"><ele>2.333333333333333</ele><time>2026-04-18T16:50:19.531Z</time></trkpt><trkpt lat="45.5693236" lon="12.3974217"><ele>2.1666666666666665</ele><time>2026-04-18T16:50:21.532Z</time></trkpt><trkpt lat="45.5693756" lon="12.3973214"><ele>2.0</ele><time>2026-04-18T16:50:23.528Z</time></trkpt><trkpt lat="45.5694333" lon="12.3972245"><ele>2.333333333333333</ele><time>2026-04-18T16:50:25.522Z</time></trkpt><trkpt lat="45.5694865" lon="12.397122"><ele>2.6666666666666665</ele><time>2026-04-18T16:50:27.537Z</time></trkpt><trkpt lat="45.5695386" lon="12.3970313"><ele>3.0</ele><time>2026-04-18T16:50:29.541Z</time></trkpt><trkpt lat="45.5695984" lon="12.3969337"><ele>3.333333333333333</ele><time>2026-04-18T16:50:31.533Z</time></trkpt><trkpt lat="45.5696609" lon="12.3968457"><ele>3.6666666666666665</ele><time>2026-04-18T16:50:33.526Z</time></trkpt><trkpt lat="45.5697238" lon="12.3967456"><ele>4.0</ele><time>2026-04-18T16:50:35.53Z</time></trkpt><trkpt lat="45.5697853" lon="12.396638"><ele>3.9999999999999996</ele><time>2026-04-18T16:50:37.527Z</time></trkpt><trkpt lat="45.5698398" lon="12.3965412"><ele>4.0</ele><time>2026-04-18T16:50:39.535Z</time></trkpt><trkpt lat="45.5698872" lon="12.3964363"><ele>4.0</ele><time>2026-04-18T16:50:41.526Z</time></trkpt><trkpt lat="45.5699299" lon="12.3963282"><ele>4.0</ele><time>2026-04-18T16:50:43.522Z</time></trkpt><trkpt lat="45.5699474" lon="12.3961848"><ele>3.9999999999999996</ele><time>2026-04-18T16:50:45.527Z</time></trkpt><trkpt lat="45.5699564" lon="12.3960675"><ele>4.0</ele><time>2026-04-18T16:50:47.558Z</time></trkpt><trkpt lat="45.5699472" lon="12.3959373"><ele>4.6</ele><time>2026-04-18T16:50:49.555Z</time></trkpt><trkpt lat="45.5699294" lon="12.395744"><ele>5.2</ele><time>2026-04-18T16:50:51.52Z</time></trkpt><trkpt lat="45.5699037" lon="12.3956165"><ele>5.799999999999999</ele><time>2026-04-18T16:50:53.524Z</time></trkpt><trkpt lat="45.5698583" lon="12.3955051"><ele>6.3999999999999995</ele><time>2026-04-18T16:50:55.531Z</time></trkpt><trkpt lat="45.5698055" lon="12.3953874"><ele>7.0</ele><time>2026-04-18T16:50:57.524Z</time></trkpt><trkpt lat="45.5697709" lon="12.3952819"><ele>7.0</ele><time>2026-04-18T16:50:59.527Z</time></trkpt><trkpt lat="45.5697379" lon="12.3951379"><ele>6.999999999999999</ele><time>2026-04-18T16:51:01.527Z</time></trkpt><trkpt lat="45.5697012" lon="12.3950219"><ele>6.999999999999999</ele><time>2026-04-18T16:51:03.522Z</time></trkpt><trkpt lat="45.5696592" lon="12.3948651"><ele>7.0</ele><time>2026-04-18T16:51:06.536Z</time></trkpt><trkpt lat="45.5696162" lon="12.3947123"><ele>7.0</ele><time>2026-04-18T16:51:08.526Z</time></trkpt><trkpt lat="45.5695834" lon="12.3945487"><ele>6.500000000000001</ele><time>2026-04-18T16:51:10.52Z</time></trkpt><trkpt lat="45.5695538" lon="12.3944465"><ele>6.0</ele><time>2026-04-18T16:51:12.511Z</time></trkpt><trkpt lat="45.5695314" lon="12.3943485"><ele>5.5</ele><time>2026-04-18T16:51:14.51Z</time></trkpt><trkpt lat="45.5694856" lon="12.3941939"><ele>5.0</ele><time>2026-04-18T16:51:16.522Z</time></trkpt><trkpt lat="45.5694536" lon="12.39407"><ele>4.5</ele><time>2026-04-18T16:51:18.512Z</time></trkpt><trkpt lat="45.5694245" lon="12.3939524"><ele>4.0</ele><time>2026-04-18T16:51:20.521Z</time></trkpt><trkpt lat="45.569374" lon="12.3937933"><ele>3.5</ele><time>2026-04-18T16:51:22.534Z</time></trkpt><trkpt lat="45.5693172" lon="12.3936153"><ele>3.0</ele><time>2026-04-18T16:51:24.524Z</time></trkpt><trkpt lat="45.569269" lon="12.3934788"><ele>2.5</ele><time>2026-04-18T16:51:26.533Z</time></trkpt><trkpt lat="45.5692178" lon="12.3933461"><ele>2.0</ele><time>2026-04-18T16:51:28.523Z</time></trkpt><trkpt lat="45.5691653" lon="12.3932229"><ele>2.0</ele><time>2026-04-18T16:51:30.53Z</time></trkpt><trkpt lat="45.5691169" lon="12.3931028"><ele>2.0</ele><time>2026-04-18T16:51:32.528Z</time></trkpt><trkpt lat="45.5690735" lon="12.3929793"><ele>2.0</ele><time>2026-04-18T16:51:34.523Z</time></trkpt><trkpt lat="45.5690246" lon="12.3928621"><ele>2.0</ele><time>2026-04-18T16:51:36.534Z</time></trkpt><trkpt lat="45.56897" lon="12.3927039"><ele>2.0</ele><time>2026-04-18T16:51:38.52Z</time></trkpt><trkpt lat="45.5689243" lon="12.3925514"><ele>2.6</ele><time>2026-04-18T16:51:40.523Z</time></trkpt><trkpt lat="45.568885" lon="12.3924188"><ele>3.2</ele><time>2026-04-18T16:51:42.514Z</time></trkpt><trkpt lat="45.568865" lon="12.3923132"><ele>3.8</ele><time>2026-04-18T16:51:44.547Z</time></trkpt><trkpt lat="45.5688308" lon="12.3921839"><ele>4.4</ele><time>2026-04-18T16:51:46.511Z</time></trkpt><trkpt lat="45.5687914" lon="12.3920236"><ele>5.0</ele><time>2026-04-18T16:51:48.52Z</time></trkpt><trkpt lat="45.5687524" lon="12.3918603"><ele>5.2</ele><time>2026-04-18T16:51:50.518Z</time></trkpt><trkpt lat="45.568715" lon="12.391706"><ele>5.4</ele><time>2026-04-18T16:51:52.521Z</time></trkpt><trkpt lat="45.5686793" lon="12.3915265"><ele>5.6</ele><time>2026-04-18T16:51:54.516Z</time></trkpt><trkpt lat="45.5686589" lon="12.3914358"><ele>5.8</ele><time>2026-04-18T16:51:55.518Z</time></trkpt><trkpt lat="45.5686265" lon="12.3912905"><ele>6.0</ele><time>2026-04-18T16:51:57.518Z</time></trkpt><trkpt lat="45.568596" lon="12.3911531"><ele>5.3999999999999995</ele><time>2026-04-18T16:51:59.538Z</time></trkpt><trkpt lat="45.5685681" lon="12.3910142"><ele>4.8</ele><time>2026-04-18T16:52:01.53Z</time></trkpt><trkpt lat="45.5685434" lon="12.390886"><ele>4.199999999999999</ele><time>2026-04-18T16:52:03.509Z</time></trkpt><trkpt lat="45.568517" lon="12.3907478"><ele>3.5999999999999996</ele><time>2026-04-18T16:52:05.52Z</time></trkpt><trkpt lat="45.5684924" lon="12.3906151"><ele>3.0</ele><time>2026-04-18T16:52:07.544Z</time></trkpt><trkpt lat="45.5684764" lon="12.3904984"><ele>2.6666666666666665</ele><time>2026-04-18T16:52:09.518Z</time></trkpt><trkpt lat="45.5684573" lon="12.3904085"><ele>2.3333333333333335</ele><time>2026-04-18T16:52:11.521Z</time></trkpt><trkpt lat="45.568436" lon="12.3903182"><ele>2.0</ele><time>2026-04-18T16:52:13.532Z</time></trkpt><trkpt lat="45.568419" lon="12.3901994"><ele>1.6666666666666665</ele><time>2026-04-18T16:52:15.515Z</time></trkpt><trkpt lat="45.5683932" lon="12.3900775"><ele>1.3333333333333333</ele><time>2026-04-18T16:52:17.527Z</time></trkpt><trkpt lat="45.568367" lon="12.389956"><ele>1.0</ele><time>2026-04-18T16:52:19.535Z</time></trkpt><trkpt lat="45.5683638" lon="12.3897972"><ele>1.0</ele><time>2026-04-18T16:52:21.521Z</time></trkpt><trkpt lat="45.5683669" lon="12.3896758"><ele>1.0</ele><time>2026-04-18T16:52:23.513Z</time></trkpt><trkpt lat="45.5683771" lon="12.3895316"><ele>1.0</ele><time>2026-04-18T16:52:25.532Z</time></trkpt><trkpt lat="45.5683953" lon="12.3893471"><ele>1.0</ele><time>2026-04-18T16:52:27.525Z</time></trkpt><trkpt lat="45.5684029" lon="12.3892574"><ele>1.0</ele><time>2026-04-18T16:52:28.524Z</time></trkpt><trkpt lat="45.5684238" lon="12.3890904"><ele>0.8</ele><time>2026-04-18T16:52:30.516Z</time></trkpt><trkpt lat="45.5684391" lon="12.3890003"><ele>0.6000000000000001</ele><time>2026-04-18T16:52:31.527Z</time></trkpt><trkpt lat="45.5684636" lon="12.3888414"><ele>0.4</ele><time>2026-04-18T16:52:33.519Z</time></trkpt><trkpt lat="45.5684864" lon="12.3887016"><ele>0.2</ele><time>2026-04-18T16:52:35.528Z</time></trkpt><trkpt lat="45.5685145" lon="12.3885555"><ele>0.0</ele><time>2026-04-18T16:52:37.525Z</time></trkpt><trkpt lat="45.5685376" lon="12.3884145"><ele>0.2</ele><time>2026-04-18T16:52:39.518Z</time></trkpt><trkpt lat="45.5685584" lon="12.3882711"><ele>0.4</ele><time>2026-04-18T16:52:41.529Z</time></trkpt><trkpt lat="45.56858" lon="12.3881256"><ele>0.6000000000000001</ele><time>2026-04-18T16:52:43.524Z</time></trkpt><trkpt lat="45.5686094" lon="12.3879736"><ele>0.8</ele><time>2026-04-18T16:52:45.526Z</time></trkpt><trkpt lat="45.5686354" lon="12.3878421"><ele>1.0</ele><time>2026-04-18T16:52:47.52Z</time></trkpt><trkpt lat="45.5686647" lon="12.3877025"><ele>0.8</ele><time>2026-04-18T16:52:49.526Z</time></trkpt><trkpt lat="45.5686965" lon="12.3875645"><ele>0.6000000000000001</ele><time>2026-04-18T16:52:51.538Z</time></trkpt><trkpt lat="45.5687271" lon="12.3874383"><ele>0.4</ele><time>2026-04-18T16:52:53.524Z</time></trkpt><trkpt lat="45.5687756" lon="12.3873019"><ele>0.2</ele><time>2026-04-18T16:52:55.524Z</time></trkpt><trkpt lat="45.5688301" lon="12.3871735"><ele>0.0</ele><time>2026-04-18T16:52:57.511Z</time></trkpt><trkpt lat="45.5689008" lon="12.3870476"><ele>0.0</ele><time>2026-04-18T16:52:59.515Z</time></trkpt><trkpt lat="45.5689554" lon="12.3869331"><ele>0.0</ele><time>2026-04-18T16:53:01.515Z</time></trkpt><trkpt lat="45.5690197" lon="12.3868275"><ele>0.0</ele><time>2026-04-18T16:53:03.507Z</time></trkpt><trkpt lat="45.569093" lon="12.3867286"><ele>0.0</ele><time>2026-04-18T16:53:05.506Z</time></trkpt><trkpt lat="45.5691697" lon="12.3866213"><ele>0.0</ele><time>2026-04-18T16:53:07.504Z</time></trkpt><trkpt lat="45.5692545" lon="12.3865109"><ele>0.0</ele><time>2026-04-18T16:53:09.523Z</time></trkpt><trkpt lat="45.5693406" lon="12.3864064"><ele>0.0</ele><time>2026-04-18T16:53:11.527Z</time></trkpt><trkpt lat="45.5693947" lon="12.3863525"><ele>0.0</ele><time>2026-04-18T16:53:12.51Z</time></trkpt><trkpt lat="45.5694482" lon="12.3863018"><ele>0.0</ele><time>2026-04-18T16:53:13.516Z</time></trkpt><trkpt lat="45.569503" lon="12.3862464"><ele>0.0</ele><time>2026-04-18T16:53:14.519Z</time></trkpt><trkpt lat="45.5695566" lon="12.386192"><ele>0.0</ele><time>2026-04-18T16:53:15.547Z</time></trkpt><trkpt lat="45.5696088" lon="12.3861376"><ele>0.0</ele><time>2026-04-18T16:53:16.513Z</time></trkpt><trkpt lat="45.5696606" lon="12.3860859"><ele>-0.16666666666666666</ele><time>2026-04-18T16:53:17.521Z</time></trkpt><trkpt lat="45.5697568" lon="12.3859692"><ele>-0.3333333333333333</ele><time>2026-04-18T16:53:19.512Z</time></trkpt><trkpt lat="45.5698099" lon="12.3859091"><ele>-0.5</ele><time>2026-04-18T16:53:20.513Z</time></trkpt><trkpt lat="45.5698701" lon="12.3858446"><ele>-0.6666666666666666</ele><time>2026-04-18T16:53:21.514Z</time></trkpt><trkpt lat="45.5699334" lon="12.3857822"><ele>-0.8333333333333333</ele><time>2026-04-18T16:53:22.516Z</time></trkpt><trkpt lat="45.5699968" lon="12.38572"><ele>-1.0</ele><time>2026-04-18T16:53:23.526Z</time></trkpt><trkpt lat="45.5700612" lon="12.385657"><ele>-0.9999999999999999</ele><time>2026-04-18T16:53:24.515Z</time></trkpt><trkpt lat="45.570126" lon="12.3855919"><ele>-1.0</ele><time>2026-04-18T16:53:25.514Z</time></trkpt><trkpt lat="45.5701901" lon="12.3855241"><ele>-1.0</ele><time>2026-04-18T16:53:26.51Z</time></trkpt><trkpt lat="45.570256" lon="12.3854598"><ele>-1.0</ele><time>2026-04-18T16:53:27.521Z</time></trkpt><trkpt lat="45.5703199" lon="12.3853881"><ele>-0.9999999999999999</ele><time>2026-04-18T16:53:28.514Z</time></trkpt><trkpt lat="45.5703857" lon="12.3853215"><ele>-1.0</ele><time>2026-04-18T16:53:29.517Z</time></trkpt><trkpt lat="45.570452" lon="12.3852572"><ele>-0.8333333333333333</ele><time>2026-04-18T16:53:30.517Z</time></trkpt><trkpt lat="45.5705193" lon="12.3851951"><ele>-0.6666666666666666</ele><time>2026-04-18T16:53:31.516Z</time></trkpt><trkpt lat="45.5705845" lon="12.3851318"><ele>-0.5</ele><time>2026-04-18T16:53:32.516Z</time></trkpt><trkpt lat="45.5706515" lon="12.3850682"><ele>-0.3333333333333333</ele><time>2026-04-18T16:53:33.52Z</time></trkpt><trkpt lat="45.5707195" lon="12.3850036"><ele>-0.16666666666666666</ele><time>2026-04-18T16:53:34.516Z</time></trkpt><trkpt lat="45.5707876" lon="12.3849409"><ele>0.0</ele><time>2026-04-18T16:53:35.515Z</time></trkpt><trkpt lat="45.5708573" lon="12.3848813"><ele>0.0</ele><time>2026-04-18T16:53:36.522Z</time></trkpt><trkpt lat="45.5709263" lon="12.3848196"><ele>0.0</ele><time>2026-04-18T16:53:37.514Z</time></trkpt><trkpt lat="45.5709943" lon="12.3847585"><ele>0.0</ele><time>2026-04-18T16:53:38.514Z</time></trkpt><trkpt lat="45.571065" lon="12.3847024"><ele>0.0</ele><time>2026-04-18T16:53:39.513Z</time></trkpt><trkpt lat="45.5711372" lon="12.3846502"><ele>0.0</ele><time>2026-04-18T16:53:40.518Z</time></trkpt><trkpt lat="45.5712079" lon="12.3846002"><ele>0.0</ele><time>2026-04-18T16:53:41.518Z</time></trkpt><trkpt lat="45.5712771" lon="12.3845519"><ele>0.42857142857142855</ele><time>2026-04-18T16:53:42.516Z</time></trkpt><trkpt lat="45.571346" lon="12.3845086"><ele>0.8571428571428571</ele><time>2026-04-18T16:53:43.529Z</time></trkpt><trkpt lat="45.5714144" lon="12.3844686"><ele>1.2857142857142856</ele><time>2026-04-18T16:53:44.514Z</time></trkpt><trkpt lat="45.5714817" lon="12.3844324"><ele>1.7142857142857142</ele><time>2026-04-18T16:53:45.517Z</time></trkpt><trkpt lat="45.5715465" lon="12.3843931"><ele>2.142857142857143</ele><time>2026-04-18T16:53:46.523Z</time></trkpt><trkpt lat="45.5716089" lon="12.3843537"><ele>2.571428571428571</ele><time>2026-04-18T16:53:47.515Z</time></trkpt><trkpt lat="45.5716691" lon="12.3843117"><ele>3.0</ele><time>2026-04-18T16:53:48.524Z</time></trkpt><trkpt lat="45.5717293" lon="12.3842756"><ele>3.0</ele><time>2026-04-18T16:53:49.526Z</time></trkpt><trkpt lat="45.5718434" lon="12.3842077"><ele>3.0</ele><time>2026-04-18T16:53:51.51Z</time></trkpt><trkpt lat="45.5719512" lon="12.3841403"><ele>3.0</ele><time>2026-04-18T16:53:53.526Z</time></trkpt><trkpt lat="45.5720467" lon="12.3840831"><ele>3.0</ele><time>2026-04-18T16:53:55.517Z</time></trkpt><trkpt lat="45.5721483" lon="12.3840241"><ele>2.8571428571428568</ele><time>2026-04-18T16:53:57.53Z</time></trkpt><trkpt lat="45.5722072" lon="12.3839914"><ele>2.7142857142857144</ele><time>2026-04-18T16:53:58.523Z</time></trkpt><trkpt lat="45.5722674" lon="12.3839551"><ele>2.571428571428571</ele><time>2026-04-18T16:53:59.515Z</time></trkpt><trkpt lat="45.572331" lon="12.3839188"><ele>2.4285714285714284</ele><time>2026-04-18T16:54:00.516Z</time></trkpt><trkpt lat="45.5724019" lon="12.3838834"><ele>2.2857142857142856</ele><time>2026-04-18T16:54:01.512Z</time></trkpt><trkpt lat="45.5724729" lon="12.383837"><ele>2.142857142857143</ele><time>2026-04-18T16:54:02.53Z</time></trkpt><trkpt lat="45.5725411" lon="12.3837823"><ele>2.0</ele><time>2026-04-18T16:54:03.515Z</time></trkpt><trkpt lat="45.572611" lon="12.3837337"><ele>2.0</ele><time>2026-04-18T16:54:04.511Z</time></trkpt><trkpt lat="45.5726801" lon="12.3836898"><ele>1.9999999999999998</ele><time>2026-04-18T16:54:05.517Z</time></trkpt><trkpt lat="45.5727467" lon="12.3836415"><ele>2.0</ele><time>2026-04-18T16:54:06.519Z</time></trkpt><trkpt lat="45.5728123" lon="12.3835898"><ele>2.0</ele><time>2026-04-18T16:54:07.528Z</time></trkpt><trkpt lat="45.5728784" lon="12.3835423"><ele>1.9999999999999998</ele><time>2026-04-18T16:54:08.513Z</time></trkpt><trkpt lat="45.5729444" lon="12.3834916"><ele>2.0</ele><time>2026-04-18T16:54:09.519Z</time></trkpt><trkpt lat="45.5730115" lon="12.383443"><ele>2.0</ele><time>2026-04-18T16:54:10.512Z</time></trkpt><trkpt lat="45.5730789" lon="12.383395"><ele>1.857142857142857</ele><time>2026-04-18T16:54:11.516Z</time></trkpt><trkpt lat="45.5731443" lon="12.3833426"><ele>1.714285714285714</ele><time>2026-04-18T16:54:12.513Z</time></trkpt><trkpt lat="45.5732086" lon="12.3832891"><ele>1.5714285714285714</ele><time>2026-04-18T16:54:13.523Z</time></trkpt><trkpt lat="45.5732738" lon="12.3832371"><ele>1.4285714285714284</ele><time>2026-04-18T16:54:14.519Z</time></trkpt><trkpt lat="45.5733368" lon="12.3831832"><ele>1.2857142857142856</ele><time>2026-04-18T16:54:15.512Z</time></trkpt><trkpt lat="45.5733998" lon="12.3831308"><ele>1.1428571428571428</ele><time>2026-04-18T16:54:16.516Z</time></trkpt><trkpt lat="45.5734634" lon="12.3830775"><ele>1.0</ele><time>2026-04-18T16:54:17.514Z</time></trkpt><trkpt lat="45.573527" lon="12.3830264"><ele>1.1666666666666665</ele><time>2026-04-18T16:54:18.532Z</time></trkpt><trkpt lat="45.5735864" lon="12.3829743"><ele>1.3333333333333333</ele><time>2026-04-18T16:54:19.513Z</time></trkpt><trkpt lat="45.5736447" lon="12.3829248"><ele>1.5</ele><time>2026-04-18T16:54:20.51Z</time></trkpt><trkpt lat="45.5737" lon="12.3828742"><ele>1.6666666666666665</ele><time>2026-04-18T16:54:21.516Z</time></trkpt><trkpt lat="45.5737566" lon="12.3828299"><ele>1.8333333333333333</ele><time>2026-04-18T16:54:22.512Z</time></trkpt><trkpt lat="45.5738631" lon="12.3827439"><ele>2.0</ele><time>2026-04-18T16:54:24.52Z</time></trkpt><trkpt lat="45.5739665" lon="12.3826538"><ele>1.5</ele><time>2026-04-18T16:54:26.531Z</time></trkpt><trkpt lat="45.5740678" lon="12.3825669"><ele>1.0</ele><time>2026-04-18T16:54:28.52Z</time></trkpt><trkpt lat="45.5741719" lon="12.3824812"><ele>0.5</ele><time>2026-04-18T16:54:30.516Z</time></trkpt><trkpt lat="45.5742768" lon="12.3823991"><ele>0.0</ele><time>2026-04-18T16:54:32.514Z</time></trkpt><trkpt lat="45.574373" lon="12.3823202"><ele>0.0</ele><time>2026-04-18T16:54:34.534Z</time></trkpt><trkpt lat="45.5744741" lon="12.3822513"><ele>0.0</ele><time>2026-04-18T16:54:36.515Z</time></trkpt><trkpt lat="45.5745731" lon="12.3821776"><ele>0.0</ele><time>2026-04-18T16:54:38.523Z</time></trkpt><trkpt lat="45.574683" lon="12.382145"><ele>0.0</ele><time>2026-04-18T16:54:40.521Z</time></trkpt><trkpt lat="45.5747984" lon="12.3821228"><ele>0.25</ele><time>2026-04-18T16:54:42.516Z</time></trkpt><trkpt lat="45.5749143" lon="12.3821087"><ele>0.5</ele><time>2026-04-18T16:54:44.535Z</time></trkpt><trkpt lat="45.575026" lon="12.3820887"><ele>0.75</ele><time>2026-04-18T16:54:46.529Z</time></trkpt><trkpt lat="45.5751379" lon="12.3820714"><ele>1.0</ele><time>2026-04-18T16:54:48.533Z</time></trkpt><trkpt lat="45.5752505" lon="12.3820594"><ele>1.2000000000000002</ele><time>2026-04-18T16:54:50.511Z</time></trkpt><trkpt lat="45.5753611" lon="12.3820524"><ele>1.4000000000000001</ele><time>2026-04-18T16:54:52.53Z</time></trkpt><trkpt lat="45.5754694" lon="12.3820405"><ele>1.6</ele><time>2026-04-18T16:54:54.521Z</time></trkpt><trkpt lat="45.5755739" lon="12.3820279"><ele>1.8</ele><time>2026-04-18T16:54:56.525Z</time></trkpt><trkpt lat="45.5756794" lon="12.3820239"><ele>2.0</ele><time>2026-04-18T16:54:58.516Z</time></trkpt><trkpt lat="45.5757864" lon="12.3820182"><ele>2.0</ele><time>2026-04-18T16:55:00.525Z</time></trkpt><trkpt lat="45.5758961" lon="12.3820049"><ele>2.0</ele><time>2026-04-18T16:55:02.525Z</time></trkpt><trkpt lat="45.5760066" lon="12.3820005"><ele>2.0</ele><time>2026-04-18T16:55:04.537Z</time></trkpt><trkpt lat="45.5761028" lon="12.381997"><ele>2.0</ele><time>2026-04-18T16:55:06.527Z</time></trkpt><trkpt lat="45.5762031" lon="12.3819935"><ele>2.0</ele><time>2026-04-18T16:55:08.525Z</time></trkpt><trkpt lat="45.5763073" lon="12.3819883"><ele>1.25</ele><time>2026-04-18T16:55:10.527Z</time></trkpt><trkpt lat="45.5764185" lon="12.3819881"><ele>0.5</ele><time>2026-04-18T16:55:12.528Z</time></trkpt><trkpt lat="45.5765338" lon="12.3819903"><ele>-0.25</ele><time>2026-04-18T16:55:14.514Z</time></trkpt><trkpt lat="45.5766503" lon="12.3819966"><ele>-1.0</ele><time>2026-04-18T16:55:16.523Z</time></trkpt><trkpt lat="45.5767607" lon="12.3819957"><ele>-1.0</ele><time>2026-04-18T16:55:18.532Z</time></trkpt><trkpt lat="45.5768639" lon="12.3819926"><ele>-1.0</ele><time>2026-04-18T16:55:20.53Z</time></trkpt><trkpt lat="45.5769691" lon="12.3819891"><ele>-1.0</ele><time>2026-04-18T16:55:22.526Z</time></trkpt><trkpt lat="45.5770662" lon="12.3819825"><ele>-1.0</ele><time>2026-04-18T16:55:24.522Z</time></trkpt><trkpt lat="45.5771633" lon="12.3819726"><ele>-1.0</ele><time>2026-04-18T16:55:26.529Z</time></trkpt><trkpt lat="45.5772703" lon="12.3819577"><ele>-1.0</ele><time>2026-04-18T16:55:28.526Z</time></trkpt><trkpt lat="45.5773947" lon="12.3819361"><ele>-1.0</ele><time>2026-04-18T16:55:30.525Z</time></trkpt><trkpt lat="45.5774576" lon="12.3819182"><ele>-1.0</ele><time>2026-04-18T16:55:31.529Z</time></trkpt><trkpt lat="45.5775762" lon="12.3818759"><ele>-1.0</ele><time>2026-04-18T16:55:33.522Z</time></trkpt><trkpt lat="45.5776663" lon="12.381818"><ele>-1.0</ele><time>2026-04-18T16:55:35.537Z</time></trkpt><trkpt lat="45.5777222" lon="12.381768"><ele>-1.0</ele><time>2026-04-18T16:55:36.539Z</time></trkpt><trkpt lat="45.5778118" lon="12.3816572"><ele>-1.0</ele><time>2026-04-18T16:55:38.533Z</time></trkpt><trkpt lat="45.5778931" lon="12.3815245"><ele>-1.0</ele><time>2026-04-18T16:55:40.516Z</time></trkpt><trkpt lat="45.5779416" lon="12.3813699"><ele>-1.0</ele><time>2026-04-18T16:55:42.533Z</time></trkpt><trkpt lat="45.5779367" lon="12.3812007"><ele>-0.5</ele><time>2026-04-18T16:55:44.53Z</time></trkpt><trkpt lat="45.5779156" lon="12.381022"><ele>0.0</ele><time>2026-04-18T16:55:46.529Z</time></trkpt><trkpt lat="45.5778887" lon="12.3808629"><ele>0.5</ele><time>2026-04-18T16:55:48.535Z</time></trkpt><trkpt lat="45.5778564" lon="12.3807012"><ele>1.0</ele><time>2026-04-18T16:55:50.522Z</time></trkpt><trkpt lat="45.5778221" lon="12.3805797"><ele>1.6</ele><time>2026-04-18T16:55:52.52Z</time></trkpt><trkpt lat="45.5778043" lon="12.3804381"><ele>2.2</ele><time>2026-04-18T16:55:54.526Z</time></trkpt><trkpt lat="45.5777857" lon="12.3802745"><ele>2.8000000000000003</ele><time>2026-04-18T16:55:56.526Z</time></trkpt><trkpt lat="45.5777631" lon="12.3801075"><ele>3.4000000000000004</ele><time>2026-04-18T16:55:58.529Z</time></trkpt><trkpt lat="45.5777517" lon="12.3799595"><ele>4.0</ele><time>2026-04-18T16:56:00.526Z</time></trkpt><trkpt lat="45.5777348" lon="12.3798116"><ele>3.9999999999999996</ele><time>2026-04-18T16:56:02.514Z</time></trkpt><trkpt lat="45.5777223" lon="12.3796854"><ele>4.0</ele><time>2026-04-18T16:56:04.521Z</time></trkpt><trkpt lat="45.5777203" lon="12.3795741"><ele>4.0</ele><time>2026-04-18T16:56:07.54Z</time></trkpt><trkpt lat="45.5777162" lon="12.3794774"><ele>4.0</ele><time>2026-04-18T16:56:09.529Z</time></trkpt><trkpt lat="45.5777162" lon="12.3793769"><ele>3.9999999999999996</ele><time>2026-04-18T16:56:11.527Z</time></trkpt><trkpt lat="45.5777379" lon="12.3792524"><ele>4.0</ele><time>2026-04-18T16:56:14.515Z</time></trkpt><trkpt lat="45.5777727" lon="12.3791251"><ele>3.6666666666666665</ele><time>2026-04-18T16:56:16.52Z</time></trkpt><trkpt lat="45.577805" lon="12.3789885"><ele>3.333333333333333</ele><time>2026-04-18T16:56:18.518Z</time></trkpt><trkpt lat="45.5778326" lon="12.3788615"><ele>3.0</ele><time>2026-04-18T16:56:20.529Z</time></trkpt><trkpt lat="45.5778635" lon="12.3787392"><ele>2.6666666666666665</ele><time>2026-04-18T16:56:22.516Z</time></trkpt><trkpt lat="45.5778952" lon="12.3786443"><ele>2.333333333333333</ele><time>2026-04-18T16:56:24.529Z</time></trkpt><trkpt lat="45.5779418" lon="12.3785511"><ele>2.0</ele><time>2026-04-18T16:56:26.515Z</time></trkpt><trkpt lat="45.5780231" lon="12.3784594"><ele>1.8333333333333333</ele><time>2026-04-18T16:56:28.53Z</time></trkpt><trkpt lat="45.5781186" lon="12.3783608"><ele>1.6666666666666665</ele><time>2026-04-18T16:56:30.526Z</time></trkpt><trkpt lat="45.5782198" lon="12.3782403"><ele>1.5</ele><time>2026-04-18T16:56:32.519Z</time></trkpt><trkpt lat="45.5782744" lon="12.3781746"><ele>1.3333333333333333</ele><time>2026-04-18T16:56:33.529Z</time></trkpt><trkpt lat="45.5783244" lon="12.3781186"><ele>1.1666666666666665</ele><time>2026-04-18T16:56:34.53Z</time></trkpt><trkpt lat="45.5783758" lon="12.3780631"><ele>1.0</ele><time>2026-04-18T16:56:35.517Z</time></trkpt><trkpt lat="45.5784267" lon="12.3780075"><ele>1.0</ele><time>2026-04-18T16:56:36.526Z</time></trkpt><trkpt lat="45.5785183" lon="12.3779027"><ele>1.0</ele><time>2026-04-18T16:56:38.517Z</time></trkpt><trkpt lat="45.5786031" lon="12.3777998"><ele>1.0</ele><time>2026-04-18T16:56:40.518Z</time></trkpt><trkpt lat="45.5786863" lon="12.3777048"><ele>1.0</ele><time>2026-04-18T16:56:42.525Z</time></trkpt><trkpt lat="45.5787656" lon="12.3776143"><ele>1.0</ele><time>2026-04-18T16:56:44.52Z</time></trkpt><trkpt lat="45.5788517" lon="12.3775219"><ele>1.0</ele><time>2026-04-18T16:56:46.533Z</time></trkpt><trkpt lat="45.5789388" lon="12.3774097"><ele>1.0</ele><time>2026-04-18T16:56:48.514Z</time></trkpt><trkpt lat="45.5790259" lon="12.3772952"><ele>1.0</ele><time>2026-04-18T16:56:50.522Z</time></trkpt><trkpt lat="45.5791009" lon="12.3771589"><ele>1.0</ele><time>2026-04-18T16:56:52.525Z</time></trkpt><trkpt lat="45.5791781" lon="12.3770265"><ele>1.25</ele><time>2026-04-18T16:56:54.526Z</time></trkpt><trkpt lat="45.5792624" lon="12.3768979"><ele>1.5</ele><time>2026-04-18T16:56:56.523Z</time></trkpt><trkpt lat="45.5793411" lon="12.3767733"><ele>1.75</ele><time>2026-04-18T16:56:58.527Z</time></trkpt><trkpt lat="45.5794217" lon="12.3766437"><ele>2.0</ele><time>2026-04-18T16:57:00.525Z</time></trkpt><trkpt lat="45.5795056" lon="12.3765153"><ele>1.9999999999999998</ele><time>2026-04-18T16:57:02.515Z</time></trkpt><trkpt lat="45.5795845" lon="12.3763886"><ele>2.0</ele><time>2026-04-18T16:57:04.519Z</time></trkpt><trkpt lat="45.5796717" lon="12.3762557"><ele>2.0</ele><time>2026-04-18T16:57:06.518Z</time></trkpt><trkpt lat="45.5797212" lon="12.376188"><ele>2.0</ele><time>2026-04-18T16:57:07.519Z</time></trkpt><trkpt lat="45.5797682" lon="12.3761194"><ele>1.9999999999999998</ele><time>2026-04-18T16:57:08.517Z</time></trkpt><trkpt lat="45.5798117" lon="12.3760527"><ele>2.0</ele><time>2026-04-18T16:57:09.537Z</time></trkpt><trkpt lat="45.5798941" lon="12.3759223"><ele>2.0</ele><time>2026-04-18T16:57:11.527Z</time></trkpt><trkpt lat="45.5799743" lon="12.3757947"><ele>2.0</ele><time>2026-04-18T16:57:13.536Z</time></trkpt><trkpt lat="45.5800607" lon="12.3756707"><ele>2.0</ele><time>2026-04-18T16:57:15.522Z</time></trkpt><trkpt lat="45.5801392" lon="12.3755394"><ele>2.0</ele><time>2026-04-18T16:57:17.512Z</time></trkpt><trkpt lat="45.5802132" lon="12.3754125"><ele>2.4000000000000004</ele><time>2026-04-18T16:57:19.525Z</time></trkpt><trkpt lat="45.5802869" lon="12.3753001"><ele>2.8000000000000003</ele><time>2026-04-18T16:57:21.53Z</time></trkpt><trkpt lat="45.5803738" lon="12.3751988"><ele>3.2</ele><time>2026-04-18T16:57:23.534Z</time></trkpt><trkpt lat="45.5804621" lon="12.375095"><ele>3.6</ele><time>2026-04-18T16:57:25.543Z</time></trkpt><trkpt lat="45.580522" lon="12.374957"><ele>4.0</ele><time>2026-04-18T16:57:27.53Z</time></trkpt><trkpt lat="45.5805814" lon="12.37481"><ele>3.25</ele><time>2026-04-18T16:57:29.518Z</time></trkpt><trkpt lat="45.5806453" lon="12.3746688"><ele>2.5</ele><time>2026-04-18T16:57:31.512Z</time></trkpt><trkpt lat="45.5807145" lon="12.3745386"><ele>1.75</ele><time>2026-04-18T16:57:33.533Z</time></trkpt><trkpt lat="45.5807836" lon="12.3744103"><ele>1.0</ele><time>2026-04-18T16:57:35.524Z</time></trkpt><trkpt lat="45.5808367" lon="12.3742776"><ele>0.9999999999999999</ele><time>2026-04-18T16:57:37.532Z</time></trkpt><trkpt lat="45.5808907" lon="12.374156"><ele>1.0</ele><time>2026-04-18T16:57:39.536Z</time></trkpt><trkpt lat="45.5809404" lon="12.3740331"><ele>1.0</ele><time>2026-04-18T16:57:41.518Z</time></trkpt><trkpt lat="45.5809848" lon="12.373924"><ele>1.0</ele><time>2026-04-18T16:57:43.529Z</time></trkpt><trkpt lat="45.5810329" lon="12.3738376"><ele>0.9999999999999999</ele><time>2026-04-18T16:57:46.53Z</time></trkpt><trkpt lat="45.5810869" lon="12.3738997"><ele>1.0</ele><time>2026-04-18T16:57:50.544Z</time></trkpt><trkpt lat="45.5811284" lon="12.3740021"><ele>1.1666666666666665</ele><time>2026-04-18T16:57:54.525Z</time></trkpt><trkpt lat="45.5811929" lon="12.3740737"><ele>1.3333333333333333</ele><time>2026-04-18T16:57:57.52Z</time></trkpt><trkpt lat="45.5812478" lon="12.3741279"><ele>1.5</ele><time>2026-04-18T16:57:59.524Z</time></trkpt><trkpt lat="45.5813065" lon="12.3742048"><ele>1.6666666666666665</ele><time>2026-04-18T16:58:02.523Z</time></trkpt><trkpt lat="45.5813426" lon="12.3742835"><ele>1.8333333333333333</ele><time>2026-04-18T16:58:04.529Z</time></trkpt><trkpt lat="45.5813331" lon="12.3743839"><ele>2.0</ele><time>2026-04-18T16:58:06.526Z</time></trkpt><trkpt lat="45.5812913" lon="12.3744894"><ele>2.0</ele><time>2026-04-18T16:58:08.528Z</time></trkpt><trkpt lat="45.5812428" lon="12.3745748"><ele>1.9999999999999998</ele><time>2026-04-18T16:58:10.517Z</time></trkpt><trkpt lat="45.5811837" lon="12.3746756"><ele>2.0</ele><time>2026-04-18T16:58:12.519Z</time></trkpt><trkpt lat="45.581142" lon="12.3747466"><ele>2.0</ele><time>2026-04-18T16:58:14.517Z</time></trkpt><trkpt lat="45.5811183" lon="12.3748346"><ele>1.9999999999999998</ele><time>2026-04-18T16:58:20.523Z</time></trkpt><trkpt lat="45.5811922" lon="12.374851"><ele>2.0</ele><time>2026-04-18T16:58:24.529Z</time></trkpt><trkpt lat="45.5812401" lon="12.3747887"><ele>2.0</ele><time>2026-04-18T16:58:26.525Z</time></trkpt><trkpt lat="45.5813241" lon="12.3747089"><ele>2.0</ele><time>2026-04-18T16:58:28.539Z</time></trkpt><trkpt lat="45.5814312" lon="12.3746175"><ele>2.0</ele><time>2026-04-18T16:58:30.528Z</time></trkpt><trkpt lat="45.5814827" lon="12.374561"><ele>2.0</ele><time>2026-04-18T16:58:31.521Z</time></trkpt><trkpt lat="45.5815697" lon="12.37445"><ele>2.0</ele><time>2026-04-18T16:58:33.525Z</time></trkpt><trkpt lat="45.5816433" lon="12.3743485"><ele>2.0</ele><time>2026-04-18T16:58:35.535Z</time></trkpt><trkpt lat="45.5816998" lon="12.3742351"><ele>1.9999999999999998</ele><time>2026-04-18T16:58:37.525Z</time></trkpt><trkpt lat="45.5817514" lon="12.3741324"><ele>2.0</ele><time>2026-04-18T16:58:38.542Z</time></trkpt><trkpt lat="45.5817952" lon="12.3740268"><ele>2.0</ele><time>2026-04-18T16:58:40.517Z</time></trkpt><trkpt lat="45.5818327" lon="12.3739384"><ele>2.0</ele><time>2026-04-18T16:58:42.531Z</time></trkpt><trkpt lat="45.5818926" lon="12.373836"><ele>1.9999999999999998</ele><time>2026-04-18T16:58:44.526Z</time></trkpt><trkpt lat="45.5819556" lon="12.373734"><ele>2.0</ele><time>2026-04-18T16:58:46.528Z</time></trkpt><trkpt lat="45.5820175" lon="12.3736282"><ele>2.833333333333333</ele><time>2026-04-18T16:58:48.517Z</time></trkpt><trkpt lat="45.5820767" lon="12.373534"><ele>3.666666666666667</ele><time>2026-04-18T16:58:50.519Z</time></trkpt><trkpt lat="45.5821334" lon="12.3734383"><ele>4.5</ele><time>2026-04-18T16:58:52.511Z</time></trkpt><trkpt lat="45.5821906" lon="12.3733553"><ele>5.333333333333334</ele><time>2026-04-18T16:58:54.519Z</time></trkpt><trkpt lat="45.5822592" lon="12.3732574"><ele>6.166666666666667</ele><time>2026-04-18T16:58:56.516Z</time></trkpt><trkpt lat="45.5823137" lon="12.3731523"><ele>7.0</ele><time>2026-04-18T16:58:58.521Z</time></trkpt><trkpt lat="45.5823764" lon="12.3730286"><ele>5.8</ele><time>2026-04-18T16:59:00.535Z</time></trkpt><trkpt lat="45.5824324" lon="12.372904"><ele>4.6</ele><time>2026-04-18T16:59:02.533Z</time></trkpt><trkpt lat="45.5824757" lon="12.3727681"><ele>3.4</ele><time>2026-04-18T16:59:04.512Z</time></trkpt><trkpt lat="45.5825141" lon="12.3726375"><ele>2.2</ele><time>2026-04-18T16:59:06.514Z</time></trkpt><trkpt lat="45.5825527" lon="12.3724869"><ele>1.0</ele><time>2026-04-18T16:59:08.532Z</time></trkpt><trkpt lat="45.5825834" lon="12.3723441"><ele>1.0</ele><time>2026-04-18T16:59:10.532Z</time></trkpt><trkpt lat="45.582611" lon="12.3722023"><ele>1.0</ele><time>2026-04-18T16:59:12.539Z</time></trkpt><trkpt lat="45.5826464" lon="12.3720821"><ele>1.0</ele><time>2026-04-18T16:59:14.52Z</time></trkpt><trkpt lat="45.5826768" lon="12.3719515"><ele>1.0</ele><time>2026-04-18T16:59:16.513Z</time></trkpt><trkpt lat="45.5827134" lon="12.3718319"><ele>1.0</ele><time>2026-04-18T16:59:18.518Z</time></trkpt><trkpt lat="45.5827331" lon="12.3717139"><ele>1.1666666666666665</ele><time>2026-04-18T16:59:20.528Z</time></trkpt><trkpt lat="45.5827425" lon="12.3715957"><ele>1.3333333333333333</ele><time>2026-04-18T16:59:22.514Z</time></trkpt><trkpt lat="45.5827921" lon="12.371513"><ele>1.5</ele><time>2026-04-18T16:59:24.51Z</time></trkpt><trkpt lat="45.5828519" lon="12.3714417"><ele>1.6666666666666665</ele><time>2026-04-18T16:59:26.52Z</time></trkpt><trkpt lat="45.5829147" lon="12.3713465"><ele>1.8333333333333333</ele><time>2026-04-18T16:59:28.515Z</time></trkpt><trkpt lat="45.5829953" lon="12.3712424"><ele>2.0</ele><time>2026-04-18T16:59:30.527Z</time></trkpt><trkpt lat="45.5830548" lon="12.3711348"><ele>2.2</ele><time>2026-04-18T16:59:32.518Z</time></trkpt><trkpt lat="45.5831293" lon="12.3710136"><ele>2.4000000000000004</ele><time>2026-04-18T16:59:34.525Z</time></trkpt><trkpt lat="45.583203" lon="12.3709131"><ele>2.5999999999999996</ele><time>2026-04-18T16:59:36.512Z</time></trkpt><trkpt lat="45.5832681" lon="12.370818"><ele>2.8</ele><time>2026-04-18T16:59:38.53Z</time></trkpt><trkpt lat="45.5833587" lon="12.3708065"><ele>3.0</ele><time>2026-04-18T16:59:41.516Z</time></trkpt><trkpt lat="45.5834566" lon="12.3708166"><ele>3.0</ele><time>2026-04-18T16:59:44.505Z</time></trkpt><trkpt lat="45.5835736" lon="12.3708447"><ele>3.0</ele><time>2026-04-18T16:59:46.534Z</time></trkpt><trkpt lat="45.5836936" lon="12.3708646"><ele>3.0</ele><time>2026-04-18T16:59:48.543Z</time></trkpt><trkpt lat="45.5837994" lon="12.370865"><ele>3.0</ele><time>2026-04-18T16:59:50.515Z</time></trkpt><trkpt lat="45.5839071" lon="12.3708838"><ele>2.8</ele><time>2026-04-18T16:59:52.518Z</time></trkpt><trkpt lat="45.5840157" lon="12.3709062"><ele>2.5999999999999996</ele><time>2026-04-18T16:59:54.519Z</time></trkpt><trkpt lat="45.5841015" lon="12.3709068"><ele>2.4000000000000004</ele><time>2026-04-18T16:59:56.536Z</time></trkpt><trkpt lat="45.5842121" lon="12.3708935"><ele>2.2</ele><time>2026-04-18T16:59:58.532Z</time></trkpt><trkpt lat="45.5843116" lon="12.3708948"><ele>2.0</ele><time>2026-04-18T17:00:00.525Z</time></trkpt><trkpt lat="45.5844244" lon="12.3708941"><ele>2.333333333333333</ele><time>2026-04-18T17:00:02.526Z</time></trkpt><trkpt lat="45.5845135" lon="12.3708833"><ele>2.6666666666666665</ele><time>2026-04-18T17:00:04.516Z</time></trkpt><trkpt lat="45.5846129" lon="12.3709055"><ele>3.0</ele><time>2026-04-18T17:00:06.516Z</time></trkpt><trkpt lat="45.5846931" lon="12.370914"><ele>3.333333333333333</ele><time>2026-04-18T17:00:08.525Z</time></trkpt><trkpt lat="45.5847209" lon="12.3708106"><ele>3.6666666666666665</ele><time>2026-04-18T17:00:11.521Z</time></trkpt><trkpt lat="45.5846547" lon="12.3707292"><ele>4.0</ele><time>2026-04-18T17:00:15.522Z</time></trkpt><trkpt lat="45.5845939" lon="12.3706929"><ele>4.0</ele><time>2026-04-18T17:00:17.536Z</time></trkpt><trkpt lat="45.5845399" lon="12.3706422"><ele>3.9999999999999996</ele><time>2026-04-18T17:00:19.524Z</time></trkpt><trkpt lat="45.5844843" lon="12.37057"><ele>4.0</ele><time>2026-04-18T17:00:23.548Z</time></trkpt><trkpt lat="45.5845023" lon="12.3704724"><ele>4.0</ele><time>2026-04-18T17:00:27.544Z</time></trkpt><trkpt lat="45.5845219" lon="12.3703675"><ele>3.9999999999999996</ele><time>2026-04-18T17:00:30.511Z</time></trkpt><trkpt lat="45.5845346" lon="12.370273"><ele>4.0</ele><time>2026-04-18T17:00:33.521Z</time></trkpt><trkpt lat="45.5846133" lon="12.3702327"><ele>4.0</ele><time>2026-04-18T17:00:40.518Z</time></trkpt><trkpt lat="45.5847112" lon="12.3702272"><ele>3.8571428571428568</ele><time>2026-04-18T17:00:43.534Z</time></trkpt><trkpt lat="45.5847819" lon="12.3701968"><ele>3.714285714285714</ele><time>2026-04-18T17:00:45.522Z</time></trkpt><trkpt lat="45.5848276" lon="12.3701109"><ele>3.571428571428571</ele><time>2026-04-18T17:00:47.517Z</time></trkpt><trkpt lat="45.5848296" lon="12.3700054"><ele>3.4285714285714284</ele><time>2026-04-18T17:00:50.53Z</time></trkpt><trkpt lat="45.584797" lon="12.3699038"><ele>3.2857142857142856</ele><time>2026-04-18T17:00:53.529Z</time></trkpt><trkpt lat="45.5847497" lon="12.3698309"><ele>3.1428571428571423</ele><time>2026-04-18T17:00:55.536Z</time></trkpt><trkpt lat="45.5846987" lon="12.3697622"><ele>3.0</ele><time>2026-04-18T17:00:57.527Z</time></trkpt><trkpt lat="45.5846431" lon="12.3696656"><ele>2.8333333333333335</ele><time>2026-04-18T17:00:59.519Z</time></trkpt><trkpt lat="45.5846001" lon="12.3695504"><ele>2.6666666666666665</ele><time>2026-04-18T17:01:01.524Z</time></trkpt><trkpt lat="45.5845551" lon="12.3694844"><ele>2.5</ele><time>2026-04-18T17:01:03.517Z</time></trkpt><trkpt lat="45.5844894" lon="12.3694219"><ele>2.333333333333333</ele><time>2026-04-18T17:01:05.518Z</time></trkpt><trkpt lat="45.584425" lon="12.369372"><ele>2.1666666666666665</ele><time>2026-04-18T17:01:07.523Z</time></trkpt><trkpt lat="45.5843623" lon="12.3693217"><ele>2.0</ele><time>2026-04-18T17:01:09.527Z</time></trkpt><trkpt lat="45.5843079" lon="12.369256"><ele>2.333333333333333</ele><time>2026-04-18T17:01:11.532Z</time></trkpt><trkpt lat="45.5842477" lon="12.36918"><ele>2.6666666666666665</ele><time>2026-04-18T17:01:13.534Z</time></trkpt><trkpt lat="45.5841808" lon="12.3691068"><ele>3.0</ele><time>2026-04-18T17:01:15.532Z</time></trkpt><trkpt lat="45.5841418" lon="12.369012"><ele>3.333333333333333</ele><time>2026-04-18T17:01:18.538Z</time></trkpt><trkpt lat="45.5841741" lon="12.3688889"><ele>3.6666666666666665</ele><time>2026-04-18T17:01:21.532Z</time></trkpt><trkpt lat="45.5842019" lon="12.3687302"><ele>4.0</ele><time>2026-04-18T17:01:23.516Z</time></trkpt><trkpt lat="45.5842165" lon="12.3686085"><ele>3.2</ele><time>2026-04-18T17:01:25.518Z</time></trkpt><trkpt lat="45.5842145" lon="12.3684764"><ele>2.4000000000000004</ele><time>2026-04-18T17:01:27.527Z</time></trkpt><trkpt lat="45.5842204" lon="12.3683464"><ele>1.6</ele><time>2026-04-18T17:01:29.53Z</time></trkpt><trkpt lat="45.5842229" lon="12.3682092"><ele>0.8</ele><time>2026-04-18T17:01:31.52Z</time></trkpt><trkpt lat="45.5842198" lon="12.3680487"><ele>0.0</ele><time>2026-04-18T17:01:33.539Z</time></trkpt><trkpt lat="45.5842018" lon="12.3679019"><ele>-0.4</ele><time>2026-04-18T17:01:35.523Z</time></trkpt><trkpt lat="45.5841843" lon="12.3677593"><ele>-0.8</ele><time>2026-04-18T17:01:37.52Z</time></trkpt><trkpt lat="45.5841519" lon="12.3676277"><ele>-1.2000000000000002</ele><time>2026-04-18T17:01:39.514Z</time></trkpt><trkpt lat="45.5841221" lon="12.3674806"><ele>-1.6</ele><time>2026-04-18T17:01:41.533Z</time></trkpt><trkpt lat="45.584088" lon="12.3673286"><ele>-2.0</ele><time>2026-04-18T17:01:43.515Z</time></trkpt><trkpt lat="45.584042" lon="12.3672076"><ele>-1.8333333333333333</ele><time>2026-04-18T17:01:45.518Z</time></trkpt><trkpt lat="45.5840128" lon="12.3670964"><ele>-1.6666666666666665</ele><time>2026-04-18T17:01:47.526Z</time></trkpt><trkpt lat="45.5839856" lon="12.3669861"><ele>-1.5</ele><time>2026-04-18T17:01:49.531Z</time></trkpt><trkpt lat="45.5839587" lon="12.366891"><ele>-1.3333333333333333</ele><time>2026-04-18T17:01:51.522Z</time></trkpt><trkpt lat="45.5839232" lon="12.3667862"><ele>-1.1666666666666665</ele><time>2026-04-18T17:01:53.517Z</time></trkpt><trkpt lat="45.5838858" lon="12.3666862"><ele>-1.0</ele><time>2026-04-18T17:01:55.523Z</time></trkpt><trkpt lat="45.5838529" lon="12.3665908"><ele>-1.0</ele><time>2026-04-18T17:01:57.535Z</time></trkpt><trkpt lat="45.5838211" lon="12.3664826"><ele>-1.0</ele><time>2026-04-18T17:01:59.536Z</time></trkpt><trkpt lat="45.5837845" lon="12.3663647"><ele>-1.0</ele><time>2026-04-18T17:02:01.528Z</time></trkpt><trkpt lat="45.5837531" lon="12.3662575"><ele>-1.0</ele><time>2026-04-18T17:02:03.521Z</time></trkpt><trkpt lat="45.5837197" lon="12.366125"><ele>-1.0</ele><time>2026-04-18T17:02:05.525Z</time></trkpt><trkpt lat="45.5836812" lon="12.3659924"><ele>-1.0</ele><time>2026-04-18T17:02:07.529Z</time></trkpt><trkpt lat="45.583645" lon="12.3658608"><ele>-1.0</ele><time>2026-04-18T17:02:09.522Z</time></trkpt><trkpt lat="45.5836065" lon="12.3657306"><ele>-1.0</ele><time>2026-04-18T17:02:11.521Z</time></trkpt><trkpt lat="45.5835782" lon="12.365599"><ele>-1.0</ele><time>2026-04-18T17:02:13.516Z</time></trkpt><trkpt lat="45.5835429" lon="12.3654801"><ele>-1.0</ele><time>2026-04-18T17:02:15.521Z</time></trkpt><trkpt lat="45.5835006" lon="12.365356"><ele>-0.8</ele><time>2026-04-18T17:02:17.517Z</time></trkpt><trkpt lat="45.5834536" lon="12.3652129"><ele>-0.6000000000000001</ele><time>2026-04-18T17:02:19.522Z</time></trkpt><trkpt lat="45.5834091" lon="12.3650929"><ele>-0.4</ele><time>2026-04-18T17:02:21.547Z</time></trkpt><trkpt lat="45.5833713" lon="12.3649564"><ele>-0.2</ele><time>2026-04-18T17:02:23.534Z</time></trkpt><trkpt lat="45.58334" lon="12.3648343"><ele>0.0</ele><time>2026-04-18T17:02:25.523Z</time></trkpt><trkpt lat="45.5833102" lon="12.3647163"><ele>0.2</ele><time>2026-04-18T17:02:27.514Z</time></trkpt><trkpt lat="45.5832823" lon="12.3646032"><ele>0.4</ele><time>2026-04-18T17:02:29.517Z</time></trkpt><trkpt lat="45.5832568" lon="12.3644862"><ele>0.6000000000000001</ele><time>2026-04-18T17:02:31.516Z</time></trkpt><trkpt lat="45.5832193" lon="12.3643581"><ele>0.8</ele><time>2026-04-18T17:02:33.523Z</time></trkpt><trkpt lat="45.5831805" lon="12.3642325"><ele>1.0</ele><time>2026-04-18T17:02:35.524Z</time></trkpt><trkpt lat="45.583147" lon="12.3640986"><ele>1.0</ele><time>2026-04-18T17:02:37.518Z</time></trkpt><trkpt lat="45.5831029" lon="12.3639677"><ele>1.0</ele><time>2026-04-18T17:02:39.528Z</time></trkpt><trkpt lat="45.5830663" lon="12.3638497"><ele>1.0</ele><time>2026-04-18T17:02:41.521Z</time></trkpt><trkpt lat="45.5830265" lon="12.3637209"><ele>1.0</ele><time>2026-04-18T17:02:43.515Z</time></trkpt><trkpt lat="45.5829827" lon="12.3635933"><ele>1.0</ele><time>2026-04-18T17:02:45.519Z</time></trkpt><trkpt lat="45.5829409" lon="12.3634563"><ele>0.8333333333333333</ele><time>2026-04-18T17:02:47.523Z</time></trkpt><trkpt lat="45.5828963" lon="12.3633294"><ele>0.6666666666666666</ele><time>2026-04-18T17:02:49.531Z</time></trkpt><trkpt lat="45.582858" lon="12.3631987"><ele>0.5</ele><time>2026-04-18T17:02:51.521Z</time></trkpt><trkpt lat="45.582833" lon="12.3630802"><ele>0.3333333333333333</ele><time>2026-04-18T17:02:53.526Z</time></trkpt><trkpt lat="45.5828317" lon="12.362971"><ele>0.16666666666666666</ele><time>2026-04-18T17:02:55.518Z</time></trkpt><trkpt lat="45.5828495" lon="12.3628497"><ele>0.0</ele><time>2026-04-18T17:02:57.525Z</time></trkpt><trkpt lat="45.5828949" lon="12.3627379"><ele>-0.2</ele><time>2026-04-18T17:02:59.533Z</time></trkpt><trkpt lat="45.5829486" lon="12.3626251"><ele>-0.4</ele><time>2026-04-18T17:03:01.526Z</time></trkpt><trkpt lat="45.5830095" lon="12.3625231"><ele>-0.6000000000000001</ele><time>2026-04-18T17:03:03.518Z</time></trkpt><trkpt lat="45.5830696" lon="12.3624083"><ele>-0.8</ele><time>2026-04-18T17:03:05.528Z</time></trkpt><trkpt lat="45.5831256" lon="12.3623033"><ele>-1.0</ele><time>2026-04-18T17:03:07.528Z</time></trkpt><trkpt lat="45.5831837" lon="12.3621927"><ele>-0.4</ele><time>2026-04-18T17:03:09.526Z</time></trkpt><trkpt lat="45.5832462" lon="12.3620833"><ele>0.19999999999999996</ele><time>2026-04-18T17:03:11.518Z</time></trkpt><trkpt lat="45.5833177" lon="12.3619725"><ele>0.8000000000000002</ele><time>2026-04-18T17:03:13.525Z</time></trkpt><trkpt lat="45.5833919" lon="12.3618593"><ele>1.4000000000000001</ele><time>2026-04-18T17:03:15.53Z</time></trkpt><trkpt lat="45.5834549" lon="12.3617526"><ele>2.0</ele><time>2026-04-18T17:03:17.539Z</time></trkpt><trkpt lat="45.5835066" lon="12.3616373"><ele>1.9999999999999998</ele><time>2026-04-18T17:03:19.518Z</time></trkpt><trkpt lat="45.5835584" lon="12.3614967"><ele>2.0</ele><time>2026-04-18T17:03:21.516Z</time></trkpt><trkpt lat="45.5835948" lon="12.3614206"><ele>2.0</ele><time>2026-04-18T17:03:22.514Z</time></trkpt><trkpt lat="45.5836454" lon="12.3612769"><ele>2.0</ele><time>2026-04-18T17:03:24.517Z</time></trkpt><trkpt lat="45.5836882" lon="12.3611977"><ele>1.9999999999999998</ele><time>2026-04-18T17:03:26.531Z</time></trkpt><trkpt lat="45.5837437" lon="12.3611074"><ele>2.0</ele><time>2026-04-18T17:03:28.513Z</time></trkpt><trkpt lat="45.5838158" lon="12.3610431"><ele>2.2</ele><time>2026-04-18T17:03:29.528Z</time></trkpt><trkpt lat="45.583902" lon="12.3609732"><ele>2.4000000000000004</ele><time>2026-04-18T17:03:31.519Z</time></trkpt><trkpt lat="45.5839469" lon="12.3609093"><ele>2.5999999999999996</ele><time>2026-04-18T17:03:32.514Z</time></trkpt><trkpt lat="45.5840112" lon="12.360757"><ele>2.8</ele><time>2026-04-18T17:03:33.521Z</time></trkpt><trkpt lat="45.5841056" lon="12.3607219"><ele>3.0</ele><time>2026-04-18T17:03:35.542Z</time></trkpt><trkpt lat="45.5841748" lon="12.3607102"><ele>3.0</ele><time>2026-04-18T17:03:37.534Z</time></trkpt><trkpt lat="45.5842595" lon="12.3606631"><ele>3.0</ele><time>2026-04-18T17:03:39.514Z</time></trkpt><trkpt lat="45.5843382" lon="12.3606103"><ele>3.0</ele><time>2026-04-18T17:03:41.517Z</time></trkpt><trkpt lat="45.5844026" lon="12.3605596"><ele>3.0</ele><time>2026-04-18T17:03:43.531Z</time></trkpt><trkpt lat="45.5844843" lon="12.3605115"><ele>3.0</ele><time>2026-04-18T17:03:45.519Z</time></trkpt><trkpt lat="45.5845603" lon="12.3604641"><ele>3.0</ele><time>2026-04-18T17:03:47.536Z</time></trkpt><trkpt lat="45.5847016" lon="12.3603783"><ele>2.6</ele><time>2026-04-18T17:03:50.533Z</time></trkpt><trkpt lat="45.5847881" lon="12.3603223"><ele>2.1999999999999997</ele><time>2026-04-18T17:03:52.542Z</time></trkpt><trkpt lat="45.5848662" lon="12.3602685"><ele>1.8</ele><time>2026-04-18T17:03:54.529Z</time></trkpt><trkpt lat="45.5849547" lon="12.3602124"><ele>1.4</ele><time>2026-04-18T17:03:56.525Z</time></trkpt><trkpt lat="45.5850536" lon="12.3601542"><ele>1.0</ele><time>2026-04-18T17:03:58.524Z</time></trkpt><trkpt lat="45.5851525" lon="12.3601036"><ele>1.0</ele><time>2026-04-18T17:04:00.517Z</time></trkpt><trkpt lat="45.5852464" lon="12.3600522"><ele>1.0</ele><time>2026-04-18T17:04:02.518Z</time></trkpt><trkpt lat="45.585335" lon="12.3600012"><ele>1.0</ele><time>2026-04-18T17:04:04.519Z</time></trkpt><trkpt lat="45.5854261" lon="12.359953"><ele>1.0</ele><time>2026-04-18T17:04:06.513Z</time></trkpt><trkpt lat="45.5855241" lon="12.359911"><ele>1.0</ele><time>2026-04-18T17:04:08.542Z</time></trkpt><trkpt lat="45.5856181" lon="12.3598658"><ele>0.8</ele><time>2026-04-18T17:04:10.519Z</time></trkpt><trkpt lat="45.5856981" lon="12.359833"><ele>0.6000000000000001</ele><time>2026-04-18T17:04:12.523Z</time></trkpt><trkpt lat="45.5858002" lon="12.3598074"><ele>0.4</ele><time>2026-04-18T17:04:14.516Z</time></trkpt><trkpt lat="45.5858863" lon="12.3597687"><ele>0.2</ele><time>2026-04-18T17:04:16.523Z</time></trkpt><trkpt lat="45.5859791" lon="12.3597348"><ele>0.0</ele><time>2026-04-18T17:04:18.505Z</time></trkpt><trkpt lat="45.5860729" lon="12.359697"><ele>0.0</ele><time>2026-04-18T17:04:20.514Z</time></trkpt><trkpt lat="45.586171" lon="12.3596611"><ele>0.0</ele><time>2026-04-18T17:04:22.518Z</time></trkpt><trkpt lat="45.5862774" lon="12.3596269"><ele>0.0</ele><time>2026-04-18T17:04:24.521Z</time></trkpt><trkpt lat="45.5863828" lon="12.3595981"><ele>0.0</ele><time>2026-04-18T17:04:26.527Z</time></trkpt><trkpt lat="45.5864794" lon="12.3595609"><ele>0.0</ele><time>2026-04-18T17:04:28.522Z</time></trkpt><trkpt lat="45.5865418" lon="12.3595453"><ele>0.4</ele><time>2026-04-18T17:04:29.534Z</time></trkpt><trkpt lat="45.5866506" lon="12.3595158"><ele>0.8</ele><time>2026-04-18T17:04:31.529Z</time></trkpt><trkpt lat="45.5867595" lon="12.3594849"><ele>1.2000000000000002</ele><time>2026-04-18T17:04:33.522Z</time></trkpt><trkpt lat="45.5868682" lon="12.3594464"><ele>1.6</ele><time>2026-04-18T17:04:35.528Z</time></trkpt><trkpt lat="45.58697" lon="12.3594055"><ele>2.0</ele><time>2026-04-18T17:04:37.523Z</time></trkpt><trkpt lat="45.5870668" lon="12.3593703"><ele>2.2</ele><time>2026-04-18T17:04:39.518Z</time></trkpt><trkpt lat="45.5871643" lon="12.3593291"><ele>2.4000000000000004</ele><time>2026-04-18T17:04:41.53Z</time></trkpt><trkpt lat="45.5872477" lon="12.3592917"><ele>2.5999999999999996</ele><time>2026-04-18T17:04:43.534Z</time></trkpt><trkpt lat="45.587337" lon="12.3592558"><ele>2.8</ele><time>2026-04-18T17:04:45.514Z</time></trkpt><trkpt lat="45.5874439" lon="12.3592187"><ele>3.0</ele><time>2026-04-18T17:04:47.518Z</time></trkpt><trkpt lat="45.5875521" lon="12.359184"><ele>3.0</ele><time>2026-04-18T17:04:49.525Z</time></trkpt><trkpt lat="45.5876684" lon="12.3591497"><ele>3.0</ele><time>2026-04-18T17:04:51.533Z</time></trkpt><trkpt lat="45.5877774" lon="12.3591077"><ele>3.0</ele><time>2026-04-18T17:04:53.522Z</time></trkpt><trkpt lat="45.5878792" lon="12.3590685"><ele>3.0</ele><time>2026-04-18T17:04:55.52Z</time></trkpt><trkpt lat="45.5879779" lon="12.3590261"><ele>3.0</ele><time>2026-04-18T17:04:57.525Z</time></trkpt><trkpt lat="45.5880807" lon="12.35898"><ele>3.2</ele><time>2026-04-18T17:04:59.517Z</time></trkpt><trkpt lat="45.5881793" lon="12.358937"><ele>3.4</ele><time>2026-04-18T17:05:01.535Z</time></trkpt><trkpt lat="45.5882834" lon="12.3589025"><ele>3.6000000000000005</ele><time>2026-04-18T17:05:03.525Z</time></trkpt><trkpt lat="45.5883905" lon="12.3588649"><ele>3.8000000000000003</ele><time>2026-04-18T17:05:05.521Z</time></trkpt><trkpt lat="45.588494" lon="12.3588336"><ele>4.0</ele><time>2026-04-18T17:05:07.522Z</time></trkpt><trkpt lat="45.5885948" lon="12.3588038"><ele>3.8000000000000003</ele><time>2026-04-18T17:05:09.533Z</time></trkpt><trkpt lat="45.5886952" lon="12.3587937"><ele>3.6000000000000005</ele><time>2026-04-18T17:05:11.529Z</time></trkpt><trkpt lat="45.5888001" lon="12.3587973"><ele>3.4</ele><time>2026-04-18T17:05:13.513Z</time></trkpt><trkpt lat="45.5889053" lon="12.3588147"><ele>3.2</ele><time>2026-04-18T17:05:15.527Z</time></trkpt><trkpt lat="45.5890196" lon="12.3588498"><ele>3.0</ele><time>2026-04-18T17:05:17.538Z</time></trkpt><trkpt lat="45.5891208" lon="12.3588684"><ele>3.0</ele><time>2026-04-18T17:05:19.54Z</time></trkpt><trkpt lat="45.5892285" lon="12.3588915"><ele>3.0</ele><time>2026-04-18T17:05:21.518Z</time></trkpt><trkpt lat="45.5893173" lon="12.3589035"><ele>3.0</ele><time>2026-04-18T17:05:23.525Z</time></trkpt><trkpt lat="45.589421" lon="12.3589131"><ele>3.0</ele><time>2026-04-18T17:05:25.534Z</time></trkpt><trkpt lat="45.58951" lon="12.3589003"><ele>3.0</ele><time>2026-04-18T17:05:27.549Z</time></trkpt><trkpt lat="45.5896036" lon="12.3588908"><ele>2.714285714285714</ele><time>2026-04-18T17:05:29.531Z</time></trkpt><trkpt lat="45.5896938" lon="12.3588886"><ele>2.4285714285714284</ele><time>2026-04-18T17:05:31.525Z</time></trkpt><trkpt lat="45.5897595" lon="12.3588847"><ele>2.142857142857143</ele><time>2026-04-18T17:05:33.536Z</time></trkpt><trkpt lat="45.5898166" lon="12.3588162"><ele>1.857142857142857</ele><time>2026-04-18T17:05:36.524Z</time></trkpt><trkpt lat="45.5898721" lon="12.3587704"><ele>1.5714285714285712</ele><time>2026-04-18T17:05:38.53Z</time></trkpt><trkpt lat="45.5899326" lon="12.3587241"><ele>1.2857142857142856</ele><time>2026-04-18T17:05:40.523Z</time></trkpt><trkpt lat="45.5900025" lon="12.3586754"><ele>1.0</ele><time>2026-04-18T17:05:42.513Z</time></trkpt><trkpt lat="45.590071" lon="12.3586157"><ele>1.0</ele><time>2026-04-18T17:05:44.522Z</time></trkpt><trkpt lat="45.5901478" lon="12.35854"><ele>1.0</ele><time>2026-04-18T17:05:46.534Z</time></trkpt><trkpt lat="45.5902346" lon="12.3584552"><ele>1.0</ele><time>2026-04-18T17:05:48.516Z</time></trkpt><trkpt lat="45.5903307" lon="12.3583591"><ele>1.0</ele><time>2026-04-18T17:05:50.512Z</time></trkpt><trkpt lat="45.5904045" lon="12.3582766"><ele>1.0</ele><time>2026-04-18T17:05:52.519Z</time></trkpt><trkpt lat="45.5904674" lon="12.3581895"><ele>1.0</ele><time>2026-04-18T17:05:54.514Z</time></trkpt><trkpt lat="45.5905279" lon="12.358104"><ele>1.0</ele><time>2026-04-18T17:05:56.525Z</time></trkpt><trkpt lat="45.5905919" lon="12.3580118"><ele>1.0</ele><time>2026-04-18T17:05:58.537Z</time></trkpt><trkpt lat="45.5906592" lon="12.3579142"><ele>1.0</ele><time>2026-04-18T17:06:00.524Z</time></trkpt><trkpt lat="45.5907236" lon="12.3578292"><ele>1.0</ele><time>2026-04-18T17:06:02.531Z</time></trkpt><trkpt lat="45.5907917" lon="12.3577377"><ele>1.2000000000000002</ele><time>2026-04-18T17:06:04.511Z</time></trkpt><trkpt lat="45.5908572" lon="12.3576356"><ele>1.4000000000000001</ele><time>2026-04-18T17:06:06.52Z</time></trkpt><trkpt lat="45.5909138" lon="12.3575273"><ele>1.6</ele><time>2026-04-18T17:06:08.525Z</time></trkpt><trkpt lat="45.5909724" lon="12.3574075"><ele>1.8</ele><time>2026-04-18T17:06:10.52Z</time></trkpt><trkpt lat="45.5910054" lon="12.3572954"><ele>2.0</ele><time>2026-04-18T17:06:12.521Z</time></trkpt><trkpt lat="45.5910385" lon="12.3571627"><ele>2.2</ele><time>2026-04-18T17:06:14.52Z</time></trkpt><trkpt lat="45.5910433" lon="12.3570141"><ele>2.4000000000000004</ele><time>2026-04-18T17:06:16.513Z</time></trkpt><trkpt lat="45.5910418" lon="12.356875"><ele>2.5999999999999996</ele><time>2026-04-18T17:06:18.518Z</time></trkpt><trkpt lat="45.591041" lon="12.3567259"><ele>2.8</ele><time>2026-04-18T17:06:20.515Z</time></trkpt><trkpt lat="45.5910491" lon="12.3565941"><ele>3.0</ele><time>2026-04-18T17:06:22.531Z</time></trkpt><trkpt lat="45.5910565" lon="12.3564817"><ele>2.6666666666666665</ele><time>2026-04-18T17:06:24.528Z</time></trkpt><trkpt lat="45.5910466" lon="12.3563593"><ele>2.3333333333333335</ele><time>2026-04-18T17:06:26.53Z</time></trkpt><trkpt lat="45.5910252" lon="12.3562579"><ele>2.0</ele><time>2026-04-18T17:06:28.518Z</time></trkpt><trkpt lat="45.5909707" lon="12.3561312"><ele>1.6666666666666665</ele><time>2026-04-18T17:06:30.522Z</time></trkpt><trkpt lat="45.5909048" lon="12.3560357"><ele>1.3333333333333333</ele><time>2026-04-18T17:06:32.528Z</time></trkpt><trkpt lat="45.5908572" lon="12.3559712"><ele>1.0</ele><time>2026-04-18T17:06:34.524Z</time></trkpt><trkpt lat="45.590789" lon="12.3558991"><ele>0.9999999999999999</ele><time>2026-04-18T17:06:36.53Z</time></trkpt><trkpt lat="45.5907245" lon="12.3558247"><ele>1.0</ele><time>2026-04-18T17:06:38.54Z</time></trkpt><trkpt lat="45.5906577" lon="12.355767"><ele>1.0</ele><time>2026-04-18T17:06:40.529Z</time></trkpt><trkpt lat="45.5905891" lon="12.3557282"><ele>1.0</ele><time>2026-04-18T17:06:42.52Z</time></trkpt><trkpt lat="45.5905099" lon="12.3556795"><ele>0.9999999999999999</ele><time>2026-04-18T17:06:44.519Z</time></trkpt><trkpt lat="45.5904319" lon="12.3556246"><ele>1.0</ele><time>2026-04-18T17:06:46.516Z</time></trkpt><trkpt lat="45.5903453" lon="12.35556"><ele>1.2000000000000002</ele><time>2026-04-18T17:06:48.524Z</time></trkpt><trkpt lat="45.5902608" lon="12.355496"><ele>1.4000000000000001</ele><time>2026-04-18T17:06:50.547Z</time></trkpt><trkpt lat="45.5901701" lon="12.3554361"><ele>1.6</ele><time>2026-04-18T17:06:52.538Z</time></trkpt><trkpt lat="45.5900892" lon="12.3553777"><ele>1.8</ele><time>2026-04-18T17:06:54.527Z</time></trkpt><trkpt lat="45.5900152" lon="12.3553275"><ele>2.0</ele><time>2026-04-18T17:06:56.536Z</time></trkpt><trkpt lat="45.5899189" lon="12.355259"><ele>1.9999999999999998</ele><time>2026-04-18T17:06:58.521Z</time></trkpt><trkpt lat="45.589863" lon="12.3552126"><ele>2.0</ele><time>2026-04-18T17:06:59.523Z</time></trkpt><trkpt lat="45.5898011" lon="12.3551669"><ele>2.0</ele><time>2026-04-18T17:07:00.522Z</time></trkpt><trkpt lat="45.5897067" lon="12.3551106"><ele>2.0</ele><time>2026-04-18T17:07:02.532Z</time></trkpt><trkpt lat="45.5896213" lon="12.3550581"><ele>1.9999999999999998</ele><time>2026-04-18T17:07:04.534Z</time></trkpt><trkpt lat="45.5895361" lon="12.3549999"><ele>2.0</ele><time>2026-04-18T17:07:06.52Z</time></trkpt><trkpt lat="45.5894651" lon="12.3549512"><ele>2.0</ele><time>2026-04-18T17:07:08.522Z</time></trkpt><trkpt lat="45.5893919" lon="12.3548943"><ele>2.0</ele><time>2026-04-18T17:07:10.521Z</time></trkpt><trkpt lat="45.5893277" lon="12.3548541"><ele>2.0</ele><time>2026-04-18T17:07:12.534Z</time></trkpt><trkpt lat="45.5892411" lon="12.3547839"><ele>2.0</ele><time>2026-04-18T17:07:14.529Z</time></trkpt><trkpt lat="45.5891606" lon="12.3546983"><ele>2.0</ele><time>2026-04-18T17:07:16.523Z</time></trkpt><trkpt lat="45.5890851" lon="12.3546121"><ele>2.0</ele><time>2026-04-18T17:07:18.529Z</time></trkpt><trkpt lat="45.5890046" lon="12.3545194"><ele>2.0</ele><time>2026-04-18T17:07:20.519Z</time></trkpt><trkpt lat="45.5889542" lon="12.3544243"><ele>2.0</ele><time>2026-04-18T17:07:22.521Z</time></trkpt><trkpt lat="45.5888903" lon="12.3543129"><ele>2.0</ele><time>2026-04-18T17:07:24.536Z</time></trkpt><trkpt lat="45.5888314" lon="12.3542006"><ele>2.0</ele><time>2026-04-18T17:07:26.525Z</time></trkpt><trkpt lat="45.5887771" lon="12.3540817"><ele>2.0</ele><time>2026-04-18T17:07:28.53Z</time></trkpt><trkpt lat="45.5887163" lon="12.3539638"><ele>2.0</ele><time>2026-04-18T17:07:30.533Z</time></trkpt><trkpt lat="45.5886769" lon="12.3538495"><ele>2.0</ele><time>2026-04-18T17:07:32.523Z</time></trkpt><trkpt lat="45.5886358" lon="12.3537053"><ele>2.0</ele><time>2026-04-18T17:07:34.525Z</time></trkpt><trkpt lat="45.5886067" lon="12.3535761"><ele>2.0</ele><time>2026-04-18T17:07:36.522Z</time></trkpt><trkpt lat="45.5885817" lon="12.3534901"><ele>2.0</ele><time>2026-04-18T17:07:37.526Z</time></trkpt><trkpt lat="45.5885365" lon="12.3533472"><ele>2.0</ele><time>2026-04-18T17:07:39.525Z</time></trkpt><trkpt lat="45.5884989" lon="12.3532195"><ele>2.0</ele><time>2026-04-18T17:07:41.535Z</time></trkpt><trkpt lat="45.588471" lon="12.353114"><ele>2.0</ele><time>2026-04-18T17:07:43.529Z</time></trkpt><trkpt lat="45.5884412" lon="12.3530022"><ele>2.0</ele><time>2026-04-18T17:07:45.54Z</time></trkpt><trkpt lat="45.588406" lon="12.3528753"><ele>1.9999999999999998</ele><time>2026-04-18T17:07:47.517Z</time></trkpt><trkpt lat="45.5883754" lon="12.3527556"><ele>2.0</ele><time>2026-04-18T17:07:49.521Z</time></trkpt><trkpt lat="45.588343" lon="12.3526485"><ele>2.0</ele><time>2026-04-18T17:07:51.529Z</time></trkpt><trkpt lat="45.5883075" lon="12.3525448"><ele>2.0</ele><time>2026-04-18T17:07:53.526Z</time></trkpt><trkpt lat="45.5882771" lon="12.3524208"><ele>1.9999999999999998</ele><time>2026-04-18T17:07:55.537Z</time></trkpt><trkpt lat="45.5882652" lon="12.3523114"><ele>2.0</ele><time>2026-04-18T17:07:57.527Z</time></trkpt><trkpt lat="45.5882657" lon="12.3521812"><ele>1.9999999999999998</ele><time>2026-04-18T17:08:00.516Z</time></trkpt><trkpt lat="45.5883062" lon="12.3521031"><ele>2.0</ele><time>2026-04-18T17:08:02.523Z</time></trkpt><trkpt lat="45.5883551" lon="12.3520226"><ele>2.0</ele><time>2026-04-18T17:08:04.52Z</time></trkpt><trkpt lat="45.5884191" lon="12.351963"><ele>2.0</ele><time>2026-04-18T17:08:06.526Z</time></trkpt><trkpt lat="45.5884905" lon="12.3519024"><ele>1.9999999999999998</ele><time>2026-04-18T17:08:08.521Z</time></trkpt><trkpt lat="45.5885568" lon="12.3518592"><ele>2.0</ele><time>2026-04-18T17:08:10.514Z</time></trkpt><trkpt lat="45.588637" lon="12.3518078"><ele>2.2</ele><time>2026-04-18T17:08:13.512Z</time></trkpt><trkpt lat="45.5887161" lon="12.3517559"><ele>2.4000000000000004</ele><time>2026-04-18T17:08:16.52Z</time></trkpt><trkpt lat="45.5888049" lon="12.3516991"><ele>2.5999999999999996</ele><time>2026-04-18T17:08:19.526Z</time></trkpt><trkpt lat="45.5888804" lon="12.3516404"><ele>2.8</ele><time>2026-04-18T17:08:22.515Z</time></trkpt><trkpt lat="45.5889489" lon="12.351589"><ele>3.0</ele><time>2026-04-18T17:08:24.519Z</time></trkpt><trkpt lat="45.5890514" lon="12.3515276"><ele>2.9999999999999996</ele><time>2026-04-18T17:08:26.527Z</time></trkpt><trkpt lat="45.5891259" lon="12.351506"><ele>3.0</ele><time>2026-04-18T17:08:27.51Z</time></trkpt><trkpt lat="45.5892118" lon="12.3514627"><ele>3.0</ele><time>2026-04-18T17:08:29.511Z</time></trkpt><trkpt lat="45.5892694" lon="12.3514231"><ele>3.0</ele><time>2026-04-18T17:08:31.525Z</time></trkpt><trkpt lat="45.5893301" lon="12.3513726"><ele>3.0</ele><time>2026-04-18T17:08:34.525Z</time></trkpt><trkpt lat="45.5893938" lon="12.3513345"><ele>2.9999999999999996</ele><time>2026-04-18T17:08:36.516Z</time></trkpt><trkpt lat="45.5894535" lon="12.3512947"><ele>3.0</ele><time>2026-04-18T17:08:38.522Z</time></trkpt><trkpt lat="45.5895425" lon="12.3512626"><ele>2.8333333333333335</ele><time>2026-04-18T17:08:41.526Z</time></trkpt><trkpt lat="45.5896455" lon="12.3512458"><ele>2.6666666666666665</ele><time>2026-04-18T17:08:44.521Z</time></trkpt><trkpt lat="45.589714" lon="12.3512498"><ele>2.5</ele><time>2026-04-18T17:08:46.528Z</time></trkpt><trkpt lat="45.5897881" lon="12.3512612"><ele>2.333333333333333</ele><time>2026-04-18T17:08:48.528Z</time></trkpt><trkpt lat="45.5898685" lon="12.3512704"><ele>2.1666666666666665</ele><time>2026-04-18T17:08:50.521Z</time></trkpt><trkpt lat="45.5899509" lon="12.3512879"><ele>2.0</ele><time>2026-04-18T17:08:53.523Z</time></trkpt><trkpt lat="45.5900192" lon="12.3513005"><ele>1.9999999999999998</ele><time>2026-04-18T17:08:55.522Z</time></trkpt><trkpt lat="45.5900991" lon="12.3513322"><ele>2.0</ele><time>2026-04-18T17:08:58.511Z</time></trkpt><trkpt lat="45.590166" lon="12.3513601"><ele>2.0</ele><time>2026-04-18T17:09:00.519Z</time></trkpt><trkpt lat="45.5902384" lon="12.3513847"><ele>2.0</ele><time>2026-04-18T17:09:02.522Z</time></trkpt><trkpt lat="45.5903596" lon="12.35143"><ele>1.9999999999999998</ele><time>2026-04-18T17:09:04.505Z</time></trkpt><trkpt lat="45.5904239" lon="12.3514283"><ele>2.0</ele><time>2026-04-18T17:09:06.522Z</time></trkpt><trkpt lat="45.5904976" lon="12.3514268"><ele>1.9999999999999998</ele><time>2026-04-18T17:09:08.52Z</time></trkpt><trkpt lat="45.5905757" lon="12.3514323"><ele>2.0</ele><time>2026-04-18T17:09:10.514Z</time></trkpt><trkpt lat="45.5906663" lon="12.3514298"><ele>2.0</ele><time>2026-04-18T17:09:12.519Z</time></trkpt><trkpt lat="45.5907506" lon="12.3514173"><ele>2.0</ele><time>2026-04-18T17:09:14.518Z</time></trkpt><trkpt lat="45.5908469" lon="12.3513927"><ele>1.9999999999999998</ele><time>2026-04-18T17:09:17.521Z</time></trkpt><trkpt lat="45.5909139" lon="12.35136"><ele>2.0</ele><time>2026-04-18T17:09:19.523Z</time></trkpt><trkpt lat="45.5909738" lon="12.3513299"><ele>1.9999999999999998</ele><time>2026-04-18T17:09:21.52Z</time></trkpt><trkpt lat="45.5910457" lon="12.3513178"><ele>2.0</ele><time>2026-04-18T17:09:22.513Z</time></trkpt><trkpt lat="45.5911517" lon="12.3512835"><ele>2.0</ele><time>2026-04-18T17:09:24.514Z</time></trkpt><trkpt lat="45.5912503" lon="12.3512567"><ele>2.0</ele><time>2026-04-18T17:09:26.534Z</time></trkpt><trkpt lat="45.5913277" lon="12.3512323"><ele>1.9999999999999998</ele><time>2026-04-18T17:09:28.525Z</time></trkpt><trkpt lat="45.5914033" lon="12.3512003"><ele>2.0</ele><time>2026-04-18T17:09:30.52Z</time></trkpt><trkpt lat="45.5914713" lon="12.3511575"><ele>2.0</ele><time>2026-04-18T17:09:33.526Z</time></trkpt><trkpt lat="45.5915597" lon="12.3511147"><ele>2.0</ele><time>2026-04-18T17:09:35.534Z</time></trkpt><trkpt lat="45.5916452" lon="12.3510668"><ele>2.0</ele><time>2026-04-18T17:09:37.531Z</time></trkpt><trkpt lat="45.5917185" lon="12.3510406"><ele>2.0</ele><time>2026-04-18T17:09:38.518Z</time></trkpt><trkpt lat="45.5918174" lon="12.3509879"><ele>2.0</ele><time>2026-04-18T17:09:40.523Z</time></trkpt><trkpt lat="45.591897" lon="12.3509452"><ele>1.9999999999999998</ele><time>2026-04-18T17:09:42.516Z</time></trkpt><trkpt lat="45.5919847" lon="12.3509038"><ele>2.0</ele><time>2026-04-18T17:09:44.52Z</time></trkpt><trkpt lat="45.5920496" lon="12.3508765"><ele>2.0</ele><time>2026-04-18T17:09:45.537Z</time></trkpt><trkpt lat="45.5921448" lon="12.3508187"><ele>2.0</ele><time>2026-04-18T17:09:47.515Z</time></trkpt><trkpt lat="45.5922182" lon="12.3507726"><ele>1.9999999999999998</ele><time>2026-04-18T17:09:49.506Z</time></trkpt><trkpt lat="45.5922912" lon="12.3507179"><ele>2.0</ele><time>2026-04-18T17:09:51.52Z</time></trkpt><trkpt lat="45.592383" lon="12.3506531"><ele>1.8333333333333333</ele><time>2026-04-18T17:09:53.527Z</time></trkpt><trkpt lat="45.5924673" lon="12.3505931"><ele>1.6666666666666665</ele><time>2026-04-18T17:09:55.533Z</time></trkpt><trkpt lat="45.5925527" lon="12.3505338"><ele>1.5</ele><time>2026-04-18T17:09:57.512Z</time></trkpt><trkpt lat="45.5926245" lon="12.350474"><ele>1.3333333333333333</ele><time>2026-04-18T17:09:59.529Z</time></trkpt><trkpt lat="45.5926918" lon="12.3504143"><ele>1.1666666666666665</ele><time>2026-04-18T17:10:01.53Z</time></trkpt><trkpt lat="45.5927682" lon="12.3503499"><ele>1.0</ele><time>2026-04-18T17:10:03.516Z</time></trkpt><trkpt lat="45.5928438" lon="12.3502835"><ele>1.6</ele><time>2026-04-18T17:10:05.539Z</time></trkpt><trkpt lat="45.5929169" lon="12.3502193"><ele>2.2</ele><time>2026-04-18T17:10:07.526Z</time></trkpt><trkpt lat="45.593002" lon="12.3501507"><ele>2.8000000000000003</ele><time>2026-04-18T17:10:09.538Z</time></trkpt><trkpt lat="45.5930854" lon="12.3500725"><ele>3.4000000000000004</ele><time>2026-04-18T17:10:11.525Z</time></trkpt><trkpt lat="45.5931561" lon="12.3500064"><ele>4.0</ele><time>2026-04-18T17:10:13.521Z</time></trkpt><trkpt lat="45.5932299" lon="12.3499419"><ele>3.9999999999999996</ele><time>2026-04-18T17:10:15.517Z</time></trkpt><trkpt lat="45.5932942" lon="12.3498522"><ele>4.0</ele><time>2026-04-18T17:10:17.53Z</time></trkpt><trkpt lat="45.5933461" lon="12.349765"><ele>4.0</ele><time>2026-04-18T17:10:19.512Z</time></trkpt><trkpt lat="45.5933921" lon="12.3496806"><ele>4.0</ele><time>2026-04-18T17:10:21.531Z</time></trkpt><trkpt lat="45.5934282" lon="12.349584"><ele>3.9999999999999996</ele><time>2026-04-18T17:10:23.528Z</time></trkpt><trkpt lat="45.5934547" lon="12.3494518"><ele>4.0</ele><time>2026-04-18T17:10:25.52Z</time></trkpt><trkpt lat="45.5934632" lon="12.3492916"><ele>4.0</ele><time>2026-04-18T17:10:27.534Z</time></trkpt><trkpt lat="45.5934635" lon="12.3491542"><ele>4.0</ele><time>2026-04-18T17:10:29.522Z</time></trkpt><trkpt lat="45.5934427" lon="12.3490041"><ele>4.0</ele><time>2026-04-18T17:10:31.529Z</time></trkpt><trkpt lat="45.5934132" lon="12.348894"><ele>4.0</ele><time>2026-04-18T17:10:33.534Z</time></trkpt><trkpt lat="45.5933778" lon="12.3487814"><ele>4.0</ele><time>2026-04-18T17:10:35.513Z</time></trkpt><trkpt lat="45.5933346" lon="12.3486775"><ele>3.8000000000000003</ele><time>2026-04-18T17:10:37.539Z</time></trkpt><trkpt lat="45.59329" lon="12.3485663"><ele>3.6000000000000005</ele><time>2026-04-18T17:10:39.519Z</time></trkpt><trkpt lat="45.5932454" lon="12.3484351"><ele>3.4</ele><time>2026-04-18T17:10:41.528Z</time></trkpt><trkpt lat="45.5932031" lon="12.3482977"><ele>3.2</ele><time>2026-04-18T17:10:43.53Z</time></trkpt><trkpt lat="45.5931636" lon="12.348169"><ele>3.0</ele><time>2026-04-18T17:10:45.502Z</time></trkpt><trkpt lat="45.5931243" lon="12.3480134"><ele>2.6</ele><time>2026-04-18T17:10:47.52Z</time></trkpt><trkpt lat="45.59311" lon="12.3478748"><ele>2.1999999999999997</ele><time>2026-04-18T17:10:49.521Z</time></trkpt><trkpt lat="45.5931012" lon="12.3477383"><ele>1.8</ele><time>2026-04-18T17:10:51.529Z</time></trkpt><trkpt lat="45.5930932" lon="12.3476126"><ele>1.4</ele><time>2026-04-18T17:10:53.524Z</time></trkpt><trkpt lat="45.5930866" lon="12.347485"><ele>1.0</ele><time>2026-04-18T17:10:55.545Z</time></trkpt><trkpt lat="45.5930826" lon="12.3473501"><ele>1.0</ele><time>2026-04-18T17:10:57.519Z</time></trkpt><trkpt lat="45.5930813" lon="12.3472257"><ele>1.0</ele><time>2026-04-18T17:10:59.522Z</time></trkpt><trkpt lat="45.5930869" lon="12.3470806"><ele>1.0</ele><time>2026-04-18T17:11:01.514Z</time></trkpt><trkpt lat="45.5930854" lon="12.3469276"><ele>1.0</ele><time>2026-04-18T17:11:03.524Z</time></trkpt><trkpt lat="45.5930796" lon="12.3467787"><ele>1.0</ele><time>2026-04-18T17:11:05.516Z</time></trkpt><trkpt lat="45.5930674" lon="12.34662"><ele>1.2000000000000002</ele><time>2026-04-18T17:11:07.524Z</time></trkpt><trkpt lat="45.5930514" lon="12.346474"><ele>1.4000000000000001</ele><time>2026-04-18T17:11:09.526Z</time></trkpt><trkpt lat="45.5930429" lon="12.346331"><ele>1.6</ele><time>2026-04-18T17:11:11.532Z</time></trkpt><trkpt lat="45.5930282" lon="12.3461801"><ele>1.8</ele><time>2026-04-18T17:11:13.525Z</time></trkpt><trkpt lat="45.5930184" lon="12.3460281"><ele>2.0</ele><time>2026-04-18T17:11:15.515Z</time></trkpt><trkpt lat="45.593007" lon="12.3458856"><ele>2.2</ele><time>2026-04-18T17:11:17.525Z</time></trkpt><trkpt lat="45.5929807" lon="12.345758"><ele>2.4000000000000004</ele><time>2026-04-18T17:11:19.526Z</time></trkpt><trkpt lat="45.5929287" lon="12.3456354"><ele>2.5999999999999996</ele><time>2026-04-18T17:11:21.537Z</time></trkpt><trkpt lat="45.5928707" lon="12.3455266"><ele>2.8</ele><time>2026-04-18T17:11:23.52Z</time></trkpt><trkpt lat="45.5928066" lon="12.3453998"><ele>3.0</ele><time>2026-04-18T17:11:25.533Z</time></trkpt><trkpt lat="45.5927499" lon="12.3452874"><ele>3.0</ele><time>2026-04-18T17:11:27.512Z</time></trkpt><trkpt lat="45.5926863" lon="12.3451667"><ele>3.0</ele><time>2026-04-18T17:11:29.523Z</time></trkpt><trkpt lat="45.5926247" lon="12.3450492"><ele>3.0</ele><time>2026-04-18T17:11:31.535Z</time></trkpt><trkpt lat="45.5925694" lon="12.3449351"><ele>3.0</ele><time>2026-04-18T17:11:33.524Z</time></trkpt><trkpt lat="45.5925103" lon="12.3448187"><ele>3.0</ele><time>2026-04-18T17:11:35.522Z</time></trkpt><trkpt lat="45.5924481" lon="12.3446961"><ele>2.8</ele><time>2026-04-18T17:11:37.507Z</time></trkpt><trkpt lat="45.5923861" lon="12.3445763"><ele>2.5999999999999996</ele><time>2026-04-18T17:11:39.521Z</time></trkpt><trkpt lat="45.5923343" lon="12.344457"><ele>2.4000000000000004</ele><time>2026-04-18T17:11:41.519Z</time></trkpt><trkpt lat="45.5922798" lon="12.3443449"><ele>2.2</ele><time>2026-04-18T17:11:43.523Z</time></trkpt><trkpt lat="45.5922243" lon="12.3442425"><ele>2.0</ele><time>2026-04-18T17:11:45.54Z</time></trkpt><trkpt lat="45.5921694" lon="12.3441334"><ele>2.0</ele><time>2026-04-18T17:11:47.514Z</time></trkpt><trkpt lat="45.5921111" lon="12.3440278"><ele>2.0</ele><time>2026-04-18T17:11:49.522Z</time></trkpt><trkpt lat="45.5920496" lon="12.3439197"><ele>2.0</ele><time>2026-04-18T17:11:51.52Z</time></trkpt><trkpt lat="45.5920012" lon="12.3438276"><ele>2.0</ele><time>2026-04-18T17:11:53.53Z</time></trkpt><trkpt lat="45.5919456" lon="12.3437021"><ele>2.0</ele><time>2026-04-18T17:11:55.514Z</time></trkpt><trkpt lat="45.5919005" lon="12.3435594"><ele>2.0</ele><time>2026-04-18T17:11:57.529Z</time></trkpt><trkpt lat="45.5918738" lon="12.3434049"><ele>2.0</ele><time>2026-04-18T17:11:59.534Z</time></trkpt><trkpt lat="45.5918675" lon="12.3432533"><ele>2.0</ele><time>2026-04-18T17:12:01.553Z</time></trkpt><trkpt lat="45.5918734" lon="12.3431632"><ele>2.0</ele><time>2026-04-18T17:12:02.521Z</time></trkpt><trkpt lat="45.5918834" lon="12.3430011"><ele>2.0</ele><time>2026-04-18T17:12:04.526Z</time></trkpt><trkpt lat="45.5918998" lon="12.3428619"><ele>2.25</ele><time>2026-04-18T17:12:06.534Z</time></trkpt><trkpt lat="45.5919543" lon="12.3427069"><ele>2.5</ele><time>2026-04-18T17:12:08.53Z</time></trkpt><trkpt lat="45.5920169" lon="12.3425933"><ele>2.75</ele><time>2026-04-18T17:12:10.522Z</time></trkpt><trkpt lat="45.5920956" lon="12.3424855"><ele>3.0</ele><time>2026-04-18T17:12:12.514Z</time></trkpt><trkpt lat="45.5921887" lon="12.3423746"><ele>2.8</ele><time>2026-04-18T17:12:14.522Z</time></trkpt><trkpt lat="45.5922423" lon="12.3423204"><ele>2.5999999999999996</ele><time>2026-04-18T17:12:15.519Z</time></trkpt><trkpt lat="45.5923331" lon="12.3422118"><ele>2.4000000000000004</ele><time>2026-04-18T17:12:17.531Z</time></trkpt><trkpt lat="45.5924204" lon="12.3421182"><ele>2.2</ele><time>2026-04-18T17:12:19.515Z</time></trkpt><trkpt lat="45.5925024" lon="12.3420308"><ele>2.0</ele><time>2026-04-18T17:12:21.538Z</time></trkpt><trkpt lat="45.5925854" lon="12.3419359"><ele>2.0</ele><time>2026-04-18T17:12:23.514Z</time></trkpt><trkpt lat="45.592668" lon="12.3418483"><ele>2.0</ele><time>2026-04-18T17:12:25.525Z</time></trkpt><trkpt lat="45.5927449" lon="12.3417794"><ele>2.0</ele><time>2026-04-18T17:12:27.526Z</time></trkpt><trkpt lat="45.592827" lon="12.3417145"><ele>2.0</ele><time>2026-04-18T17:12:29.545Z</time></trkpt><trkpt lat="45.5929276" lon="12.3416463"><ele>2.0</ele><time>2026-04-18T17:12:31.52Z</time></trkpt><trkpt lat="45.5930306" lon="12.3415952"><ele>1.8</ele><time>2026-04-18T17:12:33.514Z</time></trkpt><trkpt lat="45.5931316" lon="12.3415775"><ele>1.6</ele><time>2026-04-18T17:12:35.51Z</time></trkpt><trkpt lat="45.5932229" lon="12.3416054"><ele>1.4000000000000001</ele><time>2026-04-18T17:12:37.54Z</time></trkpt><trkpt lat="45.593296" lon="12.3416634"><ele>1.2000000000000002</ele><time>2026-04-18T17:12:39.517Z</time></trkpt><trkpt lat="45.5933821" lon="12.3417528"><ele>1.0</ele><time>2026-04-18T17:12:41.522Z</time></trkpt><trkpt lat="45.5934688" lon="12.341846"><ele>1.0</ele><time>2026-04-18T17:12:43.524Z</time></trkpt><trkpt lat="45.5935438" lon="12.3419289"><ele>1.0</ele><time>2026-04-18T17:12:45.537Z</time></trkpt><trkpt lat="45.5936245" lon="12.3420047"><ele>1.0</ele><time>2026-04-18T17:12:47.523Z</time></trkpt><trkpt lat="45.5936982" lon="12.3421022"><ele>1.0</ele><time>2026-04-18T17:12:49.518Z</time></trkpt><trkpt lat="45.5937845" lon="12.3422117"><ele>1.0</ele><time>2026-04-18T17:12:51.529Z</time></trkpt><trkpt lat="45.5938623" lon="12.3423112"><ele>1.6</ele><time>2026-04-18T17:12:53.525Z</time></trkpt><trkpt lat="45.5939093" lon="12.3423729"><ele>2.2</ele><time>2026-04-18T17:12:54.522Z</time></trkpt><trkpt lat="45.5939938" lon="12.3424925"><ele>2.8000000000000003</ele><time>2026-04-18T17:12:56.518Z</time></trkpt><trkpt lat="45.5940576" lon="12.342604"><ele>3.4000000000000004</ele><time>2026-04-18T17:12:58.518Z</time></trkpt><trkpt lat="45.594117" lon="12.3427321"><ele>4.0</ele><time>2026-04-18T17:13:00.52Z</time></trkpt><trkpt lat="45.5941729" lon="12.342853"><ele>4.0</ele><time>2026-04-18T17:13:02.517Z</time></trkpt><trkpt lat="45.5942061" lon="12.3429341"><ele>4.0</ele><time>2026-04-18T17:13:03.532Z</time></trkpt><trkpt lat="45.5942693" lon="12.3430698"><ele>4.0</ele><time>2026-04-18T17:13:05.535Z</time></trkpt><trkpt lat="45.5943344" lon="12.3431917"><ele>4.0</ele><time>2026-04-18T17:13:07.526Z</time></trkpt><trkpt lat="45.5944127" lon="12.3433168"><ele>4.0</ele><time>2026-04-18T17:13:09.52Z</time></trkpt><trkpt lat="45.5944856" lon="12.3434328"><ele>3.8000000000000003</ele><time>2026-04-18T17:13:11.539Z</time></trkpt><trkpt lat="45.5945585" lon="12.3435267"><ele>3.6000000000000005</ele><time>2026-04-18T17:13:13.53Z</time></trkpt><trkpt lat="45.5946566" lon="12.3436009"><ele>3.4</ele><time>2026-04-18T17:13:15.543Z</time></trkpt><trkpt lat="45.5947608" lon="12.3436585"><ele>3.2</ele><time>2026-04-18T17:13:17.536Z</time></trkpt><trkpt lat="45.5948529" lon="12.3437016"><ele>3.0</ele><time>2026-04-18T17:13:19.527Z</time></trkpt><trkpt lat="45.5949417" lon="12.3437269"><ele>3.0</ele><time>2026-04-18T17:13:21.535Z</time></trkpt><trkpt lat="45.5950349" lon="12.3437242"><ele>3.0</ele><time>2026-04-18T17:13:23.533Z</time></trkpt><trkpt lat="45.5951366" lon="12.3437141"><ele>3.0</ele><time>2026-04-18T17:13:25.533Z</time></trkpt><trkpt lat="45.595225" lon="12.3436969"><ele>3.0</ele><time>2026-04-18T17:13:27.531Z</time></trkpt><trkpt lat="45.5953164" lon="12.3436681"><ele>3.0</ele><time>2026-04-18T17:13:29.529Z</time></trkpt><trkpt lat="45.5954034" lon="12.3436315"><ele>2.8</ele><time>2026-04-18T17:13:31.516Z</time></trkpt><trkpt lat="45.5954803" lon="12.3435908"><ele>2.5999999999999996</ele><time>2026-04-18T17:13:33.523Z</time></trkpt><trkpt lat="45.5955682" lon="12.3435176"><ele>2.4000000000000004</ele><time>2026-04-18T17:13:35.525Z</time></trkpt><trkpt lat="45.5956374" lon="12.3434797"><ele>2.2</ele><time>2026-04-18T17:13:36.529Z</time></trkpt><trkpt lat="45.5957262" lon="12.3434064"><ele>2.0</ele><time>2026-04-18T17:13:38.525Z</time></trkpt><trkpt lat="45.5958165" lon="12.3433249"><ele>2.0</ele><time>2026-04-18T17:13:40.518Z</time></trkpt><trkpt lat="45.5959126" lon="12.3432438"><ele>2.0</ele><time>2026-04-18T17:13:42.509Z</time></trkpt><trkpt lat="45.5959919" lon="12.3431758"><ele>2.0</ele><time>2026-04-18T17:13:44.514Z</time></trkpt><trkpt lat="45.5960938" lon="12.3430887"><ele>2.0</ele><time>2026-04-18T17:13:46.526Z</time></trkpt><trkpt lat="45.5961534" lon="12.3430381"><ele>2.0</ele><time>2026-04-18T17:13:47.525Z</time></trkpt><trkpt lat="45.5962154" lon="12.3429885"><ele>1.6</ele><time>2026-04-18T17:13:48.524Z</time></trkpt><trkpt lat="45.5963123" lon="12.3428966"><ele>1.2000000000000002</ele><time>2026-04-18T17:13:50.514Z</time></trkpt><trkpt lat="45.5964022" lon="12.3428018"><ele>0.8</ele><time>2026-04-18T17:13:52.523Z</time></trkpt><trkpt lat="45.5964951" lon="12.3427135"><ele>0.4</ele><time>2026-04-18T17:13:54.535Z</time></trkpt><trkpt lat="45.596578" lon="12.3426345"><ele>0.0</ele><time>2026-04-18T17:13:56.514Z</time></trkpt><trkpt lat="45.5966776" lon="12.3425475"><ele>0.0</ele><time>2026-04-18T17:13:58.515Z</time></trkpt><trkpt lat="45.5967508" lon="12.3424734"><ele>0.0</ele><time>2026-04-18T17:14:00.522Z</time></trkpt><trkpt lat="45.5968303" lon="12.3424143"><ele>0.0</ele><time>2026-04-18T17:14:02.519Z</time></trkpt><trkpt lat="45.5969237" lon="12.3423511"><ele>0.0</ele><time>2026-04-18T17:14:04.528Z</time></trkpt><trkpt lat="45.5970258" lon="12.3422967"><ele>0.0</ele><time>2026-04-18T17:14:06.522Z</time></trkpt><trkpt lat="45.5971348" lon="12.3422591"><ele>0.16666666666666666</ele><time>2026-04-18T17:14:08.524Z</time></trkpt><trkpt lat="45.5972304" lon="12.3422365"><ele>0.3333333333333333</ele><time>2026-04-18T17:14:10.518Z</time></trkpt><trkpt lat="45.5973395" lon="12.3422137"><ele>0.5</ele><time>2026-04-18T17:14:12.541Z</time></trkpt><trkpt lat="45.5974457" lon="12.3422017"><ele>0.6666666666666666</ele><time>2026-04-18T17:14:14.517Z</time></trkpt><trkpt lat="45.5975097" lon="12.3422021"><ele>0.8333333333333333</ele><time>2026-04-18T17:14:15.515Z</time></trkpt><trkpt lat="45.597573" lon="12.3422049"><ele>1.0</ele><time>2026-04-18T17:14:16.515Z</time></trkpt><trkpt lat="45.5976911" lon="12.34221"><ele>1.2000000000000002</ele><time>2026-04-18T17:14:18.513Z</time></trkpt><trkpt lat="45.5977906" lon="12.3422323"><ele>1.4000000000000001</ele><time>2026-04-18T17:14:20.52Z</time></trkpt><trkpt lat="45.5979158" lon="12.3422398"><ele>1.6</ele><time>2026-04-18T17:14:22.517Z</time></trkpt><trkpt lat="45.5980134" lon="12.34224"><ele>1.8</ele><time>2026-04-18T17:14:24.52Z</time></trkpt><trkpt lat="45.598125" lon="12.3422452"><ele>2.0</ele><time>2026-04-18T17:14:26.525Z</time></trkpt><trkpt lat="45.5982394" lon="12.3422384"><ele>1.8</ele><time>2026-04-18T17:14:28.519Z</time></trkpt><trkpt lat="45.5983413" lon="12.3422277"><ele>1.6</ele><time>2026-04-18T17:14:30.53Z</time></trkpt><trkpt lat="45.5984496" lon="12.3422141"><ele>1.4000000000000001</ele><time>2026-04-18T17:14:32.545Z</time></trkpt><trkpt lat="45.5985631" lon="12.3421921"><ele>1.2000000000000002</ele><time>2026-04-18T17:14:34.515Z</time></trkpt><trkpt lat="45.5986658" lon="12.3421648"><ele>1.0</ele><time>2026-04-18T17:14:36.519Z</time></trkpt><trkpt lat="45.5987676" lon="12.3421125"><ele>1.0</ele><time>2026-04-18T17:14:38.53Z</time></trkpt><trkpt lat="45.5988602" lon="12.3420233"><ele>1.0</ele><time>2026-04-18T17:14:40.534Z</time></trkpt><trkpt lat="45.5989527" lon="12.3419187"><ele>1.0</ele><time>2026-04-18T17:14:42.523Z</time></trkpt><trkpt lat="45.5990372" lon="12.3418134"><ele>1.0</ele><time>2026-04-18T17:14:44.523Z</time></trkpt><trkpt lat="45.5991005" lon="12.3416754"><ele>0.9999999999999999</ele><time>2026-04-18T17:14:46.504Z</time></trkpt><trkpt lat="45.5991264" lon="12.3415917"><ele>1.0</ele><time>2026-04-18T17:14:47.516Z</time></trkpt><trkpt lat="45.5991576" lon="12.3414422"><ele>1.0</ele><time>2026-04-18T17:14:49.522Z</time></trkpt><trkpt lat="45.5991693" lon="12.341306"><ele>1.0</ele><time>2026-04-18T17:14:51.514Z</time></trkpt><trkpt lat="45.5991629" lon="12.3412123"><ele>0.9999999999999999</ele><time>2026-04-18T17:14:52.518Z</time></trkpt><trkpt lat="45.5991469" lon="12.3410609"><ele>1.0</ele><time>2026-04-18T17:14:54.53Z</time></trkpt><trkpt lat="45.5991118" lon="12.3409089"><ele>1.0</ele><time>2026-04-18T17:14:56.508Z</time></trkpt><trkpt lat="45.5990529" lon="12.3407574"><ele>1.0</ele><time>2026-04-18T17:14:58.523Z</time></trkpt><trkpt lat="45.598989" lon="12.3406593"><ele>1.0</ele><time>2026-04-18T17:15:00.516Z</time></trkpt><trkpt lat="45.5989499" lon="12.3405843"><ele>1.0</ele><time>2026-04-18T17:15:01.521Z</time></trkpt><trkpt lat="45.5988957" lon="12.3404756"><ele>1.0</ele><time>2026-04-18T17:15:03.525Z</time></trkpt><trkpt lat="45.5988386" lon="12.3403431"><ele>1.0</ele><time>2026-04-18T17:15:05.535Z</time></trkpt><trkpt lat="45.5987962" lon="12.3402298"><ele>1.0</ele><time>2026-04-18T17:15:07.523Z</time></trkpt><trkpt lat="45.598737" lon="12.340082"><ele>1.0</ele><time>2026-04-18T17:15:09.522Z</time></trkpt><trkpt lat="45.5986919" lon="12.3399412"><ele>1.0</ele><time>2026-04-18T17:15:11.525Z</time></trkpt><trkpt lat="45.5986449" lon="12.3398073"><ele>1.0</ele><time>2026-04-18T17:15:13.532Z</time></trkpt><trkpt lat="45.5985967" lon="12.3396623"><ele>1.0</ele><time>2026-04-18T17:15:15.521Z</time></trkpt><trkpt lat="45.5985419" lon="12.3395091"><ele>1.0</ele><time>2026-04-18T17:15:17.534Z</time></trkpt><trkpt lat="45.5984926" lon="12.3393726"><ele>1.0</ele><time>2026-04-18T17:15:19.517Z</time></trkpt><trkpt lat="45.598466" lon="12.3392626"><ele>1.0</ele><time>2026-04-18T17:15:21.519Z</time></trkpt><trkpt lat="45.5984336" lon="12.3391542"><ele>1.0</ele><time>2026-04-18T17:15:23.522Z</time></trkpt><trkpt lat="45.5983884" lon="12.3390255"><ele>1.0</ele><time>2026-04-18T17:15:25.519Z</time></trkpt><trkpt lat="45.598354" lon="12.3389392"><ele>1.0</ele><time>2026-04-18T17:15:26.527Z</time></trkpt><trkpt lat="45.5983118" lon="12.3387792"><ele>1.0</ele><time>2026-04-18T17:15:28.509Z</time></trkpt><trkpt lat="45.5982771" lon="12.3386455"><ele>1.0</ele><time>2026-04-18T17:15:30.533Z</time></trkpt><trkpt lat="45.5982332" lon="12.3384941"><ele>1.0</ele><time>2026-04-18T17:15:32.506Z</time></trkpt><trkpt lat="45.5981775" lon="12.3383372"><ele>1.4</ele><time>2026-04-18T17:15:34.52Z</time></trkpt><trkpt lat="45.598126" lon="12.3381964"><ele>1.8</ele><time>2026-04-18T17:15:36.523Z</time></trkpt><trkpt lat="45.598088" lon="12.3380907"><ele>2.1999999999999997</ele><time>2026-04-18T17:15:38.529Z</time></trkpt><trkpt lat="45.59803" lon="12.3379489"><ele>2.6</ele><time>2026-04-18T17:15:40.516Z</time></trkpt><trkpt lat="45.5979783" lon="12.3377969"><ele>3.0</ele><time>2026-04-18T17:15:42.517Z</time></trkpt><trkpt lat="45.5979407" lon="12.3376747"><ele>3.0</ele><time>2026-04-18T17:15:44.515Z</time></trkpt><trkpt lat="45.5978879" lon="12.3375206"><ele>3.0</ele><time>2026-04-18T17:15:46.511Z</time></trkpt><trkpt lat="45.5978422" lon="12.3373864"><ele>3.0</ele><time>2026-04-18T17:15:48.527Z</time></trkpt><trkpt lat="45.5977991" lon="12.3372516"><ele>3.0</ele><time>2026-04-18T17:15:50.525Z</time></trkpt><trkpt lat="45.5977505" lon="12.3371266"><ele>3.0</ele><time>2026-04-18T17:15:52.534Z</time></trkpt><trkpt lat="45.5976954" lon="12.3369873"><ele>3.2</ele><time>2026-04-18T17:15:54.521Z</time></trkpt><trkpt lat="45.5976462" lon="12.3368382"><ele>3.4</ele><time>2026-04-18T17:15:56.517Z</time></trkpt><trkpt lat="45.5976163" lon="12.3367574"><ele>3.6000000000000005</ele><time>2026-04-18T17:15:57.516Z</time></trkpt><trkpt lat="45.5975793" lon="12.3366268"><ele>3.8000000000000003</ele><time>2026-04-18T17:15:59.526Z</time></trkpt><trkpt lat="45.5975358" lon="12.3364834"><ele>4.0</ele><time>2026-04-18T17:16:01.544Z</time></trkpt><trkpt lat="45.5974908" lon="12.3363339"><ele>3.4000000000000004</ele><time>2026-04-18T17:16:03.515Z</time></trkpt><trkpt lat="45.5974345" lon="12.3361932"><ele>2.8000000000000003</ele><time>2026-04-18T17:16:05.52Z</time></trkpt><trkpt lat="45.5973829" lon="12.3360444"><ele>2.2</ele><time>2026-04-18T17:16:07.522Z</time></trkpt><trkpt lat="45.597337" lon="12.3359149"><ele>1.6</ele><time>2026-04-18T17:16:09.531Z</time></trkpt><trkpt lat="45.5972911" lon="12.3357936"><ele>1.0</ele><time>2026-04-18T17:16:11.529Z</time></trkpt><trkpt lat="45.5972376" lon="12.3356577"><ele>0.8</ele><time>2026-04-18T17:16:13.516Z</time></trkpt><trkpt lat="45.5971808" lon="12.33551"><ele>0.6000000000000001</ele><time>2026-04-18T17:16:15.528Z</time></trkpt><trkpt lat="45.5971568" lon="12.3354169"><ele>0.4</ele><time>2026-04-18T17:16:16.534Z</time></trkpt><trkpt lat="45.5971115" lon="12.3352691"><ele>0.2</ele><time>2026-04-18T17:16:18.539Z</time></trkpt><trkpt lat="45.5970587" lon="12.3351265"><ele>0.0</ele><time>2026-04-18T17:16:20.514Z</time></trkpt><trkpt lat="45.5970132" lon="12.3350281"><ele>0.2</ele><time>2026-04-18T17:16:21.519Z</time></trkpt><trkpt lat="45.596951" lon="12.3348871"><ele>0.4</ele><time>2026-04-18T17:16:23.52Z</time></trkpt><trkpt lat="45.5969163" lon="12.3348071"><ele>0.6000000000000001</ele><time>2026-04-18T17:16:24.525Z</time></trkpt><trkpt lat="45.5968622" lon="12.3346771"><ele>0.8</ele><time>2026-04-18T17:16:26.548Z</time></trkpt><trkpt lat="45.5968092" lon="12.3345368"><ele>1.0</ele><time>2026-04-18T17:16:28.52Z</time></trkpt><trkpt lat="45.5967779" lon="12.334457"><ele>0.9999999999999999</ele><time>2026-04-18T17:16:29.513Z</time></trkpt><trkpt lat="45.5967308" lon="12.3343373"><ele>1.0</ele><time>2026-04-18T17:16:31.519Z</time></trkpt><trkpt lat="45.5966941" lon="12.3342563"><ele>1.0</ele><time>2026-04-18T17:16:32.514Z</time></trkpt><trkpt lat="45.5966389" lon="12.33412"><ele>1.0</ele><time>2026-04-18T17:16:34.527Z</time></trkpt><trkpt lat="45.5965891" lon="12.3340056"><ele>0.9999999999999999</ele><time>2026-04-18T17:16:36.52Z</time></trkpt><trkpt lat="45.596546" lon="12.3339107"><ele>1.0</ele><time>2026-04-18T17:16:38.518Z</time></trkpt><trkpt lat="45.5965051" lon="12.3338036"><ele>0.8333333333333333</ele><time>2026-04-18T17:16:40.531Z</time></trkpt><trkpt lat="45.5964676" lon="12.3336937"><ele>0.6666666666666666</ele><time>2026-04-18T17:16:42.516Z</time></trkpt><trkpt lat="45.5964239" lon="12.3335873"><ele>0.5</ele><time>2026-04-18T17:16:44.51Z</time></trkpt><trkpt lat="45.5963821" lon="12.3334703"><ele>0.3333333333333333</ele><time>2026-04-18T17:16:46.523Z</time></trkpt><trkpt lat="45.5963374" lon="12.3333578"><ele>0.16666666666666666</ele><time>2026-04-18T17:16:48.537Z</time></trkpt><trkpt lat="45.5962928" lon="12.3332665"><ele>0.0</ele><time>2026-04-18T17:16:50.517Z</time></trkpt><trkpt lat="45.5962492" lon="12.3331341"><ele>0.0</ele><time>2026-04-18T17:16:52.513Z</time></trkpt><trkpt lat="45.5962052" lon="12.3329827"><ele>0.0</ele><time>2026-04-18T17:16:54.525Z</time></trkpt><trkpt lat="45.5961662" lon="12.3328375"><ele>0.0</ele><time>2026-04-18T17:16:56.516Z</time></trkpt><trkpt lat="45.5961455" lon="12.3327218"><ele>0.0</ele><time>2026-04-18T17:16:58.522Z</time></trkpt><trkpt lat="45.5961242" lon="12.3325764"><ele>0.0</ele><time>2026-04-18T17:17:00.519Z</time></trkpt><trkpt lat="45.5961093" lon="12.3324741"><ele>0.6</ele><time>2026-04-18T17:17:02.511Z</time></trkpt><trkpt lat="45.5960976" lon="12.3323493"><ele>1.2</ele><time>2026-04-18T17:17:04.514Z</time></trkpt><trkpt lat="45.5960826" lon="12.3322336"><ele>1.7999999999999998</ele><time>2026-04-18T17:17:07.535Z</time></trkpt><trkpt lat="45.5960569" lon="12.3320832"><ele>2.4</ele><time>2026-04-18T17:17:09.537Z</time></trkpt><trkpt lat="45.5960244" lon="12.3319361"><ele>3.0</ele><time>2026-04-18T17:17:11.518Z</time></trkpt><trkpt lat="45.5960008" lon="12.3318374"><ele>3.0</ele><time>2026-04-18T17:17:13.532Z</time></trkpt><trkpt lat="45.5959886" lon="12.3317473"><ele>3.0</ele><time>2026-04-18T17:17:15.525Z</time></trkpt><trkpt lat="45.5959726" lon="12.3316594"><ele>3.0</ele><time>2026-04-18T17:17:17.526Z</time></trkpt><trkpt lat="45.5959627" lon="12.3315471"><ele>3.0</ele><time>2026-04-18T17:17:19.529Z</time></trkpt><trkpt lat="45.5959207" lon="12.3314082"><ele>3.0</ele><time>2026-04-18T17:17:22.52Z</time></trkpt><trkpt lat="45.5958876" lon="12.3312906"><ele>3.0</ele><time>2026-04-18T17:17:24.518Z</time></trkpt><trkpt lat="45.5958493" lon="12.3311597"><ele>2.6</ele><time>2026-04-18T17:17:26.529Z</time></trkpt><trkpt lat="45.5958165" lon="12.3310559"><ele>2.1999999999999997</ele><time>2026-04-18T17:17:28.527Z</time></trkpt><trkpt lat="45.5957545" lon="12.330902"><ele>1.8</ele><time>2026-04-18T17:17:31.52Z</time></trkpt><trkpt lat="45.5957044" lon="12.3307736"><ele>1.4</ele><time>2026-04-18T17:17:33.536Z</time></trkpt><trkpt lat="45.5956715" lon="12.3306798"><ele>1.0</ele><time>2026-04-18T17:17:35.535Z</time></trkpt><trkpt lat="45.595642" lon="12.3305875"><ele>1.1666666666666665</ele><time>2026-04-18T17:17:37.541Z</time></trkpt><trkpt lat="45.5956065" lon="12.330462"><ele>1.3333333333333333</ele><time>2026-04-18T17:17:40.522Z</time></trkpt><trkpt lat="45.5956001" lon="12.3303401"><ele>1.5</ele><time>2026-04-18T17:17:43.537Z</time></trkpt><trkpt lat="45.5955975" lon="12.3301984"><ele>1.6666666666666665</ele><time>2026-04-18T17:17:45.523Z</time></trkpt><trkpt lat="45.5956091" lon="12.3300986"><ele>1.8333333333333333</ele><time>2026-04-18T17:17:47.533Z</time></trkpt><trkpt lat="45.5956358" lon="12.3300058"><ele>2.0</ele><time>2026-04-18T17:17:49.517Z</time></trkpt><trkpt lat="45.5956598" lon="12.3299026"><ele>2.0</ele><time>2026-04-18T17:17:51.533Z</time></trkpt><trkpt lat="45.5956723" lon="12.3297342"><ele>2.0</ele><time>2026-04-18T17:17:53.525Z</time></trkpt><trkpt lat="45.5956795" lon="12.3295919"><ele>2.0</ele><time>2026-04-18T17:17:55.526Z</time></trkpt><trkpt lat="45.5957024" lon="12.3294686"><ele>2.0</ele><time>2026-04-18T17:17:57.533Z</time></trkpt><trkpt lat="45.595728" lon="12.3293587"><ele>2.0</ele><time>2026-04-18T17:18:01.556Z</time></trkpt><trkpt lat="45.5957291" lon="12.329203"><ele>1.9999999999999998</ele><time>2026-04-18T17:18:03.521Z</time></trkpt><trkpt lat="45.595761" lon="12.3291153"><ele>2.0</ele><time>2026-04-18T17:18:05.531Z</time></trkpt><trkpt lat="45.5957923" lon="12.3290108"><ele>2.0</ele><time>2026-04-18T17:18:07.518Z</time></trkpt><trkpt lat="45.5957892" lon="12.3289109"><ele>2.0</ele><time>2026-04-18T17:18:08.526Z</time></trkpt><trkpt lat="45.5958071" lon="12.3287775"><ele>1.9999999999999998</ele><time>2026-04-18T17:18:10.525Z</time></trkpt><trkpt lat="45.5958512" lon="12.3286744"><ele>2.0</ele><time>2026-04-18T17:18:12.524Z</time></trkpt><trkpt lat="45.5959162" lon="12.328567"><ele>1.9999999999999998</ele><time>2026-04-18T17:18:14.534Z</time></trkpt><trkpt lat="45.5959719" lon="12.3284652"><ele>2.0</ele><time>2026-04-18T17:18:16.521Z</time></trkpt><trkpt lat="45.5960252" lon="12.3283889"><ele>2.0</ele><time>2026-04-18T17:18:18.514Z</time></trkpt><trkpt lat="45.5960821" lon="12.3283405"><ele>2.0</ele><time>2026-04-18T17:18:20.517Z</time></trkpt><trkpt lat="45.5961521" lon="12.3282844"><ele>1.9999999999999998</ele><time>2026-04-18T17:18:22.521Z</time></trkpt><trkpt lat="45.5962111" lon="12.3282335"><ele>2.0</ele><time>2026-04-18T17:18:24.536Z</time></trkpt><trkpt lat="45.5962826" lon="12.3281891"><ele>1.9999999999999998</ele><time>2026-04-18T17:18:28.539Z</time></trkpt><trkpt lat="45.5963619" lon="12.328164"><ele>2.0</ele><time>2026-04-18T17:18:32.536Z</time></trkpt><trkpt lat="45.5964159" lon="12.3280738"><ele>2.0</ele><time>2026-04-18T17:18:37.521Z</time></trkpt><trkpt lat="45.5964931" lon="12.3280441"><ele>2.0</ele><time>2026-04-18T17:18:39.53Z</time></trkpt><trkpt lat="45.596571" lon="12.3280188"><ele>1.9999999999999998</ele><time>2026-04-18T17:18:42.536Z</time></trkpt><trkpt lat="45.5966387" lon="12.3280183"><ele>2.0</ele><time>2026-04-18T17:18:44.522Z</time></trkpt><trkpt lat="45.5967504" lon="12.3280303"><ele>1.9999999999999998</ele><time>2026-04-18T17:18:47.533Z</time></trkpt><trkpt lat="45.5968372" lon="12.3280533"><ele>2.0</ele><time>2026-04-18T17:18:49.533Z</time></trkpt><trkpt lat="45.5969269" lon="12.3280695"><ele>2.0</ele><time>2026-04-18T17:18:52.52Z</time></trkpt><trkpt lat="45.5970195" lon="12.3280791"><ele>2.0</ele><time>2026-04-18T17:18:54.52Z</time></trkpt><trkpt lat="45.5970868" lon="12.3281022"><ele>1.9999999999999998</ele><time>2026-04-18T17:18:56.528Z</time></trkpt><trkpt lat="45.5971546" lon="12.3281418"><ele>2.0</ele><time>2026-04-18T17:18:58.52Z</time></trkpt><trkpt lat="45.5972262" lon="12.3281854"><ele>2.2</ele><time>2026-04-18T17:19:01.537Z</time></trkpt><trkpt lat="45.5973005" lon="12.3282424"><ele>2.4000000000000004</ele><time>2026-04-18T17:19:05.528Z</time></trkpt><trkpt lat="45.5973929" lon="12.3283205"><ele>2.5999999999999996</ele><time>2026-04-18T17:19:08.522Z</time></trkpt><trkpt lat="45.5974712" lon="12.3283972"><ele>2.8</ele><time>2026-04-18T17:19:10.517Z</time></trkpt><trkpt lat="45.5975409" lon="12.3284678"><ele>3.0</ele><time>2026-04-18T17:19:12.519Z</time></trkpt><trkpt lat="45.5976166" lon="12.3285551"><ele>3.0</ele><time>2026-04-18T17:19:14.52Z</time></trkpt><trkpt lat="45.5977071" lon="12.328648"><ele>3.0</ele><time>2026-04-18T17:19:16.515Z</time></trkpt><trkpt lat="45.5977813" lon="12.3287309"><ele>3.0</ele><time>2026-04-18T17:19:18.515Z</time></trkpt><trkpt lat="45.5978446" lon="12.3288141"><ele>3.0</ele><time>2026-04-18T17:19:21.519Z</time></trkpt><trkpt lat="45.5979022" lon="12.3288879"><ele>3.0</ele><time>2026-04-18T17:19:23.522Z</time></trkpt><trkpt lat="45.5979446" lon="12.3289607"><ele>3.0</ele><time>2026-04-18T17:19:25.522Z</time></trkpt><trkpt lat="45.5980253" lon="12.3290544"><ele>2.8</ele><time>2026-04-18T17:19:27.553Z</time></trkpt><trkpt lat="45.5981192" lon="12.3292025"><ele>2.5999999999999996</ele><time>2026-04-18T17:19:29.524Z</time></trkpt><trkpt lat="45.5981748" lon="12.3293245"><ele>2.4000000000000004</ele><time>2026-04-18T17:19:31.52Z</time></trkpt><trkpt lat="45.5982306" lon="12.3293843"><ele>2.2</ele><time>2026-04-18T17:19:32.544Z</time></trkpt><trkpt lat="45.5982976" lon="12.3294621"><ele>2.0</ele><time>2026-04-18T17:19:34.514Z</time></trkpt><trkpt lat="45.5983509" lon="12.3295512"><ele>1.9999999999999998</ele><time>2026-04-18T17:19:36.526Z</time></trkpt><trkpt lat="45.5984055" lon="12.3296637"><ele>2.0</ele><time>2026-04-18T17:19:38.518Z</time></trkpt><trkpt lat="45.5984499" lon="12.3297375"><ele>2.0</ele><time>2026-04-18T17:19:39.525Z</time></trkpt><trkpt lat="45.5985047" lon="12.3298244"><ele>2.0</ele><time>2026-04-18T17:19:41.525Z</time></trkpt><trkpt lat="45.598551" lon="12.3299123"><ele>1.9999999999999998</ele><time>2026-04-18T17:19:43.533Z</time></trkpt><trkpt lat="45.5985969" lon="12.3300097"><ele>2.0</ele><time>2026-04-18T17:19:45.523Z</time></trkpt><trkpt lat="45.5986443" lon="12.3301095"><ele>2.2</ele><time>2026-04-18T17:19:47.549Z</time></trkpt><trkpt lat="45.5987135" lon="12.3302648"><ele>2.4000000000000004</ele><time>2026-04-18T17:19:49.532Z</time></trkpt><trkpt lat="45.5987687" lon="12.3303939"><ele>2.5999999999999996</ele><time>2026-04-18T17:19:51.531Z</time></trkpt><trkpt lat="45.5987928" lon="12.3304801"><ele>2.8</ele><time>2026-04-18T17:19:53.539Z</time></trkpt><trkpt lat="45.5988264" lon="12.3306559"><ele>3.0</ele><time>2026-04-18T17:19:55.52Z</time></trkpt><trkpt lat="45.5988639" lon="12.3308025"><ele>3.3333333333333335</ele><time>2026-04-18T17:19:57.515Z</time></trkpt><trkpt lat="45.5989218" lon="12.3309398"><ele>3.666666666666667</ele><time>2026-04-18T17:19:59.537Z</time></trkpt><trkpt lat="45.5989642" lon="12.3310116"><ele>4.0</ele><time>2026-04-18T17:20:00.508Z</time></trkpt><trkpt lat="45.599005" lon="12.3310813"><ele>4.333333333333334</ele><time>2026-04-18T17:20:01.522Z</time></trkpt><trkpt lat="45.5990497" lon="12.331169"><ele>4.666666666666667</ele><time>2026-04-18T17:20:03.538Z</time></trkpt><trkpt lat="45.5991251" lon="12.3312787"><ele>5.0</ele><time>2026-04-18T17:20:05.53Z</time></trkpt><trkpt lat="45.5991717" lon="12.3313467"><ele>4.8</ele><time>2026-04-18T17:20:06.519Z</time></trkpt><trkpt lat="45.599238" lon="12.3314506"><ele>4.6</ele><time>2026-04-18T17:20:08.516Z</time></trkpt><trkpt lat="45.5992989" lon="12.3315528"><ele>4.4</ele><time>2026-04-18T17:20:10.514Z</time></trkpt><trkpt lat="45.5993781" lon="12.3316841"><ele>4.2</ele><time>2026-04-18T17:20:12.521Z</time></trkpt><trkpt lat="45.5994422" lon="12.3317748"><ele>4.0</ele><time>2026-04-18T17:20:14.512Z</time></trkpt><trkpt lat="45.599503" lon="12.3318564"><ele>3.6</ele><time>2026-04-18T17:20:16.515Z</time></trkpt><trkpt lat="45.5995763" lon="12.3319467"><ele>3.2</ele><time>2026-04-18T17:20:18.515Z</time></trkpt><trkpt lat="45.5996507" lon="12.3320597"><ele>2.8000000000000003</ele><time>2026-04-18T17:20:20.513Z</time></trkpt><trkpt lat="45.5997038" lon="12.3321662"><ele>2.4000000000000004</ele><time>2026-04-18T17:20:22.524Z</time></trkpt><trkpt lat="45.5997534" lon="12.3322563"><ele>2.0</ele><time>2026-04-18T17:20:24.512Z</time></trkpt><trkpt lat="45.5998171" lon="12.3323504"><ele>1.9999999999999998</ele><time>2026-04-18T17:20:26.517Z</time></trkpt><trkpt lat="45.5998672" lon="12.3324053"><ele>2.0</ele><time>2026-04-18T17:20:27.535Z</time></trkpt><trkpt lat="45.5999442" lon="12.332496"><ele>2.0</ele><time>2026-04-18T17:20:29.52Z</time></trkpt><trkpt lat="45.5999918" lon="12.3325576"><ele>2.0</ele><time>2026-04-18T17:20:30.514Z</time></trkpt><trkpt lat="45.6000428" lon="12.3326271"><ele>1.9999999999999998</ele><time>2026-04-18T17:20:31.527Z</time></trkpt><trkpt lat="45.6001301" lon="12.3327363"><ele>2.0</ele><time>2026-04-18T17:20:33.517Z</time></trkpt><trkpt lat="45.6002203" lon="12.3328265"><ele>2.0</ele><time>2026-04-18T17:20:35.516Z</time></trkpt><trkpt lat="45.6003174" lon="12.3329271"><ele>2.0</ele><time>2026-04-18T17:20:37.543Z</time></trkpt><trkpt lat="45.6004078" lon="12.3330267"><ele>2.0</ele><time>2026-04-18T17:20:39.53Z</time></trkpt><trkpt lat="45.6004948" lon="12.3331175"><ele>2.0</ele><time>2026-04-18T17:20:41.522Z</time></trkpt><trkpt lat="45.6005807" lon="12.3332189"><ele>2.6</ele><time>2026-04-18T17:20:43.525Z</time></trkpt><trkpt lat="45.6006634" lon="12.3333226"><ele>3.2</ele><time>2026-04-18T17:20:45.525Z</time></trkpt><trkpt lat="45.6007466" lon="12.3334249"><ele>3.8</ele><time>2026-04-18T17:20:47.524Z</time></trkpt><trkpt lat="45.6008255" lon="12.3335254"><ele>4.4</ele><time>2026-04-18T17:20:49.532Z</time></trkpt><trkpt lat="45.6009119" lon="12.3336265"><ele>5.0</ele><time>2026-04-18T17:20:51.525Z</time></trkpt><trkpt lat="45.6010043" lon="12.3337284"><ele>5.0</ele><time>2026-04-18T17:20:53.523Z</time></trkpt><trkpt lat="45.6010941" lon="12.3338223"><ele>5.0</ele><time>2026-04-18T17:20:55.53Z</time></trkpt><trkpt lat="45.6011792" lon="12.3339211"><ele>5.0</ele><time>2026-04-18T17:20:57.524Z</time></trkpt><trkpt lat="45.601259" lon="12.3340205"><ele>5.0</ele><time>2026-04-18T17:20:59.519Z</time></trkpt><trkpt lat="45.601341" lon="12.3341178"><ele>5.0</ele><time>2026-04-18T17:21:01.516Z</time></trkpt><trkpt lat="45.6014253" lon="12.3342183"><ele>4.6</ele><time>2026-04-18T17:21:03.515Z</time></trkpt><trkpt lat="45.6015065" lon="12.3343153"><ele>4.2</ele><time>2026-04-18T17:21:05.532Z</time></trkpt><trkpt lat="45.6015943" lon="12.3344188"><ele>3.8</ele><time>2026-04-18T17:21:07.531Z</time></trkpt><trkpt lat="45.6016794" lon="12.3345167"><ele>3.4</ele><time>2026-04-18T17:21:09.527Z</time></trkpt><trkpt lat="45.6017628" lon="12.334604"><ele>3.0</ele><time>2026-04-18T17:21:11.525Z</time></trkpt><trkpt lat="45.6018511" lon="12.334704"><ele>3.0</ele><time>2026-04-18T17:21:13.529Z</time></trkpt><trkpt lat="45.6019374" lon="12.3348086"><ele>3.0</ele><time>2026-04-18T17:21:15.529Z</time></trkpt><trkpt lat="45.6020135" lon="12.334902"><ele>3.0</ele><time>2026-04-18T17:21:17.522Z</time></trkpt><trkpt lat="45.6020946" lon="12.3350061"><ele>3.0</ele><time>2026-04-18T17:21:19.521Z</time></trkpt><trkpt lat="45.6021791" lon="12.3351124"><ele>3.0</ele><time>2026-04-18T17:21:21.528Z</time></trkpt><trkpt lat="45.602255" lon="12.3352063"><ele>3.0</ele><time>2026-04-18T17:21:23.527Z</time></trkpt><trkpt lat="45.602331" lon="12.3353048"><ele>3.0</ele><time>2026-04-18T17:21:25.527Z</time></trkpt><trkpt lat="45.602407" lon="12.3354153"><ele>3.0</ele><time>2026-04-18T17:21:27.521Z</time></trkpt><trkpt lat="45.602489" lon="12.335537"><ele>3.0</ele><time>2026-04-18T17:21:29.522Z</time></trkpt><trkpt lat="45.6025696" lon="12.3356514"><ele>3.0</ele><time>2026-04-18T17:21:31.53Z</time></trkpt><trkpt lat="45.6026347" lon="12.3357502"><ele>3.2</ele><time>2026-04-18T17:21:33.516Z</time></trkpt><trkpt lat="45.6026944" lon="12.3358594"><ele>3.4</ele><time>2026-04-18T17:21:35.522Z</time></trkpt><trkpt lat="45.6027596" lon="12.3359595"><ele>3.6000000000000005</ele><time>2026-04-18T17:21:37.527Z</time></trkpt><trkpt lat="45.6028196" lon="12.3360385"><ele>3.8000000000000003</ele><time>2026-04-18T17:21:39.525Z</time></trkpt><trkpt lat="45.6028936" lon="12.336099"><ele>4.0</ele><time>2026-04-18T17:21:41.515Z</time></trkpt><trkpt lat="45.6029899" lon="12.336144"><ele>4.2</ele><time>2026-04-18T17:21:43.517Z</time></trkpt><trkpt lat="45.6030834" lon="12.3361554"><ele>4.4</ele><time>2026-04-18T17:21:45.538Z</time></trkpt><trkpt lat="45.6031835" lon="12.3361818"><ele>4.6</ele><time>2026-04-18T17:21:47.534Z</time></trkpt><trkpt lat="45.603275" lon="12.3362084"><ele>4.8</ele><time>2026-04-18T17:21:49.532Z</time></trkpt><trkpt lat="45.6033702" lon="12.3362205"><ele>5.0</ele><time>2026-04-18T17:21:51.532Z</time></trkpt><trkpt lat="45.6034642" lon="12.336229"><ele>5.0</ele><time>2026-04-18T17:21:53.53Z</time></trkpt><trkpt lat="45.6035563" lon="12.3362445"><ele>5.0</ele><time>2026-04-18T17:21:55.524Z</time></trkpt><trkpt lat="45.6036394" lon="12.336263"><ele>5.0</ele><time>2026-04-18T17:21:57.547Z</time></trkpt><trkpt lat="45.6037218" lon="12.3362952"><ele>5.0</ele><time>2026-04-18T17:21:59.535Z</time></trkpt><trkpt lat="45.603787" lon="12.3363368"><ele>5.0</ele><time>2026-04-18T17:22:01.521Z</time></trkpt><trkpt lat="45.6038489" lon="12.3363827"><ele>5.0</ele><time>2026-04-18T17:22:03.509Z</time></trkpt><trkpt lat="45.6039264" lon="12.3364405"><ele>4.857142857142857</ele><time>2026-04-18T17:22:06.527Z</time></trkpt><trkpt lat="45.6039912" lon="12.3364804"><ele>4.714285714285714</ele><time>2026-04-18T17:22:08.529Z</time></trkpt><trkpt lat="45.6040447" lon="12.3365459"><ele>4.571428571428571</ele><time>2026-04-18T17:22:10.512Z</time></trkpt><trkpt lat="45.6040704" lon="12.3366687"><ele>4.428571428571429</ele><time>2026-04-18T17:22:13.513Z</time></trkpt><trkpt lat="45.6040879" lon="12.3367745"><ele>4.285714285714286</ele><time>2026-04-18T17:22:15.519Z</time></trkpt><trkpt lat="45.6041105" lon="12.3368715"><ele>4.142857142857142</ele><time>2026-04-18T17:22:17.515Z</time></trkpt><trkpt lat="45.6041265" lon="12.3369599"><ele>4.0</ele><time>2026-04-18T17:22:19.535Z</time></trkpt><trkpt lat="45.6041325" lon="12.3370502"><ele>3.9999999999999996</ele><time>2026-04-18T17:22:21.515Z</time></trkpt><trkpt lat="45.6041542" lon="12.3369344"><ele>4.0</ele><time>2026-04-18T17:22:29.52Z</time></trkpt><trkpt lat="45.6041437" lon="12.3368107"><ele>4.0</ele><time>2026-04-18T17:22:32.515Z</time></trkpt><trkpt lat="45.6041304" lon="12.3366906"><ele>4.0</ele><time>2026-04-18T17:22:36.518Z</time></trkpt><trkpt lat="45.6040997" lon="12.3365809"><ele>3.9999999999999996</ele><time>2026-04-18T17:22:39.512Z</time></trkpt><trkpt lat="45.6040779" lon="12.336488"><ele>4.0</ele><time>2026-04-18T17:22:42.519Z</time></trkpt><trkpt lat="45.6040522" lon="12.3363762"><ele>3.714285714285714</ele><time>2026-04-18T17:22:45.523Z</time></trkpt><trkpt lat="45.6040272" lon="12.3362655"><ele>3.428571428571428</ele><time>2026-04-18T17:22:48.519Z</time></trkpt><trkpt lat="45.6040048" lon="12.3361588"><ele>3.142857142857143</ele><time>2026-04-18T17:22:51.523Z</time></trkpt><trkpt lat="45.6039793" lon="12.3360729"><ele>2.8571428571428568</ele><time>2026-04-18T17:22:53.532Z</time></trkpt><trkpt lat="45.6039666" lon="12.3359652"><ele>2.571428571428571</ele><time>2026-04-18T17:22:56.523Z</time></trkpt><trkpt lat="45.6039588" lon="12.3358646"><ele>2.2857142857142856</ele><time>2026-04-18T17:22:58.53Z</time></trkpt><trkpt lat="45.6039413" lon="12.3357758"><ele>2.0</ele><time>2026-04-18T17:23:00.528Z</time></trkpt><trkpt lat="45.6039237" lon="12.3356821"><ele>1.9999999999999998</ele><time>2026-04-18T17:23:02.525Z</time></trkpt><trkpt lat="45.6039025" lon="12.3355799"><ele>2.0</ele><time>2026-04-18T17:23:04.534Z</time></trkpt><trkpt lat="45.6038667" lon="12.3354511"><ele>2.0</ele><time>2026-04-18T17:23:06.519Z</time></trkpt><trkpt lat="45.6038433" lon="12.335332"><ele>2.0</ele><time>2026-04-18T17:23:08.521Z</time></trkpt><trkpt lat="45.6038173" lon="12.335215"><ele>1.9999999999999998</ele><time>2026-04-18T17:23:10.524Z</time></trkpt><trkpt lat="45.6037805" lon="12.3351122"><ele>2.0</ele><time>2026-04-18T17:23:12.534Z</time></trkpt><trkpt lat="45.6037497" lon="12.3352203"><ele>2.0</ele><time>2026-04-18T17:23:20.544Z</time></trkpt><trkpt lat="45.6037666" lon="12.3353484"><ele>2.0</ele><time>2026-04-18T17:23:22.517Z</time></trkpt><trkpt lat="45.6037885" lon="12.3354953"><ele>2.0</ele><time>2026-04-18T17:23:24.521Z</time></trkpt><trkpt lat="45.603808" lon="12.3355897"><ele>2.0</ele><time>2026-04-18T17:23:26.533Z</time></trkpt><trkpt lat="45.6039" lon="12.3356412"><ele>2.0</ele><time>2026-04-18T17:23:31.535Z</time></trkpt><trkpt lat="45.6040226" lon="12.3356593"><ele>1.9999999999999998</ele><time>2026-04-18T17:23:33.529Z</time></trkpt><trkpt lat="45.6041138" lon="12.3356888"><ele>2.0</ele><time>2026-04-18T17:23:35.509Z</time></trkpt><trkpt lat="45.6042106" lon="12.3356546"><ele>2.0</ele><time>2026-04-18T17:23:37.53Z</time></trkpt><trkpt lat="45.6042895" lon="12.3355901"><ele>2.0</ele><time>2026-04-18T17:23:39.528Z</time></trkpt><trkpt lat="45.6043565" lon="12.3355267"><ele>1.9999999999999998</ele><time>2026-04-18T17:23:41.521Z</time></trkpt><trkpt lat="45.6043997" lon="12.3354433"><ele>2.0</ele><time>2026-04-18T17:23:43.519Z</time></trkpt><trkpt lat="45.6044288" lon="12.3353376"><ele>1.9999999999999998</ele><time>2026-04-18T17:23:45.519Z</time></trkpt><trkpt lat="45.6044541" lon="12.3352277"><ele>2.0</ele><time>2026-04-18T17:23:47.534Z</time></trkpt><trkpt lat="45.6044688" lon="12.3350969"><ele>2.0</ele><time>2026-04-18T17:23:49.535Z</time></trkpt><trkpt lat="45.6044868" lon="12.334973"><ele>2.0</ele><time>2026-04-18T17:23:51.536Z</time></trkpt><trkpt lat="45.6044923" lon="12.3348617"><ele>1.9999999999999998</ele><time>2026-04-18T17:23:53.518Z</time></trkpt><trkpt lat="45.604503" lon="12.3347506"><ele>2.0</ele><time>2026-04-18T17:23:55.524Z</time></trkpt><trkpt lat="45.6045231" lon="12.334633"><ele>2.6666666666666665</ele><time>2026-04-18T17:23:57.534Z</time></trkpt><trkpt lat="45.6045407" lon="12.3345166"><ele>3.333333333333333</ele><time>2026-04-18T17:23:59.518Z</time></trkpt><trkpt lat="45.6045596" lon="12.3343783"><ele>4.0</ele><time>2026-04-18T17:24:01.544Z</time></trkpt><trkpt lat="45.604563" lon="12.3342721"><ele>4.666666666666667</ele><time>2026-04-18T17:24:03.537Z</time></trkpt><trkpt lat="45.6045733" lon="12.3341716"><ele>5.333333333333333</ele><time>2026-04-18T17:24:05.521Z</time></trkpt><trkpt lat="45.6045941" lon="12.3340692"><ele>6.0</ele><time>2026-04-18T17:24:07.529Z</time></trkpt><trkpt lat="45.6046185" lon="12.3339431"><ele>5.6</ele><time>2026-04-18T17:24:10.533Z</time></trkpt><trkpt lat="45.604611" lon="12.3338365"><ele>5.199999999999999</ele><time>2026-04-18T17:24:13.524Z</time></trkpt><trkpt lat="45.6045401" lon="12.3337445"><ele>4.800000000000001</ele><time>2026-04-18T17:24:16.524Z</time></trkpt><trkpt lat="45.6044291" lon="12.3337087"><ele>4.4</ele><time>2026-04-18T17:24:18.526Z</time></trkpt><trkpt lat="45.6043186" lon="12.3336897"><ele>4.0</ele><time>2026-04-18T17:24:20.54Z</time></trkpt><trkpt lat="45.6042141" lon="12.3336733"><ele>4.0</ele><time>2026-04-18T17:24:22.535Z</time></trkpt><trkpt lat="45.6041216" lon="12.3336614"><ele>4.0</ele><time>2026-04-18T17:24:24.528Z</time></trkpt><trkpt lat="45.6040227" lon="12.3336391"><ele>4.0</ele><time>2026-04-18T17:24:26.534Z</time></trkpt><trkpt lat="45.6039191" lon="12.3336087"><ele>4.0</ele><time>2026-04-18T17:24:28.525Z</time></trkpt><trkpt lat="45.6038169" lon="12.3335865"><ele>4.0</ele><time>2026-04-18T17:24:30.529Z</time></trkpt><trkpt lat="45.6037206" lon="12.3335675"><ele>4.0</ele><time>2026-04-18T17:24:32.517Z</time></trkpt><trkpt lat="45.6036307" lon="12.3335467"><ele>4.0</ele><time>2026-04-18T17:24:34.527Z</time></trkpt><trkpt lat="45.6035705" lon="12.3334304"><ele>4.0</ele><time>2026-04-18T17:24:36.53Z</time></trkpt><trkpt lat="45.6035391" lon="12.3332781"><ele>4.0</ele><time>2026-04-18T17:24:38.532Z</time></trkpt><trkpt lat="45.6035055" lon="12.3331369"><ele>4.0</ele><time>2026-04-18T17:24:40.517Z</time></trkpt><trkpt lat="45.6034694" lon="12.3330063"><ele>3.6</ele><time>2026-04-18T17:24:42.533Z</time></trkpt><trkpt lat="45.6034348" lon="12.3328489"><ele>3.2</ele><time>2026-04-18T17:24:44.517Z</time></trkpt><trkpt lat="45.6034237" lon="12.3326939"><ele>2.8000000000000003</ele><time>2026-04-18T17:24:46.517Z</time></trkpt><trkpt lat="45.6034138" lon="12.332551"><ele>2.4000000000000004</ele><time>2026-04-18T17:24:48.513Z</time></trkpt><trkpt lat="45.6033848" lon="12.3324094"><ele>2.0</ele><time>2026-04-18T17:24:50.521Z</time></trkpt><trkpt lat="45.6033438" lon="12.3322672"><ele>2.2</ele><time>2026-04-18T17:24:52.529Z</time></trkpt><trkpt lat="45.6032933" lon="12.3321299"><ele>2.4000000000000004</ele><time>2026-04-18T17:24:54.519Z</time></trkpt><trkpt lat="45.6032487" lon="12.3319989"><ele>2.5999999999999996</ele><time>2026-04-18T17:24:56.531Z</time></trkpt><trkpt lat="45.6032177" lon="12.3319162"><ele>2.8</ele><time>2026-04-18T17:24:57.522Z</time></trkpt><trkpt lat="45.6031738" lon="12.3317878"><ele>3.0</ele><time>2026-04-18T17:24:59.513Z</time></trkpt><trkpt lat="45.6031166" lon="12.3316661"><ele>3.0</ele><time>2026-04-18T17:25:01.514Z</time></trkpt><trkpt lat="45.6030481" lon="12.3315291"><ele>3.0</ele><time>2026-04-18T17:25:03.522Z</time></trkpt><trkpt lat="45.6029887" lon="12.3313934"><ele>3.0</ele><time>2026-04-18T17:25:05.52Z</time></trkpt><trkpt lat="45.6029448" lon="12.3312859"><ele>3.0</ele><time>2026-04-18T17:25:07.533Z</time></trkpt><trkpt lat="45.6028925" lon="12.331172"><ele>3.0</ele><time>2026-04-18T17:25:09.527Z</time></trkpt><trkpt lat="45.6028496" lon="12.3310787"><ele>3.3333333333333335</ele><time>2026-04-18T17:25:11.536Z</time></trkpt><trkpt lat="45.6028117" lon="12.3309913"><ele>3.666666666666667</ele><time>2026-04-18T17:25:13.534Z</time></trkpt><trkpt lat="45.6027716" lon="12.3309039"><ele>4.0</ele><time>2026-04-18T17:25:16.521Z</time></trkpt><trkpt lat="45.6027273" lon="12.3308349"><ele>4.333333333333334</ele><time>2026-04-18T17:25:19.531Z</time></trkpt><trkpt lat="45.6026336" lon="12.3308431"><ele>4.666666666666667</ele><time>2026-04-18T17:25:22.518Z</time></trkpt><trkpt lat="45.6025742" lon="12.3307665"><ele>5.0</ele><time>2026-04-18T17:25:24.52Z</time></trkpt><trkpt lat="45.6025186" lon="12.3306653"><ele>5.0</ele><time>2026-04-18T17:25:26.524Z</time></trkpt><trkpt lat="45.6024651" lon="12.3305642"><ele>5.0</ele><time>2026-04-18T17:25:28.516Z</time></trkpt><trkpt lat="45.6024114" lon="12.3304533"><ele>5.0</ele><time>2026-04-18T17:25:30.548Z</time></trkpt><trkpt lat="45.6023554" lon="12.3303328"><ele>5.0</ele><time>2026-04-18T17:25:32.531Z</time></trkpt><trkpt lat="45.602304" lon="12.3302479"><ele>5.0</ele><time>2026-04-18T17:25:34.524Z</time></trkpt><trkpt lat="45.6022511" lon="12.3301573"><ele>5.0</ele><time>2026-04-18T17:25:36.534Z</time></trkpt><trkpt lat="45.6022046" lon="12.330082"><ele>4.833333333333334</ele><time>2026-04-18T17:25:38.527Z</time></trkpt><trkpt lat="45.6021585" lon="12.330001"><ele>4.666666666666667</ele><time>2026-04-18T17:25:40.531Z</time></trkpt><trkpt lat="45.6020988" lon="12.3299094"><ele>4.5</ele><time>2026-04-18T17:25:42.533Z</time></trkpt><trkpt lat="45.6020397" lon="12.3298127"><ele>4.333333333333333</ele><time>2026-04-18T17:25:44.522Z</time></trkpt><trkpt lat="45.6019758" lon="12.3297173"><ele>4.166666666666666</ele><time>2026-04-18T17:25:46.517Z</time></trkpt><trkpt lat="45.601923" lon="12.3296288"><ele>4.0</ele><time>2026-04-18T17:25:48.524Z</time></trkpt><trkpt lat="45.601871" lon="12.3295409"><ele>4.0</ele><time>2026-04-18T17:25:50.514Z</time></trkpt><trkpt lat="45.6018039" lon="12.3294351"><ele>4.0</ele><time>2026-04-18T17:25:52.529Z</time></trkpt><trkpt lat="45.601747" lon="12.3293334"><ele>4.0</ele><time>2026-04-18T17:25:54.52Z</time></trkpt><trkpt lat="45.6016959" lon="12.3292392"><ele>4.0</ele><time>2026-04-18T17:25:56.534Z</time></trkpt><trkpt lat="45.6016197" lon="12.3291303"><ele>4.0</ele><time>2026-04-18T17:25:58.523Z</time></trkpt><trkpt lat="45.6015531" lon="12.3290284"><ele>3.9999999999999996</ele><time>2026-04-18T17:26:00.524Z</time></trkpt><trkpt lat="45.6014902" lon="12.3289318"><ele>4.0</ele><time>2026-04-18T17:26:02.536Z</time></trkpt><trkpt lat="45.6014456" lon="12.328838"><ele>4.0</ele><time>2026-04-18T17:26:04.519Z</time></trkpt><trkpt lat="45.6013825" lon="12.3287335"><ele>4.0</ele><time>2026-04-18T17:26:06.525Z</time></trkpt><trkpt lat="45.6013277" lon="12.3286499"><ele>3.9999999999999996</ele><time>2026-04-18T17:26:08.537Z</time></trkpt><trkpt lat="45.6012834" lon="12.3285815"><ele>4.0</ele><time>2026-04-18T17:26:10.521Z</time></trkpt><trkpt lat="45.6012228" lon="12.328487"><ele>3.9999999999999996</ele><time>2026-04-18T17:26:12.533Z</time></trkpt><trkpt lat="45.6011649" lon="12.3283878"><ele>4.0</ele><time>2026-04-18T17:26:14.517Z</time></trkpt><trkpt lat="45.6011068" lon="12.328291"><ele>4.0</ele><time>2026-04-18T17:26:16.515Z</time></trkpt><trkpt lat="45.6010566" lon="12.3282007"><ele>4.0</ele><time>2026-04-18T17:26:18.53Z</time></trkpt><trkpt lat="45.6010033" lon="12.3281069"><ele>3.9999999999999996</ele><time>2026-04-18T17:26:20.525Z</time></trkpt><trkpt lat="45.600935" lon="12.328003"><ele>4.0</ele><time>2026-04-18T17:26:22.516Z</time></trkpt><trkpt lat="45.600874" lon="12.3279092"><ele>3.9999999999999996</ele><time>2026-04-18T17:26:24.524Z</time></trkpt><trkpt lat="45.6008123" lon="12.327822"><ele>4.0</ele><time>2026-04-18T17:26:26.518Z</time></trkpt><trkpt lat="45.6007621" lon="12.3277361"><ele>4.0</ele><time>2026-04-18T17:26:28.532Z</time></trkpt><trkpt lat="45.6007024" lon="12.3276501"><ele>4.0</ele><time>2026-04-18T17:26:30.512Z</time></trkpt><trkpt lat="45.6006523" lon="12.3275731"><ele>3.9999999999999996</ele><time>2026-04-18T17:26:32.519Z</time></trkpt><trkpt lat="45.6006055" lon="12.3275045"><ele>4.0</ele><time>2026-04-18T17:26:34.517Z</time></trkpt><trkpt lat="45.6005639" lon="12.3274131"><ele>3.9999999999999996</ele><time>2026-04-18T17:26:36.52Z</time></trkpt><trkpt lat="45.6005209" lon="12.3273169"><ele>4.0</ele><time>2026-04-18T17:26:38.527Z</time></trkpt><trkpt lat="45.6004624" lon="12.327214"><ele>4.0</ele><time>2026-04-18T17:26:40.511Z</time></trkpt><trkpt lat="45.6004103" lon="12.3271249"><ele>4.0</ele><time>2026-04-18T17:26:42.536Z</time></trkpt><trkpt lat="45.6003504" lon="12.3270324"><ele>3.9999999999999996</ele><time>2026-04-18T17:26:44.519Z</time></trkpt><trkpt lat="45.6002927" lon="12.3269417"><ele>4.0</ele><time>2026-04-18T17:26:46.525Z</time></trkpt><trkpt lat="45.6002239" lon="12.3268461"><ele>3.9999999999999996</ele><time>2026-04-18T17:26:48.53Z</time></trkpt><trkpt lat="45.6001632" lon="12.3267505"><ele>4.0</ele><time>2026-04-18T17:26:50.543Z</time></trkpt><trkpt lat="45.6001073" lon="12.3266572"><ele>4.0</ele><time>2026-04-18T17:26:52.526Z</time></trkpt><trkpt lat="45.6000564" lon="12.3265612"><ele>4.0</ele><time>2026-04-18T17:26:54.55Z</time></trkpt><trkpt lat="45.6000445" lon="12.3264674"><ele>3.9999999999999996</ele><time>2026-04-18T17:26:56.522Z</time></trkpt><trkpt lat="45.6001033" lon="12.3263533"><ele>4.0</ele><time>2026-04-18T17:26:58.545Z</time></trkpt><trkpt lat="45.6001808" lon="12.3262932"><ele>3.9999999999999996</ele><time>2026-04-18T17:27:00.515Z</time></trkpt><trkpt lat="45.6002557" lon="12.326299"><ele>4.0</ele><time>2026-04-18T17:27:02.519Z</time></trkpt><trkpt lat="45.6003232" lon="12.3263375"><ele>4.0</ele><time>2026-04-18T17:27:04.526Z</time></trkpt><trkpt lat="45.6003896" lon="12.3263743"><ele>4.0</ele><time>2026-04-18T17:27:06.521Z</time></trkpt><trkpt lat="45.6004592" lon="12.3264074"><ele>3.9999999999999996</ele><time>2026-04-18T17:27:08.531Z</time></trkpt><trkpt lat="45.6005311" lon="12.326423"><ele>4.0</ele><time>2026-04-18T17:27:10.535Z</time></trkpt><trkpt lat="45.6006181" lon="12.3264263"><ele>3.9999999999999996</ele><time>2026-04-18T17:27:13.539Z</time></trkpt><trkpt lat="45.6006976" lon="12.3264418"><ele>4.0</ele><time>2026-04-18T17:27:16.526Z</time></trkpt><trkpt lat="45.6007649" lon="12.3264535"><ele>4.0</ele><time>2026-04-18T17:27:19.524Z</time></trkpt><trkpt lat="45.6008343" lon="12.3264711"><ele>4.0</ele><time>2026-04-18T17:27:23.518Z</time></trkpt><trkpt lat="45.6009198" lon="12.3264929"><ele>3.9999999999999996</ele><time>2026-04-18T17:27:27.534Z</time></trkpt><trkpt lat="45.6009976" lon="12.3264948"><ele>4.0</ele><time>2026-04-18T17:27:31.52Z</time></trkpt><trkpt lat="45.6009947" lon="12.3263945"><ele>3.9999999999999996</ele><time>2026-04-18T17:27:37.524Z</time></trkpt><trkpt lat="45.600916" lon="12.3263684"><ele>4.0</ele><time>2026-04-18T17:27:39.524Z</time></trkpt><trkpt lat="45.6008269" lon="12.3263539"><ele>4.0</ele><time>2026-04-18T17:27:41.538Z</time></trkpt><trkpt lat="45.6007309" lon="12.3263395"><ele>4.0</ele><time>2026-04-18T17:27:43.537Z</time></trkpt><trkpt lat="45.6006544" lon="12.3263105"><ele>3.9999999999999996</ele><time>2026-04-18T17:27:45.526Z</time></trkpt><trkpt lat="45.6005849" lon="12.3262713"><ele>4.0</ele><time>2026-04-18T17:27:47.527Z</time></trkpt><trkpt lat="45.6005278" lon="12.3262186"><ele>4.0</ele><time>2026-04-18T17:27:49.527Z</time></trkpt><trkpt lat="45.6004643" lon="12.3261171"><ele>4.0</ele><time>2026-04-18T17:27:51.525Z</time></trkpt><trkpt lat="45.6004189" lon="12.3259739"><ele>4.0</ele><time>2026-04-18T17:27:53.52Z</time></trkpt><trkpt lat="45.6003959" lon="12.3258311"><ele>4.0</ele><time>2026-04-18T17:27:55.523Z</time></trkpt><trkpt lat="45.6003736" lon="12.325683"><ele>4.0</ele><time>2026-04-18T17:27:57.532Z</time></trkpt><trkpt lat="45.6003303" lon="12.3255818"><ele>3.8000000000000003</ele><time>2026-04-18T17:27:59.522Z</time></trkpt><trkpt lat="45.6002566" lon="12.3254965"><ele>3.6000000000000005</ele><time>2026-04-18T17:28:01.519Z</time></trkpt><trkpt lat="45.6001688" lon="12.3254421"><ele>3.4</ele><time>2026-04-18T17:28:03.524Z</time></trkpt><trkpt lat="45.600068" lon="12.3253995"><ele>3.2</ele><time>2026-04-18T17:28:05.533Z</time></trkpt><trkpt lat="45.59997" lon="12.3253662"><ele>3.0</ele><time>2026-04-18T17:28:07.523Z</time></trkpt><trkpt lat="45.5998681" lon="12.3253287"><ele>3.0</ele><time>2026-04-18T17:28:09.54Z</time></trkpt><trkpt lat="45.5997716" lon="12.3252871"><ele>3.0</ele><time>2026-04-18T17:28:11.524Z</time></trkpt><trkpt lat="45.5996733" lon="12.3252377"><ele>3.0</ele><time>2026-04-18T17:28:13.537Z</time></trkpt><trkpt lat="45.5995791" lon="12.3251866"><ele>3.0</ele><time>2026-04-18T17:28:15.525Z</time></trkpt><trkpt lat="45.5994824" lon="12.3251345"><ele>3.0</ele><time>2026-04-18T17:28:17.528Z</time></trkpt><trkpt lat="45.5993729" lon="12.3250798"><ele>3.4</ele><time>2026-04-18T17:28:19.531Z</time></trkpt><trkpt lat="45.5992786" lon="12.3250222"><ele>3.8</ele><time>2026-04-18T17:28:21.512Z</time></trkpt><trkpt lat="45.5991907" lon="12.3249596"><ele>4.2</ele><time>2026-04-18T17:28:23.531Z</time></trkpt><trkpt lat="45.5991036" lon="12.3248994"><ele>4.6</ele><time>2026-04-18T17:28:25.543Z</time></trkpt><trkpt lat="45.5990247" lon="12.3248221"><ele>5.0</ele><time>2026-04-18T17:28:27.523Z</time></trkpt><trkpt lat="45.5989533" lon="12.3247353"><ele>5.166666666666667</ele><time>2026-04-18T17:28:29.529Z</time></trkpt><trkpt lat="45.598876" lon="12.3246389"><ele>5.333333333333334</ele><time>2026-04-18T17:28:31.538Z</time></trkpt><trkpt lat="45.598807" lon="12.3245448"><ele>5.5</ele><time>2026-04-18T17:28:33.521Z</time></trkpt><trkpt lat="45.5987442" lon="12.3244529"><ele>5.666666666666667</ele><time>2026-04-18T17:28:35.517Z</time></trkpt><trkpt lat="45.5987385" lon="12.3243507"><ele>5.833333333333333</ele><time>2026-04-18T17:28:38.536Z</time></trkpt><trkpt lat="45.5986967" lon="12.3242687"><ele>6.0</ele><time>2026-04-18T17:28:41.513Z</time></trkpt><trkpt lat="45.5986505" lon="12.3241845"><ele>6.0</ele><time>2026-04-18T17:28:43.535Z</time></trkpt><trkpt lat="45.5986082" lon="12.3240852"><ele>6.0</ele><time>2026-04-18T17:28:45.506Z</time></trkpt><trkpt lat="45.5985493" lon="12.3240162"><ele>6.0</ele><time>2026-04-18T17:28:48.516Z</time></trkpt><trkpt lat="45.5984791" lon="12.3239694"><ele>6.0</ele><time>2026-04-18T17:28:50.517Z</time></trkpt><trkpt lat="45.5984171" lon="12.3239284"><ele>6.0</ele><time>2026-04-18T17:28:52.516Z</time></trkpt><trkpt lat="45.5983626" lon="12.3238328"><ele>6.0</ele><time>2026-04-18T17:28:54.523Z</time></trkpt><trkpt lat="45.5983067" lon="12.3237313"><ele>5.833333333333333</ele><time>2026-04-18T17:28:56.519Z</time></trkpt><trkpt lat="45.598267" lon="12.3236397"><ele>5.666666666666667</ele><time>2026-04-18T17:28:58.514Z</time></trkpt><trkpt lat="45.5982282" lon="12.3235388"><ele>5.5</ele><time>2026-04-18T17:29:00.528Z</time></trkpt><trkpt lat="45.5982083" lon="12.3234298"><ele>5.333333333333334</ele><time>2026-04-18T17:29:03.528Z</time></trkpt><trkpt lat="45.5981912" lon="12.3233298"><ele>5.166666666666667</ele><time>2026-04-18T17:29:05.53Z</time></trkpt><trkpt lat="45.5981898" lon="12.3231836"><ele>5.0</ele><time>2026-04-18T17:29:07.523Z</time></trkpt><trkpt lat="45.5981993" lon="12.3230262"><ele>5.0</ele><time>2026-04-18T17:29:09.522Z</time></trkpt><trkpt lat="45.5982181" lon="12.3228813"><ele>5.0</ele><time>2026-04-18T17:29:11.534Z</time></trkpt><trkpt lat="45.5982512" lon="12.3227377"><ele>5.0</ele><time>2026-04-18T17:29:13.51Z</time></trkpt><trkpt lat="45.598284" lon="12.3225926"><ele>5.0</ele><time>2026-04-18T17:29:15.531Z</time></trkpt><trkpt lat="45.5983261" lon="12.322432"><ele>5.0</ele><time>2026-04-18T17:29:17.529Z</time></trkpt><trkpt lat="45.5983457" lon="12.3223418"><ele>4.8</ele><time>2026-04-18T17:29:18.513Z</time></trkpt><trkpt lat="45.5983862" lon="12.3221748"><ele>4.6</ele><time>2026-04-18T17:29:20.521Z</time></trkpt><trkpt lat="45.5984051" lon="12.3220885"><ele>4.4</ele><time>2026-04-18T17:29:21.514Z</time></trkpt><trkpt lat="45.5984407" lon="12.3219275"><ele>4.2</ele><time>2026-04-18T17:29:23.515Z</time></trkpt><trkpt lat="45.598479" lon="12.321762"><ele>4.0</ele><time>2026-04-18T17:29:25.514Z</time></trkpt><trkpt lat="45.5985118" lon="12.3215966"><ele>4.0</ele><time>2026-04-18T17:29:27.516Z</time></trkpt><trkpt lat="45.5985445" lon="12.3214384"><ele>4.0</ele><time>2026-04-18T17:29:29.523Z</time></trkpt><trkpt lat="45.5985794" lon="12.3212799"><ele>4.0</ele><time>2026-04-18T17:29:31.517Z</time></trkpt><trkpt lat="45.5986152" lon="12.3211229"><ele>4.0</ele><time>2026-04-18T17:29:33.522Z</time></trkpt><trkpt lat="45.5986536" lon="12.3209738"><ele>4.0</ele><time>2026-04-18T17:29:35.514Z</time></trkpt><trkpt lat="45.5986922" lon="12.320826"><ele>4.0</ele><time>2026-04-18T17:29:37.512Z</time></trkpt><trkpt lat="45.5987282" lon="12.3206794"><ele>4.0</ele><time>2026-04-18T17:29:39.52Z</time></trkpt><trkpt lat="45.5987712" lon="12.3205273"><ele>4.0</ele><time>2026-04-18T17:29:41.525Z</time></trkpt><trkpt lat="45.5988131" lon="12.3203758"><ele>4.0</ele><time>2026-04-18T17:29:43.529Z</time></trkpt><trkpt lat="45.5988554" lon="12.3202219"><ele>4.0</ele><time>2026-04-18T17:29:45.527Z</time></trkpt><trkpt lat="45.5988899" lon="12.320059"><ele>4.0</ele><time>2026-04-18T17:29:47.519Z</time></trkpt><trkpt lat="45.5989297" lon="12.3198875"><ele>4.0</ele><time>2026-04-18T17:29:49.516Z</time></trkpt><trkpt lat="45.5989629" lon="12.3197261"><ele>4.0</ele><time>2026-04-18T17:29:51.523Z</time></trkpt><trkpt lat="45.5989915" lon="12.3195619"><ele>4.0</ele><time>2026-04-18T17:29:53.527Z</time></trkpt><trkpt lat="45.5990232" lon="12.3193934"><ele>4.0</ele><time>2026-04-18T17:29:55.514Z</time></trkpt><trkpt lat="45.5990522" lon="12.3192245"><ele>4.0</ele><time>2026-04-18T17:29:57.515Z</time></trkpt><trkpt lat="45.5990848" lon="12.3190546"><ele>4.0</ele><time>2026-04-18T17:29:59.522Z</time></trkpt><trkpt lat="45.5991014" lon="12.3189669"><ele>4.0</ele><time>2026-04-18T17:30:00.508Z</time></trkpt><trkpt lat="45.5991296" lon="12.3188064"><ele>3.8000000000000003</ele><time>2026-04-18T17:30:02.508Z</time></trkpt><trkpt lat="45.5991539" lon="12.3186539"><ele>3.6000000000000005</ele><time>2026-04-18T17:30:04.511Z</time></trkpt><trkpt lat="45.5991754" lon="12.3185096"><ele>3.4</ele><time>2026-04-18T17:30:06.512Z</time></trkpt><trkpt lat="45.5991962" lon="12.31837"><ele>3.2</ele><time>2026-04-18T17:30:08.518Z</time></trkpt><trkpt lat="45.599221" lon="12.3182442"><ele>3.0</ele><time>2026-04-18T17:30:10.512Z</time></trkpt><trkpt lat="45.599247" lon="12.318119"><ele>3.2857142857142856</ele><time>2026-04-18T17:30:12.515Z</time></trkpt><trkpt lat="45.5992626" lon="12.317994"><ele>3.571428571428571</ele><time>2026-04-18T17:30:14.513Z</time></trkpt><trkpt lat="45.5992677" lon="12.3178823"><ele>3.8571428571428568</ele><time>2026-04-18T17:30:16.516Z</time></trkpt><trkpt lat="45.5992651" lon="12.3177819"><ele>4.142857142857142</ele><time>2026-04-18T17:30:18.52Z</time></trkpt><trkpt lat="45.5992667" lon="12.3176894"><ele>4.428571428571429</ele><time>2026-04-18T17:30:20.515Z</time></trkpt><trkpt lat="45.5992241" lon="12.3176056"><ele>4.714285714285714</ele><time>2026-04-18T17:30:23.526Z</time></trkpt><trkpt lat="45.5991731" lon="12.317541"><ele>5.0</ele><time>2026-04-18T17:30:25.519Z</time></trkpt><trkpt lat="45.5990934" lon="12.3174572"><ele>5.0</ele><time>2026-04-18T17:30:27.52Z</time></trkpt><trkpt lat="45.5989962" lon="12.3173664"><ele>5.0</ele><time>2026-04-18T17:30:29.538Z</time></trkpt><trkpt lat="45.5988988" lon="12.3172862"><ele>5.0</ele><time>2026-04-18T17:30:31.533Z</time></trkpt><trkpt lat="45.5988239" lon="12.3172011"><ele>5.0</ele><time>2026-04-18T17:30:33.522Z</time></trkpt><trkpt lat="45.5987615" lon="12.3171084"><ele>5.0</ele><time>2026-04-18T17:30:35.519Z</time></trkpt><trkpt lat="45.5987018" lon="12.3170246"><ele>5.0</ele><time>2026-04-18T17:30:37.517Z</time></trkpt><trkpt lat="45.5986351" lon="12.3169482"><ele>5.0</ele><time>2026-04-18T17:30:39.534Z</time></trkpt><trkpt lat="45.5985443" lon="12.3168406"><ele>5.0</ele><time>2026-04-18T17:30:41.531Z</time></trkpt><trkpt lat="45.59846" lon="12.3167401"><ele>5.0</ele><time>2026-04-18T17:30:43.528Z</time></trkpt><trkpt lat="45.5983778" lon="12.3166457"><ele>5.0</ele><time>2026-04-18T17:30:45.526Z</time></trkpt><trkpt lat="45.598309" lon="12.316561"><ele>5.0</ele><time>2026-04-18T17:30:47.536Z</time></trkpt><trkpt lat="45.5982421" lon="12.3164773"><ele>5.0</ele><time>2026-04-18T17:30:49.516Z</time></trkpt><trkpt lat="45.5981719" lon="12.316398"><ele>5.0</ele><time>2026-04-18T17:30:51.523Z</time></trkpt><trkpt lat="45.5980877" lon="12.3162855"><ele>5.0</ele><time>2026-04-18T17:30:53.521Z</time></trkpt><trkpt lat="45.5980159" lon="12.316192"><ele>5.0</ele><time>2026-04-18T17:30:55.516Z</time></trkpt><trkpt lat="45.5979511" lon="12.3161033"><ele>4.8</ele><time>2026-04-18T17:30:57.525Z</time></trkpt><trkpt lat="45.5978875" lon="12.3160116"><ele>4.6</ele><time>2026-04-18T17:30:59.52Z</time></trkpt><trkpt lat="45.5978235" lon="12.315881"><ele>4.4</ele><time>2026-04-18T17:31:01.527Z</time></trkpt><trkpt lat="45.5977565" lon="12.3157388"><ele>4.2</ele><time>2026-04-18T17:31:03.528Z</time></trkpt><trkpt lat="45.5977011" lon="12.3156086"><ele>4.0</ele><time>2026-04-18T17:31:05.535Z</time></trkpt><trkpt lat="45.5976675" lon="12.3154701"><ele>3.6</ele><time>2026-04-18T17:31:07.53Z</time></trkpt><trkpt lat="45.5976488" lon="12.3153645"><ele>3.2</ele><time>2026-04-18T17:31:09.519Z</time></trkpt><trkpt lat="45.5976493" lon="12.3152231"><ele>2.8000000000000003</ele><time>2026-04-18T17:31:11.52Z</time></trkpt><trkpt lat="45.597629" lon="12.3150541"><ele>2.4000000000000004</ele><time>2026-04-18T17:31:13.52Z</time></trkpt><trkpt lat="45.5976061" lon="12.3149188"><ele>2.0</ele><time>2026-04-18T17:31:15.515Z</time></trkpt><trkpt lat="45.5975908" lon="12.3147775"><ele>2.1666666666666665</ele><time>2026-04-18T17:31:17.522Z</time></trkpt><trkpt lat="45.5975693" lon="12.314633"><ele>2.333333333333333</ele><time>2026-04-18T17:31:19.52Z</time></trkpt><trkpt lat="45.5975531" lon="12.3145222"><ele>2.5</ele><time>2026-04-18T17:31:21.524Z</time></trkpt><trkpt lat="45.5975348" lon="12.3144202"><ele>2.6666666666666665</ele><time>2026-04-18T17:31:23.55Z</time></trkpt><trkpt lat="45.5975118" lon="12.3143104"><ele>2.8333333333333335</ele><time>2026-04-18T17:31:25.526Z</time></trkpt><trkpt lat="45.5974814" lon="12.3141934"><ele>3.0</ele><time>2026-04-18T17:31:27.532Z</time></trkpt><trkpt lat="45.5974526" lon="12.3140555"><ele>3.0</ele><time>2026-04-18T17:31:29.526Z</time></trkpt><trkpt lat="45.5974242" lon="12.3139238"><ele>3.0</ele><time>2026-04-18T17:31:31.52Z</time></trkpt><trkpt lat="45.5973808" lon="12.313814"><ele>3.0</ele><time>2026-04-18T17:31:33.519Z</time></trkpt><trkpt lat="45.5973028" lon="12.3137579"><ele>3.0</ele><time>2026-04-18T17:31:35.529Z</time></trkpt><trkpt lat="45.5972313" lon="12.3137055"><ele>3.0</ele><time>2026-04-18T17:31:37.517Z</time></trkpt><trkpt lat="45.597155" lon="12.3136335"><ele>3.0</ele><time>2026-04-18T17:31:39.522Z</time></trkpt><trkpt lat="45.5970758" lon="12.313551"><ele>3.0</ele><time>2026-04-18T17:31:41.528Z</time></trkpt><trkpt lat="45.5969935" lon="12.3134691"><ele>3.0</ele><time>2026-04-18T17:31:43.526Z</time></trkpt><trkpt lat="45.5969262" lon="12.3133989"><ele>3.0</ele><time>2026-04-18T17:31:45.519Z</time></trkpt><trkpt lat="45.5968538" lon="12.3133387"><ele>3.0</ele><time>2026-04-18T17:31:47.529Z</time></trkpt><trkpt lat="45.5967891" lon="12.3132728"><ele>3.0</ele><time>2026-04-18T17:31:49.524Z</time></trkpt><trkpt lat="45.596706" lon="12.3132014"><ele>3.0</ele><time>2026-04-18T17:31:52.516Z</time></trkpt><trkpt lat="45.5966485" lon="12.3131473"><ele>3.0</ele><time>2026-04-18T17:31:54.525Z</time></trkpt><trkpt lat="45.5965774" lon="12.3130853"><ele>3.0</ele><time>2026-04-18T17:31:56.521Z</time></trkpt><trkpt lat="45.5964951" lon="12.3130223"><ele>3.0</ele><time>2026-04-18T17:31:58.544Z</time></trkpt><trkpt lat="45.5964087" lon="12.3129545"><ele>3.0</ele><time>2026-04-18T17:32:00.525Z</time></trkpt><trkpt lat="45.596334" lon="12.3128853"><ele>3.0</ele><time>2026-04-18T17:32:02.526Z</time></trkpt><trkpt lat="45.5962764" lon="12.3128223"><ele>3.0</ele><time>2026-04-18T17:32:04.529Z</time></trkpt><trkpt lat="45.5962272" lon="12.312755"><ele>2.8333333333333335</ele><time>2026-04-18T17:32:06.535Z</time></trkpt><trkpt lat="45.5961705" lon="12.3126777"><ele>2.6666666666666665</ele><time>2026-04-18T17:32:08.542Z</time></trkpt><trkpt lat="45.596114" lon="12.3126033"><ele>2.5</ele><time>2026-04-18T17:32:10.519Z</time></trkpt><trkpt lat="45.5960622" lon="12.3125399"><ele>2.333333333333333</ele><time>2026-04-18T17:32:12.517Z</time></trkpt><trkpt lat="45.5960023" lon="12.312463"><ele>2.1666666666666665</ele><time>2026-04-18T17:32:14.54Z</time></trkpt><trkpt lat="45.5959441" lon="12.3123925"><ele>2.0</ele><time>2026-04-18T17:32:16.525Z</time></trkpt><trkpt lat="45.5958889" lon="12.3123297"><ele>2.1666666666666665</ele><time>2026-04-18T17:32:18.522Z</time></trkpt><trkpt lat="45.5958176" lon="12.3122443"><ele>2.333333333333333</ele><time>2026-04-18T17:32:21.547Z</time></trkpt><trkpt lat="45.595771" lon="12.312183"><ele>2.5</ele><time>2026-04-18T17:32:23.537Z</time></trkpt><trkpt lat="45.5957039" lon="12.3121059"><ele>2.6666666666666665</ele><time>2026-04-18T17:32:26.53Z</time></trkpt><trkpt lat="45.5956411" lon="12.3121634"><ele>2.8333333333333335</ele><time>2026-04-18T17:32:30.515Z</time></trkpt><trkpt lat="45.5955867" lon="12.3122589"><ele>3.0</ele><time>2026-04-18T17:32:34.52Z</time></trkpt><trkpt lat="45.5955268" lon="12.3123493"><ele>4.0</ele><time>2026-04-18T17:32:37.53Z</time></trkpt><trkpt lat="45.5955023" lon="12.3124449"><ele>4.0</ele><time>2026-04-18T17:32:40.516Z</time></trkpt><trkpt lat="45.5954679" lon="12.3125408"><ele>4.0</ele><time>2026-04-18T17:32:44.532Z</time></trkpt><trkpt lat="45.5954461" lon="12.3126283"><ele>4.0</ele><time>2026-04-18T17:32:50.519Z</time></trkpt></trkseg></trk></gpx>